<?xml version="1.0" encoding="UTF-8" standalone="no" ?>
<gpx xmlns="http://www.topografix.com/GPX/1/1" xmlns:xsi="http://www.w3.org/2001/XMLSchema-instance" xsi:schemaLocation="http://www.topografix.com/GPX/1/1 http://www.topografix.com/GPX/1/1/gpx.xsd" version="1.1" creator="VisuGPX - https://www.visugpx.com">
  <metadata>
    <name>2018-06-19 Bike ride-Ambérieux-Rancé O 36k</name>
    <desc><![CDATA[2018-06-19 Bike ride-Ambérieux-Rancé O 36k]]></desc>
  </metadata>
  <wpt lat="45.92459" lon="4.73727">
    <ele>174</ele>
    <name><![CDATA[2018-06-19 10:20 (Start)]]></name>
  </wpt>
  <wpt lat="45.92459" lon="4.7371">
    <ele>174</ele>
    <name><![CDATA[2018-06-19 10:20 (End)]]></name>
  </wpt>
  <trk>
    <name><![CDATA[2018-06-19 10:20]]></name>
    <trkseg>
      <trkpt lat="45.92459" lon="4.73727">
        <ele>174</ele>
        <time>2018-06-19T08:20:02.724Z</time>
      </trkpt>
      <trkpt lat="45.92465" lon="4.73718">
        <ele>174</ele>
        <time>2018-06-19T08:20:23Z</time>
      </trkpt>
      <trkpt lat="45.92465" lon="4.73714">
        <ele>174</ele>
        <time>2018-06-19T08:20:24Z</time>
      </trkpt>
      <trkpt lat="45.92466" lon="4.73701">
        <ele>174</ele>
        <time>2018-06-19T08:20:27Z</time>
      </trkpt>
      <trkpt lat="45.92467" lon="4.73696">
        <ele>174</ele>
        <time>2018-06-19T08:20:28Z</time>
      </trkpt>
      <trkpt lat="45.92468" lon="4.73687">
        <ele>174</ele>
        <time>2018-06-19T08:20:30Z</time>
      </trkpt>
      <trkpt lat="45.92469" lon="4.73683">
        <ele>174</ele>
        <time>2018-06-19T08:20:31Z</time>
      </trkpt>
      <trkpt lat="45.9247" lon="4.73678">
        <ele>174</ele>
        <time>2018-06-19T08:20:32Z</time>
      </trkpt>
      <trkpt lat="45.92473" lon="4.73667">
        <ele>174</ele>
        <time>2018-06-19T08:20:33Z</time>
      </trkpt>
      <trkpt lat="45.92476" lon="4.73655">
        <ele>174</ele>
        <time>2018-06-19T08:20:37Z</time>
      </trkpt>
      <trkpt lat="45.92477" lon="4.73652">
        <ele>174</ele>
        <time>2018-06-19T08:20:38Z</time>
      </trkpt>
      <trkpt lat="45.92483" lon="4.73645">
        <ele>174</ele>
        <time>2018-06-19T08:20:40Z</time>
      </trkpt>
      <trkpt lat="45.92488" lon="4.73646">
        <ele>174</ele>
        <time>2018-06-19T08:20:41Z</time>
      </trkpt>
      <trkpt lat="45.92493" lon="4.73647">
        <ele>174</ele>
        <time>2018-06-19T08:20:43Z</time>
      </trkpt>
      <trkpt lat="45.92499" lon="4.73649">
        <ele>174</ele>
        <time>2018-06-19T08:20:44Z</time>
      </trkpt>
      <trkpt lat="45.92507" lon="4.73651">
        <ele>174</ele>
        <time>2018-06-19T08:20:47Z</time>
      </trkpt>
      <trkpt lat="45.92514" lon="4.73652">
        <ele>174</ele>
        <time>2018-06-19T08:20:48Z</time>
      </trkpt>
      <trkpt lat="45.92522" lon="4.73651">
        <ele>174</ele>
        <time>2018-06-19T08:20:50Z</time>
      </trkpt>
      <trkpt lat="45.92526" lon="4.73651">
        <ele>173</ele>
        <time>2018-06-19T08:20:51Z</time>
      </trkpt>
      <trkpt lat="45.92531" lon="4.73648">
        <ele>173</ele>
        <time>2018-06-19T08:20:52Z</time>
      </trkpt>
      <trkpt lat="45.92535" lon="4.73646">
        <ele>173</ele>
        <time>2018-06-19T08:20:53Z</time>
      </trkpt>
      <trkpt lat="45.92542" lon="4.73645">
        <ele>173</ele>
        <time>2018-06-19T08:20:55Z</time>
      </trkpt>
      <trkpt lat="45.92546" lon="4.73645">
        <ele>173</ele>
        <time>2018-06-19T08:20:56Z</time>
      </trkpt>
      <trkpt lat="45.92553" lon="4.73643">
        <ele>173</ele>
        <time>2018-06-19T08:20:58Z</time>
      </trkpt>
      <trkpt lat="45.92558" lon="4.73642">
        <ele>173</ele>
        <time>2018-06-19T08:20:59Z</time>
      </trkpt>
      <trkpt lat="45.92563" lon="4.73641">
        <ele>173</ele>
        <time>2018-06-19T08:21:00Z</time>
      </trkpt>
      <trkpt lat="45.92567" lon="4.73641">
        <ele>173</ele>
        <time>2018-06-19T08:21:01Z</time>
      </trkpt>
      <trkpt lat="45.92576" lon="4.73639">
        <ele>172</ele>
        <time>2018-06-19T08:21:03Z</time>
      </trkpt>
      <trkpt lat="45.92579" lon="4.73638">
        <ele>172</ele>
        <time>2018-06-19T08:21:04Z</time>
      </trkpt>
      <trkpt lat="45.92585" lon="4.73637">
        <ele>172</ele>
        <time>2018-06-19T08:21:06Z</time>
      </trkpt>
      <trkpt lat="45.92592" lon="4.73635">
        <ele>172</ele>
        <time>2018-06-19T08:21:07Z</time>
      </trkpt>
      <trkpt lat="45.92601" lon="4.73634">
        <ele>172</ele>
        <time>2018-06-19T08:21:09Z</time>
      </trkpt>
      <trkpt lat="45.92606" lon="4.73633">
        <ele>173</ele>
        <time>2018-06-19T08:21:10Z</time>
      </trkpt>
      <trkpt lat="45.92615" lon="4.73631">
        <ele>173</ele>
        <time>2018-06-19T08:21:12Z</time>
      </trkpt>
      <trkpt lat="45.92618" lon="4.73634">
        <ele>173</ele>
        <time>2018-06-19T08:21:13Z</time>
      </trkpt>
      <trkpt lat="45.92619" lon="4.73641">
        <ele>173</ele>
        <time>2018-06-19T08:21:14Z</time>
      </trkpt>
      <trkpt lat="45.92624" lon="4.73644">
        <ele>173</ele>
        <time>2018-06-19T08:21:15Z</time>
      </trkpt>
      <trkpt lat="45.92626" lon="4.7365">
        <ele>173</ele>
        <time>2018-06-19T08:21:16Z</time>
      </trkpt>
      <trkpt lat="45.92631" lon="4.73656">
        <ele>173</ele>
        <time>2018-06-19T08:21:17Z</time>
      </trkpt>
      <trkpt lat="45.92634" lon="4.73662">
        <ele>173</ele>
        <time>2018-06-19T08:21:18Z</time>
      </trkpt>
      <trkpt lat="45.92636" lon="4.73668">
        <ele>173</ele>
        <time>2018-06-19T08:21:19Z</time>
      </trkpt>
      <trkpt lat="45.92639" lon="4.73673">
        <ele>173</ele>
        <time>2018-06-19T08:21:20Z</time>
      </trkpt>
      <trkpt lat="45.92643" lon="4.73678">
        <ele>173</ele>
        <time>2018-06-19T08:21:21Z</time>
      </trkpt>
      <trkpt lat="45.92646" lon="4.73684">
        <ele>173</ele>
        <time>2018-06-19T08:21:22Z</time>
      </trkpt>
      <trkpt lat="45.9265" lon="4.73689">
        <ele>173</ele>
        <time>2018-06-19T08:21:23Z</time>
      </trkpt>
      <trkpt lat="45.92654" lon="4.73694">
        <ele>173</ele>
        <time>2018-06-19T08:21:24Z</time>
      </trkpt>
      <trkpt lat="45.92658" lon="4.73698">
        <ele>173</ele>
        <time>2018-06-19T08:21:25Z</time>
      </trkpt>
      <trkpt lat="45.92664" lon="4.73702">
        <ele>173</ele>
        <time>2018-06-19T08:21:26Z</time>
      </trkpt>
      <trkpt lat="45.9267" lon="4.73706">
        <ele>174</ele>
        <time>2018-06-19T08:21:27Z</time>
      </trkpt>
      <trkpt lat="45.92675" lon="4.73708">
        <ele>174</ele>
        <time>2018-06-19T08:21:28Z</time>
      </trkpt>
      <trkpt lat="45.92679" lon="4.73711">
        <ele>173</ele>
        <time>2018-06-19T08:21:29Z</time>
      </trkpt>
      <trkpt lat="45.92684" lon="4.73712">
        <ele>173</ele>
        <time>2018-06-19T08:21:30Z</time>
      </trkpt>
      <trkpt lat="45.9269" lon="4.73713">
        <ele>173</ele>
        <time>2018-06-19T08:21:31Z</time>
      </trkpt>
      <trkpt lat="45.92694" lon="4.73715">
        <ele>173</ele>
        <time>2018-06-19T08:21:32Z</time>
      </trkpt>
      <trkpt lat="45.92699" lon="4.73717">
        <ele>173</ele>
        <time>2018-06-19T08:21:33Z</time>
      </trkpt>
      <trkpt lat="45.92705" lon="4.73719">
        <ele>173</ele>
        <time>2018-06-19T08:21:34Z</time>
      </trkpt>
      <trkpt lat="45.92709" lon="4.73721">
        <ele>173</ele>
        <time>2018-06-19T08:21:35Z</time>
      </trkpt>
      <trkpt lat="45.92714" lon="4.73722">
        <ele>173</ele>
        <time>2018-06-19T08:21:36Z</time>
      </trkpt>
      <trkpt lat="45.92719" lon="4.73723">
        <ele>173</ele>
        <time>2018-06-19T08:21:37Z</time>
      </trkpt>
      <trkpt lat="45.92724" lon="4.73724">
        <ele>173</ele>
        <time>2018-06-19T08:21:38Z</time>
      </trkpt>
      <trkpt lat="45.92729" lon="4.73727">
        <ele>173</ele>
        <time>2018-06-19T08:21:39Z</time>
      </trkpt>
      <trkpt lat="45.92735" lon="4.73728">
        <ele>173</ele>
        <time>2018-06-19T08:21:40Z</time>
      </trkpt>
      <trkpt lat="45.92739" lon="4.73729">
        <ele>173</ele>
        <time>2018-06-19T08:21:41Z</time>
      </trkpt>
      <trkpt lat="45.92745" lon="4.73729">
        <ele>173</ele>
        <time>2018-06-19T08:21:42Z</time>
      </trkpt>
      <trkpt lat="45.92749" lon="4.7373">
        <ele>173</ele>
        <time>2018-06-19T08:21:43Z</time>
      </trkpt>
      <trkpt lat="45.92754" lon="4.73731">
        <ele>172</ele>
        <time>2018-06-19T08:21:44Z</time>
      </trkpt>
      <trkpt lat="45.92759" lon="4.73731">
        <ele>172</ele>
        <time>2018-06-19T08:21:45Z</time>
      </trkpt>
      <trkpt lat="45.92763" lon="4.73733">
        <ele>172</ele>
        <time>2018-06-19T08:21:46Z</time>
      </trkpt>
      <trkpt lat="45.92769" lon="4.73731">
        <ele>172</ele>
        <time>2018-06-19T08:21:47Z</time>
      </trkpt>
      <trkpt lat="45.92773" lon="4.73731">
        <ele>172</ele>
        <time>2018-06-19T08:21:48Z</time>
      </trkpt>
      <trkpt lat="45.92778" lon="4.73732">
        <ele>172</ele>
        <time>2018-06-19T08:21:49Z</time>
      </trkpt>
      <trkpt lat="45.92782" lon="4.73735">
        <ele>172</ele>
        <time>2018-06-19T08:21:51Z</time>
      </trkpt>
      <trkpt lat="45.92789" lon="4.7374">
        <ele>172</ele>
        <time>2018-06-19T08:21:52Z</time>
      </trkpt>
      <trkpt lat="45.92789" lon="4.73749">
        <ele>172</ele>
        <time>2018-06-19T08:21:56Z</time>
      </trkpt>
      <trkpt lat="45.92795" lon="4.73756">
        <ele>173</ele>
        <time>2018-06-19T08:21:57Z</time>
      </trkpt>
      <trkpt lat="45.92801" lon="4.73762">
        <ele>173</ele>
        <time>2018-06-19T08:21:59Z</time>
      </trkpt>
      <trkpt lat="45.92805" lon="4.73763">
        <ele>173</ele>
        <time>2018-06-19T08:22:00Z</time>
      </trkpt>
      <trkpt lat="45.9281" lon="4.73767">
        <ele>173</ele>
        <time>2018-06-19T08:22:01Z</time>
      </trkpt>
      <trkpt lat="45.92814" lon="4.7377">
        <ele>173</ele>
        <time>2018-06-19T08:22:02Z</time>
      </trkpt>
      <trkpt lat="45.92819" lon="4.73773">
        <ele>173</ele>
        <time>2018-06-19T08:22:03Z</time>
      </trkpt>
      <trkpt lat="45.92823" lon="4.73777">
        <ele>173</ele>
        <time>2018-06-19T08:22:04Z</time>
      </trkpt>
      <trkpt lat="45.92828" lon="4.73779">
        <ele>173</ele>
        <time>2018-06-19T08:22:05Z</time>
      </trkpt>
      <trkpt lat="45.92833" lon="4.73782">
        <ele>173</ele>
        <time>2018-06-19T08:22:06Z</time>
      </trkpt>
      <trkpt lat="45.92838" lon="4.73785">
        <ele>173</ele>
        <time>2018-06-19T08:22:07Z</time>
      </trkpt>
      <trkpt lat="45.92842" lon="4.73789">
        <ele>173</ele>
        <time>2018-06-19T08:22:08Z</time>
      </trkpt>
      <trkpt lat="45.92848" lon="4.73793">
        <ele>173</ele>
        <time>2018-06-19T08:22:10Z</time>
      </trkpt>
      <trkpt lat="45.92852" lon="4.73799">
        <ele>173</ele>
        <time>2018-06-19T08:22:11Z</time>
      </trkpt>
      <trkpt lat="45.92854" lon="4.73806">
        <ele>173</ele>
        <time>2018-06-19T08:22:12Z</time>
      </trkpt>
      <trkpt lat="45.92857" lon="4.7381">
        <ele>173</ele>
        <time>2018-06-19T08:22:13Z</time>
      </trkpt>
      <trkpt lat="45.92859" lon="4.73816">
        <ele>173</ele>
        <time>2018-06-19T08:22:14Z</time>
      </trkpt>
      <trkpt lat="45.9286" lon="4.73823">
        <ele>173</ele>
        <time>2018-06-19T08:22:15Z</time>
      </trkpt>
      <trkpt lat="45.92862" lon="4.73829">
        <ele>173</ele>
        <time>2018-06-19T08:22:16Z</time>
      </trkpt>
      <trkpt lat="45.92864" lon="4.73838">
        <ele>173</ele>
        <time>2018-06-19T08:22:17Z</time>
      </trkpt>
      <trkpt lat="45.92866" lon="4.73847">
        <ele>173</ele>
        <time>2018-06-19T08:22:18Z</time>
      </trkpt>
      <trkpt lat="45.92869" lon="4.73854">
        <ele>173</ele>
        <time>2018-06-19T08:22:19Z</time>
      </trkpt>
      <trkpt lat="45.9287" lon="4.73862">
        <ele>173</ele>
        <time>2018-06-19T08:22:20Z</time>
      </trkpt>
      <trkpt lat="45.92872" lon="4.73867">
        <ele>173</ele>
        <time>2018-06-19T08:22:21Z</time>
      </trkpt>
      <trkpt lat="45.92875" lon="4.73875">
        <ele>173</ele>
        <time>2018-06-19T08:22:22Z</time>
      </trkpt>
      <trkpt lat="45.92876" lon="4.73883">
        <ele>173</ele>
        <time>2018-06-19T08:22:23Z</time>
      </trkpt>
      <trkpt lat="45.92879" lon="4.73893">
        <ele>173</ele>
        <time>2018-06-19T08:22:25Z</time>
      </trkpt>
      <trkpt lat="45.92879" lon="4.73901">
        <ele>173</ele>
        <time>2018-06-19T08:22:26Z</time>
      </trkpt>
      <trkpt lat="45.9288" lon="4.73906">
        <ele>173</ele>
        <time>2018-06-19T08:22:27Z</time>
      </trkpt>
      <trkpt lat="45.92881" lon="4.73915">
        <ele>173</ele>
        <time>2018-06-19T08:22:28Z</time>
      </trkpt>
      <trkpt lat="45.92883" lon="4.73924">
        <ele>172</ele>
        <time>2018-06-19T08:22:29Z</time>
      </trkpt>
      <trkpt lat="45.92884" lon="4.73932">
        <ele>172</ele>
        <time>2018-06-19T08:22:30Z</time>
      </trkpt>
      <trkpt lat="45.92885" lon="4.73938">
        <ele>172</ele>
        <time>2018-06-19T08:22:31Z</time>
      </trkpt>
      <trkpt lat="45.92884" lon="4.73947">
        <ele>172</ele>
        <time>2018-06-19T08:22:32Z</time>
      </trkpt>
      <trkpt lat="45.92887" lon="4.73955">
        <ele>172</ele>
        <time>2018-06-19T08:22:33Z</time>
      </trkpt>
      <trkpt lat="45.92886" lon="4.73962">
        <ele>172</ele>
        <time>2018-06-19T08:22:34Z</time>
      </trkpt>
      <trkpt lat="45.92888" lon="4.73968">
        <ele>172</ele>
        <time>2018-06-19T08:22:35Z</time>
      </trkpt>
      <trkpt lat="45.92887" lon="4.73975">
        <ele>172</ele>
        <time>2018-06-19T08:22:36Z</time>
      </trkpt>
      <trkpt lat="45.92887" lon="4.7398">
        <ele>172</ele>
        <time>2018-06-19T08:22:37Z</time>
      </trkpt>
      <trkpt lat="45.92885" lon="4.73988">
        <ele>172</ele>
        <time>2018-06-19T08:22:38Z</time>
      </trkpt>
      <trkpt lat="45.92885" lon="4.74001">
        <ele>172</ele>
        <time>2018-06-19T08:22:40Z</time>
      </trkpt>
      <trkpt lat="45.92884" lon="4.74006">
        <ele>172</ele>
        <time>2018-06-19T08:22:41Z</time>
      </trkpt>
      <trkpt lat="45.92881" lon="4.74019">
        <ele>172</ele>
        <time>2018-06-19T08:22:43Z</time>
      </trkpt>
      <trkpt lat="45.92878" lon="4.74025">
        <ele>172</ele>
        <time>2018-06-19T08:22:44Z</time>
      </trkpt>
      <trkpt lat="45.92876" lon="4.74031">
        <ele>172</ele>
        <time>2018-06-19T08:22:45Z</time>
      </trkpt>
      <trkpt lat="45.92875" lon="4.74037">
        <ele>172</ele>
        <time>2018-06-19T08:22:46Z</time>
      </trkpt>
      <trkpt lat="45.92873" lon="4.74043">
        <ele>172</ele>
        <time>2018-06-19T08:22:47Z</time>
      </trkpt>
      <trkpt lat="45.9287" lon="4.74048">
        <ele>172</ele>
        <time>2018-06-19T08:22:48Z</time>
      </trkpt>
      <trkpt lat="45.92867" lon="4.74055">
        <ele>172</ele>
        <time>2018-06-19T08:22:49Z</time>
      </trkpt>
      <trkpt lat="45.92863" lon="4.74059">
        <ele>172</ele>
        <time>2018-06-19T08:22:50Z</time>
      </trkpt>
      <trkpt lat="45.92859" lon="4.74066">
        <ele>172</ele>
        <time>2018-06-19T08:22:51Z</time>
      </trkpt>
      <trkpt lat="45.92855" lon="4.74071">
        <ele>172</ele>
        <time>2018-06-19T08:22:52Z</time>
      </trkpt>
      <trkpt lat="45.92851" lon="4.74077">
        <ele>172</ele>
        <time>2018-06-19T08:22:53Z</time>
      </trkpt>
      <trkpt lat="45.92847" lon="4.74081">
        <ele>172</ele>
        <time>2018-06-19T08:22:54Z</time>
      </trkpt>
      <trkpt lat="45.92843" lon="4.74086">
        <ele>171</ele>
        <time>2018-06-19T08:22:55Z</time>
      </trkpt>
      <trkpt lat="45.92838" lon="4.7409">
        <ele>171</ele>
        <time>2018-06-19T08:22:56Z</time>
      </trkpt>
      <trkpt lat="45.92833" lon="4.74095">
        <ele>171</ele>
        <time>2018-06-19T08:22:57Z</time>
      </trkpt>
      <trkpt lat="45.92828" lon="4.74099">
        <ele>171</ele>
        <time>2018-06-19T08:22:58Z</time>
      </trkpt>
      <trkpt lat="45.92823" lon="4.74104">
        <ele>171</ele>
        <time>2018-06-19T08:22:59Z</time>
      </trkpt>
      <trkpt lat="45.92818" lon="4.74109">
        <ele>172</ele>
        <time>2018-06-19T08:23:00Z</time>
      </trkpt>
      <trkpt lat="45.92813" lon="4.74114">
        <ele>172</ele>
        <time>2018-06-19T08:23:01Z</time>
      </trkpt>
      <trkpt lat="45.92809" lon="4.7412">
        <ele>172</ele>
        <time>2018-06-19T08:23:02Z</time>
      </trkpt>
      <trkpt lat="45.92805" lon="4.74126">
        <ele>172</ele>
        <time>2018-06-19T08:23:03Z</time>
      </trkpt>
      <trkpt lat="45.928" lon="4.74131">
        <ele>172</ele>
        <time>2018-06-19T08:23:04Z</time>
      </trkpt>
      <trkpt lat="45.92795" lon="4.74135">
        <ele>172</ele>
        <time>2018-06-19T08:23:05Z</time>
      </trkpt>
      <trkpt lat="45.9279" lon="4.7414">
        <ele>172</ele>
        <time>2018-06-19T08:23:06Z</time>
      </trkpt>
      <trkpt lat="45.92785" lon="4.74145">
        <ele>172</ele>
        <time>2018-06-19T08:23:07Z</time>
      </trkpt>
      <trkpt lat="45.9278" lon="4.7415">
        <ele>172</ele>
        <time>2018-06-19T08:23:08Z</time>
      </trkpt>
      <trkpt lat="45.92775" lon="4.74156">
        <ele>172</ele>
        <time>2018-06-19T08:23:09Z</time>
      </trkpt>
      <trkpt lat="45.92771" lon="4.74163">
        <ele>172</ele>
        <time>2018-06-19T08:23:10Z</time>
      </trkpt>
      <trkpt lat="45.92765" lon="4.74168">
        <ele>172</ele>
        <time>2018-06-19T08:23:11Z</time>
      </trkpt>
      <trkpt lat="45.92761" lon="4.74174">
        <ele>172</ele>
        <time>2018-06-19T08:23:12Z</time>
      </trkpt>
      <trkpt lat="45.92756" lon="4.7418">
        <ele>172</ele>
        <time>2018-06-19T08:23:13Z</time>
      </trkpt>
      <trkpt lat="45.92751" lon="4.74187">
        <ele>172</ele>
        <time>2018-06-19T08:23:14Z</time>
      </trkpt>
      <trkpt lat="45.92746" lon="4.74193">
        <ele>171</ele>
        <time>2018-06-19T08:23:15Z</time>
      </trkpt>
      <trkpt lat="45.92741" lon="4.74198">
        <ele>171</ele>
        <time>2018-06-19T08:23:16Z</time>
      </trkpt>
      <trkpt lat="45.92736" lon="4.74204">
        <ele>171</ele>
        <time>2018-06-19T08:23:17Z</time>
      </trkpt>
      <trkpt lat="45.92732" lon="4.74209">
        <ele>171</ele>
        <time>2018-06-19T08:23:18Z</time>
      </trkpt>
      <trkpt lat="45.92728" lon="4.74215">
        <ele>171</ele>
        <time>2018-06-19T08:23:19Z</time>
      </trkpt>
      <trkpt lat="45.92724" lon="4.7422">
        <ele>171</ele>
        <time>2018-06-19T08:23:20Z</time>
      </trkpt>
      <trkpt lat="45.9272" lon="4.74227">
        <ele>171</ele>
        <time>2018-06-19T08:23:21Z</time>
      </trkpt>
      <trkpt lat="45.92715" lon="4.74234">
        <ele>171</ele>
        <time>2018-06-19T08:23:22Z</time>
      </trkpt>
      <trkpt lat="45.9271" lon="4.7424">
        <ele>171</ele>
        <time>2018-06-19T08:23:23Z</time>
      </trkpt>
      <trkpt lat="45.92706" lon="4.74247">
        <ele>171</ele>
        <time>2018-06-19T08:23:24Z</time>
      </trkpt>
      <trkpt lat="45.92702" lon="4.74253">
        <ele>171</ele>
        <time>2018-06-19T08:23:25Z</time>
      </trkpt>
      <trkpt lat="45.92698" lon="4.74261">
        <ele>171</ele>
        <time>2018-06-19T08:23:26Z</time>
      </trkpt>
      <trkpt lat="45.92694" lon="4.74268">
        <ele>171</ele>
        <time>2018-06-19T08:23:27Z</time>
      </trkpt>
      <trkpt lat="45.9269" lon="4.74275">
        <ele>171</ele>
        <time>2018-06-19T08:23:28Z</time>
      </trkpt>
      <trkpt lat="45.92685" lon="4.74282">
        <ele>171</ele>
        <time>2018-06-19T08:23:29Z</time>
      </trkpt>
      <trkpt lat="45.92682" lon="4.74289">
        <ele>171</ele>
        <time>2018-06-19T08:23:30Z</time>
      </trkpt>
      <trkpt lat="45.92678" lon="4.74295">
        <ele>171</ele>
        <time>2018-06-19T08:23:31Z</time>
      </trkpt>
      <trkpt lat="45.92674" lon="4.74302">
        <ele>171</ele>
        <time>2018-06-19T08:23:32Z</time>
      </trkpt>
      <trkpt lat="45.9267" lon="4.7431">
        <ele>171</ele>
        <time>2018-06-19T08:23:33Z</time>
      </trkpt>
      <trkpt lat="45.92667" lon="4.74318">
        <ele>171</ele>
        <time>2018-06-19T08:23:34Z</time>
      </trkpt>
      <trkpt lat="45.92663" lon="4.74325">
        <ele>171</ele>
        <time>2018-06-19T08:23:35Z</time>
      </trkpt>
      <trkpt lat="45.92658" lon="4.74331">
        <ele>171</ele>
        <time>2018-06-19T08:23:36Z</time>
      </trkpt>
      <trkpt lat="45.92654" lon="4.74338">
        <ele>171</ele>
        <time>2018-06-19T08:23:37Z</time>
      </trkpt>
      <trkpt lat="45.9265" lon="4.74346">
        <ele>171</ele>
        <time>2018-06-19T08:23:38Z</time>
      </trkpt>
      <trkpt lat="45.92646" lon="4.74354">
        <ele>171</ele>
        <time>2018-06-19T08:23:39Z</time>
      </trkpt>
      <trkpt lat="45.92642" lon="4.74361">
        <ele>171</ele>
        <time>2018-06-19T08:23:40Z</time>
      </trkpt>
      <trkpt lat="45.92638" lon="4.74367">
        <ele>171</ele>
        <time>2018-06-19T08:23:41Z</time>
      </trkpt>
      <trkpt lat="45.92634" lon="4.74374">
        <ele>171</ele>
        <time>2018-06-19T08:23:42Z</time>
      </trkpt>
      <trkpt lat="45.92629" lon="4.74381">
        <ele>170</ele>
        <time>2018-06-19T08:23:43Z</time>
      </trkpt>
      <trkpt lat="45.92625" lon="4.74388">
        <ele>170</ele>
        <time>2018-06-19T08:23:44Z</time>
      </trkpt>
      <trkpt lat="45.92622" lon="4.74395">
        <ele>170</ele>
        <time>2018-06-19T08:23:45Z</time>
      </trkpt>
      <trkpt lat="45.92617" lon="4.74402">
        <ele>170</ele>
        <time>2018-06-19T08:23:46Z</time>
      </trkpt>
      <trkpt lat="45.92613" lon="4.74408">
        <ele>170</ele>
        <time>2018-06-19T08:23:47Z</time>
      </trkpt>
      <trkpt lat="45.92609" lon="4.74415">
        <ele>170</ele>
        <time>2018-06-19T08:23:48Z</time>
      </trkpt>
      <trkpt lat="45.92606" lon="4.74421">
        <ele>170</ele>
        <time>2018-06-19T08:23:49Z</time>
      </trkpt>
      <trkpt lat="45.92601" lon="4.74428">
        <ele>170</ele>
        <time>2018-06-19T08:23:50Z</time>
      </trkpt>
      <trkpt lat="45.92598" lon="4.74435">
        <ele>170</ele>
        <time>2018-06-19T08:23:51Z</time>
      </trkpt>
      <trkpt lat="45.92593" lon="4.74442">
        <ele>170</ele>
        <time>2018-06-19T08:23:52Z</time>
      </trkpt>
      <trkpt lat="45.92589" lon="4.74449">
        <ele>170</ele>
        <time>2018-06-19T08:23:53Z</time>
      </trkpt>
      <trkpt lat="45.92586" lon="4.74457">
        <ele>170</ele>
        <time>2018-06-19T08:23:54Z</time>
      </trkpt>
      <trkpt lat="45.92582" lon="4.74465">
        <ele>170</ele>
        <time>2018-06-19T08:23:55Z</time>
      </trkpt>
      <trkpt lat="45.92577" lon="4.74473">
        <ele>170</ele>
        <time>2018-06-19T08:23:56Z</time>
      </trkpt>
      <trkpt lat="45.92573" lon="4.7448">
        <ele>170</ele>
        <time>2018-06-19T08:23:57Z</time>
      </trkpt>
      <trkpt lat="45.92569" lon="4.74487">
        <ele>170</ele>
        <time>2018-06-19T08:23:58Z</time>
      </trkpt>
      <trkpt lat="45.92565" lon="4.74495">
        <ele>170</ele>
        <time>2018-06-19T08:23:59Z</time>
      </trkpt>
      <trkpt lat="45.92561" lon="4.74503">
        <ele>170</ele>
        <time>2018-06-19T08:24:00Z</time>
      </trkpt>
      <trkpt lat="45.92557" lon="4.7451">
        <ele>170</ele>
        <time>2018-06-19T08:24:01Z</time>
      </trkpt>
      <trkpt lat="45.92552" lon="4.74518">
        <ele>170</ele>
        <time>2018-06-19T08:24:02Z</time>
      </trkpt>
      <trkpt lat="45.92548" lon="4.74526">
        <ele>170</ele>
        <time>2018-06-19T08:24:03Z</time>
      </trkpt>
      <trkpt lat="45.92543" lon="4.74534">
        <ele>170</ele>
        <time>2018-06-19T08:24:04Z</time>
      </trkpt>
      <trkpt lat="45.92539" lon="4.7454">
        <ele>171</ele>
        <time>2018-06-19T08:24:05Z</time>
      </trkpt>
      <trkpt lat="45.92534" lon="4.74546">
        <ele>171</ele>
        <time>2018-06-19T08:24:06Z</time>
      </trkpt>
      <trkpt lat="45.92529" lon="4.74554">
        <ele>171</ele>
        <time>2018-06-19T08:24:07Z</time>
      </trkpt>
      <trkpt lat="45.92523" lon="4.74559">
        <ele>171</ele>
        <time>2018-06-19T08:24:08Z</time>
      </trkpt>
      <trkpt lat="45.92518" lon="4.74567">
        <ele>171</ele>
        <time>2018-06-19T08:24:09Z</time>
      </trkpt>
      <trkpt lat="45.92513" lon="4.74573">
        <ele>171</ele>
        <time>2018-06-19T08:24:10Z</time>
      </trkpt>
      <trkpt lat="45.92507" lon="4.7458">
        <ele>171</ele>
        <time>2018-06-19T08:24:11Z</time>
      </trkpt>
      <trkpt lat="45.92502" lon="4.74585">
        <ele>171</ele>
        <time>2018-06-19T08:24:12Z</time>
      </trkpt>
      <trkpt lat="45.92497" lon="4.74592">
        <ele>171</ele>
        <time>2018-06-19T08:24:13Z</time>
      </trkpt>
      <trkpt lat="45.92493" lon="4.74599">
        <ele>171</ele>
        <time>2018-06-19T08:24:14Z</time>
      </trkpt>
      <trkpt lat="45.92488" lon="4.74605">
        <ele>171</ele>
        <time>2018-06-19T08:24:15Z</time>
      </trkpt>
      <trkpt lat="45.92483" lon="4.74611">
        <ele>171</ele>
        <time>2018-06-19T08:24:16Z</time>
      </trkpt>
      <trkpt lat="45.9248" lon="4.74618">
        <ele>171</ele>
        <time>2018-06-19T08:24:17Z</time>
      </trkpt>
      <trkpt lat="45.92475" lon="4.74624">
        <ele>171</ele>
        <time>2018-06-19T08:24:18Z</time>
      </trkpt>
      <trkpt lat="45.92471" lon="4.74629">
        <ele>171</ele>
        <time>2018-06-19T08:24:19Z</time>
      </trkpt>
      <trkpt lat="45.92467" lon="4.74636">
        <ele>171</ele>
        <time>2018-06-19T08:24:20Z</time>
      </trkpt>
      <trkpt lat="45.92465" lon="4.74642">
        <ele>171</ele>
        <time>2018-06-19T08:24:21Z</time>
      </trkpt>
      <trkpt lat="45.92461" lon="4.74647">
        <ele>171</ele>
        <time>2018-06-19T08:24:22Z</time>
      </trkpt>
      <trkpt lat="45.92458" lon="4.74654">
        <ele>171</ele>
        <time>2018-06-19T08:24:23Z</time>
      </trkpt>
      <trkpt lat="45.92454" lon="4.7466">
        <ele>171</ele>
        <time>2018-06-19T08:24:24Z</time>
      </trkpt>
      <trkpt lat="45.92451" lon="4.74665">
        <ele>171</ele>
        <time>2018-06-19T08:24:25Z</time>
      </trkpt>
      <trkpt lat="45.92446" lon="4.74673">
        <ele>171</ele>
        <time>2018-06-19T08:24:26Z</time>
      </trkpt>
      <trkpt lat="45.92443" lon="4.74677">
        <ele>171</ele>
        <time>2018-06-19T08:24:27Z</time>
      </trkpt>
      <trkpt lat="45.92441" lon="4.74685">
        <ele>171</ele>
        <time>2018-06-19T08:24:28Z</time>
      </trkpt>
      <trkpt lat="45.9244" lon="4.74694">
        <ele>171</ele>
        <time>2018-06-19T08:24:29Z</time>
      </trkpt>
      <trkpt lat="45.92436" lon="4.747">
        <ele>171</ele>
        <time>2018-06-19T08:24:30Z</time>
      </trkpt>
      <trkpt lat="45.92434" lon="4.74709">
        <ele>171</ele>
        <time>2018-06-19T08:24:31Z</time>
      </trkpt>
      <trkpt lat="45.92431" lon="4.74716">
        <ele>171</ele>
        <time>2018-06-19T08:24:32Z</time>
      </trkpt>
      <trkpt lat="45.92428" lon="4.74723">
        <ele>171</ele>
        <time>2018-06-19T08:24:33Z</time>
      </trkpt>
      <trkpt lat="45.92425" lon="4.74731">
        <ele>171</ele>
        <time>2018-06-19T08:24:34Z</time>
      </trkpt>
      <trkpt lat="45.92422" lon="4.74739">
        <ele>172</ele>
        <time>2018-06-19T08:24:35Z</time>
      </trkpt>
      <trkpt lat="45.92419" lon="4.74748">
        <ele>172</ele>
        <time>2018-06-19T08:24:36Z</time>
      </trkpt>
      <trkpt lat="45.92417" lon="4.74757">
        <ele>172</ele>
        <time>2018-06-19T08:24:37Z</time>
      </trkpt>
      <trkpt lat="45.92415" lon="4.74765">
        <ele>172</ele>
        <time>2018-06-19T08:24:38Z</time>
      </trkpt>
      <trkpt lat="45.92414" lon="4.74774">
        <ele>171</ele>
        <time>2018-06-19T08:24:39Z</time>
      </trkpt>
      <trkpt lat="45.92412" lon="4.74783">
        <ele>171</ele>
        <time>2018-06-19T08:24:40Z</time>
      </trkpt>
      <trkpt lat="45.9241" lon="4.74792">
        <ele>171</ele>
        <time>2018-06-19T08:24:41Z</time>
      </trkpt>
      <trkpt lat="45.92408" lon="4.748">
        <ele>171</ele>
        <time>2018-06-19T08:24:42Z</time>
      </trkpt>
      <trkpt lat="45.92407" lon="4.74809">
        <ele>171</ele>
        <time>2018-06-19T08:24:43Z</time>
      </trkpt>
      <trkpt lat="45.92404" lon="4.74815">
        <ele>171</ele>
        <time>2018-06-19T08:24:44Z</time>
      </trkpt>
      <trkpt lat="45.92403" lon="4.74825">
        <ele>171</ele>
        <time>2018-06-19T08:24:45Z</time>
      </trkpt>
      <trkpt lat="45.924" lon="4.74834">
        <ele>171</ele>
        <time>2018-06-19T08:24:46Z</time>
      </trkpt>
      <trkpt lat="45.92398" lon="4.74841">
        <ele>171</ele>
        <time>2018-06-19T08:24:47Z</time>
      </trkpt>
      <trkpt lat="45.92396" lon="4.74851">
        <ele>171</ele>
        <time>2018-06-19T08:24:48Z</time>
      </trkpt>
      <trkpt lat="45.92393" lon="4.74859">
        <ele>171</ele>
        <time>2018-06-19T08:24:49Z</time>
      </trkpt>
      <trkpt lat="45.9239" lon="4.74868">
        <ele>171</ele>
        <time>2018-06-19T08:24:50Z</time>
      </trkpt>
      <trkpt lat="45.92387" lon="4.74875">
        <ele>171</ele>
        <time>2018-06-19T08:24:51Z</time>
      </trkpt>
      <trkpt lat="45.92384" lon="4.74885">
        <ele>171</ele>
        <time>2018-06-19T08:24:52Z</time>
      </trkpt>
      <trkpt lat="45.92381" lon="4.74892">
        <ele>171</ele>
        <time>2018-06-19T08:24:53Z</time>
      </trkpt>
      <trkpt lat="45.92378" lon="4.749">
        <ele>171</ele>
        <time>2018-06-19T08:24:54Z</time>
      </trkpt>
      <trkpt lat="45.92375" lon="4.7491">
        <ele>171</ele>
        <time>2018-06-19T08:24:55Z</time>
      </trkpt>
      <trkpt lat="45.92375" lon="4.74917">
        <ele>170</ele>
        <time>2018-06-19T08:24:56Z</time>
      </trkpt>
      <trkpt lat="45.92372" lon="4.74923">
        <ele>170</ele>
        <time>2018-06-19T08:24:57Z</time>
      </trkpt>
      <trkpt lat="45.92368" lon="4.74929">
        <ele>170</ele>
        <time>2018-06-19T08:24:58Z</time>
      </trkpt>
      <trkpt lat="45.92366" lon="4.74936">
        <ele>170</ele>
        <time>2018-06-19T08:24:59Z</time>
      </trkpt>
      <trkpt lat="45.92361" lon="4.74944">
        <ele>170</ele>
        <time>2018-06-19T08:25:00Z</time>
      </trkpt>
      <trkpt lat="45.9236" lon="4.74951">
        <ele>170</ele>
        <time>2018-06-19T08:25:01Z</time>
      </trkpt>
      <trkpt lat="45.92358" lon="4.74958">
        <ele>170</ele>
        <time>2018-06-19T08:25:02Z</time>
      </trkpt>
      <trkpt lat="45.92355" lon="4.74966">
        <ele>170</ele>
        <time>2018-06-19T08:25:03Z</time>
      </trkpt>
      <trkpt lat="45.92353" lon="4.74973">
        <ele>170</ele>
        <time>2018-06-19T08:25:04Z</time>
      </trkpt>
      <trkpt lat="45.92351" lon="4.74981">
        <ele>170</ele>
        <time>2018-06-19T08:25:05Z</time>
      </trkpt>
      <trkpt lat="45.92348" lon="4.74989">
        <ele>170</ele>
        <time>2018-06-19T08:25:06Z</time>
      </trkpt>
      <trkpt lat="45.92345" lon="4.74997">
        <ele>170</ele>
        <time>2018-06-19T08:25:07Z</time>
      </trkpt>
      <trkpt lat="45.92341" lon="4.75005">
        <ele>170</ele>
        <time>2018-06-19T08:25:08Z</time>
      </trkpt>
      <trkpt lat="45.92338" lon="4.75013">
        <ele>170</ele>
        <time>2018-06-19T08:25:09Z</time>
      </trkpt>
      <trkpt lat="45.92334" lon="4.75021">
        <ele>170</ele>
        <time>2018-06-19T08:25:10Z</time>
      </trkpt>
      <trkpt lat="45.9233" lon="4.75028">
        <ele>171</ele>
        <time>2018-06-19T08:25:11Z</time>
      </trkpt>
      <trkpt lat="45.92326" lon="4.75035">
        <ele>171</ele>
        <time>2018-06-19T08:25:12Z</time>
      </trkpt>
      <trkpt lat="45.92322" lon="4.75041">
        <ele>171</ele>
        <time>2018-06-19T08:25:13Z</time>
      </trkpt>
      <trkpt lat="45.92318" lon="4.75047">
        <ele>172</ele>
        <time>2018-06-19T08:25:14Z</time>
      </trkpt>
      <trkpt lat="45.92313" lon="4.75053">
        <ele>172</ele>
        <time>2018-06-19T08:25:15Z</time>
      </trkpt>
      <trkpt lat="45.9231" lon="4.7506">
        <ele>172</ele>
        <time>2018-06-19T08:25:16Z</time>
      </trkpt>
      <trkpt lat="45.92306" lon="4.75065">
        <ele>172</ele>
        <time>2018-06-19T08:25:17Z</time>
      </trkpt>
      <trkpt lat="45.92301" lon="4.75074">
        <ele>172</ele>
        <time>2018-06-19T08:25:18Z</time>
      </trkpt>
      <trkpt lat="45.92298" lon="4.75076">
        <ele>172</ele>
        <time>2018-06-19T08:25:19Z</time>
      </trkpt>
      <trkpt lat="45.92293" lon="4.75079">
        <ele>172</ele>
        <time>2018-06-19T08:25:20Z</time>
      </trkpt>
      <trkpt lat="45.92289" lon="4.75085">
        <ele>173</ele>
        <time>2018-06-19T08:25:21Z</time>
      </trkpt>
      <trkpt lat="45.92284" lon="4.7509">
        <ele>173</ele>
        <time>2018-06-19T08:25:22Z</time>
      </trkpt>
      <trkpt lat="45.9228" lon="4.75097">
        <ele>173</ele>
        <time>2018-06-19T08:25:23Z</time>
      </trkpt>
      <trkpt lat="45.92275" lon="4.75102">
        <ele>173</ele>
        <time>2018-06-19T08:25:24Z</time>
      </trkpt>
      <trkpt lat="45.92271" lon="4.7511">
        <ele>174</ele>
        <time>2018-06-19T08:25:25Z</time>
      </trkpt>
      <trkpt lat="45.92267" lon="4.75115">
        <ele>174</ele>
        <time>2018-06-19T08:25:26Z</time>
      </trkpt>
      <trkpt lat="45.92262" lon="4.7512">
        <ele>174</ele>
        <time>2018-06-19T08:25:27Z</time>
      </trkpt>
      <trkpt lat="45.92257" lon="4.75124">
        <ele>174</ele>
        <time>2018-06-19T08:25:28Z</time>
      </trkpt>
      <trkpt lat="45.92252" lon="4.75129">
        <ele>174</ele>
        <time>2018-06-19T08:25:29Z</time>
      </trkpt>
      <trkpt lat="45.92248" lon="4.75134">
        <ele>174</ele>
        <time>2018-06-19T08:25:30Z</time>
      </trkpt>
      <trkpt lat="45.92244" lon="4.75138">
        <ele>174</ele>
        <time>2018-06-19T08:25:31Z</time>
      </trkpt>
      <trkpt lat="45.9224" lon="4.75144">
        <ele>174</ele>
        <time>2018-06-19T08:25:32Z</time>
      </trkpt>
      <trkpt lat="45.92236" lon="4.75149">
        <ele>174</ele>
        <time>2018-06-19T08:25:33Z</time>
      </trkpt>
      <trkpt lat="45.92233" lon="4.75157">
        <ele>174</ele>
        <time>2018-06-19T08:25:34Z</time>
      </trkpt>
      <trkpt lat="45.92229" lon="4.75161">
        <ele>174</ele>
        <time>2018-06-19T08:25:35Z</time>
      </trkpt>
      <trkpt lat="45.92226" lon="4.75167">
        <ele>175</ele>
        <time>2018-06-19T08:25:36Z</time>
      </trkpt>
      <trkpt lat="45.92222" lon="4.75177">
        <ele>175</ele>
        <time>2018-06-19T08:25:38Z</time>
      </trkpt>
      <trkpt lat="45.9222" lon="4.75183">
        <ele>175</ele>
        <time>2018-06-19T08:25:39Z</time>
      </trkpt>
      <trkpt lat="45.92218" lon="4.75189">
        <ele>175</ele>
        <time>2018-06-19T08:25:40Z</time>
      </trkpt>
      <trkpt lat="45.92217" lon="4.75195">
        <ele>175</ele>
        <time>2018-06-19T08:25:41Z</time>
      </trkpt>
      <trkpt lat="45.92214" lon="4.75207">
        <ele>175</ele>
        <time>2018-06-19T08:25:43Z</time>
      </trkpt>
      <trkpt lat="45.92213" lon="4.75212">
        <ele>175</ele>
        <time>2018-06-19T08:25:44Z</time>
      </trkpt>
      <trkpt lat="45.92213" lon="4.7522">
        <ele>175</ele>
        <time>2018-06-19T08:25:45Z</time>
      </trkpt>
      <trkpt lat="45.92212" lon="4.75226">
        <ele>175</ele>
        <time>2018-06-19T08:25:46Z</time>
      </trkpt>
      <trkpt lat="45.92212" lon="4.75232">
        <ele>175</ele>
        <time>2018-06-19T08:25:47Z</time>
      </trkpt>
      <trkpt lat="45.92212" lon="4.75241">
        <ele>175</ele>
        <time>2018-06-19T08:25:48Z</time>
      </trkpt>
      <trkpt lat="45.92211" lon="4.7525">
        <ele>175</ele>
        <time>2018-06-19T08:25:49Z</time>
      </trkpt>
      <trkpt lat="45.92211" lon="4.7526">
        <ele>176</ele>
        <time>2018-06-19T08:25:50Z</time>
      </trkpt>
      <trkpt lat="45.92211" lon="4.75267">
        <ele>176</ele>
        <time>2018-06-19T08:25:51Z</time>
      </trkpt>
      <trkpt lat="45.92211" lon="4.75274">
        <ele>176</ele>
        <time>2018-06-19T08:25:52Z</time>
      </trkpt>
      <trkpt lat="45.92211" lon="4.75281">
        <ele>176</ele>
        <time>2018-06-19T08:25:53Z</time>
      </trkpt>
      <trkpt lat="45.9221" lon="4.75288">
        <ele>176</ele>
        <time>2018-06-19T08:25:54Z</time>
      </trkpt>
      <trkpt lat="45.9221" lon="4.75296">
        <ele>176</ele>
        <time>2018-06-19T08:25:55Z</time>
      </trkpt>
      <trkpt lat="45.92211" lon="4.75304">
        <ele>176</ele>
        <time>2018-06-19T08:25:56Z</time>
      </trkpt>
      <trkpt lat="45.9221" lon="4.7531">
        <ele>176</ele>
        <time>2018-06-19T08:25:57Z</time>
      </trkpt>
      <trkpt lat="45.92209" lon="4.75318">
        <ele>176</ele>
        <time>2018-06-19T08:25:58Z</time>
      </trkpt>
      <trkpt lat="45.92208" lon="4.75326">
        <ele>176</ele>
        <time>2018-06-19T08:25:59Z</time>
      </trkpt>
      <trkpt lat="45.92208" lon="4.75335">
        <ele>177</ele>
        <time>2018-06-19T08:26:00Z</time>
      </trkpt>
      <trkpt lat="45.92206" lon="4.75339">
        <ele>177</ele>
        <time>2018-06-19T08:26:01Z</time>
      </trkpt>
      <trkpt lat="45.92204" lon="4.75348">
        <ele>177</ele>
        <time>2018-06-19T08:26:02Z</time>
      </trkpt>
      <trkpt lat="45.92202" lon="4.75355">
        <ele>177</ele>
        <time>2018-06-19T08:26:03Z</time>
      </trkpt>
      <trkpt lat="45.92199" lon="4.75363">
        <ele>177</ele>
        <time>2018-06-19T08:26:04Z</time>
      </trkpt>
      <trkpt lat="45.92197" lon="4.7537">
        <ele>177</ele>
        <time>2018-06-19T08:26:05Z</time>
      </trkpt>
      <trkpt lat="45.92193" lon="4.75377">
        <ele>177</ele>
        <time>2018-06-19T08:26:06Z</time>
      </trkpt>
      <trkpt lat="45.92191" lon="4.75385">
        <ele>177</ele>
        <time>2018-06-19T08:26:07Z</time>
      </trkpt>
      <trkpt lat="45.92189" lon="4.75393">
        <ele>177</ele>
        <time>2018-06-19T08:26:08Z</time>
      </trkpt>
      <trkpt lat="45.92186" lon="4.75402">
        <ele>177</ele>
        <time>2018-06-19T08:26:09Z</time>
      </trkpt>
      <trkpt lat="45.92183" lon="4.75411">
        <ele>177</ele>
        <time>2018-06-19T08:26:10Z</time>
      </trkpt>
      <trkpt lat="45.92179" lon="4.75418">
        <ele>177</ele>
        <time>2018-06-19T08:26:11Z</time>
      </trkpt>
      <trkpt lat="45.92176" lon="4.75426">
        <ele>177</ele>
        <time>2018-06-19T08:26:12Z</time>
      </trkpt>
      <trkpt lat="45.92173" lon="4.75435">
        <ele>177</ele>
        <time>2018-06-19T08:26:13Z</time>
      </trkpt>
      <trkpt lat="45.92171" lon="4.75443">
        <ele>176</ele>
        <time>2018-06-19T08:26:14Z</time>
      </trkpt>
      <trkpt lat="45.9217" lon="4.75453">
        <ele>176</ele>
        <time>2018-06-19T08:26:15Z</time>
      </trkpt>
      <trkpt lat="45.92167" lon="4.75461">
        <ele>176</ele>
        <time>2018-06-19T08:26:16Z</time>
      </trkpt>
      <trkpt lat="45.92163" lon="4.75467">
        <ele>176</ele>
        <time>2018-06-19T08:26:17Z</time>
      </trkpt>
      <trkpt lat="45.92162" lon="4.75474">
        <ele>176</ele>
        <time>2018-06-19T08:26:18Z</time>
      </trkpt>
      <trkpt lat="45.92156" lon="4.75479">
        <ele>176</ele>
        <time>2018-06-19T08:26:19Z</time>
      </trkpt>
      <trkpt lat="45.92152" lon="4.75485">
        <ele>176</ele>
        <time>2018-06-19T08:26:20Z</time>
      </trkpt>
      <trkpt lat="45.92148" lon="4.75492">
        <ele>175</ele>
        <time>2018-06-19T08:26:21Z</time>
      </trkpt>
      <trkpt lat="45.92144" lon="4.755">
        <ele>175</ele>
        <time>2018-06-19T08:26:22Z</time>
      </trkpt>
      <trkpt lat="45.92139" lon="4.75508">
        <ele>174</ele>
        <time>2018-06-19T08:26:23Z</time>
      </trkpt>
      <trkpt lat="45.92137" lon="4.75516">
        <ele>174</ele>
        <time>2018-06-19T08:26:24Z</time>
      </trkpt>
      <trkpt lat="45.92134" lon="4.75522">
        <ele>174</ele>
        <time>2018-06-19T08:26:25Z</time>
      </trkpt>
      <trkpt lat="45.9213" lon="4.75528">
        <ele>174</ele>
        <time>2018-06-19T08:26:26Z</time>
      </trkpt>
      <trkpt lat="45.92126" lon="4.75535">
        <ele>174</ele>
        <time>2018-06-19T08:26:27Z</time>
      </trkpt>
      <trkpt lat="45.92124" lon="4.75542">
        <ele>174</ele>
        <time>2018-06-19T08:26:28Z</time>
      </trkpt>
      <trkpt lat="45.9212" lon="4.75548">
        <ele>174</ele>
        <time>2018-06-19T08:26:29Z</time>
      </trkpt>
      <trkpt lat="45.92117" lon="4.75554">
        <ele>174</ele>
        <time>2018-06-19T08:26:30Z</time>
      </trkpt>
      <trkpt lat="45.92114" lon="4.7556">
        <ele>174</ele>
        <time>2018-06-19T08:26:31Z</time>
      </trkpt>
      <trkpt lat="45.92112" lon="4.75568">
        <ele>174</ele>
        <time>2018-06-19T08:26:32Z</time>
      </trkpt>
      <trkpt lat="45.92112" lon="4.75576">
        <ele>174</ele>
        <time>2018-06-19T08:26:33Z</time>
      </trkpt>
      <trkpt lat="45.92111" lon="4.75584">
        <ele>174</ele>
        <time>2018-06-19T08:26:34Z</time>
      </trkpt>
      <trkpt lat="45.92116" lon="4.75591">
        <ele>174</ele>
        <time>2018-06-19T08:26:35Z</time>
      </trkpt>
      <trkpt lat="45.92119" lon="4.75595">
        <ele>174</ele>
        <time>2018-06-19T08:26:36Z</time>
      </trkpt>
      <trkpt lat="45.92124" lon="4.756">
        <ele>174</ele>
        <time>2018-06-19T08:26:37Z</time>
      </trkpt>
      <trkpt lat="45.92128" lon="4.75605">
        <ele>174</ele>
        <time>2018-06-19T08:26:38Z</time>
      </trkpt>
      <trkpt lat="45.92131" lon="4.75609">
        <ele>174</ele>
        <time>2018-06-19T08:26:39Z</time>
      </trkpt>
      <trkpt lat="45.92136" lon="4.75613">
        <ele>174</ele>
        <time>2018-06-19T08:26:40Z</time>
      </trkpt>
      <trkpt lat="45.92139" lon="4.75616">
        <ele>174</ele>
        <time>2018-06-19T08:26:41Z</time>
      </trkpt>
      <trkpt lat="45.92144" lon="4.7562">
        <ele>174</ele>
        <time>2018-06-19T08:26:42Z</time>
      </trkpt>
      <trkpt lat="45.92148" lon="4.75625">
        <ele>174</ele>
        <time>2018-06-19T08:26:43Z</time>
      </trkpt>
      <trkpt lat="45.92153" lon="4.75632">
        <ele>174</ele>
        <time>2018-06-19T08:26:44Z</time>
      </trkpt>
      <trkpt lat="45.92159" lon="4.75636">
        <ele>174</ele>
        <time>2018-06-19T08:26:45Z</time>
      </trkpt>
      <trkpt lat="45.92163" lon="4.75641">
        <ele>174</ele>
        <time>2018-06-19T08:26:46Z</time>
      </trkpt>
      <trkpt lat="45.92167" lon="4.75646">
        <ele>174</ele>
        <time>2018-06-19T08:26:47Z</time>
      </trkpt>
      <trkpt lat="45.92173" lon="4.75649">
        <ele>174</ele>
        <time>2018-06-19T08:26:48Z</time>
      </trkpt>
      <trkpt lat="45.92177" lon="4.75654">
        <ele>174</ele>
        <time>2018-06-19T08:26:49Z</time>
      </trkpt>
      <trkpt lat="45.92181" lon="4.75657">
        <ele>174</ele>
        <time>2018-06-19T08:26:50Z</time>
      </trkpt>
      <trkpt lat="45.92187" lon="4.75662">
        <ele>174</ele>
        <time>2018-06-19T08:26:51Z</time>
      </trkpt>
      <trkpt lat="45.92192" lon="4.75667">
        <ele>174</ele>
        <time>2018-06-19T08:26:52Z</time>
      </trkpt>
      <trkpt lat="45.92197" lon="4.75671">
        <ele>174</ele>
        <time>2018-06-19T08:26:53Z</time>
      </trkpt>
      <trkpt lat="45.92202" lon="4.75676">
        <ele>174</ele>
        <time>2018-06-19T08:26:54Z</time>
      </trkpt>
      <trkpt lat="45.92207" lon="4.7568">
        <ele>174</ele>
        <time>2018-06-19T08:26:55Z</time>
      </trkpt>
      <trkpt lat="45.92209" lon="4.75686">
        <ele>174</ele>
        <time>2018-06-19T08:26:56Z</time>
      </trkpt>
      <trkpt lat="45.92214" lon="4.75689">
        <ele>174</ele>
        <time>2018-06-19T08:26:57Z</time>
      </trkpt>
      <trkpt lat="45.92219" lon="4.75693">
        <ele>174</ele>
        <time>2018-06-19T08:26:58Z</time>
      </trkpt>
      <trkpt lat="45.92224" lon="4.75698">
        <ele>174</ele>
        <time>2018-06-19T08:26:59Z</time>
      </trkpt>
      <trkpt lat="45.92228" lon="4.75702">
        <ele>174</ele>
        <time>2018-06-19T08:27:00Z</time>
      </trkpt>
      <trkpt lat="45.92231" lon="4.75707">
        <ele>174</ele>
        <time>2018-06-19T08:27:01Z</time>
      </trkpt>
      <trkpt lat="45.92236" lon="4.75714">
        <ele>174</ele>
        <time>2018-06-19T08:27:02Z</time>
      </trkpt>
      <trkpt lat="45.92239" lon="4.7572">
        <ele>174</ele>
        <time>2018-06-19T08:27:03Z</time>
      </trkpt>
      <trkpt lat="45.92242" lon="4.75728">
        <ele>174</ele>
        <time>2018-06-19T08:27:04Z</time>
      </trkpt>
      <trkpt lat="45.92244" lon="4.75735">
        <ele>174</ele>
        <time>2018-06-19T08:27:05Z</time>
      </trkpt>
      <trkpt lat="45.92246" lon="4.75742">
        <ele>174</ele>
        <time>2018-06-19T08:27:06Z</time>
      </trkpt>
      <trkpt lat="45.92248" lon="4.7575">
        <ele>174</ele>
        <time>2018-06-19T08:27:07Z</time>
      </trkpt>
      <trkpt lat="45.92249" lon="4.75758">
        <ele>174</ele>
        <time>2018-06-19T08:27:08Z</time>
      </trkpt>
      <trkpt lat="45.92251" lon="4.75766">
        <ele>174</ele>
        <time>2018-06-19T08:27:09Z</time>
      </trkpt>
      <trkpt lat="45.92253" lon="4.75774">
        <ele>174</ele>
        <time>2018-06-19T08:27:10Z</time>
      </trkpt>
      <trkpt lat="45.92254" lon="4.75781">
        <ele>174</ele>
        <time>2018-06-19T08:27:11Z</time>
      </trkpt>
      <trkpt lat="45.92257" lon="4.75788">
        <ele>174</ele>
        <time>2018-06-19T08:27:12Z</time>
      </trkpt>
      <trkpt lat="45.92259" lon="4.75795">
        <ele>174</ele>
        <time>2018-06-19T08:27:13Z</time>
      </trkpt>
      <trkpt lat="45.9226" lon="4.75803">
        <ele>174</ele>
        <time>2018-06-19T08:27:14Z</time>
      </trkpt>
      <trkpt lat="45.92262" lon="4.75809">
        <ele>174</ele>
        <time>2018-06-19T08:27:15Z</time>
      </trkpt>
      <trkpt lat="45.92264" lon="4.75817">
        <ele>174</ele>
        <time>2018-06-19T08:27:16Z</time>
      </trkpt>
      <trkpt lat="45.92267" lon="4.75823">
        <ele>174</ele>
        <time>2018-06-19T08:27:17Z</time>
      </trkpt>
      <trkpt lat="45.9227" lon="4.75829">
        <ele>174</ele>
        <time>2018-06-19T08:27:18Z</time>
      </trkpt>
      <trkpt lat="45.92274" lon="4.75835">
        <ele>173</ele>
        <time>2018-06-19T08:27:19Z</time>
      </trkpt>
      <trkpt lat="45.92278" lon="4.75838">
        <ele>173</ele>
        <time>2018-06-19T08:27:20Z</time>
      </trkpt>
      <trkpt lat="45.92282" lon="4.75841">
        <ele>173</ele>
        <time>2018-06-19T08:27:21Z</time>
      </trkpt>
      <trkpt lat="45.92287" lon="4.75845">
        <ele>173</ele>
        <time>2018-06-19T08:27:22Z</time>
      </trkpt>
      <trkpt lat="45.92292" lon="4.75847">
        <ele>173</ele>
        <time>2018-06-19T08:27:23Z</time>
      </trkpt>
      <trkpt lat="45.92298" lon="4.7585">
        <ele>173</ele>
        <time>2018-06-19T08:27:24Z</time>
      </trkpt>
      <trkpt lat="45.92303" lon="4.75851">
        <ele>173</ele>
        <time>2018-06-19T08:27:25Z</time>
      </trkpt>
      <trkpt lat="45.92309" lon="4.75854">
        <ele>173</ele>
        <time>2018-06-19T08:27:26Z</time>
      </trkpt>
      <trkpt lat="45.92315" lon="4.75858">
        <ele>173</ele>
        <time>2018-06-19T08:27:27Z</time>
      </trkpt>
      <trkpt lat="45.9232" lon="4.75861">
        <ele>173</ele>
        <time>2018-06-19T08:27:28Z</time>
      </trkpt>
      <trkpt lat="45.92326" lon="4.75863">
        <ele>173</ele>
        <time>2018-06-19T08:27:29Z</time>
      </trkpt>
      <trkpt lat="45.92331" lon="4.75867">
        <ele>173</ele>
        <time>2018-06-19T08:27:30Z</time>
      </trkpt>
      <trkpt lat="45.92337" lon="4.75871">
        <ele>173</ele>
        <time>2018-06-19T08:27:31Z</time>
      </trkpt>
      <trkpt lat="45.92341" lon="4.75873">
        <ele>173</ele>
        <time>2018-06-19T08:27:32Z</time>
      </trkpt>
      <trkpt lat="45.92347" lon="4.75876">
        <ele>173</ele>
        <time>2018-06-19T08:27:33Z</time>
      </trkpt>
      <trkpt lat="45.92352" lon="4.7588">
        <ele>173</ele>
        <time>2018-06-19T08:27:34Z</time>
      </trkpt>
      <trkpt lat="45.92358" lon="4.75884">
        <ele>173</ele>
        <time>2018-06-19T08:27:35Z</time>
      </trkpt>
      <trkpt lat="45.92364" lon="4.75886">
        <ele>173</ele>
        <time>2018-06-19T08:27:36Z</time>
      </trkpt>
      <trkpt lat="45.92369" lon="4.75889">
        <ele>173</ele>
        <time>2018-06-19T08:27:37Z</time>
      </trkpt>
      <trkpt lat="45.92374" lon="4.75893">
        <ele>173</ele>
        <time>2018-06-19T08:27:38Z</time>
      </trkpt>
      <trkpt lat="45.92379" lon="4.75897">
        <ele>173</ele>
        <time>2018-06-19T08:27:39Z</time>
      </trkpt>
      <trkpt lat="45.92384" lon="4.759">
        <ele>173</ele>
        <time>2018-06-19T08:27:40Z</time>
      </trkpt>
      <trkpt lat="45.9239" lon="4.75903">
        <ele>173</ele>
        <time>2018-06-19T08:27:41Z</time>
      </trkpt>
      <trkpt lat="45.92395" lon="4.75905">
        <ele>173</ele>
        <time>2018-06-19T08:27:42Z</time>
      </trkpt>
      <trkpt lat="45.924" lon="4.75909">
        <ele>173</ele>
        <time>2018-06-19T08:27:43Z</time>
      </trkpt>
      <trkpt lat="45.92405" lon="4.75913">
        <ele>172</ele>
        <time>2018-06-19T08:27:44Z</time>
      </trkpt>
      <trkpt lat="45.92409" lon="4.75916">
        <ele>172</ele>
        <time>2018-06-19T08:27:45Z</time>
      </trkpt>
      <trkpt lat="45.92414" lon="4.75921">
        <ele>172</ele>
        <time>2018-06-19T08:27:46Z</time>
      </trkpt>
      <trkpt lat="45.92419" lon="4.75924">
        <ele>172</ele>
        <time>2018-06-19T08:27:47Z</time>
      </trkpt>
      <trkpt lat="45.92424" lon="4.75926">
        <ele>172</ele>
        <time>2018-06-19T08:27:48Z</time>
      </trkpt>
      <trkpt lat="45.92429" lon="4.7593">
        <ele>172</ele>
        <time>2018-06-19T08:27:49Z</time>
      </trkpt>
      <trkpt lat="45.92435" lon="4.75934">
        <ele>172</ele>
        <time>2018-06-19T08:27:50Z</time>
      </trkpt>
      <trkpt lat="45.92439" lon="4.75937">
        <ele>172</ele>
        <time>2018-06-19T08:27:51Z</time>
      </trkpt>
      <trkpt lat="45.92444" lon="4.75942">
        <ele>172</ele>
        <time>2018-06-19T08:27:52Z</time>
      </trkpt>
      <trkpt lat="45.92449" lon="4.75945">
        <ele>172</ele>
        <time>2018-06-19T08:27:53Z</time>
      </trkpt>
      <trkpt lat="45.92453" lon="4.75948">
        <ele>172</ele>
        <time>2018-06-19T08:27:54Z</time>
      </trkpt>
      <trkpt lat="45.92457" lon="4.75952">
        <ele>172</ele>
        <time>2018-06-19T08:27:55Z</time>
      </trkpt>
      <trkpt lat="45.92461" lon="4.75956">
        <ele>172</ele>
        <time>2018-06-19T08:27:56Z</time>
      </trkpt>
      <trkpt lat="45.92465" lon="4.7596">
        <ele>172</ele>
        <time>2018-06-19T08:27:57Z</time>
      </trkpt>
      <trkpt lat="45.9247" lon="4.75964">
        <ele>172</ele>
        <time>2018-06-19T08:27:58Z</time>
      </trkpt>
      <trkpt lat="45.92473" lon="4.75967">
        <ele>172</ele>
        <time>2018-06-19T08:27:59Z</time>
      </trkpt>
      <trkpt lat="45.92477" lon="4.75971">
        <ele>172</ele>
        <time>2018-06-19T08:28:00Z</time>
      </trkpt>
      <trkpt lat="45.92482" lon="4.75974">
        <ele>172</ele>
        <time>2018-06-19T08:28:01Z</time>
      </trkpt>
      <trkpt lat="45.92486" lon="4.75978">
        <ele>172</ele>
        <time>2018-06-19T08:28:02Z</time>
      </trkpt>
      <trkpt lat="45.9249" lon="4.75981">
        <ele>172</ele>
        <time>2018-06-19T08:28:03Z</time>
      </trkpt>
      <trkpt lat="45.92494" lon="4.75984">
        <ele>172</ele>
        <time>2018-06-19T08:28:04Z</time>
      </trkpt>
      <trkpt lat="45.92498" lon="4.75987">
        <ele>172</ele>
        <time>2018-06-19T08:28:05Z</time>
      </trkpt>
      <trkpt lat="45.92502" lon="4.7599">
        <ele>172</ele>
        <time>2018-06-19T08:28:06Z</time>
      </trkpt>
      <trkpt lat="45.92506" lon="4.75993">
        <ele>172</ele>
        <time>2018-06-19T08:28:07Z</time>
      </trkpt>
      <trkpt lat="45.92511" lon="4.75996">
        <ele>172</ele>
        <time>2018-06-19T08:28:08Z</time>
      </trkpt>
      <trkpt lat="45.92515" lon="4.75999">
        <ele>172</ele>
        <time>2018-06-19T08:28:09Z</time>
      </trkpt>
      <trkpt lat="45.9252" lon="4.76002">
        <ele>172</ele>
        <time>2018-06-19T08:28:10Z</time>
      </trkpt>
      <trkpt lat="45.92524" lon="4.76005">
        <ele>172</ele>
        <time>2018-06-19T08:28:11Z</time>
      </trkpt>
      <trkpt lat="45.92528" lon="4.76008">
        <ele>172</ele>
        <time>2018-06-19T08:28:12Z</time>
      </trkpt>
      <trkpt lat="45.92534" lon="4.76011">
        <ele>172</ele>
        <time>2018-06-19T08:28:13Z</time>
      </trkpt>
      <trkpt lat="45.92539" lon="4.76015">
        <ele>172</ele>
        <time>2018-06-19T08:28:14Z</time>
      </trkpt>
      <trkpt lat="45.92543" lon="4.76018">
        <ele>172</ele>
        <time>2018-06-19T08:28:15Z</time>
      </trkpt>
      <trkpt lat="45.92547" lon="4.76021">
        <ele>172</ele>
        <time>2018-06-19T08:28:16Z</time>
      </trkpt>
      <trkpt lat="45.92552" lon="4.76025">
        <ele>172</ele>
        <time>2018-06-19T08:28:17Z</time>
      </trkpt>
      <trkpt lat="45.92555" lon="4.76029">
        <ele>172</ele>
        <time>2018-06-19T08:28:18Z</time>
      </trkpt>
      <trkpt lat="45.92559" lon="4.76032">
        <ele>172</ele>
        <time>2018-06-19T08:28:19Z</time>
      </trkpt>
      <trkpt lat="45.92564" lon="4.76035">
        <ele>172</ele>
        <time>2018-06-19T08:28:20Z</time>
      </trkpt>
      <trkpt lat="45.92568" lon="4.76039">
        <ele>172</ele>
        <time>2018-06-19T08:28:21Z</time>
      </trkpt>
      <trkpt lat="45.92573" lon="4.76042">
        <ele>171</ele>
        <time>2018-06-19T08:28:22Z</time>
      </trkpt>
      <trkpt lat="45.92578" lon="4.76045">
        <ele>171</ele>
        <time>2018-06-19T08:28:23Z</time>
      </trkpt>
      <trkpt lat="45.92582" lon="4.76049">
        <ele>171</ele>
        <time>2018-06-19T08:28:24Z</time>
      </trkpt>
      <trkpt lat="45.92587" lon="4.76052">
        <ele>171</ele>
        <time>2018-06-19T08:28:25Z</time>
      </trkpt>
      <trkpt lat="45.92592" lon="4.76055">
        <ele>171</ele>
        <time>2018-06-19T08:28:26Z</time>
      </trkpt>
      <trkpt lat="45.92596" lon="4.76058">
        <ele>171</ele>
        <time>2018-06-19T08:28:27Z</time>
      </trkpt>
      <trkpt lat="45.92601" lon="4.76062">
        <ele>171</ele>
        <time>2018-06-19T08:28:28Z</time>
      </trkpt>
      <trkpt lat="45.92606" lon="4.76065">
        <ele>171</ele>
        <time>2018-06-19T08:28:29Z</time>
      </trkpt>
      <trkpt lat="45.92612" lon="4.76069">
        <ele>171</ele>
        <time>2018-06-19T08:28:30Z</time>
      </trkpt>
      <trkpt lat="45.92618" lon="4.76071">
        <ele>171</ele>
        <time>2018-06-19T08:28:31Z</time>
      </trkpt>
      <trkpt lat="45.92623" lon="4.76076">
        <ele>171</ele>
        <time>2018-06-19T08:28:32Z</time>
      </trkpt>
      <trkpt lat="45.92629" lon="4.7608">
        <ele>170</ele>
        <time>2018-06-19T08:28:33Z</time>
      </trkpt>
      <trkpt lat="45.92635" lon="4.76085">
        <ele>170</ele>
        <time>2018-06-19T08:28:34Z</time>
      </trkpt>
      <trkpt lat="45.92641" lon="4.76089">
        <ele>170</ele>
        <time>2018-06-19T08:28:35Z</time>
      </trkpt>
      <trkpt lat="45.92647" lon="4.76094">
        <ele>170</ele>
        <time>2018-06-19T08:28:36Z</time>
      </trkpt>
      <trkpt lat="45.92653" lon="4.76098">
        <ele>170</ele>
        <time>2018-06-19T08:28:37Z</time>
      </trkpt>
      <trkpt lat="45.92661" lon="4.76101">
        <ele>170</ele>
        <time>2018-06-19T08:28:38Z</time>
      </trkpt>
      <trkpt lat="45.92667" lon="4.76105">
        <ele>169</ele>
        <time>2018-06-19T08:28:39Z</time>
      </trkpt>
      <trkpt lat="45.92673" lon="4.7611">
        <ele>169</ele>
        <time>2018-06-19T08:28:40Z</time>
      </trkpt>
      <trkpt lat="45.9268" lon="4.76115">
        <ele>169</ele>
        <time>2018-06-19T08:28:41Z</time>
      </trkpt>
      <trkpt lat="45.92687" lon="4.7612">
        <ele>169</ele>
        <time>2018-06-19T08:28:42Z</time>
      </trkpt>
      <trkpt lat="45.92693" lon="4.76125">
        <ele>169</ele>
        <time>2018-06-19T08:28:43Z</time>
      </trkpt>
      <trkpt lat="45.92701" lon="4.76129">
        <ele>169</ele>
        <time>2018-06-19T08:28:44Z</time>
      </trkpt>
      <trkpt lat="45.92708" lon="4.76133">
        <ele>169</ele>
        <time>2018-06-19T08:28:45Z</time>
      </trkpt>
      <trkpt lat="45.92714" lon="4.76139">
        <ele>168</ele>
        <time>2018-06-19T08:28:46Z</time>
      </trkpt>
      <trkpt lat="45.92721" lon="4.76143">
        <ele>168</ele>
        <time>2018-06-19T08:28:47Z</time>
      </trkpt>
      <trkpt lat="45.92728" lon="4.76147">
        <ele>168</ele>
        <time>2018-06-19T08:28:48Z</time>
      </trkpt>
      <trkpt lat="45.92734" lon="4.76153">
        <ele>168</ele>
        <time>2018-06-19T08:28:49Z</time>
      </trkpt>
      <trkpt lat="45.92742" lon="4.76157">
        <ele>168</ele>
        <time>2018-06-19T08:28:50Z</time>
      </trkpt>
      <trkpt lat="45.92747" lon="4.76162">
        <ele>167</ele>
        <time>2018-06-19T08:28:51Z</time>
      </trkpt>
      <trkpt lat="45.92754" lon="4.76168">
        <ele>167</ele>
        <time>2018-06-19T08:28:52Z</time>
      </trkpt>
      <trkpt lat="45.9276" lon="4.76174">
        <ele>167</ele>
        <time>2018-06-19T08:28:53Z</time>
      </trkpt>
      <trkpt lat="45.92765" lon="4.76179">
        <ele>167</ele>
        <time>2018-06-19T08:28:54Z</time>
      </trkpt>
      <trkpt lat="45.9277" lon="4.76182">
        <ele>167</ele>
        <time>2018-06-19T08:28:55Z</time>
      </trkpt>
      <trkpt lat="45.92776" lon="4.76189">
        <ele>168</ele>
        <time>2018-06-19T08:28:56Z</time>
      </trkpt>
      <trkpt lat="45.92781" lon="4.76195">
        <ele>168</ele>
        <time>2018-06-19T08:28:57Z</time>
      </trkpt>
      <trkpt lat="45.92787" lon="4.76198">
        <ele>168</ele>
        <time>2018-06-19T08:28:58Z</time>
      </trkpt>
      <trkpt lat="45.92794" lon="4.76201">
        <ele>168</ele>
        <time>2018-06-19T08:28:59Z</time>
      </trkpt>
      <trkpt lat="45.92796" lon="4.76204">
        <ele>168</ele>
        <time>2018-06-19T08:29:00Z</time>
      </trkpt>
      <trkpt lat="45.92803" lon="4.76212">
        <ele>168</ele>
        <time>2018-06-19T08:29:02Z</time>
      </trkpt>
      <trkpt lat="45.92809" lon="4.76217">
        <ele>168</ele>
        <time>2018-06-19T08:29:03Z</time>
      </trkpt>
      <trkpt lat="45.92814" lon="4.76223">
        <ele>168</ele>
        <time>2018-06-19T08:29:04Z</time>
      </trkpt>
      <trkpt lat="45.9282" lon="4.76228">
        <ele>168</ele>
        <time>2018-06-19T08:29:05Z</time>
      </trkpt>
      <trkpt lat="45.92823" lon="4.76233">
        <ele>168</ele>
        <time>2018-06-19T08:29:06Z</time>
      </trkpt>
      <trkpt lat="45.9283" lon="4.76236">
        <ele>168</ele>
        <time>2018-06-19T08:29:07Z</time>
      </trkpt>
      <trkpt lat="45.92837" lon="4.76242">
        <ele>169</ele>
        <time>2018-06-19T08:29:08Z</time>
      </trkpt>
      <trkpt lat="45.92841" lon="4.76248">
        <ele>169</ele>
        <time>2018-06-19T08:29:09Z</time>
      </trkpt>
      <trkpt lat="45.92845" lon="4.7625">
        <ele>169</ele>
        <time>2018-06-19T08:29:10Z</time>
      </trkpt>
      <trkpt lat="45.92851" lon="4.76257">
        <ele>169</ele>
        <time>2018-06-19T08:29:11Z</time>
      </trkpt>
      <trkpt lat="45.92855" lon="4.76261">
        <ele>169</ele>
        <time>2018-06-19T08:29:12Z</time>
      </trkpt>
      <trkpt lat="45.92859" lon="4.76266">
        <ele>169</ele>
        <time>2018-06-19T08:29:13Z</time>
      </trkpt>
      <trkpt lat="45.92864" lon="4.76271">
        <ele>169</ele>
        <time>2018-06-19T08:29:14Z</time>
      </trkpt>
      <trkpt lat="45.92869" lon="4.76275">
        <ele>169</ele>
        <time>2018-06-19T08:29:15Z</time>
      </trkpt>
      <trkpt lat="45.92872" lon="4.76282">
        <ele>169</ele>
        <time>2018-06-19T08:29:16Z</time>
      </trkpt>
      <trkpt lat="45.92877" lon="4.76288">
        <ele>169</ele>
        <time>2018-06-19T08:29:17Z</time>
      </trkpt>
      <trkpt lat="45.92882" lon="4.7629">
        <ele>169</ele>
        <time>2018-06-19T08:29:18Z</time>
      </trkpt>
      <trkpt lat="45.92889" lon="4.76296">
        <ele>169</ele>
        <time>2018-06-19T08:29:19Z</time>
      </trkpt>
      <trkpt lat="45.92894" lon="4.76302">
        <ele>169</ele>
        <time>2018-06-19T08:29:20Z</time>
      </trkpt>
      <trkpt lat="45.92897" lon="4.76307">
        <ele>169</ele>
        <time>2018-06-19T08:29:21Z</time>
      </trkpt>
      <trkpt lat="45.92902" lon="4.76311">
        <ele>169</ele>
        <time>2018-06-19T08:29:22Z</time>
      </trkpt>
      <trkpt lat="45.92906" lon="4.76314">
        <ele>169</ele>
        <time>2018-06-19T08:29:23Z</time>
      </trkpt>
      <trkpt lat="45.92909" lon="4.76317">
        <ele>169</ele>
        <time>2018-06-19T08:29:24Z</time>
      </trkpt>
      <trkpt lat="45.92916" lon="4.76324">
        <ele>169</ele>
        <time>2018-06-19T08:29:25Z</time>
      </trkpt>
      <trkpt lat="45.92921" lon="4.76328">
        <ele>169</ele>
        <time>2018-06-19T08:29:26Z</time>
      </trkpt>
      <trkpt lat="45.92927" lon="4.76333">
        <ele>169</ele>
        <time>2018-06-19T08:29:27Z</time>
      </trkpt>
      <trkpt lat="45.92933" lon="4.76339">
        <ele>169</ele>
        <time>2018-06-19T08:29:28Z</time>
      </trkpt>
      <trkpt lat="45.92938" lon="4.76345">
        <ele>169</ele>
        <time>2018-06-19T08:29:29Z</time>
      </trkpt>
      <trkpt lat="45.92945" lon="4.76353">
        <ele>169</ele>
        <time>2018-06-19T08:29:30Z</time>
      </trkpt>
      <trkpt lat="45.92952" lon="4.76361">
        <ele>169</ele>
        <time>2018-06-19T08:29:31Z</time>
      </trkpt>
      <trkpt lat="45.92958" lon="4.76365">
        <ele>169</ele>
        <time>2018-06-19T08:29:32Z</time>
      </trkpt>
      <trkpt lat="45.92961" lon="4.76368">
        <ele>169</ele>
        <time>2018-06-19T08:29:33Z</time>
      </trkpt>
      <trkpt lat="45.92965" lon="4.76372">
        <ele>169</ele>
        <time>2018-06-19T08:29:34Z</time>
      </trkpt>
      <trkpt lat="45.9297" lon="4.76376">
        <ele>169</ele>
        <time>2018-06-19T08:29:35Z</time>
      </trkpt>
      <trkpt lat="45.92975" lon="4.76382">
        <ele>169</ele>
        <time>2018-06-19T08:29:36Z</time>
      </trkpt>
      <trkpt lat="45.92981" lon="4.76387">
        <ele>169</ele>
        <time>2018-06-19T08:29:37Z</time>
      </trkpt>
      <trkpt lat="45.92984" lon="4.7639">
        <ele>169</ele>
        <time>2018-06-19T08:29:38Z</time>
      </trkpt>
      <trkpt lat="45.92988" lon="4.76394">
        <ele>169</ele>
        <time>2018-06-19T08:29:39Z</time>
      </trkpt>
      <trkpt lat="45.92994" lon="4.76399">
        <ele>169</ele>
        <time>2018-06-19T08:29:40Z</time>
      </trkpt>
      <trkpt lat="45.92998" lon="4.76405">
        <ele>169</ele>
        <time>2018-06-19T08:29:41Z</time>
      </trkpt>
      <trkpt lat="45.93003" lon="4.7641">
        <ele>169</ele>
        <time>2018-06-19T08:29:42Z</time>
      </trkpt>
      <trkpt lat="45.93006" lon="4.76414">
        <ele>169</ele>
        <time>2018-06-19T08:29:43Z</time>
      </trkpt>
      <trkpt lat="45.93012" lon="4.76419">
        <ele>169</ele>
        <time>2018-06-19T08:29:44Z</time>
      </trkpt>
      <trkpt lat="45.93015" lon="4.76422">
        <ele>169</ele>
        <time>2018-06-19T08:29:45Z</time>
      </trkpt>
      <trkpt lat="45.93021" lon="4.76429">
        <ele>169</ele>
        <time>2018-06-19T08:29:47Z</time>
      </trkpt>
      <trkpt lat="45.93026" lon="4.76435">
        <ele>169</ele>
        <time>2018-06-19T08:29:48Z</time>
      </trkpt>
      <trkpt lat="45.93032" lon="4.76439">
        <ele>169</ele>
        <time>2018-06-19T08:29:49Z</time>
      </trkpt>
      <trkpt lat="45.93035" lon="4.76443">
        <ele>169</ele>
        <time>2018-06-19T08:29:50Z</time>
      </trkpt>
      <trkpt lat="45.9304" lon="4.76448">
        <ele>169</ele>
        <time>2018-06-19T08:29:51Z</time>
      </trkpt>
      <trkpt lat="45.93044" lon="4.76453">
        <ele>169</ele>
        <time>2018-06-19T08:29:52Z</time>
      </trkpt>
      <trkpt lat="45.93049" lon="4.76459">
        <ele>169</ele>
        <time>2018-06-19T08:29:53Z</time>
      </trkpt>
      <trkpt lat="45.93054" lon="4.76462">
        <ele>169</ele>
        <time>2018-06-19T08:29:54Z</time>
      </trkpt>
      <trkpt lat="45.93058" lon="4.76467">
        <ele>169</ele>
        <time>2018-06-19T08:29:55Z</time>
      </trkpt>
      <trkpt lat="45.93062" lon="4.76471">
        <ele>169</ele>
        <time>2018-06-19T08:29:56Z</time>
      </trkpt>
      <trkpt lat="45.93066" lon="4.76473">
        <ele>169</ele>
        <time>2018-06-19T08:29:57Z</time>
      </trkpt>
      <trkpt lat="45.9307" lon="4.76478">
        <ele>169</ele>
        <time>2018-06-19T08:29:58Z</time>
      </trkpt>
      <trkpt lat="45.93075" lon="4.76484">
        <ele>169</ele>
        <time>2018-06-19T08:29:59Z</time>
      </trkpt>
      <trkpt lat="45.93079" lon="4.76488">
        <ele>170</ele>
        <time>2018-06-19T08:30:00Z</time>
      </trkpt>
      <trkpt lat="45.93084" lon="4.76493">
        <ele>170</ele>
        <time>2018-06-19T08:30:01Z</time>
      </trkpt>
      <trkpt lat="45.93091" lon="4.76501">
        <ele>170</ele>
        <time>2018-06-19T08:30:02Z</time>
      </trkpt>
      <trkpt lat="45.93097" lon="4.76509">
        <ele>170</ele>
        <time>2018-06-19T08:30:03Z</time>
      </trkpt>
      <trkpt lat="45.93102" lon="4.76511">
        <ele>170</ele>
        <time>2018-06-19T08:30:04Z</time>
      </trkpt>
      <trkpt lat="45.93109" lon="4.76517">
        <ele>170</ele>
        <time>2018-06-19T08:30:05Z</time>
      </trkpt>
      <trkpt lat="45.93116" lon="4.76523">
        <ele>170</ele>
        <time>2018-06-19T08:30:06Z</time>
      </trkpt>
      <trkpt lat="45.9312" lon="4.76527">
        <ele>170</ele>
        <time>2018-06-19T08:30:07Z</time>
      </trkpt>
      <trkpt lat="45.93127" lon="4.76532">
        <ele>170</ele>
        <time>2018-06-19T08:30:08Z</time>
      </trkpt>
      <trkpt lat="45.93132" lon="4.76538">
        <ele>170</ele>
        <time>2018-06-19T08:30:09Z</time>
      </trkpt>
      <trkpt lat="45.93137" lon="4.76544">
        <ele>170</ele>
        <time>2018-06-19T08:30:10Z</time>
      </trkpt>
      <trkpt lat="45.93142" lon="4.76546">
        <ele>170</ele>
        <time>2018-06-19T08:30:11Z</time>
      </trkpt>
      <trkpt lat="45.93145" lon="4.76552">
        <ele>170</ele>
        <time>2018-06-19T08:30:12Z</time>
      </trkpt>
      <trkpt lat="45.9315" lon="4.76556">
        <ele>170</ele>
        <time>2018-06-19T08:30:13Z</time>
      </trkpt>
      <trkpt lat="45.93153" lon="4.7656">
        <ele>170</ele>
        <time>2018-06-19T08:30:14Z</time>
      </trkpt>
      <trkpt lat="45.93155" lon="4.76564">
        <ele>170</ele>
        <time>2018-06-19T08:30:15Z</time>
      </trkpt>
      <trkpt lat="45.9316" lon="4.76568">
        <ele>170</ele>
        <time>2018-06-19T08:30:16Z</time>
      </trkpt>
      <trkpt lat="45.93165" lon="4.76572">
        <ele>171</ele>
        <time>2018-06-19T08:30:17Z</time>
      </trkpt>
      <trkpt lat="45.93168" lon="4.76577">
        <ele>171</ele>
        <time>2018-06-19T08:30:18Z</time>
      </trkpt>
      <trkpt lat="45.93174" lon="4.76583">
        <ele>170</ele>
        <time>2018-06-19T08:30:19Z</time>
      </trkpt>
      <trkpt lat="45.9318" lon="4.7659">
        <ele>171</ele>
        <time>2018-06-19T08:30:20Z</time>
      </trkpt>
      <trkpt lat="45.93187" lon="4.76594">
        <ele>171</ele>
        <time>2018-06-19T08:30:22Z</time>
      </trkpt>
      <trkpt lat="45.93192" lon="4.76598">
        <ele>170</ele>
        <time>2018-06-19T08:30:23Z</time>
      </trkpt>
      <trkpt lat="45.93196" lon="4.76605">
        <ele>170</ele>
        <time>2018-06-19T08:30:24Z</time>
      </trkpt>
      <trkpt lat="45.93201" lon="4.7661">
        <ele>170</ele>
        <time>2018-06-19T08:30:25Z</time>
      </trkpt>
      <trkpt lat="45.93204" lon="4.76615">
        <ele>170</ele>
        <time>2018-06-19T08:30:26Z</time>
      </trkpt>
      <trkpt lat="45.93207" lon="4.7662">
        <ele>170</ele>
        <time>2018-06-19T08:30:27Z</time>
      </trkpt>
      <trkpt lat="45.93213" lon="4.76624">
        <ele>170</ele>
        <time>2018-06-19T08:30:29Z</time>
      </trkpt>
      <trkpt lat="45.93218" lon="4.76627">
        <ele>170</ele>
        <time>2018-06-19T08:30:30Z</time>
      </trkpt>
      <trkpt lat="45.93224" lon="4.76632">
        <ele>171</ele>
        <time>2018-06-19T08:30:31Z</time>
      </trkpt>
      <trkpt lat="45.93229" lon="4.76636">
        <ele>171</ele>
        <time>2018-06-19T08:30:32Z</time>
      </trkpt>
      <trkpt lat="45.93234" lon="4.76641">
        <ele>171</ele>
        <time>2018-06-19T08:30:33Z</time>
      </trkpt>
      <trkpt lat="45.93238" lon="4.76648">
        <ele>171</ele>
        <time>2018-06-19T08:30:34Z</time>
      </trkpt>
      <trkpt lat="45.93242" lon="4.76652">
        <ele>171</ele>
        <time>2018-06-19T08:30:35Z</time>
      </trkpt>
      <trkpt lat="45.93246" lon="4.76655">
        <ele>171</ele>
        <time>2018-06-19T08:30:36Z</time>
      </trkpt>
      <trkpt lat="45.93249" lon="4.76661">
        <ele>172</ele>
        <time>2018-06-19T08:30:37Z</time>
      </trkpt>
      <trkpt lat="45.93256" lon="4.76664">
        <ele>171</ele>
        <time>2018-06-19T08:30:38Z</time>
      </trkpt>
      <trkpt lat="45.93259" lon="4.76669">
        <ele>172</ele>
        <time>2018-06-19T08:30:39Z</time>
      </trkpt>
      <trkpt lat="45.93264" lon="4.76674">
        <ele>172</ele>
        <time>2018-06-19T08:30:40Z</time>
      </trkpt>
      <trkpt lat="45.93268" lon="4.76678">
        <ele>172</ele>
        <time>2018-06-19T08:30:41Z</time>
      </trkpt>
      <trkpt lat="45.93273" lon="4.76684">
        <ele>172</ele>
        <time>2018-06-19T08:30:42Z</time>
      </trkpt>
      <trkpt lat="45.93277" lon="4.76688">
        <ele>172</ele>
        <time>2018-06-19T08:30:43Z</time>
      </trkpt>
      <trkpt lat="45.93282" lon="4.76693">
        <ele>172</ele>
        <time>2018-06-19T08:30:44Z</time>
      </trkpt>
      <trkpt lat="45.93287" lon="4.76698">
        <ele>172</ele>
        <time>2018-06-19T08:30:45Z</time>
      </trkpt>
      <trkpt lat="45.93291" lon="4.76703">
        <ele>172</ele>
        <time>2018-06-19T08:30:46Z</time>
      </trkpt>
      <trkpt lat="45.93295" lon="4.76707">
        <ele>172</ele>
        <time>2018-06-19T08:30:47Z</time>
      </trkpt>
      <trkpt lat="45.93301" lon="4.76711">
        <ele>172</ele>
        <time>2018-06-19T08:30:48Z</time>
      </trkpt>
      <trkpt lat="45.93307" lon="4.76716">
        <ele>172</ele>
        <time>2018-06-19T08:30:49Z</time>
      </trkpt>
      <trkpt lat="45.93312" lon="4.76721">
        <ele>172</ele>
        <time>2018-06-19T08:30:50Z</time>
      </trkpt>
      <trkpt lat="45.93316" lon="4.76726">
        <ele>172</ele>
        <time>2018-06-19T08:30:51Z</time>
      </trkpt>
      <trkpt lat="45.93319" lon="4.76731">
        <ele>172</ele>
        <time>2018-06-19T08:30:52Z</time>
      </trkpt>
      <trkpt lat="45.93324" lon="4.76736">
        <ele>172</ele>
        <time>2018-06-19T08:30:53Z</time>
      </trkpt>
      <trkpt lat="45.93328" lon="4.76739">
        <ele>172</ele>
        <time>2018-06-19T08:30:54Z</time>
      </trkpt>
      <trkpt lat="45.93333" lon="4.76744">
        <ele>173</ele>
        <time>2018-06-19T08:30:55Z</time>
      </trkpt>
      <trkpt lat="45.93338" lon="4.76747">
        <ele>173</ele>
        <time>2018-06-19T08:30:56Z</time>
      </trkpt>
      <trkpt lat="45.93344" lon="4.7675">
        <ele>173</ele>
        <time>2018-06-19T08:30:57Z</time>
      </trkpt>
      <trkpt lat="45.93348" lon="4.76754">
        <ele>172</ele>
        <time>2018-06-19T08:30:58Z</time>
      </trkpt>
      <trkpt lat="45.93353" lon="4.7676">
        <ele>172</ele>
        <time>2018-06-19T08:30:59Z</time>
      </trkpt>
      <trkpt lat="45.93359" lon="4.7676">
        <ele>172</ele>
        <time>2018-06-19T08:31:00Z</time>
      </trkpt>
      <trkpt lat="45.93364" lon="4.76764">
        <ele>172</ele>
        <time>2018-06-19T08:31:01Z</time>
      </trkpt>
      <trkpt lat="45.93368" lon="4.76769">
        <ele>172</ele>
        <time>2018-06-19T08:31:02Z</time>
      </trkpt>
      <trkpt lat="45.93372" lon="4.76774">
        <ele>172</ele>
        <time>2018-06-19T08:31:03Z</time>
      </trkpt>
      <trkpt lat="45.93376" lon="4.76778">
        <ele>172</ele>
        <time>2018-06-19T08:31:04Z</time>
      </trkpt>
      <trkpt lat="45.9338" lon="4.76783">
        <ele>172</ele>
        <time>2018-06-19T08:31:05Z</time>
      </trkpt>
      <trkpt lat="45.93385" lon="4.76787">
        <ele>172</ele>
        <time>2018-06-19T08:31:06Z</time>
      </trkpt>
      <trkpt lat="45.93389" lon="4.76792">
        <ele>172</ele>
        <time>2018-06-19T08:31:07Z</time>
      </trkpt>
      <trkpt lat="45.93394" lon="4.76797">
        <ele>172</ele>
        <time>2018-06-19T08:31:08Z</time>
      </trkpt>
      <trkpt lat="45.93398" lon="4.76803">
        <ele>172</ele>
        <time>2018-06-19T08:31:09Z</time>
      </trkpt>
      <trkpt lat="45.93402" lon="4.76808">
        <ele>172</ele>
        <time>2018-06-19T08:31:10Z</time>
      </trkpt>
      <trkpt lat="45.93406" lon="4.76814">
        <ele>172</ele>
        <time>2018-06-19T08:31:11Z</time>
      </trkpt>
      <trkpt lat="45.9341" lon="4.7682">
        <ele>172</ele>
        <time>2018-06-19T08:31:12Z</time>
      </trkpt>
      <trkpt lat="45.93414" lon="4.76827">
        <ele>172</ele>
        <time>2018-06-19T08:31:13Z</time>
      </trkpt>
      <trkpt lat="45.93417" lon="4.76834">
        <ele>172</ele>
        <time>2018-06-19T08:31:14Z</time>
      </trkpt>
      <trkpt lat="45.93421" lon="4.76842">
        <ele>171</ele>
        <time>2018-06-19T08:31:15Z</time>
      </trkpt>
      <trkpt lat="45.93424" lon="4.76849">
        <ele>171</ele>
        <time>2018-06-19T08:31:16Z</time>
      </trkpt>
      <trkpt lat="45.93428" lon="4.76856">
        <ele>171</ele>
        <time>2018-06-19T08:31:17Z</time>
      </trkpt>
      <trkpt lat="45.9343" lon="4.76864">
        <ele>171</ele>
        <time>2018-06-19T08:31:18Z</time>
      </trkpt>
      <trkpt lat="45.93433" lon="4.76871">
        <ele>171</ele>
        <time>2018-06-19T08:31:19Z</time>
      </trkpt>
      <trkpt lat="45.93435" lon="4.76878">
        <ele>171</ele>
        <time>2018-06-19T08:31:20Z</time>
      </trkpt>
      <trkpt lat="45.93438" lon="4.76885">
        <ele>171</ele>
        <time>2018-06-19T08:31:21Z</time>
      </trkpt>
      <trkpt lat="45.93439" lon="4.76892">
        <ele>170</ele>
        <time>2018-06-19T08:31:22Z</time>
      </trkpt>
      <trkpt lat="45.93441" lon="4.76899">
        <ele>170</ele>
        <time>2018-06-19T08:31:23Z</time>
      </trkpt>
      <trkpt lat="45.93443" lon="4.76905">
        <ele>170</ele>
        <time>2018-06-19T08:31:24Z</time>
      </trkpt>
      <trkpt lat="45.93445" lon="4.76913">
        <ele>170</ele>
        <time>2018-06-19T08:31:25Z</time>
      </trkpt>
      <trkpt lat="45.93448" lon="4.76919">
        <ele>170</ele>
        <time>2018-06-19T08:31:26Z</time>
      </trkpt>
      <trkpt lat="45.93449" lon="4.76927">
        <ele>170</ele>
        <time>2018-06-19T08:31:27Z</time>
      </trkpt>
      <trkpt lat="45.9345" lon="4.76935">
        <ele>170</ele>
        <time>2018-06-19T08:31:28Z</time>
      </trkpt>
      <trkpt lat="45.93451" lon="4.76943">
        <ele>170</ele>
        <time>2018-06-19T08:31:29Z</time>
      </trkpt>
      <trkpt lat="45.93453" lon="4.76952">
        <ele>170</ele>
        <time>2018-06-19T08:31:30Z</time>
      </trkpt>
      <trkpt lat="45.93454" lon="4.7696">
        <ele>170</ele>
        <time>2018-06-19T08:31:31Z</time>
      </trkpt>
      <trkpt lat="45.93456" lon="4.76968">
        <ele>170</ele>
        <time>2018-06-19T08:31:32Z</time>
      </trkpt>
      <trkpt lat="45.93457" lon="4.76976">
        <ele>170</ele>
        <time>2018-06-19T08:31:33Z</time>
      </trkpt>
      <trkpt lat="45.93457" lon="4.76984">
        <ele>170</ele>
        <time>2018-06-19T08:31:34Z</time>
      </trkpt>
      <trkpt lat="45.93458" lon="4.76992">
        <ele>170</ele>
        <time>2018-06-19T08:31:35Z</time>
      </trkpt>
      <trkpt lat="45.9346" lon="4.77">
        <ele>170</ele>
        <time>2018-06-19T08:31:36Z</time>
      </trkpt>
      <trkpt lat="45.9346" lon="4.77008">
        <ele>170</ele>
        <time>2018-06-19T08:31:37Z</time>
      </trkpt>
      <trkpt lat="45.93461" lon="4.77016">
        <ele>170</ele>
        <time>2018-06-19T08:31:38Z</time>
      </trkpt>
      <trkpt lat="45.93462" lon="4.77024">
        <ele>170</ele>
        <time>2018-06-19T08:31:39Z</time>
      </trkpt>
      <trkpt lat="45.93464" lon="4.77031">
        <ele>170</ele>
        <time>2018-06-19T08:31:40Z</time>
      </trkpt>
      <trkpt lat="45.93465" lon="4.77038">
        <ele>170</ele>
        <time>2018-06-19T08:31:41Z</time>
      </trkpt>
      <trkpt lat="45.93465" lon="4.77046">
        <ele>170</ele>
        <time>2018-06-19T08:31:42Z</time>
      </trkpt>
      <trkpt lat="45.93467" lon="4.77053">
        <ele>170</ele>
        <time>2018-06-19T08:31:43Z</time>
      </trkpt>
      <trkpt lat="45.93468" lon="4.77061">
        <ele>170</ele>
        <time>2018-06-19T08:31:44Z</time>
      </trkpt>
      <trkpt lat="45.93469" lon="4.77069">
        <ele>170</ele>
        <time>2018-06-19T08:31:45Z</time>
      </trkpt>
      <trkpt lat="45.9347" lon="4.77077">
        <ele>170</ele>
        <time>2018-06-19T08:31:46Z</time>
      </trkpt>
      <trkpt lat="45.93472" lon="4.77084">
        <ele>169</ele>
        <time>2018-06-19T08:31:47Z</time>
      </trkpt>
      <trkpt lat="45.93473" lon="4.77093">
        <ele>169</ele>
        <time>2018-06-19T08:31:48Z</time>
      </trkpt>
      <trkpt lat="45.93475" lon="4.771">
        <ele>169</ele>
        <time>2018-06-19T08:31:49Z</time>
      </trkpt>
      <trkpt lat="45.93477" lon="4.77108">
        <ele>169</ele>
        <time>2018-06-19T08:31:50Z</time>
      </trkpt>
      <trkpt lat="45.93479" lon="4.77116">
        <ele>169</ele>
        <time>2018-06-19T08:31:51Z</time>
      </trkpt>
      <trkpt lat="45.9348" lon="4.77124">
        <ele>169</ele>
        <time>2018-06-19T08:31:52Z</time>
      </trkpt>
      <trkpt lat="45.93482" lon="4.77133">
        <ele>169</ele>
        <time>2018-06-19T08:31:53Z</time>
      </trkpt>
      <trkpt lat="45.93484" lon="4.77141">
        <ele>169</ele>
        <time>2018-06-19T08:31:54Z</time>
      </trkpt>
      <trkpt lat="45.93486" lon="4.77149">
        <ele>169</ele>
        <time>2018-06-19T08:31:55Z</time>
      </trkpt>
      <trkpt lat="45.93487" lon="4.77157">
        <ele>169</ele>
        <time>2018-06-19T08:31:56Z</time>
      </trkpt>
      <trkpt lat="45.93488" lon="4.77165">
        <ele>169</ele>
        <time>2018-06-19T08:31:57Z</time>
      </trkpt>
      <trkpt lat="45.9349" lon="4.77173">
        <ele>169</ele>
        <time>2018-06-19T08:31:58Z</time>
      </trkpt>
      <trkpt lat="45.93491" lon="4.77181">
        <ele>169</ele>
        <time>2018-06-19T08:31:59Z</time>
      </trkpt>
      <trkpt lat="45.93493" lon="4.77188">
        <ele>169</ele>
        <time>2018-06-19T08:32:00Z</time>
      </trkpt>
      <trkpt lat="45.93494" lon="4.77196">
        <ele>169</ele>
        <time>2018-06-19T08:32:01Z</time>
      </trkpt>
      <trkpt lat="45.93496" lon="4.77204">
        <ele>169</ele>
        <time>2018-06-19T08:32:02Z</time>
      </trkpt>
      <trkpt lat="45.93498" lon="4.77213">
        <ele>169</ele>
        <time>2018-06-19T08:32:03Z</time>
      </trkpt>
      <trkpt lat="45.93499" lon="4.77221">
        <ele>169</ele>
        <time>2018-06-19T08:32:04Z</time>
      </trkpt>
      <trkpt lat="45.93501" lon="4.77228">
        <ele>169</ele>
        <time>2018-06-19T08:32:05Z</time>
      </trkpt>
      <trkpt lat="45.93502" lon="4.77235">
        <ele>169</ele>
        <time>2018-06-19T08:32:06Z</time>
      </trkpt>
      <trkpt lat="45.93504" lon="4.77243">
        <ele>170</ele>
        <time>2018-06-19T08:32:07Z</time>
      </trkpt>
      <trkpt lat="45.93504" lon="4.77251">
        <ele>170</ele>
        <time>2018-06-19T08:32:08Z</time>
      </trkpt>
      <trkpt lat="45.93508" lon="4.77258">
        <ele>170</ele>
        <time>2018-06-19T08:32:09Z</time>
      </trkpt>
      <trkpt lat="45.93508" lon="4.77265">
        <ele>170</ele>
        <time>2018-06-19T08:32:10Z</time>
      </trkpt>
      <trkpt lat="45.93509" lon="4.77272">
        <ele>170</ele>
        <time>2018-06-19T08:32:11Z</time>
      </trkpt>
      <trkpt lat="45.93511" lon="4.77278">
        <ele>170</ele>
        <time>2018-06-19T08:32:12Z</time>
      </trkpt>
      <trkpt lat="45.93513" lon="4.77285">
        <ele>170</ele>
        <time>2018-06-19T08:32:13Z</time>
      </trkpt>
      <trkpt lat="45.93516" lon="4.77293">
        <ele>170</ele>
        <time>2018-06-19T08:32:14Z</time>
      </trkpt>
      <trkpt lat="45.93518" lon="4.773">
        <ele>170</ele>
        <time>2018-06-19T08:32:15Z</time>
      </trkpt>
      <trkpt lat="45.9352" lon="4.77306">
        <ele>170</ele>
        <time>2018-06-19T08:32:16Z</time>
      </trkpt>
      <trkpt lat="45.93521" lon="4.77313">
        <ele>170</ele>
        <time>2018-06-19T08:32:17Z</time>
      </trkpt>
      <trkpt lat="45.93523" lon="4.77321">
        <ele>170</ele>
        <time>2018-06-19T08:32:18Z</time>
      </trkpt>
      <trkpt lat="45.93524" lon="4.77329">
        <ele>170</ele>
        <time>2018-06-19T08:32:19Z</time>
      </trkpt>
      <trkpt lat="45.93525" lon="4.77337">
        <ele>170</ele>
        <time>2018-06-19T08:32:20Z</time>
      </trkpt>
      <trkpt lat="45.93527" lon="4.77345">
        <ele>170</ele>
        <time>2018-06-19T08:32:21Z</time>
      </trkpt>
      <trkpt lat="45.9353" lon="4.77354">
        <ele>170</ele>
        <time>2018-06-19T08:32:22Z</time>
      </trkpt>
      <trkpt lat="45.93531" lon="4.77361">
        <ele>170</ele>
        <time>2018-06-19T08:32:23Z</time>
      </trkpt>
      <trkpt lat="45.93534" lon="4.77371">
        <ele>170</ele>
        <time>2018-06-19T08:32:24Z</time>
      </trkpt>
      <trkpt lat="45.93535" lon="4.77379">
        <ele>170</ele>
        <time>2018-06-19T08:32:25Z</time>
      </trkpt>
      <trkpt lat="45.93536" lon="4.77387">
        <ele>170</ele>
        <time>2018-06-19T08:32:26Z</time>
      </trkpt>
      <trkpt lat="45.93538" lon="4.77394">
        <ele>170</ele>
        <time>2018-06-19T08:32:27Z</time>
      </trkpt>
      <trkpt lat="45.93539" lon="4.77402">
        <ele>170</ele>
        <time>2018-06-19T08:32:28Z</time>
      </trkpt>
      <trkpt lat="45.93541" lon="4.77408">
        <ele>170</ele>
        <time>2018-06-19T08:32:29Z</time>
      </trkpt>
      <trkpt lat="45.93543" lon="4.77416">
        <ele>170</ele>
        <time>2018-06-19T08:32:30Z</time>
      </trkpt>
      <trkpt lat="45.93544" lon="4.77422">
        <ele>170</ele>
        <time>2018-06-19T08:32:31Z</time>
      </trkpt>
      <trkpt lat="45.93547" lon="4.7743">
        <ele>169</ele>
        <time>2018-06-19T08:32:32Z</time>
      </trkpt>
      <trkpt lat="45.93548" lon="4.77437">
        <ele>169</ele>
        <time>2018-06-19T08:32:33Z</time>
      </trkpt>
      <trkpt lat="45.9355" lon="4.77444">
        <ele>169</ele>
        <time>2018-06-19T08:32:34Z</time>
      </trkpt>
      <trkpt lat="45.93551" lon="4.77452">
        <ele>169</ele>
        <time>2018-06-19T08:32:35Z</time>
      </trkpt>
      <trkpt lat="45.93553" lon="4.77459">
        <ele>169</ele>
        <time>2018-06-19T08:32:36Z</time>
      </trkpt>
      <trkpt lat="45.93555" lon="4.77467">
        <ele>169</ele>
        <time>2018-06-19T08:32:37Z</time>
      </trkpt>
      <trkpt lat="45.93555" lon="4.77475">
        <ele>169</ele>
        <time>2018-06-19T08:32:38Z</time>
      </trkpt>
      <trkpt lat="45.93557" lon="4.77483">
        <ele>169</ele>
        <time>2018-06-19T08:32:39Z</time>
      </trkpt>
      <trkpt lat="45.9356" lon="4.7749">
        <ele>169</ele>
        <time>2018-06-19T08:32:40Z</time>
      </trkpt>
      <trkpt lat="45.93561" lon="4.77496">
        <ele>169</ele>
        <time>2018-06-19T08:32:41Z</time>
      </trkpt>
      <trkpt lat="45.93563" lon="4.77503">
        <ele>169</ele>
        <time>2018-06-19T08:32:42Z</time>
      </trkpt>
      <trkpt lat="45.93565" lon="4.7751">
        <ele>169</ele>
        <time>2018-06-19T08:32:43Z</time>
      </trkpt>
      <trkpt lat="45.93567" lon="4.77518">
        <ele>169</ele>
        <time>2018-06-19T08:32:44Z</time>
      </trkpt>
      <trkpt lat="45.93568" lon="4.77525">
        <ele>169</ele>
        <time>2018-06-19T08:32:45Z</time>
      </trkpt>
      <trkpt lat="45.9357" lon="4.77532">
        <ele>169</ele>
        <time>2018-06-19T08:32:46Z</time>
      </trkpt>
      <trkpt lat="45.93572" lon="4.77539">
        <ele>169</ele>
        <time>2018-06-19T08:32:47Z</time>
      </trkpt>
      <trkpt lat="45.93574" lon="4.77547">
        <ele>169</ele>
        <time>2018-06-19T08:32:48Z</time>
      </trkpt>
      <trkpt lat="45.93577" lon="4.77555">
        <ele>169</ele>
        <time>2018-06-19T08:32:49Z</time>
      </trkpt>
      <trkpt lat="45.93578" lon="4.77563">
        <ele>169</ele>
        <time>2018-06-19T08:32:50Z</time>
      </trkpt>
      <trkpt lat="45.9358" lon="4.77571">
        <ele>170</ele>
        <time>2018-06-19T08:32:51Z</time>
      </trkpt>
      <trkpt lat="45.93582" lon="4.77579">
        <ele>170</ele>
        <time>2018-06-19T08:32:52Z</time>
      </trkpt>
      <trkpt lat="45.93586" lon="4.77589">
        <ele>170</ele>
        <time>2018-06-19T08:32:53Z</time>
      </trkpt>
      <trkpt lat="45.93588" lon="4.77598">
        <ele>170</ele>
        <time>2018-06-19T08:32:54Z</time>
      </trkpt>
      <trkpt lat="45.9359" lon="4.77606">
        <ele>170</ele>
        <time>2018-06-19T08:32:55Z</time>
      </trkpt>
      <trkpt lat="45.93594" lon="4.77614">
        <ele>170</ele>
        <time>2018-06-19T08:32:56Z</time>
      </trkpt>
      <trkpt lat="45.93597" lon="4.77623">
        <ele>170</ele>
        <time>2018-06-19T08:32:57Z</time>
      </trkpt>
      <trkpt lat="45.936" lon="4.77631">
        <ele>169</ele>
        <time>2018-06-19T08:32:58Z</time>
      </trkpt>
      <trkpt lat="45.93603" lon="4.77639">
        <ele>169</ele>
        <time>2018-06-19T08:32:59Z</time>
      </trkpt>
      <trkpt lat="45.93605" lon="4.77647">
        <ele>169</ele>
        <time>2018-06-19T08:33:00Z</time>
      </trkpt>
      <trkpt lat="45.93609" lon="4.77655">
        <ele>169</ele>
        <time>2018-06-19T08:33:01Z</time>
      </trkpt>
      <trkpt lat="45.93613" lon="4.77662">
        <ele>169</ele>
        <time>2018-06-19T08:33:02Z</time>
      </trkpt>
      <trkpt lat="45.93615" lon="4.77671">
        <ele>169</ele>
        <time>2018-06-19T08:33:03Z</time>
      </trkpt>
      <trkpt lat="45.93619" lon="4.77678">
        <ele>169</ele>
        <time>2018-06-19T08:33:04Z</time>
      </trkpt>
      <trkpt lat="45.93622" lon="4.77686">
        <ele>169</ele>
        <time>2018-06-19T08:33:05Z</time>
      </trkpt>
      <trkpt lat="45.93625" lon="4.77693">
        <ele>169</ele>
        <time>2018-06-19T08:33:06Z</time>
      </trkpt>
      <trkpt lat="45.93629" lon="4.77699">
        <ele>169</ele>
        <time>2018-06-19T08:33:07Z</time>
      </trkpt>
      <trkpt lat="45.93633" lon="4.77705">
        <ele>170</ele>
        <time>2018-06-19T08:33:08Z</time>
      </trkpt>
      <trkpt lat="45.93636" lon="4.77711">
        <ele>170</ele>
        <time>2018-06-19T08:33:09Z</time>
      </trkpt>
      <trkpt lat="45.93639" lon="4.77716">
        <ele>170</ele>
        <time>2018-06-19T08:33:10Z</time>
      </trkpt>
      <trkpt lat="45.93643" lon="4.77723">
        <ele>170</ele>
        <time>2018-06-19T08:33:11Z</time>
      </trkpt>
      <trkpt lat="45.93647" lon="4.77728">
        <ele>170</ele>
        <time>2018-06-19T08:33:12Z</time>
      </trkpt>
      <trkpt lat="45.93653" lon="4.77737">
        <ele>170</ele>
        <time>2018-06-19T08:33:14Z</time>
      </trkpt>
      <trkpt lat="45.93656" lon="4.77741">
        <ele>170</ele>
        <time>2018-06-19T08:33:15Z</time>
      </trkpt>
      <trkpt lat="45.93662" lon="4.77749">
        <ele>171</ele>
        <time>2018-06-19T08:33:17Z</time>
      </trkpt>
      <trkpt lat="45.93665" lon="4.77753">
        <ele>171</ele>
        <time>2018-06-19T08:33:18Z</time>
      </trkpt>
      <trkpt lat="45.93671" lon="4.77763">
        <ele>170</ele>
        <time>2018-06-19T08:33:20Z</time>
      </trkpt>
      <trkpt lat="45.93675" lon="4.77768">
        <ele>170</ele>
        <time>2018-06-19T08:33:21Z</time>
      </trkpt>
      <trkpt lat="45.9368" lon="4.77777">
        <ele>170</ele>
        <time>2018-06-19T08:33:23Z</time>
      </trkpt>
      <trkpt lat="45.93683" lon="4.77781">
        <ele>170</ele>
        <time>2018-06-19T08:33:24Z</time>
      </trkpt>
      <trkpt lat="45.93687" lon="4.77787">
        <ele>170</ele>
        <time>2018-06-19T08:33:25Z</time>
      </trkpt>
      <trkpt lat="45.93691" lon="4.77791">
        <ele>170</ele>
        <time>2018-06-19T08:33:26Z</time>
      </trkpt>
      <trkpt lat="45.93694" lon="4.77797">
        <ele>169</ele>
        <time>2018-06-19T08:33:27Z</time>
      </trkpt>
      <trkpt lat="45.93697" lon="4.77802">
        <ele>169</ele>
        <time>2018-06-19T08:33:28Z</time>
      </trkpt>
      <trkpt lat="45.937" lon="4.77807">
        <ele>169</ele>
        <time>2018-06-19T08:33:29Z</time>
      </trkpt>
      <trkpt lat="45.93703" lon="4.77811">
        <ele>169</ele>
        <time>2018-06-19T08:33:30Z</time>
      </trkpt>
      <trkpt lat="45.93709" lon="4.7782">
        <ele>169</ele>
        <time>2018-06-19T08:33:32Z</time>
      </trkpt>
      <trkpt lat="45.93713" lon="4.77824">
        <ele>169</ele>
        <time>2018-06-19T08:33:33Z</time>
      </trkpt>
      <trkpt lat="45.93716" lon="4.77829">
        <ele>169</ele>
        <time>2018-06-19T08:33:34Z</time>
      </trkpt>
      <trkpt lat="45.93719" lon="4.77833">
        <ele>168</ele>
        <time>2018-06-19T08:33:35Z</time>
      </trkpt>
      <trkpt lat="45.93726" lon="4.77842">
        <ele>167</ele>
        <time>2018-06-19T08:33:37Z</time>
      </trkpt>
      <trkpt lat="45.93729" lon="4.77846">
        <ele>167</ele>
        <time>2018-06-19T08:33:38Z</time>
      </trkpt>
      <trkpt lat="45.93735" lon="4.77854">
        <ele>167</ele>
        <time>2018-06-19T08:33:40Z</time>
      </trkpt>
      <trkpt lat="45.93739" lon="4.77858">
        <ele>167</ele>
        <time>2018-06-19T08:33:41Z</time>
      </trkpt>
      <trkpt lat="45.93742" lon="4.77863">
        <ele>167</ele>
        <time>2018-06-19T08:33:42Z</time>
      </trkpt>
      <trkpt lat="45.93746" lon="4.77867">
        <ele>167</ele>
        <time>2018-06-19T08:33:43Z</time>
      </trkpt>
      <trkpt lat="45.93753" lon="4.77876">
        <ele>166</ele>
        <time>2018-06-19T08:33:45Z</time>
      </trkpt>
      <trkpt lat="45.93756" lon="4.77881">
        <ele>166</ele>
        <time>2018-06-19T08:33:46Z</time>
      </trkpt>
      <trkpt lat="45.93759" lon="4.77886">
        <ele>166</ele>
        <time>2018-06-19T08:33:47Z</time>
      </trkpt>
      <trkpt lat="45.93763" lon="4.7789">
        <ele>166</ele>
        <time>2018-06-19T08:33:48Z</time>
      </trkpt>
      <trkpt lat="45.93767" lon="4.77895">
        <ele>166</ele>
        <time>2018-06-19T08:33:49Z</time>
      </trkpt>
      <trkpt lat="45.9377" lon="4.779">
        <ele>166</ele>
        <time>2018-06-19T08:33:50Z</time>
      </trkpt>
      <trkpt lat="45.93776" lon="4.77907">
        <ele>166</ele>
        <time>2018-06-19T08:33:52Z</time>
      </trkpt>
      <trkpt lat="45.9378" lon="4.77912">
        <ele>166</ele>
        <time>2018-06-19T08:33:53Z</time>
      </trkpt>
      <trkpt lat="45.93785" lon="4.77918">
        <ele>168</ele>
        <time>2018-06-19T08:33:55Z</time>
      </trkpt>
      <trkpt lat="45.93788" lon="4.77922">
        <ele>168</ele>
        <time>2018-06-19T08:33:56Z</time>
      </trkpt>
      <trkpt lat="45.93792" lon="4.77926">
        <ele>168</ele>
        <time>2018-06-19T08:33:57Z</time>
      </trkpt>
      <trkpt lat="45.93795" lon="4.7793">
        <ele>168</ele>
        <time>2018-06-19T08:33:58Z</time>
      </trkpt>
      <trkpt lat="45.93799" lon="4.77936">
        <ele>169</ele>
        <time>2018-06-19T08:33:59Z</time>
      </trkpt>
      <trkpt lat="45.93803" lon="4.77941">
        <ele>169</ele>
        <time>2018-06-19T08:34:00Z</time>
      </trkpt>
      <trkpt lat="45.93805" lon="4.77945">
        <ele>169</ele>
        <time>2018-06-19T08:34:01Z</time>
      </trkpt>
      <trkpt lat="45.9381" lon="4.7795">
        <ele>169</ele>
        <time>2018-06-19T08:34:02Z</time>
      </trkpt>
      <trkpt lat="45.93814" lon="4.77955">
        <ele>170</ele>
        <time>2018-06-19T08:34:03Z</time>
      </trkpt>
      <trkpt lat="45.93818" lon="4.77959">
        <ele>170</ele>
        <time>2018-06-19T08:34:04Z</time>
      </trkpt>
      <trkpt lat="45.93821" lon="4.77964">
        <ele>171</ele>
        <time>2018-06-19T08:34:05Z</time>
      </trkpt>
      <trkpt lat="45.93825" lon="4.77969">
        <ele>172</ele>
        <time>2018-06-19T08:34:06Z</time>
      </trkpt>
      <trkpt lat="45.93829" lon="4.77974">
        <ele>172</ele>
        <time>2018-06-19T08:34:07Z</time>
      </trkpt>
      <trkpt lat="45.93833" lon="4.77979">
        <ele>173</ele>
        <time>2018-06-19T08:34:08Z</time>
      </trkpt>
      <trkpt lat="45.93837" lon="4.77985">
        <ele>178</ele>
        <time>2018-06-19T08:34:09Z</time>
      </trkpt>
      <trkpt lat="45.93839" lon="4.77992">
        <ele>179</ele>
        <time>2018-06-19T08:34:10Z</time>
      </trkpt>
      <trkpt lat="45.93841" lon="4.77998">
        <ele>179</ele>
        <time>2018-06-19T08:34:11Z</time>
      </trkpt>
      <trkpt lat="45.93842" lon="4.78006">
        <ele>181</ele>
        <time>2018-06-19T08:34:12Z</time>
      </trkpt>
      <trkpt lat="45.93842" lon="4.78014">
        <ele>181</ele>
        <time>2018-06-19T08:34:13Z</time>
      </trkpt>
      <trkpt lat="45.93844" lon="4.78021">
        <ele>182</ele>
        <time>2018-06-19T08:34:14Z</time>
      </trkpt>
      <trkpt lat="45.93846" lon="4.78029">
        <ele>182</ele>
        <time>2018-06-19T08:34:15Z</time>
      </trkpt>
      <trkpt lat="45.93849" lon="4.78036">
        <ele>182</ele>
        <time>2018-06-19T08:34:16Z</time>
      </trkpt>
      <trkpt lat="45.9385" lon="4.78042">
        <ele>183</ele>
        <time>2018-06-19T08:34:17Z</time>
      </trkpt>
      <trkpt lat="45.9385" lon="4.7805">
        <ele>183</ele>
        <time>2018-06-19T08:34:18Z</time>
      </trkpt>
      <trkpt lat="45.93849" lon="4.78062">
        <ele>182</ele>
        <time>2018-06-19T08:34:20Z</time>
      </trkpt>
      <trkpt lat="45.93846" lon="4.78066">
        <ele>182</ele>
        <time>2018-06-19T08:34:21Z</time>
      </trkpt>
      <trkpt lat="45.93846" lon="4.78073">
        <ele>182</ele>
        <time>2018-06-19T08:34:22Z</time>
      </trkpt>
      <trkpt lat="45.93844" lon="4.7808">
        <ele>181</ele>
        <time>2018-06-19T08:34:23Z</time>
      </trkpt>
      <trkpt lat="45.93842" lon="4.78087">
        <ele>182</ele>
        <time>2018-06-19T08:34:24Z</time>
      </trkpt>
      <trkpt lat="45.93842" lon="4.78098">
        <ele>183</ele>
        <time>2018-06-19T08:34:25Z</time>
      </trkpt>
      <trkpt lat="45.9384" lon="4.78104">
        <ele>183</ele>
        <time>2018-06-19T08:34:26Z</time>
      </trkpt>
      <trkpt lat="45.93838" lon="4.78111">
        <ele>184</ele>
        <time>2018-06-19T08:34:27Z</time>
      </trkpt>
      <trkpt lat="45.93837" lon="4.78119">
        <ele>184</ele>
        <time>2018-06-19T08:34:28Z</time>
      </trkpt>
      <trkpt lat="45.93835" lon="4.78126">
        <ele>184</ele>
        <time>2018-06-19T08:34:29Z</time>
      </trkpt>
      <trkpt lat="45.93833" lon="4.78134">
        <ele>180</ele>
        <time>2018-06-19T08:34:30Z</time>
      </trkpt>
      <trkpt lat="45.9383" lon="4.78141">
        <ele>180</ele>
        <time>2018-06-19T08:34:31Z</time>
      </trkpt>
      <trkpt lat="45.93827" lon="4.78145">
        <ele>180</ele>
        <time>2018-06-19T08:34:32Z</time>
      </trkpt>
      <trkpt lat="45.93826" lon="4.78152">
        <ele>180</ele>
        <time>2018-06-19T08:34:33Z</time>
      </trkpt>
      <trkpt lat="45.93823" lon="4.78158">
        <ele>181</ele>
        <time>2018-06-19T08:34:34Z</time>
      </trkpt>
      <trkpt lat="45.93822" lon="4.78165">
        <ele>181</ele>
        <time>2018-06-19T08:34:35Z</time>
      </trkpt>
      <trkpt lat="45.93821" lon="4.78172">
        <ele>182</ele>
        <time>2018-06-19T08:34:36Z</time>
      </trkpt>
      <trkpt lat="45.9382" lon="4.78179">
        <ele>182</ele>
        <time>2018-06-19T08:34:37Z</time>
      </trkpt>
      <trkpt lat="45.93818" lon="4.7819">
        <ele>182</ele>
        <time>2018-06-19T08:34:39Z</time>
      </trkpt>
      <trkpt lat="45.93816" lon="4.78196">
        <ele>182</ele>
        <time>2018-06-19T08:34:40Z</time>
      </trkpt>
      <trkpt lat="45.93813" lon="4.78206">
        <ele>182</ele>
        <time>2018-06-19T08:34:42Z</time>
      </trkpt>
      <trkpt lat="45.93812" lon="4.78213">
        <ele>182</ele>
        <time>2018-06-19T08:34:43Z</time>
      </trkpt>
      <trkpt lat="45.93807" lon="4.78223">
        <ele>182</ele>
        <time>2018-06-19T08:34:45Z</time>
      </trkpt>
      <trkpt lat="45.93803" lon="4.78227">
        <ele>182</ele>
        <time>2018-06-19T08:34:46Z</time>
      </trkpt>
      <trkpt lat="45.93799" lon="4.78231">
        <ele>182</ele>
        <time>2018-06-19T08:34:47Z</time>
      </trkpt>
      <trkpt lat="45.93796" lon="4.78236">
        <ele>182</ele>
        <time>2018-06-19T08:34:48Z</time>
      </trkpt>
      <trkpt lat="45.93793" lon="4.78242">
        <ele>182</ele>
        <time>2018-06-19T08:34:49Z</time>
      </trkpt>
      <trkpt lat="45.93791" lon="4.78249">
        <ele>182</ele>
        <time>2018-06-19T08:34:50Z</time>
      </trkpt>
      <trkpt lat="45.9379" lon="4.78257">
        <ele>183</ele>
        <time>2018-06-19T08:34:51Z</time>
      </trkpt>
      <trkpt lat="45.93789" lon="4.78264">
        <ele>183</ele>
        <time>2018-06-19T08:34:52Z</time>
      </trkpt>
      <trkpt lat="45.93788" lon="4.78271">
        <ele>183</ele>
        <time>2018-06-19T08:34:53Z</time>
      </trkpt>
      <trkpt lat="45.93787" lon="4.78278">
        <ele>183</ele>
        <time>2018-06-19T08:34:54Z</time>
      </trkpt>
      <trkpt lat="45.93783" lon="4.7829">
        <ele>183</ele>
        <time>2018-06-19T08:34:56Z</time>
      </trkpt>
      <trkpt lat="45.93782" lon="4.78296">
        <ele>183</ele>
        <time>2018-06-19T08:34:57Z</time>
      </trkpt>
      <trkpt lat="45.9378" lon="4.78303">
        <ele>183</ele>
        <time>2018-06-19T08:34:58Z</time>
      </trkpt>
      <trkpt lat="45.93778" lon="4.7831">
        <ele>183</ele>
        <time>2018-06-19T08:34:59Z</time>
      </trkpt>
      <trkpt lat="45.93777" lon="4.78319">
        <ele>183</ele>
        <time>2018-06-19T08:35:00Z</time>
      </trkpt>
      <trkpt lat="45.93774" lon="4.78327">
        <ele>183</ele>
        <time>2018-06-19T08:35:01Z</time>
      </trkpt>
      <trkpt lat="45.93772" lon="4.78333">
        <ele>183</ele>
        <time>2018-06-19T08:35:02Z</time>
      </trkpt>
      <trkpt lat="45.93771" lon="4.78341">
        <ele>183</ele>
        <time>2018-06-19T08:35:03Z</time>
      </trkpt>
      <trkpt lat="45.93769" lon="4.78347">
        <ele>183</ele>
        <time>2018-06-19T08:35:04Z</time>
      </trkpt>
      <trkpt lat="45.93767" lon="4.78354">
        <ele>183</ele>
        <time>2018-06-19T08:35:05Z</time>
      </trkpt>
      <trkpt lat="45.93765" lon="4.78361">
        <ele>183</ele>
        <time>2018-06-19T08:35:06Z</time>
      </trkpt>
      <trkpt lat="45.93762" lon="4.78367">
        <ele>183</ele>
        <time>2018-06-19T08:35:07Z</time>
      </trkpt>
      <trkpt lat="45.9376" lon="4.78375">
        <ele>183</ele>
        <time>2018-06-19T08:35:08Z</time>
      </trkpt>
      <trkpt lat="45.93758" lon="4.78382">
        <ele>183</ele>
        <time>2018-06-19T08:35:09Z</time>
      </trkpt>
      <trkpt lat="45.93756" lon="4.78391">
        <ele>183</ele>
        <time>2018-06-19T08:35:10Z</time>
      </trkpt>
      <trkpt lat="45.93755" lon="4.78401">
        <ele>182</ele>
        <time>2018-06-19T08:35:11Z</time>
      </trkpt>
      <trkpt lat="45.93753" lon="4.78409">
        <ele>182</ele>
        <time>2018-06-19T08:35:12Z</time>
      </trkpt>
      <trkpt lat="45.93752" lon="4.78417">
        <ele>181</ele>
        <time>2018-06-19T08:35:13Z</time>
      </trkpt>
      <trkpt lat="45.9375" lon="4.78427">
        <ele>182</ele>
        <time>2018-06-19T08:35:14Z</time>
      </trkpt>
      <trkpt lat="45.93748" lon="4.78435">
        <ele>180</ele>
        <time>2018-06-19T08:35:15Z</time>
      </trkpt>
      <trkpt lat="45.93747" lon="4.78443">
        <ele>180</ele>
        <time>2018-06-19T08:35:16Z</time>
      </trkpt>
      <trkpt lat="45.93744" lon="4.78452">
        <ele>180</ele>
        <time>2018-06-19T08:35:17Z</time>
      </trkpt>
      <trkpt lat="45.93742" lon="4.78461">
        <ele>180</ele>
        <time>2018-06-19T08:35:18Z</time>
      </trkpt>
      <trkpt lat="45.9374" lon="4.78472">
        <ele>180</ele>
        <time>2018-06-19T08:35:19Z</time>
      </trkpt>
      <trkpt lat="45.93739" lon="4.78483">
        <ele>180</ele>
        <time>2018-06-19T08:35:20Z</time>
      </trkpt>
      <trkpt lat="45.93732" lon="4.78489">
        <ele>180</ele>
        <time>2018-06-19T08:35:21Z</time>
      </trkpt>
      <trkpt lat="45.93728" lon="4.78498">
        <ele>180</ele>
        <time>2018-06-19T08:35:22Z</time>
      </trkpt>
      <trkpt lat="45.93726" lon="4.78506">
        <ele>179</ele>
        <time>2018-06-19T08:35:23Z</time>
      </trkpt>
      <trkpt lat="45.93725" lon="4.78514">
        <ele>179</ele>
        <time>2018-06-19T08:35:24Z</time>
      </trkpt>
      <trkpt lat="45.93723" lon="4.78524">
        <ele>178</ele>
        <time>2018-06-19T08:35:25Z</time>
      </trkpt>
      <trkpt lat="45.93721" lon="4.78532">
        <ele>178</ele>
        <time>2018-06-19T08:35:26Z</time>
      </trkpt>
      <trkpt lat="45.93719" lon="4.7854">
        <ele>178</ele>
        <time>2018-06-19T08:35:27Z</time>
      </trkpt>
      <trkpt lat="45.93716" lon="4.78549">
        <ele>178</ele>
        <time>2018-06-19T08:35:28Z</time>
      </trkpt>
      <trkpt lat="45.93714" lon="4.78558">
        <ele>178</ele>
        <time>2018-06-19T08:35:29Z</time>
      </trkpt>
      <trkpt lat="45.93712" lon="4.78566">
        <ele>178</ele>
        <time>2018-06-19T08:35:30Z</time>
      </trkpt>
      <trkpt lat="45.9371" lon="4.78577">
        <ele>177</ele>
        <time>2018-06-19T08:35:31Z</time>
      </trkpt>
      <trkpt lat="45.93708" lon="4.78585">
        <ele>176</ele>
        <time>2018-06-19T08:35:32Z</time>
      </trkpt>
      <trkpt lat="45.93706" lon="4.78592">
        <ele>176</ele>
        <time>2018-06-19T08:35:33Z</time>
      </trkpt>
      <trkpt lat="45.93704" lon="4.786">
        <ele>176</ele>
        <time>2018-06-19T08:35:36Z</time>
      </trkpt>
      <trkpt lat="45.93702" lon="4.78609">
        <ele>176</ele>
        <time>2018-06-19T08:35:37Z</time>
      </trkpt>
      <trkpt lat="45.93699" lon="4.7862">
        <ele>176</ele>
        <time>2018-06-19T08:35:39Z</time>
      </trkpt>
      <trkpt lat="45.93701" lon="4.78625">
        <ele>176</ele>
        <time>2018-06-19T08:35:40Z</time>
      </trkpt>
      <trkpt lat="45.93707" lon="4.78632">
        <ele>176</ele>
        <time>2018-06-19T08:35:42Z</time>
      </trkpt>
      <trkpt lat="45.9371" lon="4.78632">
        <ele>176</ele>
        <time>2018-06-19T08:35:43Z</time>
      </trkpt>
      <trkpt lat="45.93715" lon="4.78631">
        <ele>176</ele>
        <time>2018-06-19T08:35:44Z</time>
      </trkpt>
      <trkpt lat="45.9372" lon="4.78629">
        <ele>177</ele>
        <time>2018-06-19T08:35:45Z</time>
      </trkpt>
      <trkpt lat="45.93728" lon="4.78627">
        <ele>177</ele>
        <time>2018-06-19T08:35:48Z</time>
      </trkpt>
      <trkpt lat="45.9373" lon="4.78626">
        <ele>177</ele>
        <time>2018-06-19T08:35:49Z</time>
      </trkpt>
      <trkpt lat="45.93738" lon="4.78626">
        <ele>177</ele>
        <time>2018-06-19T08:35:52Z</time>
      </trkpt>
      <trkpt lat="45.93741" lon="4.78626">
        <ele>177</ele>
        <time>2018-06-19T08:35:53Z</time>
      </trkpt>
      <trkpt lat="45.9375" lon="4.78624">
        <ele>177</ele>
        <time>2018-06-19T08:35:56Z</time>
      </trkpt>
      <trkpt lat="45.93752" lon="4.78623">
        <ele>181</ele>
        <time>2018-06-19T08:35:57Z</time>
      </trkpt>
      <trkpt lat="45.93758" lon="4.78622">
        <ele>181</ele>
        <time>2018-06-19T08:35:59Z</time>
      </trkpt>
      <trkpt lat="45.93761" lon="4.78621">
        <ele>181</ele>
        <time>2018-06-19T08:36:00Z</time>
      </trkpt>
      <trkpt lat="45.93769" lon="4.78618">
        <ele>181</ele>
        <time>2018-06-19T08:36:03Z</time>
      </trkpt>
      <trkpt lat="45.93772" lon="4.78617">
        <ele>181</ele>
        <time>2018-06-19T08:36:04Z</time>
      </trkpt>
      <trkpt lat="45.9378" lon="4.78615">
        <ele>181</ele>
        <time>2018-06-19T08:36:07Z</time>
      </trkpt>
      <trkpt lat="45.93784" lon="4.78614">
        <ele>182</ele>
        <time>2018-06-19T08:36:08Z</time>
      </trkpt>
      <trkpt lat="45.9379" lon="4.78612">
        <ele>182</ele>
        <time>2018-06-19T08:36:10Z</time>
      </trkpt>
      <trkpt lat="45.93795" lon="4.7861">
        <ele>182</ele>
        <time>2018-06-19T08:36:11Z</time>
      </trkpt>
      <trkpt lat="45.93804" lon="4.78607">
        <ele>183</ele>
        <time>2018-06-19T08:36:13Z</time>
      </trkpt>
      <trkpt lat="45.93807" lon="4.78606">
        <ele>183</ele>
        <time>2018-06-19T08:36:14Z</time>
      </trkpt>
      <trkpt lat="45.93816" lon="4.78603">
        <ele>183</ele>
        <time>2018-06-19T08:36:15Z</time>
      </trkpt>
      <trkpt lat="45.93825" lon="4.78601">
        <ele>184</ele>
        <time>2018-06-19T08:36:19Z</time>
      </trkpt>
      <trkpt lat="45.93827" lon="4.786">
        <ele>184</ele>
        <time>2018-06-19T08:36:20Z</time>
      </trkpt>
      <trkpt lat="45.93835" lon="4.78597">
        <ele>187</ele>
        <time>2018-06-19T08:36:23Z</time>
      </trkpt>
      <trkpt lat="45.93838" lon="4.78597">
        <ele>187</ele>
        <time>2018-06-19T08:36:24Z</time>
      </trkpt>
      <trkpt lat="45.93845" lon="4.78595">
        <ele>188</ele>
        <time>2018-06-19T08:36:27Z</time>
      </trkpt>
      <trkpt lat="45.93848" lon="4.78595">
        <ele>188</ele>
        <time>2018-06-19T08:36:28Z</time>
      </trkpt>
      <trkpt lat="45.93855" lon="4.78595">
        <ele>188</ele>
        <time>2018-06-19T08:36:31Z</time>
      </trkpt>
      <trkpt lat="45.93858" lon="4.78596">
        <ele>188</ele>
        <time>2018-06-19T08:36:32Z</time>
      </trkpt>
      <trkpt lat="45.93866" lon="4.78596">
        <ele>188</ele>
        <time>2018-06-19T08:36:35Z</time>
      </trkpt>
      <trkpt lat="45.93868" lon="4.78595">
        <ele>188</ele>
        <time>2018-06-19T08:36:36Z</time>
      </trkpt>
      <trkpt lat="45.93876" lon="4.78593">
        <ele>189</ele>
        <time>2018-06-19T08:36:40Z</time>
      </trkpt>
      <trkpt lat="45.93878" lon="4.78593">
        <ele>189</ele>
        <time>2018-06-19T08:36:41Z</time>
      </trkpt>
      <trkpt lat="45.93885" lon="4.78591">
        <ele>189</ele>
        <time>2018-06-19T08:36:44Z</time>
      </trkpt>
      <trkpt lat="45.93887" lon="4.7859">
        <ele>190</ele>
        <time>2018-06-19T08:36:45Z</time>
      </trkpt>
      <trkpt lat="45.93895" lon="4.78587">
        <ele>190</ele>
        <time>2018-06-19T08:36:49Z</time>
      </trkpt>
      <trkpt lat="45.93897" lon="4.78586">
        <ele>190</ele>
        <time>2018-06-19T08:36:50Z</time>
      </trkpt>
      <trkpt lat="45.93904" lon="4.78582">
        <ele>192</ele>
        <time>2018-06-19T08:36:53Z</time>
      </trkpt>
      <trkpt lat="45.93907" lon="4.78582">
        <ele>192</ele>
        <time>2018-06-19T08:36:54Z</time>
      </trkpt>
      <trkpt lat="45.93913" lon="4.78578">
        <ele>193</ele>
        <time>2018-06-19T08:36:57Z</time>
      </trkpt>
      <trkpt lat="45.93915" lon="4.78577">
        <ele>193</ele>
        <time>2018-06-19T08:36:58Z</time>
      </trkpt>
      <trkpt lat="45.93923" lon="4.78574">
        <ele>195</ele>
        <time>2018-06-19T08:37:02Z</time>
      </trkpt>
      <trkpt lat="45.93924" lon="4.78574">
        <ele>195</ele>
        <time>2018-06-19T08:37:03Z</time>
      </trkpt>
      <trkpt lat="45.93932" lon="4.78578">
        <ele>196</ele>
        <time>2018-06-19T08:37:08Z</time>
      </trkpt>
      <trkpt lat="45.93935" lon="4.78588">
        <ele>195</ele>
        <time>2018-06-19T08:37:09Z</time>
      </trkpt>
      <trkpt lat="45.93935" lon="4.78598">
        <ele>195</ele>
        <time>2018-06-19T08:37:11Z</time>
      </trkpt>
      <trkpt lat="45.93935" lon="4.78601">
        <ele>195</ele>
        <time>2018-06-19T08:37:12Z</time>
      </trkpt>
      <trkpt lat="45.93935" lon="4.78609">
        <ele>196</ele>
        <time>2018-06-19T08:37:13Z</time>
      </trkpt>
      <trkpt lat="45.93936" lon="4.78614">
        <ele>196</ele>
        <time>2018-06-19T08:37:14Z</time>
      </trkpt>
      <trkpt lat="45.93939" lon="4.78626">
        <ele>196</ele>
        <time>2018-06-19T08:37:16Z</time>
      </trkpt>
      <trkpt lat="45.93941" lon="4.78635">
        <ele>195</ele>
        <time>2018-06-19T08:37:17Z</time>
      </trkpt>
      <trkpt lat="45.93941" lon="4.78647">
        <ele>195</ele>
        <time>2018-06-19T08:37:19Z</time>
      </trkpt>
      <trkpt lat="45.93939" lon="4.78651">
        <ele>195</ele>
        <time>2018-06-19T08:37:20Z</time>
      </trkpt>
      <trkpt lat="45.93938" lon="4.78661">
        <ele>194</ele>
        <time>2018-06-19T08:37:22Z</time>
      </trkpt>
      <trkpt lat="45.93939" lon="4.78667">
        <ele>194</ele>
        <time>2018-06-19T08:37:23Z</time>
      </trkpt>
      <trkpt lat="45.93937" lon="4.78678">
        <ele>193</ele>
        <time>2018-06-19T08:37:27Z</time>
      </trkpt>
      <trkpt lat="45.93936" lon="4.78682">
        <ele>193</ele>
        <time>2018-06-19T08:37:28Z</time>
      </trkpt>
      <trkpt lat="45.93935" lon="4.78693">
        <ele>194</ele>
        <time>2018-06-19T08:37:29Z</time>
      </trkpt>
      <trkpt lat="45.93935" lon="4.78699">
        <ele>194</ele>
        <time>2018-06-19T08:37:30Z</time>
      </trkpt>
      <trkpt lat="45.93936" lon="4.78712">
        <ele>194</ele>
        <time>2018-06-19T08:37:32Z</time>
      </trkpt>
      <trkpt lat="45.93936" lon="4.78718">
        <ele>194</ele>
        <time>2018-06-19T08:37:33Z</time>
      </trkpt>
      <trkpt lat="45.93936" lon="4.78729">
        <ele>194</ele>
        <time>2018-06-19T08:37:35Z</time>
      </trkpt>
      <trkpt lat="45.93935" lon="4.78735">
        <ele>193</ele>
        <time>2018-06-19T08:37:36Z</time>
      </trkpt>
      <trkpt lat="45.93935" lon="4.78747">
        <ele>193</ele>
        <time>2018-06-19T08:37:38Z</time>
      </trkpt>
      <trkpt lat="45.93934" lon="4.78753">
        <ele>193</ele>
        <time>2018-06-19T08:37:39Z</time>
      </trkpt>
      <trkpt lat="45.93937" lon="4.78762">
        <ele>193</ele>
        <time>2018-06-19T08:37:40Z</time>
      </trkpt>
      <trkpt lat="45.93937" lon="4.78768">
        <ele>193</ele>
        <time>2018-06-19T08:37:41Z</time>
      </trkpt>
      <trkpt lat="45.93938" lon="4.78775">
        <ele>194</ele>
        <time>2018-06-19T08:37:42Z</time>
      </trkpt>
      <trkpt lat="45.93939" lon="4.78782">
        <ele>194</ele>
        <time>2018-06-19T08:37:43Z</time>
      </trkpt>
      <trkpt lat="45.93938" lon="4.78789">
        <ele>194</ele>
        <time>2018-06-19T08:37:44Z</time>
      </trkpt>
      <trkpt lat="45.93938" lon="4.78795">
        <ele>194</ele>
        <time>2018-06-19T08:37:45Z</time>
      </trkpt>
      <trkpt lat="45.93937" lon="4.78807">
        <ele>194</ele>
        <time>2018-06-19T08:37:47Z</time>
      </trkpt>
      <trkpt lat="45.93938" lon="4.78814">
        <ele>194</ele>
        <time>2018-06-19T08:37:48Z</time>
      </trkpt>
      <trkpt lat="45.93938" lon="4.78826">
        <ele>193</ele>
        <time>2018-06-19T08:37:50Z</time>
      </trkpt>
      <trkpt lat="45.93939" lon="4.78831">
        <ele>193</ele>
        <time>2018-06-19T08:37:51Z</time>
      </trkpt>
      <trkpt lat="45.93939" lon="4.78842">
        <ele>193</ele>
        <time>2018-06-19T08:37:53Z</time>
      </trkpt>
      <trkpt lat="45.93938" lon="4.78848">
        <ele>193</ele>
        <time>2018-06-19T08:37:54Z</time>
      </trkpt>
      <trkpt lat="45.93939" lon="4.7886">
        <ele>194</ele>
        <time>2018-06-19T08:37:56Z</time>
      </trkpt>
      <trkpt lat="45.9394" lon="4.78867">
        <ele>194</ele>
        <time>2018-06-19T08:37:57Z</time>
      </trkpt>
      <trkpt lat="45.9394" lon="4.78874">
        <ele>194</ele>
        <time>2018-06-19T08:37:58Z</time>
      </trkpt>
      <trkpt lat="45.93939" lon="4.78881">
        <ele>194</ele>
        <time>2018-06-19T08:37:59Z</time>
      </trkpt>
      <trkpt lat="45.93941" lon="4.78887">
        <ele>194</ele>
        <time>2018-06-19T08:38:00Z</time>
      </trkpt>
      <trkpt lat="45.93941" lon="4.78894">
        <ele>193</ele>
        <time>2018-06-19T08:38:01Z</time>
      </trkpt>
      <trkpt lat="45.93941" lon="4.78907">
        <ele>193</ele>
        <time>2018-06-19T08:38:03Z</time>
      </trkpt>
      <trkpt lat="45.93942" lon="4.78913">
        <ele>193</ele>
        <time>2018-06-19T08:38:04Z</time>
      </trkpt>
      <trkpt lat="45.93942" lon="4.78925">
        <ele>193</ele>
        <time>2018-06-19T08:38:06Z</time>
      </trkpt>
      <trkpt lat="45.93941" lon="4.78931">
        <ele>193</ele>
        <time>2018-06-19T08:38:07Z</time>
      </trkpt>
      <trkpt lat="45.93942" lon="4.78937">
        <ele>194</ele>
        <time>2018-06-19T08:38:08Z</time>
      </trkpt>
      <trkpt lat="45.93941" lon="4.78944">
        <ele>194</ele>
        <time>2018-06-19T08:38:09Z</time>
      </trkpt>
      <trkpt lat="45.93943" lon="4.78952">
        <ele>194</ele>
        <time>2018-06-19T08:38:10Z</time>
      </trkpt>
      <trkpt lat="45.93942" lon="4.78958">
        <ele>194</ele>
        <time>2018-06-19T08:38:11Z</time>
      </trkpt>
      <trkpt lat="45.93943" lon="4.78965">
        <ele>194</ele>
        <time>2018-06-19T08:38:12Z</time>
      </trkpt>
      <trkpt lat="45.93944" lon="4.78972">
        <ele>194</ele>
        <time>2018-06-19T08:38:13Z</time>
      </trkpt>
      <trkpt lat="45.93944" lon="4.78984">
        <ele>194</ele>
        <time>2018-06-19T08:38:15Z</time>
      </trkpt>
      <trkpt lat="45.93945" lon="4.78992">
        <ele>194</ele>
        <time>2018-06-19T08:38:16Z</time>
      </trkpt>
      <trkpt lat="45.93947" lon="4.79004">
        <ele>195</ele>
        <time>2018-06-19T08:38:18Z</time>
      </trkpt>
      <trkpt lat="45.93946" lon="4.7901">
        <ele>195</ele>
        <time>2018-06-19T08:38:19Z</time>
      </trkpt>
      <trkpt lat="45.93945" lon="4.79018">
        <ele>195</ele>
        <time>2018-06-19T08:38:20Z</time>
      </trkpt>
      <trkpt lat="45.93947" lon="4.79023">
        <ele>195</ele>
        <time>2018-06-19T08:38:21Z</time>
      </trkpt>
      <trkpt lat="45.93945" lon="4.79034">
        <ele>195</ele>
        <time>2018-06-19T08:38:23Z</time>
      </trkpt>
      <trkpt lat="45.93944" lon="4.79041">
        <ele>195</ele>
        <time>2018-06-19T08:38:24Z</time>
      </trkpt>
      <trkpt lat="45.93945" lon="4.79049">
        <ele>195</ele>
        <time>2018-06-19T08:38:25Z</time>
      </trkpt>
      <trkpt lat="45.93945" lon="4.79057">
        <ele>196</ele>
        <time>2018-06-19T08:38:26Z</time>
      </trkpt>
      <trkpt lat="45.93945" lon="4.79068">
        <ele>195</ele>
        <time>2018-06-19T08:38:28Z</time>
      </trkpt>
      <trkpt lat="45.93947" lon="4.79076">
        <ele>196</ele>
        <time>2018-06-19T08:38:29Z</time>
      </trkpt>
      <trkpt lat="45.93946" lon="4.79088">
        <ele>196</ele>
        <time>2018-06-19T08:38:31Z</time>
      </trkpt>
      <trkpt lat="45.93947" lon="4.79095">
        <ele>196</ele>
        <time>2018-06-19T08:38:32Z</time>
      </trkpt>
      <trkpt lat="45.93948" lon="4.79104">
        <ele>196</ele>
        <time>2018-06-19T08:38:33Z</time>
      </trkpt>
      <trkpt lat="45.93947" lon="4.79109">
        <ele>196</ele>
        <time>2018-06-19T08:38:34Z</time>
      </trkpt>
      <trkpt lat="45.93948" lon="4.79115">
        <ele>197</ele>
        <time>2018-06-19T08:38:35Z</time>
      </trkpt>
      <trkpt lat="45.93949" lon="4.79124">
        <ele>197</ele>
        <time>2018-06-19T08:38:36Z</time>
      </trkpt>
      <trkpt lat="45.93949" lon="4.79136">
        <ele>197</ele>
        <time>2018-06-19T08:38:38Z</time>
      </trkpt>
      <trkpt lat="45.93949" lon="4.79142">
        <ele>197</ele>
        <time>2018-06-19T08:38:39Z</time>
      </trkpt>
      <trkpt lat="45.93949" lon="4.7915">
        <ele>197</ele>
        <time>2018-06-19T08:38:40Z</time>
      </trkpt>
      <trkpt lat="45.93949" lon="4.79155">
        <ele>197</ele>
        <time>2018-06-19T08:38:41Z</time>
      </trkpt>
      <trkpt lat="45.93949" lon="4.79167">
        <ele>197</ele>
        <time>2018-06-19T08:38:43Z</time>
      </trkpt>
      <trkpt lat="45.93949" lon="4.79173">
        <ele>197</ele>
        <time>2018-06-19T08:38:44Z</time>
      </trkpt>
      <trkpt lat="45.9395" lon="4.79186">
        <ele>197</ele>
        <time>2018-06-19T08:38:46Z</time>
      </trkpt>
      <trkpt lat="45.93949" lon="4.79191">
        <ele>197</ele>
        <time>2018-06-19T08:38:47Z</time>
      </trkpt>
      <trkpt lat="45.93947" lon="4.79203">
        <ele>197</ele>
        <time>2018-06-19T08:38:49Z</time>
      </trkpt>
      <trkpt lat="45.93948" lon="4.79209">
        <ele>197</ele>
        <time>2018-06-19T08:38:50Z</time>
      </trkpt>
      <trkpt lat="45.93948" lon="4.79222">
        <ele>197</ele>
        <time>2018-06-19T08:38:52Z</time>
      </trkpt>
      <trkpt lat="45.93949" lon="4.79229">
        <ele>197</ele>
        <time>2018-06-19T08:38:53Z</time>
      </trkpt>
      <trkpt lat="45.93949" lon="4.79241">
        <ele>197</ele>
        <time>2018-06-19T08:38:55Z</time>
      </trkpt>
      <trkpt lat="45.9395" lon="4.79247">
        <ele>197</ele>
        <time>2018-06-19T08:38:56Z</time>
      </trkpt>
      <trkpt lat="45.9395" lon="4.79259">
        <ele>197</ele>
        <time>2018-06-19T08:38:58Z</time>
      </trkpt>
      <trkpt lat="45.93949" lon="4.79265">
        <ele>198</ele>
        <time>2018-06-19T08:38:59Z</time>
      </trkpt>
      <trkpt lat="45.93949" lon="4.79273">
        <ele>198</ele>
        <time>2018-06-19T08:39:01Z</time>
      </trkpt>
      <trkpt lat="45.93949" lon="4.79282">
        <ele>198</ele>
        <time>2018-06-19T08:39:02Z</time>
      </trkpt>
      <trkpt lat="45.9395" lon="4.79291">
        <ele>198</ele>
        <time>2018-06-19T08:39:04Z</time>
      </trkpt>
      <trkpt lat="45.9395" lon="4.79298">
        <ele>198</ele>
        <time>2018-06-19T08:39:05Z</time>
      </trkpt>
      <trkpt lat="45.9395" lon="4.79311">
        <ele>198</ele>
        <time>2018-06-19T08:39:07Z</time>
      </trkpt>
      <trkpt lat="45.9395" lon="4.79318">
        <ele>198</ele>
        <time>2018-06-19T08:39:08Z</time>
      </trkpt>
      <trkpt lat="45.9395" lon="4.7933">
        <ele>198</ele>
        <time>2018-06-19T08:39:10Z</time>
      </trkpt>
      <trkpt lat="45.93951" lon="4.79336">
        <ele>200</ele>
        <time>2018-06-19T08:39:11Z</time>
      </trkpt>
      <trkpt lat="45.93952" lon="4.79344">
        <ele>200</ele>
        <time>2018-06-19T08:39:12Z</time>
      </trkpt>
      <trkpt lat="45.93952" lon="4.7935">
        <ele>200</ele>
        <time>2018-06-19T08:39:13Z</time>
      </trkpt>
      <trkpt lat="45.93952" lon="4.79363">
        <ele>201</ele>
        <time>2018-06-19T08:39:15Z</time>
      </trkpt>
      <trkpt lat="45.93952" lon="4.79369">
        <ele>201</ele>
        <time>2018-06-19T08:39:16Z</time>
      </trkpt>
      <trkpt lat="45.93952" lon="4.79376">
        <ele>201</ele>
        <time>2018-06-19T08:39:17Z</time>
      </trkpt>
      <trkpt lat="45.93951" lon="4.79382">
        <ele>201</ele>
        <time>2018-06-19T08:39:18Z</time>
      </trkpt>
      <trkpt lat="45.93953" lon="4.7939">
        <ele>201</ele>
        <time>2018-06-19T08:39:19Z</time>
      </trkpt>
      <trkpt lat="45.93952" lon="4.79397">
        <ele>201</ele>
        <time>2018-06-19T08:39:20Z</time>
      </trkpt>
      <trkpt lat="45.93952" lon="4.79404">
        <ele>201</ele>
        <time>2018-06-19T08:39:21Z</time>
      </trkpt>
      <trkpt lat="45.93952" lon="4.7941">
        <ele>201</ele>
        <time>2018-06-19T08:39:22Z</time>
      </trkpt>
      <trkpt lat="45.93951" lon="4.79421">
        <ele>202</ele>
        <time>2018-06-19T08:39:24Z</time>
      </trkpt>
      <trkpt lat="45.9395" lon="4.79428">
        <ele>202</ele>
        <time>2018-06-19T08:39:25Z</time>
      </trkpt>
      <trkpt lat="45.93949" lon="4.7944">
        <ele>202</ele>
        <time>2018-06-19T08:39:27Z</time>
      </trkpt>
      <trkpt lat="45.93948" lon="4.79447">
        <ele>202</ele>
        <time>2018-06-19T08:39:28Z</time>
      </trkpt>
      <trkpt lat="45.93948" lon="4.79453">
        <ele>202</ele>
        <time>2018-06-19T08:39:29Z</time>
      </trkpt>
      <trkpt lat="45.93948" lon="4.7946">
        <ele>202</ele>
        <time>2018-06-19T08:39:30Z</time>
      </trkpt>
      <trkpt lat="45.93947" lon="4.79467">
        <ele>202</ele>
        <time>2018-06-19T08:39:31Z</time>
      </trkpt>
      <trkpt lat="45.93947" lon="4.79475">
        <ele>202</ele>
        <time>2018-06-19T08:39:32Z</time>
      </trkpt>
      <trkpt lat="45.9395" lon="4.79486">
        <ele>202</ele>
        <time>2018-06-19T08:39:34Z</time>
      </trkpt>
      <trkpt lat="45.9395" lon="4.79492">
        <ele>202</ele>
        <time>2018-06-19T08:39:35Z</time>
      </trkpt>
      <trkpt lat="45.93949" lon="4.79505">
        <ele>203</ele>
        <time>2018-06-19T08:39:37Z</time>
      </trkpt>
      <trkpt lat="45.9395" lon="4.7951">
        <ele>204</ele>
        <time>2018-06-19T08:39:38Z</time>
      </trkpt>
      <trkpt lat="45.9395" lon="4.79521">
        <ele>204</ele>
        <time>2018-06-19T08:39:40Z</time>
      </trkpt>
      <trkpt lat="45.9395" lon="4.79526">
        <ele>204</ele>
        <time>2018-06-19T08:39:41Z</time>
      </trkpt>
      <trkpt lat="45.93951" lon="4.79537">
        <ele>204</ele>
        <time>2018-06-19T08:39:43Z</time>
      </trkpt>
      <trkpt lat="45.93952" lon="4.79543">
        <ele>205</ele>
        <time>2018-06-19T08:39:44Z</time>
      </trkpt>
      <trkpt lat="45.93953" lon="4.79555">
        <ele>205</ele>
        <time>2018-06-19T08:39:46Z</time>
      </trkpt>
      <trkpt lat="45.93953" lon="4.7956">
        <ele>205</ele>
        <time>2018-06-19T08:39:47Z</time>
      </trkpt>
      <trkpt lat="45.93954" lon="4.79572">
        <ele>205</ele>
        <time>2018-06-19T08:39:49Z</time>
      </trkpt>
      <trkpt lat="45.93955" lon="4.79577">
        <ele>205</ele>
        <time>2018-06-19T08:39:50Z</time>
      </trkpt>
      <trkpt lat="45.93956" lon="4.79589">
        <ele>206</ele>
        <time>2018-06-19T08:39:52Z</time>
      </trkpt>
      <trkpt lat="45.93956" lon="4.79596">
        <ele>206</ele>
        <time>2018-06-19T08:39:53Z</time>
      </trkpt>
      <trkpt lat="45.93957" lon="4.79602">
        <ele>207</ele>
        <time>2018-06-19T08:39:54Z</time>
      </trkpt>
      <trkpt lat="45.93957" lon="4.79608">
        <ele>207</ele>
        <time>2018-06-19T08:39:55Z</time>
      </trkpt>
      <trkpt lat="45.93958" lon="4.79619">
        <ele>207</ele>
        <time>2018-06-19T08:39:57Z</time>
      </trkpt>
      <trkpt lat="45.9396" lon="4.79626">
        <ele>207</ele>
        <time>2018-06-19T08:39:58Z</time>
      </trkpt>
      <trkpt lat="45.9396" lon="4.79634">
        <ele>207</ele>
        <time>2018-06-19T08:39:59Z</time>
      </trkpt>
      <trkpt lat="45.9396" lon="4.7964">
        <ele>207</ele>
        <time>2018-06-19T08:40:00Z</time>
      </trkpt>
      <trkpt lat="45.93961" lon="4.79652">
        <ele>207</ele>
        <time>2018-06-19T08:40:02Z</time>
      </trkpt>
      <trkpt lat="45.93962" lon="4.7966">
        <ele>207</ele>
        <time>2018-06-19T08:40:03Z</time>
      </trkpt>
      <trkpt lat="45.93963" lon="4.79666">
        <ele>207</ele>
        <time>2018-06-19T08:40:04Z</time>
      </trkpt>
      <trkpt lat="45.93965" lon="4.79674">
        <ele>207</ele>
        <time>2018-06-19T08:40:05Z</time>
      </trkpt>
      <trkpt lat="45.93965" lon="4.79681">
        <ele>207</ele>
        <time>2018-06-19T08:40:06Z</time>
      </trkpt>
      <trkpt lat="45.93966" lon="4.79688">
        <ele>207</ele>
        <time>2018-06-19T08:40:07Z</time>
      </trkpt>
      <trkpt lat="45.93967" lon="4.79695">
        <ele>207</ele>
        <time>2018-06-19T08:40:08Z</time>
      </trkpt>
      <trkpt lat="45.93967" lon="4.79701">
        <ele>207</ele>
        <time>2018-06-19T08:40:09Z</time>
      </trkpt>
      <trkpt lat="45.93968" lon="4.79709">
        <ele>207</ele>
        <time>2018-06-19T08:40:10Z</time>
      </trkpt>
      <trkpt lat="45.93968" lon="4.79714">
        <ele>207</ele>
        <time>2018-06-19T08:40:11Z</time>
      </trkpt>
      <trkpt lat="45.93969" lon="4.79721">
        <ele>207</ele>
        <time>2018-06-19T08:40:12Z</time>
      </trkpt>
      <trkpt lat="45.93971" lon="4.79728">
        <ele>207</ele>
        <time>2018-06-19T08:40:13Z</time>
      </trkpt>
      <trkpt lat="45.93971" lon="4.79735">
        <ele>207</ele>
        <time>2018-06-19T08:40:14Z</time>
      </trkpt>
      <trkpt lat="45.93972" lon="4.79742">
        <ele>207</ele>
        <time>2018-06-19T08:40:15Z</time>
      </trkpt>
      <trkpt lat="45.93972" lon="4.7975">
        <ele>207</ele>
        <time>2018-06-19T08:40:16Z</time>
      </trkpt>
      <trkpt lat="45.93973" lon="4.79757">
        <ele>206</ele>
        <time>2018-06-19T08:40:17Z</time>
      </trkpt>
      <trkpt lat="45.93974" lon="4.79764">
        <ele>206</ele>
        <time>2018-06-19T08:40:18Z</time>
      </trkpt>
      <trkpt lat="45.93975" lon="4.79772">
        <ele>206</ele>
        <time>2018-06-19T08:40:19Z</time>
      </trkpt>
      <trkpt lat="45.93975" lon="4.79779">
        <ele>206</ele>
        <time>2018-06-19T08:40:20Z</time>
      </trkpt>
      <trkpt lat="45.93975" lon="4.79786">
        <ele>206</ele>
        <time>2018-06-19T08:40:21Z</time>
      </trkpt>
      <trkpt lat="45.93974" lon="4.79794">
        <ele>206</ele>
        <time>2018-06-19T08:40:22Z</time>
      </trkpt>
      <trkpt lat="45.93973" lon="4.79802">
        <ele>207</ele>
        <time>2018-06-19T08:40:23Z</time>
      </trkpt>
      <trkpt lat="45.93972" lon="4.7981">
        <ele>207</ele>
        <time>2018-06-19T08:40:24Z</time>
      </trkpt>
      <trkpt lat="45.93971" lon="4.79818">
        <ele>207</ele>
        <time>2018-06-19T08:40:25Z</time>
      </trkpt>
      <trkpt lat="45.9397" lon="4.79827">
        <ele>207</ele>
        <time>2018-06-19T08:40:26Z</time>
      </trkpt>
      <trkpt lat="45.93969" lon="4.79834">
        <ele>207</ele>
        <time>2018-06-19T08:40:27Z</time>
      </trkpt>
      <trkpt lat="45.93967" lon="4.7984">
        <ele>206</ele>
        <time>2018-06-19T08:40:28Z</time>
      </trkpt>
      <trkpt lat="45.93966" lon="4.79848">
        <ele>206</ele>
        <time>2018-06-19T08:40:29Z</time>
      </trkpt>
      <trkpt lat="45.93965" lon="4.79856">
        <ele>206</ele>
        <time>2018-06-19T08:40:30Z</time>
      </trkpt>
      <trkpt lat="45.93964" lon="4.79863">
        <ele>206</ele>
        <time>2018-06-19T08:40:31Z</time>
      </trkpt>
      <trkpt lat="45.93962" lon="4.79871">
        <ele>206</ele>
        <time>2018-06-19T08:40:32Z</time>
      </trkpt>
      <trkpt lat="45.93962" lon="4.7988">
        <ele>206</ele>
        <time>2018-06-19T08:40:33Z</time>
      </trkpt>
      <trkpt lat="45.9396" lon="4.79888">
        <ele>206</ele>
        <time>2018-06-19T08:40:34Z</time>
      </trkpt>
      <trkpt lat="45.93958" lon="4.79897">
        <ele>206</ele>
        <time>2018-06-19T08:40:35Z</time>
      </trkpt>
      <trkpt lat="45.93957" lon="4.79904">
        <ele>205</ele>
        <time>2018-06-19T08:40:36Z</time>
      </trkpt>
      <trkpt lat="45.93955" lon="4.79911">
        <ele>205</ele>
        <time>2018-06-19T08:40:37Z</time>
      </trkpt>
      <trkpt lat="45.93951" lon="4.79922">
        <ele>205</ele>
        <time>2018-06-19T08:40:39Z</time>
      </trkpt>
      <trkpt lat="45.9395" lon="4.79929">
        <ele>205</ele>
        <time>2018-06-19T08:40:40Z</time>
      </trkpt>
      <trkpt lat="45.9395" lon="4.79936">
        <ele>205</ele>
        <time>2018-06-19T08:40:41Z</time>
      </trkpt>
      <trkpt lat="45.93949" lon="4.79942">
        <ele>205</ele>
        <time>2018-06-19T08:40:42Z</time>
      </trkpt>
      <trkpt lat="45.93947" lon="4.79949">
        <ele>205</ele>
        <time>2018-06-19T08:40:43Z</time>
      </trkpt>
      <trkpt lat="45.93946" lon="4.79956">
        <ele>205</ele>
        <time>2018-06-19T08:40:44Z</time>
      </trkpt>
      <trkpt lat="45.93944" lon="4.79964">
        <ele>205</ele>
        <time>2018-06-19T08:40:45Z</time>
      </trkpt>
      <trkpt lat="45.93944" lon="4.79971">
        <ele>205</ele>
        <time>2018-06-19T08:40:46Z</time>
      </trkpt>
      <trkpt lat="45.93943" lon="4.79978">
        <ele>205</ele>
        <time>2018-06-19T08:40:47Z</time>
      </trkpt>
      <trkpt lat="45.93942" lon="4.79985">
        <ele>204</ele>
        <time>2018-06-19T08:40:48Z</time>
      </trkpt>
      <trkpt lat="45.9394" lon="4.79991">
        <ele>204</ele>
        <time>2018-06-19T08:40:49Z</time>
      </trkpt>
      <trkpt lat="45.93939" lon="4.79999">
        <ele>204</ele>
        <time>2018-06-19T08:40:50Z</time>
      </trkpt>
      <trkpt lat="45.93938" lon="4.80006">
        <ele>205</ele>
        <time>2018-06-19T08:40:51Z</time>
      </trkpt>
      <trkpt lat="45.93938" lon="4.80013">
        <ele>206</ele>
        <time>2018-06-19T08:40:52Z</time>
      </trkpt>
      <trkpt lat="45.93936" lon="4.80025">
        <ele>206</ele>
        <time>2018-06-19T08:40:54Z</time>
      </trkpt>
      <trkpt lat="45.93935" lon="4.80032">
        <ele>206</ele>
        <time>2018-06-19T08:40:55Z</time>
      </trkpt>
      <trkpt lat="45.93934" lon="4.80038">
        <ele>207</ele>
        <time>2018-06-19T08:40:56Z</time>
      </trkpt>
      <trkpt lat="45.93933" lon="4.80044">
        <ele>207</ele>
        <time>2018-06-19T08:40:57Z</time>
      </trkpt>
      <trkpt lat="45.93933" lon="4.80053">
        <ele>207</ele>
        <time>2018-06-19T08:40:58Z</time>
      </trkpt>
      <trkpt lat="45.93934" lon="4.80062">
        <ele>207</ele>
        <time>2018-06-19T08:40:59Z</time>
      </trkpt>
      <trkpt lat="45.93933" lon="4.80068">
        <ele>207</ele>
        <time>2018-06-19T08:41:00Z</time>
      </trkpt>
      <trkpt lat="45.93933" lon="4.80077">
        <ele>207</ele>
        <time>2018-06-19T08:41:01Z</time>
      </trkpt>
      <trkpt lat="45.93934" lon="4.80084">
        <ele>207</ele>
        <time>2018-06-19T08:41:02Z</time>
      </trkpt>
      <trkpt lat="45.93934" lon="4.80091">
        <ele>208</ele>
        <time>2018-06-19T08:41:03Z</time>
      </trkpt>
      <trkpt lat="45.93936" lon="4.801">
        <ele>208</ele>
        <time>2018-06-19T08:41:04Z</time>
      </trkpt>
      <trkpt lat="45.93937" lon="4.80108">
        <ele>208</ele>
        <time>2018-06-19T08:41:05Z</time>
      </trkpt>
      <trkpt lat="45.93938" lon="4.80115">
        <ele>208</ele>
        <time>2018-06-19T08:41:06Z</time>
      </trkpt>
      <trkpt lat="45.93939" lon="4.80123">
        <ele>208</ele>
        <time>2018-06-19T08:41:07Z</time>
      </trkpt>
      <trkpt lat="45.93939" lon="4.80131">
        <ele>208</ele>
        <time>2018-06-19T08:41:08Z</time>
      </trkpt>
      <trkpt lat="45.9394" lon="4.80139">
        <ele>208</ele>
        <time>2018-06-19T08:41:09Z</time>
      </trkpt>
      <trkpt lat="45.93942" lon="4.80144">
        <ele>208</ele>
        <time>2018-06-19T08:41:10Z</time>
      </trkpt>
      <trkpt lat="45.93943" lon="4.80152">
        <ele>208</ele>
        <time>2018-06-19T08:41:11Z</time>
      </trkpt>
      <trkpt lat="45.93945" lon="4.80158">
        <ele>208</ele>
        <time>2018-06-19T08:41:12Z</time>
      </trkpt>
      <trkpt lat="45.93947" lon="4.80167">
        <ele>206</ele>
        <time>2018-06-19T08:41:13Z</time>
      </trkpt>
      <trkpt lat="45.93948" lon="4.80175">
        <ele>206</ele>
        <time>2018-06-19T08:41:14Z</time>
      </trkpt>
      <trkpt lat="45.9395" lon="4.80181">
        <ele>206</ele>
        <time>2018-06-19T08:41:15Z</time>
      </trkpt>
      <trkpt lat="45.9395" lon="4.80188">
        <ele>206</ele>
        <time>2018-06-19T08:41:16Z</time>
      </trkpt>
      <trkpt lat="45.93952" lon="4.80196">
        <ele>205</ele>
        <time>2018-06-19T08:41:17Z</time>
      </trkpt>
      <trkpt lat="45.93954" lon="4.80205">
        <ele>205</ele>
        <time>2018-06-19T08:41:18Z</time>
      </trkpt>
      <trkpt lat="45.93956" lon="4.80212">
        <ele>205</ele>
        <time>2018-06-19T08:41:19Z</time>
      </trkpt>
      <trkpt lat="45.93957" lon="4.8022">
        <ele>205</ele>
        <time>2018-06-19T08:41:20Z</time>
      </trkpt>
      <trkpt lat="45.93959" lon="4.80227">
        <ele>205</ele>
        <time>2018-06-19T08:41:21Z</time>
      </trkpt>
      <trkpt lat="45.93962" lon="4.80234">
        <ele>204</ele>
        <time>2018-06-19T08:41:22Z</time>
      </trkpt>
      <trkpt lat="45.93964" lon="4.80241">
        <ele>204</ele>
        <time>2018-06-19T08:41:23Z</time>
      </trkpt>
      <trkpt lat="45.93965" lon="4.80249">
        <ele>204</ele>
        <time>2018-06-19T08:41:24Z</time>
      </trkpt>
      <trkpt lat="45.93967" lon="4.80256">
        <ele>202</ele>
        <time>2018-06-19T08:41:25Z</time>
      </trkpt>
      <trkpt lat="45.93969" lon="4.80264">
        <ele>202</ele>
        <time>2018-06-19T08:41:26Z</time>
      </trkpt>
      <trkpt lat="45.93971" lon="4.8027">
        <ele>202</ele>
        <time>2018-06-19T08:41:27Z</time>
      </trkpt>
      <trkpt lat="45.93974" lon="4.80278">
        <ele>202</ele>
        <time>2018-06-19T08:41:28Z</time>
      </trkpt>
      <trkpt lat="45.93976" lon="4.80284">
        <ele>203</ele>
        <time>2018-06-19T08:41:29Z</time>
      </trkpt>
      <trkpt lat="45.93977" lon="4.8029">
        <ele>203</ele>
        <time>2018-06-19T08:41:30Z</time>
      </trkpt>
      <trkpt lat="45.93979" lon="4.80297">
        <ele>203</ele>
        <time>2018-06-19T08:41:31Z</time>
      </trkpt>
      <trkpt lat="45.93982" lon="4.80309">
        <ele>203</ele>
        <time>2018-06-19T08:41:33Z</time>
      </trkpt>
      <trkpt lat="45.93983" lon="4.80313">
        <ele>203</ele>
        <time>2018-06-19T08:41:34Z</time>
      </trkpt>
      <trkpt lat="45.93986" lon="4.80322">
        <ele>204</ele>
        <time>2018-06-19T08:41:36Z</time>
      </trkpt>
      <trkpt lat="45.93987" lon="4.80328">
        <ele>204</ele>
        <time>2018-06-19T08:41:37Z</time>
      </trkpt>
      <trkpt lat="45.9399" lon="4.80337">
        <ele>206</ele>
        <time>2018-06-19T08:41:39Z</time>
      </trkpt>
      <trkpt lat="45.93992" lon="4.80342">
        <ele>206</ele>
        <time>2018-06-19T08:41:40Z</time>
      </trkpt>
      <trkpt lat="45.93995" lon="4.80353">
        <ele>206</ele>
        <time>2018-06-19T08:41:43Z</time>
      </trkpt>
      <trkpt lat="45.93996" lon="4.80356">
        <ele>206</ele>
        <time>2018-06-19T08:41:44Z</time>
      </trkpt>
      <trkpt lat="45.93998" lon="4.80366">
        <ele>207</ele>
        <time>2018-06-19T08:41:47Z</time>
      </trkpt>
      <trkpt lat="45.93999" lon="4.8037">
        <ele>207</ele>
        <time>2018-06-19T08:41:48Z</time>
      </trkpt>
      <trkpt lat="45.94002" lon="4.80381">
        <ele>216</ele>
        <time>2018-06-19T08:41:51Z</time>
      </trkpt>
      <trkpt lat="45.94003" lon="4.80385">
        <ele>217</ele>
        <time>2018-06-19T08:41:52Z</time>
      </trkpt>
      <trkpt lat="45.94007" lon="4.80397">
        <ele>217</ele>
        <time>2018-06-19T08:41:55Z</time>
      </trkpt>
      <trkpt lat="45.94008" lon="4.80401">
        <ele>217</ele>
        <time>2018-06-19T08:41:56Z</time>
      </trkpt>
      <trkpt lat="45.9401" lon="4.80408">
        <ele>217</ele>
        <time>2018-06-19T08:41:58Z</time>
      </trkpt>
      <trkpt lat="45.94012" lon="4.80419">
        <ele>220</ele>
        <time>2018-06-19T08:41:59Z</time>
      </trkpt>
      <trkpt lat="45.94015" lon="4.8043">
        <ele>221</ele>
        <time>2018-06-19T08:42:03Z</time>
      </trkpt>
      <trkpt lat="45.94016" lon="4.80433">
        <ele>221</ele>
        <time>2018-06-19T08:42:04Z</time>
      </trkpt>
      <trkpt lat="45.94016" lon="4.80445">
        <ele>222</ele>
        <time>2018-06-19T08:42:07Z</time>
      </trkpt>
      <trkpt lat="45.94016" lon="4.80449">
        <ele>223</ele>
        <time>2018-06-19T08:42:08Z</time>
      </trkpt>
      <trkpt lat="45.94017" lon="4.80457">
        <ele>223</ele>
        <time>2018-06-19T08:42:10Z</time>
      </trkpt>
      <trkpt lat="45.94017" lon="4.80462">
        <ele>223</ele>
        <time>2018-06-19T08:42:11Z</time>
      </trkpt>
      <trkpt lat="45.94016" lon="4.80471">
        <ele>223</ele>
        <time>2018-06-19T08:42:13Z</time>
      </trkpt>
      <trkpt lat="45.94016" lon="4.80475">
        <ele>223</ele>
        <time>2018-06-19T08:42:14Z</time>
      </trkpt>
      <trkpt lat="45.94018" lon="4.80487">
        <ele>222</ele>
        <time>2018-06-19T08:42:17Z</time>
      </trkpt>
      <trkpt lat="45.94018" lon="4.80492">
        <ele>222</ele>
        <time>2018-06-19T08:42:18Z</time>
      </trkpt>
      <trkpt lat="45.94019" lon="4.80503">
        <ele>223</ele>
        <time>2018-06-19T08:42:21Z</time>
      </trkpt>
      <trkpt lat="45.94019" lon="4.80507">
        <ele>223</ele>
        <time>2018-06-19T08:42:22Z</time>
      </trkpt>
      <trkpt lat="45.94021" lon="4.8052">
        <ele>224</ele>
        <time>2018-06-19T08:42:25Z</time>
      </trkpt>
      <trkpt lat="45.94022" lon="4.80525">
        <ele>225</ele>
        <time>2018-06-19T08:42:26Z</time>
      </trkpt>
      <trkpt lat="45.94022" lon="4.80529">
        <ele>225</ele>
        <time>2018-06-19T08:42:27Z</time>
      </trkpt>
      <trkpt lat="45.94023" lon="4.80542">
        <ele>225</ele>
        <time>2018-06-19T08:42:28Z</time>
      </trkpt>
      <trkpt lat="45.94023" lon="4.80554">
        <ele>225</ele>
        <time>2018-06-19T08:42:32Z</time>
      </trkpt>
      <trkpt lat="45.94023" lon="4.80558">
        <ele>225</ele>
        <time>2018-06-19T08:42:33Z</time>
      </trkpt>
      <trkpt lat="45.94022" lon="4.8057">
        <ele>224</ele>
        <time>2018-06-19T08:42:36Z</time>
      </trkpt>
      <trkpt lat="45.94022" lon="4.80574">
        <ele>224</ele>
        <time>2018-06-19T08:42:37Z</time>
      </trkpt>
      <trkpt lat="45.94022" lon="4.80586">
        <ele>223</ele>
        <time>2018-06-19T08:42:40Z</time>
      </trkpt>
      <trkpt lat="45.94021" lon="4.80589">
        <ele>223</ele>
        <time>2018-06-19T08:42:41Z</time>
      </trkpt>
      <trkpt lat="45.94022" lon="4.80598">
        <ele>224</ele>
        <time>2018-06-19T08:42:44Z</time>
      </trkpt>
      <trkpt lat="45.94022" lon="4.80602">
        <ele>224</ele>
        <time>2018-06-19T08:42:45Z</time>
      </trkpt>
      <trkpt lat="45.94023" lon="4.80612">
        <ele>224</ele>
        <time>2018-06-19T08:42:48Z</time>
      </trkpt>
      <trkpt lat="45.94023" lon="4.80615">
        <ele>224</ele>
        <time>2018-06-19T08:42:49Z</time>
      </trkpt>
      <trkpt lat="45.94023" lon="4.80626">
        <ele>225</ele>
        <time>2018-06-19T08:42:52Z</time>
      </trkpt>
      <trkpt lat="45.94023" lon="4.80629">
        <ele>225</ele>
        <time>2018-06-19T08:42:53Z</time>
      </trkpt>
      <trkpt lat="45.94025" lon="4.8064">
        <ele>224</ele>
        <time>2018-06-19T08:42:56Z</time>
      </trkpt>
      <trkpt lat="45.94026" lon="4.80644">
        <ele>224</ele>
        <time>2018-06-19T08:42:57Z</time>
      </trkpt>
      <trkpt lat="45.94028" lon="4.80656">
        <ele>224</ele>
        <time>2018-06-19T08:43:00Z</time>
      </trkpt>
      <trkpt lat="45.94028" lon="4.8066">
        <ele>224</ele>
        <time>2018-06-19T08:43:01Z</time>
      </trkpt>
      <trkpt lat="45.9403" lon="4.80669">
        <ele>224</ele>
        <time>2018-06-19T08:43:03Z</time>
      </trkpt>
      <trkpt lat="45.9403" lon="4.80673">
        <ele>224</ele>
        <time>2018-06-19T08:43:04Z</time>
      </trkpt>
      <trkpt lat="45.94032" lon="4.80685">
        <ele>225</ele>
        <time>2018-06-19T08:43:07Z</time>
      </trkpt>
      <trkpt lat="45.94033" lon="4.80689">
        <ele>225</ele>
        <time>2018-06-19T08:43:08Z</time>
      </trkpt>
      <trkpt lat="45.94033" lon="4.80694">
        <ele>225</ele>
        <time>2018-06-19T08:43:09Z</time>
      </trkpt>
      <trkpt lat="45.94034" lon="4.80708">
        <ele>226</ele>
        <time>2018-06-19T08:43:10Z</time>
      </trkpt>
      <trkpt lat="45.94035" lon="4.8072">
        <ele>226</ele>
        <time>2018-06-19T08:43:14Z</time>
      </trkpt>
      <trkpt lat="45.94036" lon="4.80724">
        <ele>226</ele>
        <time>2018-06-19T08:43:15Z</time>
      </trkpt>
      <trkpt lat="45.94037" lon="4.80734">
        <ele>226</ele>
        <time>2018-06-19T08:43:18Z</time>
      </trkpt>
      <trkpt lat="45.94038" lon="4.80738">
        <ele>226</ele>
        <time>2018-06-19T08:43:19Z</time>
      </trkpt>
      <trkpt lat="45.94039" lon="4.80751">
        <ele>227</ele>
        <time>2018-06-19T08:43:22Z</time>
      </trkpt>
      <trkpt lat="45.9404" lon="4.80754">
        <ele>227</ele>
        <time>2018-06-19T08:43:23Z</time>
      </trkpt>
      <trkpt lat="45.94041" lon="4.80764">
        <ele>228</ele>
        <time>2018-06-19T08:43:25Z</time>
      </trkpt>
      <trkpt lat="45.94042" lon="4.80769">
        <ele>228</ele>
        <time>2018-06-19T08:43:26Z</time>
      </trkpt>
      <trkpt lat="45.94044" lon="4.8078">
        <ele>228</ele>
        <time>2018-06-19T08:43:29Z</time>
      </trkpt>
      <trkpt lat="45.94044" lon="4.80784">
        <ele>228</ele>
        <time>2018-06-19T08:43:30Z</time>
      </trkpt>
      <trkpt lat="45.94046" lon="4.80793">
        <ele>229</ele>
        <time>2018-06-19T08:43:32Z</time>
      </trkpt>
      <trkpt lat="45.94047" lon="4.80797">
        <ele>229</ele>
        <time>2018-06-19T08:43:33Z</time>
      </trkpt>
      <trkpt lat="45.94048" lon="4.80809">
        <ele>229</ele>
        <time>2018-06-19T08:43:36Z</time>
      </trkpt>
      <trkpt lat="45.94049" lon="4.80814">
        <ele>229</ele>
        <time>2018-06-19T08:43:37Z</time>
      </trkpt>
      <trkpt lat="45.9405" lon="4.80825">
        <ele>230</ele>
        <time>2018-06-19T08:43:40Z</time>
      </trkpt>
      <trkpt lat="45.9405" lon="4.8083">
        <ele>230</ele>
        <time>2018-06-19T08:43:41Z</time>
      </trkpt>
      <trkpt lat="45.94051" lon="4.80839">
        <ele>230</ele>
        <time>2018-06-19T08:43:43Z</time>
      </trkpt>
      <trkpt lat="45.94051" lon="4.80844">
        <ele>230</ele>
        <time>2018-06-19T08:43:44Z</time>
      </trkpt>
      <trkpt lat="45.94052" lon="4.80856">
        <ele>230</ele>
        <time>2018-06-19T08:43:47Z</time>
      </trkpt>
      <trkpt lat="45.94053" lon="4.8086">
        <ele>230</ele>
        <time>2018-06-19T08:43:48Z</time>
      </trkpt>
      <trkpt lat="45.94054" lon="4.80872">
        <ele>230</ele>
        <time>2018-06-19T08:43:51Z</time>
      </trkpt>
      <trkpt lat="45.94055" lon="4.80876">
        <ele>230</ele>
        <time>2018-06-19T08:43:52Z</time>
      </trkpt>
      <trkpt lat="45.94057" lon="4.80887">
        <ele>231</ele>
        <time>2018-06-19T08:43:55Z</time>
      </trkpt>
      <trkpt lat="45.94058" lon="4.8089">
        <ele>231</ele>
        <time>2018-06-19T08:43:56Z</time>
      </trkpt>
      <trkpt lat="45.9406" lon="4.80901">
        <ele>232</ele>
        <time>2018-06-19T08:43:59Z</time>
      </trkpt>
      <trkpt lat="45.9406" lon="4.80905">
        <ele>232</ele>
        <time>2018-06-19T08:44:00Z</time>
      </trkpt>
      <trkpt lat="45.94061" lon="4.80916">
        <ele>232</ele>
        <time>2018-06-19T08:44:03Z</time>
      </trkpt>
      <trkpt lat="45.94061" lon="4.8092">
        <ele>233</ele>
        <time>2018-06-19T08:44:04Z</time>
      </trkpt>
      <trkpt lat="45.94062" lon="4.80931">
        <ele>233</ele>
        <time>2018-06-19T08:44:07Z</time>
      </trkpt>
      <trkpt lat="45.94062" lon="4.80935">
        <ele>232</ele>
        <time>2018-06-19T08:44:08Z</time>
      </trkpt>
      <trkpt lat="45.94063" lon="4.80947">
        <ele>232</ele>
        <time>2018-06-19T08:44:11Z</time>
      </trkpt>
      <trkpt lat="45.94063" lon="4.80951">
        <ele>232</ele>
        <time>2018-06-19T08:44:12Z</time>
      </trkpt>
      <trkpt lat="45.94064" lon="4.80963">
        <ele>232</ele>
        <time>2018-06-19T08:44:15Z</time>
      </trkpt>
      <trkpt lat="45.94065" lon="4.80966">
        <ele>232</ele>
        <time>2018-06-19T08:44:16Z</time>
      </trkpt>
      <trkpt lat="45.94067" lon="4.80978">
        <ele>233</ele>
        <time>2018-06-19T08:44:19Z</time>
      </trkpt>
      <trkpt lat="45.94067" lon="4.80982">
        <ele>234</ele>
        <time>2018-06-19T08:44:20Z</time>
      </trkpt>
      <trkpt lat="45.94069" lon="4.80994">
        <ele>235</ele>
        <time>2018-06-19T08:44:23Z</time>
      </trkpt>
      <trkpt lat="45.9407" lon="4.80998">
        <ele>236</ele>
        <time>2018-06-19T08:44:24Z</time>
      </trkpt>
      <trkpt lat="45.94072" lon="4.81009">
        <ele>236</ele>
        <time>2018-06-19T08:44:27Z</time>
      </trkpt>
      <trkpt lat="45.94073" lon="4.81013">
        <ele>235</ele>
        <time>2018-06-19T08:44:28Z</time>
      </trkpt>
      <trkpt lat="45.94077" lon="4.81023">
        <ele>234</ele>
        <time>2018-06-19T08:44:31Z</time>
      </trkpt>
      <trkpt lat="45.94078" lon="4.81027">
        <ele>234</ele>
        <time>2018-06-19T08:44:32Z</time>
      </trkpt>
      <trkpt lat="45.94081" lon="4.81035">
        <ele>234</ele>
        <time>2018-06-19T08:44:34Z</time>
      </trkpt>
      <trkpt lat="45.94082" lon="4.81039">
        <ele>234</ele>
        <time>2018-06-19T08:44:35Z</time>
      </trkpt>
      <trkpt lat="45.94085" lon="4.81047">
        <ele>243</ele>
        <time>2018-06-19T08:44:37Z</time>
      </trkpt>
      <trkpt lat="45.94086" lon="4.8105">
        <ele>243</ele>
        <time>2018-06-19T08:44:38Z</time>
      </trkpt>
      <trkpt lat="45.9409" lon="4.81061">
        <ele>242</ele>
        <time>2018-06-19T08:44:41Z</time>
      </trkpt>
      <trkpt lat="45.94092" lon="4.81064">
        <ele>242</ele>
        <time>2018-06-19T08:44:42Z</time>
      </trkpt>
      <trkpt lat="45.94096" lon="4.81074">
        <ele>242</ele>
        <time>2018-06-19T08:44:45Z</time>
      </trkpt>
      <trkpt lat="45.94097" lon="4.81077">
        <ele>241</ele>
        <time>2018-06-19T08:44:46Z</time>
      </trkpt>
      <trkpt lat="45.94102" lon="4.81085">
        <ele>241</ele>
        <time>2018-06-19T08:44:49Z</time>
      </trkpt>
      <trkpt lat="45.94104" lon="4.81087">
        <ele>241</ele>
        <time>2018-06-19T08:44:50Z</time>
      </trkpt>
      <trkpt lat="45.9411" lon="4.81096">
        <ele>242</ele>
        <time>2018-06-19T08:44:53Z</time>
      </trkpt>
      <trkpt lat="45.94112" lon="4.81099">
        <ele>242</ele>
        <time>2018-06-19T08:44:54Z</time>
      </trkpt>
      <trkpt lat="45.94117" lon="4.81108">
        <ele>243</ele>
        <time>2018-06-19T08:44:57Z</time>
      </trkpt>
      <trkpt lat="45.94119" lon="4.81111">
        <ele>243</ele>
        <time>2018-06-19T08:44:58Z</time>
      </trkpt>
      <trkpt lat="45.94124" lon="4.81119">
        <ele>243</ele>
        <time>2018-06-19T08:45:01Z</time>
      </trkpt>
      <trkpt lat="45.94125" lon="4.81122">
        <ele>243</ele>
        <time>2018-06-19T08:45:02Z</time>
      </trkpt>
      <trkpt lat="45.94131" lon="4.81132">
        <ele>244</ele>
        <time>2018-06-19T08:45:05Z</time>
      </trkpt>
      <trkpt lat="45.94132" lon="4.81135">
        <ele>244</ele>
        <time>2018-06-19T08:45:06Z</time>
      </trkpt>
      <trkpt lat="45.94136" lon="4.81145">
        <ele>244</ele>
        <time>2018-06-19T08:45:09Z</time>
      </trkpt>
      <trkpt lat="45.94137" lon="4.81149">
        <ele>244</ele>
        <time>2018-06-19T08:45:10Z</time>
      </trkpt>
      <trkpt lat="45.94141" lon="4.8116">
        <ele>244</ele>
        <time>2018-06-19T08:45:13Z</time>
      </trkpt>
      <trkpt lat="45.94142" lon="4.81163">
        <ele>245</ele>
        <time>2018-06-19T08:45:14Z</time>
      </trkpt>
      <trkpt lat="45.94144" lon="4.81172">
        <ele>244</ele>
        <time>2018-06-19T08:45:17Z</time>
      </trkpt>
      <trkpt lat="45.94145" lon="4.81176">
        <ele>244</ele>
        <time>2018-06-19T08:45:18Z</time>
      </trkpt>
      <trkpt lat="45.94148" lon="4.81186">
        <ele>244</ele>
        <time>2018-06-19T08:45:21Z</time>
      </trkpt>
      <trkpt lat="45.94149" lon="4.8119">
        <ele>244</ele>
        <time>2018-06-19T08:45:22Z</time>
      </trkpt>
      <trkpt lat="45.94152" lon="4.81201">
        <ele>244</ele>
        <time>2018-06-19T08:45:25Z</time>
      </trkpt>
      <trkpt lat="45.94153" lon="4.81204">
        <ele>244</ele>
        <time>2018-06-19T08:45:26Z</time>
      </trkpt>
      <trkpt lat="45.94156" lon="4.81216">
        <ele>245</ele>
        <time>2018-06-19T08:45:29Z</time>
      </trkpt>
      <trkpt lat="45.94157" lon="4.8122">
        <ele>245</ele>
        <time>2018-06-19T08:45:30Z</time>
      </trkpt>
      <trkpt lat="45.9416" lon="4.81231">
        <ele>246</ele>
        <time>2018-06-19T08:45:33Z</time>
      </trkpt>
      <trkpt lat="45.9416" lon="4.81235">
        <ele>247</ele>
        <time>2018-06-19T08:45:34Z</time>
      </trkpt>
      <trkpt lat="45.94163" lon="4.81247">
        <ele>249</ele>
        <time>2018-06-19T08:45:37Z</time>
      </trkpt>
      <trkpt lat="45.94164" lon="4.8125">
        <ele>249</ele>
        <time>2018-06-19T08:45:38Z</time>
      </trkpt>
      <trkpt lat="45.94166" lon="4.81259">
        <ele>249</ele>
        <time>2018-06-19T08:45:41Z</time>
      </trkpt>
      <trkpt lat="45.94167" lon="4.81262">
        <ele>253</ele>
        <time>2018-06-19T08:45:42Z</time>
      </trkpt>
      <trkpt lat="45.94169" lon="4.81272">
        <ele>254</ele>
        <time>2018-06-19T08:45:45Z</time>
      </trkpt>
      <trkpt lat="45.9417" lon="4.81276">
        <ele>255</ele>
        <time>2018-06-19T08:45:46Z</time>
      </trkpt>
      <trkpt lat="45.94171" lon="4.81287">
        <ele>255</ele>
        <time>2018-06-19T08:45:49Z</time>
      </trkpt>
      <trkpt lat="45.94171" lon="4.81291">
        <ele>255</ele>
        <time>2018-06-19T08:45:50Z</time>
      </trkpt>
      <trkpt lat="45.9417" lon="4.81303">
        <ele>255</ele>
        <time>2018-06-19T08:45:53Z</time>
      </trkpt>
      <trkpt lat="45.94169" lon="4.81307">
        <ele>255</ele>
        <time>2018-06-19T08:45:54Z</time>
      </trkpt>
      <trkpt lat="45.94169" lon="4.81318">
        <ele>255</ele>
        <time>2018-06-19T08:45:57Z</time>
      </trkpt>
      <trkpt lat="45.94169" lon="4.81322">
        <ele>254</ele>
        <time>2018-06-19T08:45:58Z</time>
      </trkpt>
      <trkpt lat="45.9417" lon="4.81333">
        <ele>253</ele>
        <time>2018-06-19T08:46:01Z</time>
      </trkpt>
      <trkpt lat="45.9417" lon="4.81336">
        <ele>253</ele>
        <time>2018-06-19T08:46:02Z</time>
      </trkpt>
      <trkpt lat="45.94169" lon="4.81346">
        <ele>255</ele>
        <time>2018-06-19T08:46:05Z</time>
      </trkpt>
      <trkpt lat="45.94168" lon="4.81349">
        <ele>256</ele>
        <time>2018-06-19T08:46:06Z</time>
      </trkpt>
      <trkpt lat="45.94166" lon="4.81361">
        <ele>251</ele>
        <time>2018-06-19T08:46:09Z</time>
      </trkpt>
      <trkpt lat="45.94165" lon="4.81365">
        <ele>251</ele>
        <time>2018-06-19T08:46:10Z</time>
      </trkpt>
      <trkpt lat="45.94163" lon="4.81373">
        <ele>251</ele>
        <time>2018-06-19T08:46:12Z</time>
      </trkpt>
      <trkpt lat="45.94162" lon="4.81377">
        <ele>251</ele>
        <time>2018-06-19T08:46:13Z</time>
      </trkpt>
      <trkpt lat="45.94161" lon="4.81389">
        <ele>252</ele>
        <time>2018-06-19T08:46:16Z</time>
      </trkpt>
      <trkpt lat="45.94161" lon="4.81393">
        <ele>252</ele>
        <time>2018-06-19T08:46:17Z</time>
      </trkpt>
      <trkpt lat="45.94161" lon="4.81402">
        <ele>253</ele>
        <time>2018-06-19T08:46:19Z</time>
      </trkpt>
      <trkpt lat="45.9416" lon="4.81406">
        <ele>253</ele>
        <time>2018-06-19T08:46:20Z</time>
      </trkpt>
      <trkpt lat="45.9416" lon="4.81419">
        <ele>256</ele>
        <time>2018-06-19T08:46:23Z</time>
      </trkpt>
      <trkpt lat="45.9416" lon="4.81423">
        <ele>256</ele>
        <time>2018-06-19T08:46:24Z</time>
      </trkpt>
      <trkpt lat="45.94159" lon="4.81434">
        <ele>256</ele>
        <time>2018-06-19T08:46:27Z</time>
      </trkpt>
      <trkpt lat="45.94158" lon="4.81437">
        <ele>256</ele>
        <time>2018-06-19T08:46:28Z</time>
      </trkpt>
      <trkpt lat="45.94157" lon="4.81447">
        <ele>257</ele>
        <time>2018-06-19T08:46:31Z</time>
      </trkpt>
      <trkpt lat="45.94157" lon="4.8145">
        <ele>257</ele>
        <time>2018-06-19T08:46:32Z</time>
      </trkpt>
      <trkpt lat="45.94155" lon="4.81462">
        <ele>257</ele>
        <time>2018-06-19T08:46:35Z</time>
      </trkpt>
      <trkpt lat="45.94155" lon="4.81465">
        <ele>258</ele>
        <time>2018-06-19T08:46:36Z</time>
      </trkpt>
      <trkpt lat="45.94154" lon="4.81478">
        <ele>259</ele>
        <time>2018-06-19T08:46:39Z</time>
      </trkpt>
      <trkpt lat="45.94154" lon="4.81481">
        <ele>259</ele>
        <time>2018-06-19T08:46:40Z</time>
      </trkpt>
      <trkpt lat="45.94153" lon="4.81493">
        <ele>260</ele>
        <time>2018-06-19T08:46:43Z</time>
      </trkpt>
      <trkpt lat="45.94153" lon="4.81496">
        <ele>260</ele>
        <time>2018-06-19T08:46:44Z</time>
      </trkpt>
      <trkpt lat="45.94153" lon="4.81508">
        <ele>263</ele>
        <time>2018-06-19T08:46:47Z</time>
      </trkpt>
      <trkpt lat="45.94153" lon="4.81512">
        <ele>263</ele>
        <time>2018-06-19T08:46:48Z</time>
      </trkpt>
      <trkpt lat="45.94153" lon="4.81522">
        <ele>263</ele>
        <time>2018-06-19T08:46:50Z</time>
      </trkpt>
      <trkpt lat="45.94153" lon="4.81526">
        <ele>263</ele>
        <time>2018-06-19T08:46:51Z</time>
      </trkpt>
      <trkpt lat="45.94154" lon="4.81539">
        <ele>264</ele>
        <time>2018-06-19T08:46:52Z</time>
      </trkpt>
      <trkpt lat="45.94156" lon="4.8155">
        <ele>264</ele>
        <time>2018-06-19T08:46:56Z</time>
      </trkpt>
      <trkpt lat="45.94156" lon="4.81553">
        <ele>264</ele>
        <time>2018-06-19T08:46:57Z</time>
      </trkpt>
      <trkpt lat="45.94158" lon="4.81563">
        <ele>265</ele>
        <time>2018-06-19T08:47:00Z</time>
      </trkpt>
      <trkpt lat="45.94158" lon="4.81567">
        <ele>265</ele>
        <time>2018-06-19T08:47:01Z</time>
      </trkpt>
      <trkpt lat="45.94159" lon="4.8158">
        <ele>266</ele>
        <time>2018-06-19T08:47:04Z</time>
      </trkpt>
      <trkpt lat="45.94159" lon="4.81584">
        <ele>267</ele>
        <time>2018-06-19T08:47:05Z</time>
      </trkpt>
      <trkpt lat="45.94159" lon="4.81588">
        <ele>267</ele>
        <time>2018-06-19T08:47:06Z</time>
      </trkpt>
      <trkpt lat="45.9416" lon="4.816">
        <ele>267</ele>
        <time>2018-06-19T08:47:07Z</time>
      </trkpt>
      <trkpt lat="45.94161" lon="4.81612">
        <ele>267</ele>
        <time>2018-06-19T08:47:11Z</time>
      </trkpt>
      <trkpt lat="45.94162" lon="4.81615">
        <ele>268</ele>
        <time>2018-06-19T08:47:12Z</time>
      </trkpt>
      <trkpt lat="45.94164" lon="4.81621">
        <ele>268</ele>
        <time>2018-06-19T08:47:14Z</time>
      </trkpt>
      <trkpt lat="45.94166" lon="4.81632">
        <ele>268</ele>
        <time>2018-06-19T08:47:15Z</time>
      </trkpt>
      <trkpt lat="45.94168" lon="4.81642">
        <ele>268</ele>
        <time>2018-06-19T08:47:19Z</time>
      </trkpt>
      <trkpt lat="45.94168" lon="4.81646">
        <ele>268</ele>
        <time>2018-06-19T08:47:20Z</time>
      </trkpt>
      <trkpt lat="45.94171" lon="4.81656">
        <ele>268</ele>
        <time>2018-06-19T08:47:23Z</time>
      </trkpt>
      <trkpt lat="45.94172" lon="4.8166">
        <ele>268</ele>
        <time>2018-06-19T08:47:24Z</time>
      </trkpt>
      <trkpt lat="45.94174" lon="4.8167">
        <ele>268</ele>
        <time>2018-06-19T08:47:27Z</time>
      </trkpt>
      <trkpt lat="45.94175" lon="4.81673">
        <ele>268</ele>
        <time>2018-06-19T08:47:28Z</time>
      </trkpt>
      <trkpt lat="45.94176" lon="4.81684">
        <ele>268</ele>
        <time>2018-06-19T08:47:31Z</time>
      </trkpt>
      <trkpt lat="45.94177" lon="4.81688">
        <ele>267</ele>
        <time>2018-06-19T08:47:32Z</time>
      </trkpt>
      <trkpt lat="45.94179" lon="4.81699">
        <ele>267</ele>
        <time>2018-06-19T08:47:35Z</time>
      </trkpt>
      <trkpt lat="45.9418" lon="4.81703">
        <ele>267</ele>
        <time>2018-06-19T08:47:36Z</time>
      </trkpt>
      <trkpt lat="45.94183" lon="4.81714">
        <ele>267</ele>
        <time>2018-06-19T08:47:39Z</time>
      </trkpt>
      <trkpt lat="45.94183" lon="4.81718">
        <ele>267</ele>
        <time>2018-06-19T08:47:40Z</time>
      </trkpt>
      <trkpt lat="45.94184" lon="4.81732">
        <ele>267</ele>
        <time>2018-06-19T08:47:41Z</time>
      </trkpt>
      <trkpt lat="45.94184" lon="4.81741">
        <ele>267</ele>
        <time>2018-06-19T08:47:44Z</time>
      </trkpt>
      <trkpt lat="45.94187" lon="4.81751">
        <ele>266</ele>
        <time>2018-06-19T08:47:45Z</time>
      </trkpt>
      <trkpt lat="45.94192" lon="4.81759">
        <ele>266</ele>
        <time>2018-06-19T08:47:47Z</time>
      </trkpt>
      <trkpt lat="45.94193" lon="4.81762">
        <ele>266</ele>
        <time>2018-06-19T08:47:48Z</time>
      </trkpt>
      <trkpt lat="45.94195" lon="4.81769">
        <ele>266</ele>
        <time>2018-06-19T08:47:49Z</time>
      </trkpt>
      <trkpt lat="45.94196" lon="4.81774">
        <ele>266</ele>
        <time>2018-06-19T08:47:50Z</time>
      </trkpt>
      <trkpt lat="45.94197" lon="4.81785">
        <ele>266</ele>
        <time>2018-06-19T08:47:52Z</time>
      </trkpt>
      <trkpt lat="45.94197" lon="4.81788">
        <ele>266</ele>
        <time>2018-06-19T08:47:53Z</time>
      </trkpt>
      <trkpt lat="45.94197" lon="4.818">
        <ele>266</ele>
        <time>2018-06-19T08:47:55Z</time>
      </trkpt>
      <trkpt lat="45.94197" lon="4.81803">
        <ele>266</ele>
        <time>2018-06-19T08:47:56Z</time>
      </trkpt>
      <trkpt lat="45.94197" lon="4.81811">
        <ele>266</ele>
        <time>2018-06-19T08:47:57Z</time>
      </trkpt>
      <trkpt lat="45.94198" lon="4.81817">
        <ele>266</ele>
        <time>2018-06-19T08:47:58Z</time>
      </trkpt>
      <trkpt lat="45.94201" lon="4.81828">
        <ele>266</ele>
        <time>2018-06-19T08:48:01Z</time>
      </trkpt>
      <trkpt lat="45.94202" lon="4.81831">
        <ele>266</ele>
        <time>2018-06-19T08:48:02Z</time>
      </trkpt>
      <trkpt lat="45.94202" lon="4.81835">
        <ele>266</ele>
        <time>2018-06-19T08:48:03Z</time>
      </trkpt>
      <trkpt lat="45.94204" lon="4.81845">
        <ele>266</ele>
        <time>2018-06-19T08:48:04Z</time>
      </trkpt>
      <trkpt lat="45.94207" lon="4.81856">
        <ele>265</ele>
        <time>2018-06-19T08:48:06Z</time>
      </trkpt>
      <trkpt lat="45.94208" lon="4.81862">
        <ele>265</ele>
        <time>2018-06-19T08:48:07Z</time>
      </trkpt>
      <trkpt lat="45.94208" lon="4.81868">
        <ele>265</ele>
        <time>2018-06-19T08:48:08Z</time>
      </trkpt>
      <trkpt lat="45.94209" lon="4.81874">
        <ele>265</ele>
        <time>2018-06-19T08:48:09Z</time>
      </trkpt>
      <trkpt lat="45.94211" lon="4.81886">
        <ele>265</ele>
        <time>2018-06-19T08:48:11Z</time>
      </trkpt>
      <trkpt lat="45.94212" lon="4.81892">
        <ele>265</ele>
        <time>2018-06-19T08:48:12Z</time>
      </trkpt>
      <trkpt lat="45.94215" lon="4.81904">
        <ele>265</ele>
        <time>2018-06-19T08:48:14Z</time>
      </trkpt>
      <trkpt lat="45.94215" lon="4.81909">
        <ele>265</ele>
        <time>2018-06-19T08:48:15Z</time>
      </trkpt>
      <trkpt lat="45.94217" lon="4.81915">
        <ele>265</ele>
        <time>2018-06-19T08:48:16Z</time>
      </trkpt>
      <trkpt lat="45.94219" lon="4.81921">
        <ele>264</ele>
        <time>2018-06-19T08:48:17Z</time>
      </trkpt>
      <trkpt lat="45.9422" lon="4.81928">
        <ele>264</ele>
        <time>2018-06-19T08:48:18Z</time>
      </trkpt>
      <trkpt lat="45.94221" lon="4.81935">
        <ele>264</ele>
        <time>2018-06-19T08:48:19Z</time>
      </trkpt>
      <trkpt lat="45.94222" lon="4.81942">
        <ele>264</ele>
        <time>2018-06-19T08:48:20Z</time>
      </trkpt>
      <trkpt lat="45.94223" lon="4.8195">
        <ele>264</ele>
        <time>2018-06-19T08:48:21Z</time>
      </trkpt>
      <trkpt lat="45.94224" lon="4.81956">
        <ele>264</ele>
        <time>2018-06-19T08:48:22Z</time>
      </trkpt>
      <trkpt lat="45.94226" lon="4.81962">
        <ele>264</ele>
        <time>2018-06-19T08:48:23Z</time>
      </trkpt>
      <trkpt lat="45.94227" lon="4.81969">
        <ele>264</ele>
        <time>2018-06-19T08:48:24Z</time>
      </trkpt>
      <trkpt lat="45.9423" lon="4.81975">
        <ele>264</ele>
        <time>2018-06-19T08:48:25Z</time>
      </trkpt>
      <trkpt lat="45.94231" lon="4.81982">
        <ele>263</ele>
        <time>2018-06-19T08:48:26Z</time>
      </trkpt>
      <trkpt lat="45.94232" lon="4.81988">
        <ele>263</ele>
        <time>2018-06-19T08:48:27Z</time>
      </trkpt>
      <trkpt lat="45.94234" lon="4.81994">
        <ele>263</ele>
        <time>2018-06-19T08:48:28Z</time>
      </trkpt>
      <trkpt lat="45.94235" lon="4.82001">
        <ele>263</ele>
        <time>2018-06-19T08:48:29Z</time>
      </trkpt>
      <trkpt lat="45.94239" lon="4.82011">
        <ele>263</ele>
        <time>2018-06-19T08:48:31Z</time>
      </trkpt>
      <trkpt lat="45.94239" lon="4.82014">
        <ele>263</ele>
        <time>2018-06-19T08:48:32Z</time>
      </trkpt>
      <trkpt lat="45.94239" lon="4.82023">
        <ele>263</ele>
        <time>2018-06-19T08:48:35Z</time>
      </trkpt>
      <trkpt lat="45.94239" lon="4.82027">
        <ele>263</ele>
        <time>2018-06-19T08:48:36Z</time>
      </trkpt>
      <trkpt lat="45.94238" lon="4.82037">
        <ele>263</ele>
        <time>2018-06-19T08:48:39Z</time>
      </trkpt>
      <trkpt lat="45.94239" lon="4.82054">
        <ele>263</ele>
        <time>2018-06-19T08:48:40Z</time>
      </trkpt>
      <trkpt lat="45.94242" lon="4.82061">
        <ele>263</ele>
        <time>2018-06-19T08:48:41Z</time>
      </trkpt>
      <trkpt lat="45.94243" lon="4.82068">
        <ele>263</ele>
        <time>2018-06-19T08:48:42Z</time>
      </trkpt>
      <trkpt lat="45.94243" lon="4.82074">
        <ele>263</ele>
        <time>2018-06-19T08:48:43Z</time>
      </trkpt>
      <trkpt lat="45.94245" lon="4.82081">
        <ele>262</ele>
        <time>2018-06-19T08:48:44Z</time>
      </trkpt>
      <trkpt lat="45.94247" lon="4.82088">
        <ele>262</ele>
        <time>2018-06-19T08:48:45Z</time>
      </trkpt>
      <trkpt lat="45.94248" lon="4.82095">
        <ele>263</ele>
        <time>2018-06-19T08:48:46Z</time>
      </trkpt>
      <trkpt lat="45.9425" lon="4.82103">
        <ele>263</ele>
        <time>2018-06-19T08:48:47Z</time>
      </trkpt>
      <trkpt lat="45.94251" lon="4.82109">
        <ele>262</ele>
        <time>2018-06-19T08:48:48Z</time>
      </trkpt>
      <trkpt lat="45.94253" lon="4.82116">
        <ele>263</ele>
        <time>2018-06-19T08:48:49Z</time>
      </trkpt>
      <trkpt lat="45.94255" lon="4.82122">
        <ele>263</ele>
        <time>2018-06-19T08:48:50Z</time>
      </trkpt>
      <trkpt lat="45.94257" lon="4.82129">
        <ele>263</ele>
        <time>2018-06-19T08:48:51Z</time>
      </trkpt>
      <trkpt lat="45.94258" lon="4.82136">
        <ele>263</ele>
        <time>2018-06-19T08:48:52Z</time>
      </trkpt>
      <trkpt lat="45.9426" lon="4.82142">
        <ele>263</ele>
        <time>2018-06-19T08:48:53Z</time>
      </trkpt>
      <trkpt lat="45.94262" lon="4.82149">
        <ele>263</ele>
        <time>2018-06-19T08:48:54Z</time>
      </trkpt>
      <trkpt lat="45.94264" lon="4.82156">
        <ele>263</ele>
        <time>2018-06-19T08:48:55Z</time>
      </trkpt>
      <trkpt lat="45.94266" lon="4.82162">
        <ele>263</ele>
        <time>2018-06-19T08:48:56Z</time>
      </trkpt>
      <trkpt lat="45.94268" lon="4.8217">
        <ele>263</ele>
        <time>2018-06-19T08:48:57Z</time>
      </trkpt>
      <trkpt lat="45.94269" lon="4.82179">
        <ele>264</ele>
        <time>2018-06-19T08:48:58Z</time>
      </trkpt>
      <trkpt lat="45.94272" lon="4.82187">
        <ele>264</ele>
        <time>2018-06-19T08:48:59Z</time>
      </trkpt>
      <trkpt lat="45.94275" lon="4.82194">
        <ele>264</ele>
        <time>2018-06-19T08:49:00Z</time>
      </trkpt>
      <trkpt lat="45.94277" lon="4.822">
        <ele>264</ele>
        <time>2018-06-19T08:49:01Z</time>
      </trkpt>
      <trkpt lat="45.94278" lon="4.82209">
        <ele>264</ele>
        <time>2018-06-19T08:49:02Z</time>
      </trkpt>
      <trkpt lat="45.94279" lon="4.82215">
        <ele>264</ele>
        <time>2018-06-19T08:49:03Z</time>
      </trkpt>
      <trkpt lat="45.94279" lon="4.82222">
        <ele>264</ele>
        <time>2018-06-19T08:49:04Z</time>
      </trkpt>
      <trkpt lat="45.9428" lon="4.82228">
        <ele>264</ele>
        <time>2018-06-19T08:49:05Z</time>
      </trkpt>
      <trkpt lat="45.94281" lon="4.82235">
        <ele>264</ele>
        <time>2018-06-19T08:49:06Z</time>
      </trkpt>
      <trkpt lat="45.94281" lon="4.82243">
        <ele>264</ele>
        <time>2018-06-19T08:49:07Z</time>
      </trkpt>
      <trkpt lat="45.94281" lon="4.8225">
        <ele>265</ele>
        <time>2018-06-19T08:49:08Z</time>
      </trkpt>
      <trkpt lat="45.94282" lon="4.82258">
        <ele>265</ele>
        <time>2018-06-19T08:49:09Z</time>
      </trkpt>
      <trkpt lat="45.94282" lon="4.82266">
        <ele>265</ele>
        <time>2018-06-19T08:49:10Z</time>
      </trkpt>
      <trkpt lat="45.94283" lon="4.82274">
        <ele>265</ele>
        <time>2018-06-19T08:49:11Z</time>
      </trkpt>
      <trkpt lat="45.94284" lon="4.82282">
        <ele>265</ele>
        <time>2018-06-19T08:49:12Z</time>
      </trkpt>
      <trkpt lat="45.94284" lon="4.82289">
        <ele>265</ele>
        <time>2018-06-19T08:49:13Z</time>
      </trkpt>
      <trkpt lat="45.94284" lon="4.82295">
        <ele>265</ele>
        <time>2018-06-19T08:49:14Z</time>
      </trkpt>
      <trkpt lat="45.94283" lon="4.82302">
        <ele>265</ele>
        <time>2018-06-19T08:49:15Z</time>
      </trkpt>
      <trkpt lat="45.94283" lon="4.82308">
        <ele>265</ele>
        <time>2018-06-19T08:49:16Z</time>
      </trkpt>
      <trkpt lat="45.94283" lon="4.82314">
        <ele>265</ele>
        <time>2018-06-19T08:49:17Z</time>
      </trkpt>
      <trkpt lat="45.94284" lon="4.82324">
        <ele>265</ele>
        <time>2018-06-19T08:49:18Z</time>
      </trkpt>
      <trkpt lat="45.94285" lon="4.82331">
        <ele>265</ele>
        <time>2018-06-19T08:49:19Z</time>
      </trkpt>
      <trkpt lat="45.94287" lon="4.82338">
        <ele>264</ele>
        <time>2018-06-19T08:49:20Z</time>
      </trkpt>
      <trkpt lat="45.94288" lon="4.82345">
        <ele>264</ele>
        <time>2018-06-19T08:49:21Z</time>
      </trkpt>
      <trkpt lat="45.94288" lon="4.82351">
        <ele>264</ele>
        <time>2018-06-19T08:49:22Z</time>
      </trkpt>
      <trkpt lat="45.94289" lon="4.8236">
        <ele>264</ele>
        <time>2018-06-19T08:49:23Z</time>
      </trkpt>
      <trkpt lat="45.9429" lon="4.82369">
        <ele>264</ele>
        <time>2018-06-19T08:49:24Z</time>
      </trkpt>
      <trkpt lat="45.94291" lon="4.82376">
        <ele>264</ele>
        <time>2018-06-19T08:49:25Z</time>
      </trkpt>
      <trkpt lat="45.94292" lon="4.82383">
        <ele>264</ele>
        <time>2018-06-19T08:49:26Z</time>
      </trkpt>
      <trkpt lat="45.94292" lon="4.82395">
        <ele>264</ele>
        <time>2018-06-19T08:49:28Z</time>
      </trkpt>
      <trkpt lat="45.94292" lon="4.82401">
        <ele>264</ele>
        <time>2018-06-19T08:49:29Z</time>
      </trkpt>
      <trkpt lat="45.94292" lon="4.82412">
        <ele>264</ele>
        <time>2018-06-19T08:49:31Z</time>
      </trkpt>
      <trkpt lat="45.94292" lon="4.82417">
        <ele>264</ele>
        <time>2018-06-19T08:49:32Z</time>
      </trkpt>
      <trkpt lat="45.94292" lon="4.82429">
        <ele>264</ele>
        <time>2018-06-19T08:49:34Z</time>
      </trkpt>
      <trkpt lat="45.94292" lon="4.82436">
        <ele>264</ele>
        <time>2018-06-19T08:49:35Z</time>
      </trkpt>
      <trkpt lat="45.94293" lon="4.82444">
        <ele>264</ele>
        <time>2018-06-19T08:49:36Z</time>
      </trkpt>
      <trkpt lat="45.94293" lon="4.82451">
        <ele>264</ele>
        <time>2018-06-19T08:49:37Z</time>
      </trkpt>
      <trkpt lat="45.94293" lon="4.82459">
        <ele>264</ele>
        <time>2018-06-19T08:49:38Z</time>
      </trkpt>
      <trkpt lat="45.94294" lon="4.82468">
        <ele>264</ele>
        <time>2018-06-19T08:49:39Z</time>
      </trkpt>
      <trkpt lat="45.94294" lon="4.82475">
        <ele>264</ele>
        <time>2018-06-19T08:49:40Z</time>
      </trkpt>
      <trkpt lat="45.94294" lon="4.82482">
        <ele>264</ele>
        <time>2018-06-19T08:49:41Z</time>
      </trkpt>
      <trkpt lat="45.94294" lon="4.82489">
        <ele>264</ele>
        <time>2018-06-19T08:49:42Z</time>
      </trkpt>
      <trkpt lat="45.94294" lon="4.82497">
        <ele>264</ele>
        <time>2018-06-19T08:49:43Z</time>
      </trkpt>
      <trkpt lat="45.94295" lon="4.82508">
        <ele>264</ele>
        <time>2018-06-19T08:49:45Z</time>
      </trkpt>
      <trkpt lat="45.94295" lon="4.82515">
        <ele>264</ele>
        <time>2018-06-19T08:49:46Z</time>
      </trkpt>
      <trkpt lat="45.94295" lon="4.82522">
        <ele>264</ele>
        <time>2018-06-19T08:49:47Z</time>
      </trkpt>
      <trkpt lat="45.94295" lon="4.82528">
        <ele>264</ele>
        <time>2018-06-19T08:49:48Z</time>
      </trkpt>
      <trkpt lat="45.94296" lon="4.82538">
        <ele>264</ele>
        <time>2018-06-19T08:49:49Z</time>
      </trkpt>
      <trkpt lat="45.94296" lon="4.82546">
        <ele>264</ele>
        <time>2018-06-19T08:49:50Z</time>
      </trkpt>
      <trkpt lat="45.94296" lon="4.82559">
        <ele>264</ele>
        <time>2018-06-19T08:49:52Z</time>
      </trkpt>
      <trkpt lat="45.94297" lon="4.82566">
        <ele>264</ele>
        <time>2018-06-19T08:49:53Z</time>
      </trkpt>
      <trkpt lat="45.94296" lon="4.82573">
        <ele>264</ele>
        <time>2018-06-19T08:49:54Z</time>
      </trkpt>
      <trkpt lat="45.94296" lon="4.82581">
        <ele>264</ele>
        <time>2018-06-19T08:49:55Z</time>
      </trkpt>
      <trkpt lat="45.94295" lon="4.82589">
        <ele>265</ele>
        <time>2018-06-19T08:49:56Z</time>
      </trkpt>
      <trkpt lat="45.94295" lon="4.82596">
        <ele>265</ele>
        <time>2018-06-19T08:49:57Z</time>
      </trkpt>
      <trkpt lat="45.94295" lon="4.82604">
        <ele>265</ele>
        <time>2018-06-19T08:49:58Z</time>
      </trkpt>
      <trkpt lat="45.94294" lon="4.82611">
        <ele>265</ele>
        <time>2018-06-19T08:49:59Z</time>
      </trkpt>
      <trkpt lat="45.94293" lon="4.82623">
        <ele>265</ele>
        <time>2018-06-19T08:50:01Z</time>
      </trkpt>
      <trkpt lat="45.94293" lon="4.82629">
        <ele>265</ele>
        <time>2018-06-19T08:50:02Z</time>
      </trkpt>
      <trkpt lat="45.94293" lon="4.82635">
        <ele>265</ele>
        <time>2018-06-19T08:50:03Z</time>
      </trkpt>
      <trkpt lat="45.94293" lon="4.82642">
        <ele>265</ele>
        <time>2018-06-19T08:50:04Z</time>
      </trkpt>
      <trkpt lat="45.94293" lon="4.82649">
        <ele>265</ele>
        <time>2018-06-19T08:50:05Z</time>
      </trkpt>
      <trkpt lat="45.94292" lon="4.82656">
        <ele>265</ele>
        <time>2018-06-19T08:50:06Z</time>
      </trkpt>
      <trkpt lat="45.94294" lon="4.82663">
        <ele>265</ele>
        <time>2018-06-19T08:50:07Z</time>
      </trkpt>
      <trkpt lat="45.94294" lon="4.82669">
        <ele>265</ele>
        <time>2018-06-19T08:50:08Z</time>
      </trkpt>
      <trkpt lat="45.94294" lon="4.82678">
        <ele>265</ele>
        <time>2018-06-19T08:50:09Z</time>
      </trkpt>
      <trkpt lat="45.94294" lon="4.82685">
        <ele>265</ele>
        <time>2018-06-19T08:50:10Z</time>
      </trkpt>
      <trkpt lat="45.94295" lon="4.82693">
        <ele>265</ele>
        <time>2018-06-19T08:50:11Z</time>
      </trkpt>
      <trkpt lat="45.94294" lon="4.827">
        <ele>265</ele>
        <time>2018-06-19T08:50:12Z</time>
      </trkpt>
      <trkpt lat="45.94294" lon="4.82707">
        <ele>265</ele>
        <time>2018-06-19T08:50:13Z</time>
      </trkpt>
      <trkpt lat="45.94293" lon="4.82714">
        <ele>265</ele>
        <time>2018-06-19T08:50:14Z</time>
      </trkpt>
      <trkpt lat="45.94293" lon="4.82721">
        <ele>265</ele>
        <time>2018-06-19T08:50:15Z</time>
      </trkpt>
      <trkpt lat="45.94292" lon="4.82727">
        <ele>265</ele>
        <time>2018-06-19T08:50:16Z</time>
      </trkpt>
      <trkpt lat="45.94292" lon="4.8274">
        <ele>265</ele>
        <time>2018-06-19T08:50:18Z</time>
      </trkpt>
      <trkpt lat="45.94292" lon="4.82747">
        <ele>265</ele>
        <time>2018-06-19T08:50:19Z</time>
      </trkpt>
      <trkpt lat="45.94291" lon="4.82754">
        <ele>265</ele>
        <time>2018-06-19T08:50:20Z</time>
      </trkpt>
      <trkpt lat="45.94292" lon="4.82761">
        <ele>265</ele>
        <time>2018-06-19T08:50:21Z</time>
      </trkpt>
      <trkpt lat="45.94291" lon="4.82768">
        <ele>265</ele>
        <time>2018-06-19T08:50:22Z</time>
      </trkpt>
      <trkpt lat="45.94291" lon="4.82775">
        <ele>265</ele>
        <time>2018-06-19T08:50:23Z</time>
      </trkpt>
      <trkpt lat="45.94291" lon="4.82783">
        <ele>265</ele>
        <time>2018-06-19T08:50:24Z</time>
      </trkpt>
      <trkpt lat="45.9429" lon="4.8279">
        <ele>265</ele>
        <time>2018-06-19T08:50:25Z</time>
      </trkpt>
      <trkpt lat="45.9429" lon="4.82799">
        <ele>265</ele>
        <time>2018-06-19T08:50:26Z</time>
      </trkpt>
      <trkpt lat="45.9429" lon="4.82806">
        <ele>265</ele>
        <time>2018-06-19T08:50:27Z</time>
      </trkpt>
      <trkpt lat="45.9429" lon="4.82814">
        <ele>265</ele>
        <time>2018-06-19T08:50:28Z</time>
      </trkpt>
      <trkpt lat="45.94289" lon="4.8282">
        <ele>265</ele>
        <time>2018-06-19T08:50:29Z</time>
      </trkpt>
      <trkpt lat="45.94289" lon="4.82827">
        <ele>265</ele>
        <time>2018-06-19T08:50:30Z</time>
      </trkpt>
      <trkpt lat="45.94288" lon="4.82834">
        <ele>265</ele>
        <time>2018-06-19T08:50:31Z</time>
      </trkpt>
      <trkpt lat="45.94288" lon="4.8284">
        <ele>265</ele>
        <time>2018-06-19T08:50:32Z</time>
      </trkpt>
      <trkpt lat="45.94288" lon="4.82846">
        <ele>265</ele>
        <time>2018-06-19T08:50:33Z</time>
      </trkpt>
      <trkpt lat="45.94288" lon="4.82853">
        <ele>265</ele>
        <time>2018-06-19T08:50:34Z</time>
      </trkpt>
      <trkpt lat="45.94287" lon="4.82859">
        <ele>265</ele>
        <time>2018-06-19T08:50:35Z</time>
      </trkpt>
      <trkpt lat="45.94287" lon="4.82872">
        <ele>265</ele>
        <time>2018-06-19T08:50:37Z</time>
      </trkpt>
      <trkpt lat="45.94287" lon="4.8288">
        <ele>265</ele>
        <time>2018-06-19T08:50:38Z</time>
      </trkpt>
      <trkpt lat="45.94287" lon="4.82887">
        <ele>265</ele>
        <time>2018-06-19T08:50:39Z</time>
      </trkpt>
      <trkpt lat="45.94286" lon="4.82893">
        <ele>265</ele>
        <time>2018-06-19T08:50:40Z</time>
      </trkpt>
      <trkpt lat="45.94286" lon="4.829">
        <ele>265</ele>
        <time>2018-06-19T08:50:41Z</time>
      </trkpt>
      <trkpt lat="45.94285" lon="4.82908">
        <ele>265</ele>
        <time>2018-06-19T08:50:42Z</time>
      </trkpt>
      <trkpt lat="45.94283" lon="4.82916">
        <ele>265</ele>
        <time>2018-06-19T08:50:43Z</time>
      </trkpt>
      <trkpt lat="45.94282" lon="4.82923">
        <ele>265</ele>
        <time>2018-06-19T08:50:44Z</time>
      </trkpt>
      <trkpt lat="45.9428" lon="4.8293">
        <ele>265</ele>
        <time>2018-06-19T08:50:45Z</time>
      </trkpt>
      <trkpt lat="45.94279" lon="4.82937">
        <ele>265</ele>
        <time>2018-06-19T08:50:46Z</time>
      </trkpt>
      <trkpt lat="45.94278" lon="4.82946">
        <ele>265</ele>
        <time>2018-06-19T08:50:47Z</time>
      </trkpt>
      <trkpt lat="45.94277" lon="4.82953">
        <ele>265</ele>
        <time>2018-06-19T08:50:48Z</time>
      </trkpt>
      <trkpt lat="45.94279" lon="4.82966">
        <ele>265</ele>
        <time>2018-06-19T08:50:50Z</time>
      </trkpt>
      <trkpt lat="45.9428" lon="4.82971">
        <ele>265</ele>
        <time>2018-06-19T08:50:51Z</time>
      </trkpt>
      <trkpt lat="45.94284" lon="4.82977">
        <ele>265</ele>
        <time>2018-06-19T08:50:52Z</time>
      </trkpt>
      <trkpt lat="45.94287" lon="4.82984">
        <ele>265</ele>
        <time>2018-06-19T08:50:53Z</time>
      </trkpt>
      <trkpt lat="45.94289" lon="4.82991">
        <ele>265</ele>
        <time>2018-06-19T08:50:54Z</time>
      </trkpt>
      <trkpt lat="45.94291" lon="4.82999">
        <ele>265</ele>
        <time>2018-06-19T08:50:55Z</time>
      </trkpt>
      <trkpt lat="45.94293" lon="4.83006">
        <ele>266</ele>
        <time>2018-06-19T08:50:56Z</time>
      </trkpt>
      <trkpt lat="45.94295" lon="4.83012">
        <ele>266</ele>
        <time>2018-06-19T08:50:57Z</time>
      </trkpt>
      <trkpt lat="45.94296" lon="4.83019">
        <ele>266</ele>
        <time>2018-06-19T08:50:58Z</time>
      </trkpt>
      <trkpt lat="45.94298" lon="4.83026">
        <ele>266</ele>
        <time>2018-06-19T08:50:59Z</time>
      </trkpt>
      <trkpt lat="45.94298" lon="4.83033">
        <ele>266</ele>
        <time>2018-06-19T08:51:00Z</time>
      </trkpt>
      <trkpt lat="45.94299" lon="4.8304">
        <ele>266</ele>
        <time>2018-06-19T08:51:01Z</time>
      </trkpt>
      <trkpt lat="45.94302" lon="4.83052">
        <ele>266</ele>
        <time>2018-06-19T08:51:03Z</time>
      </trkpt>
      <trkpt lat="45.94303" lon="4.83059">
        <ele>266</ele>
        <time>2018-06-19T08:51:04Z</time>
      </trkpt>
      <trkpt lat="45.94306" lon="4.8307">
        <ele>266</ele>
        <time>2018-06-19T08:51:06Z</time>
      </trkpt>
      <trkpt lat="45.94307" lon="4.83077">
        <ele>266</ele>
        <time>2018-06-19T08:51:07Z</time>
      </trkpt>
      <trkpt lat="45.94309" lon="4.83083">
        <ele>266</ele>
        <time>2018-06-19T08:51:08Z</time>
      </trkpt>
      <trkpt lat="45.94311" lon="4.8309">
        <ele>266</ele>
        <time>2018-06-19T08:51:09Z</time>
      </trkpt>
      <trkpt lat="45.94313" lon="4.83098">
        <ele>266</ele>
        <time>2018-06-19T08:51:10Z</time>
      </trkpt>
      <trkpt lat="45.94315" lon="4.83104">
        <ele>266</ele>
        <time>2018-06-19T08:51:11Z</time>
      </trkpt>
      <trkpt lat="45.94317" lon="4.83111">
        <ele>266</ele>
        <time>2018-06-19T08:51:12Z</time>
      </trkpt>
      <trkpt lat="45.94319" lon="4.83117">
        <ele>266</ele>
        <time>2018-06-19T08:51:13Z</time>
      </trkpt>
      <trkpt lat="45.94322" lon="4.83123">
        <ele>266</ele>
        <time>2018-06-19T08:51:14Z</time>
      </trkpt>
      <trkpt lat="45.94324" lon="4.8313">
        <ele>266</ele>
        <time>2018-06-19T08:51:15Z</time>
      </trkpt>
      <trkpt lat="45.94326" lon="4.83136">
        <ele>266</ele>
        <time>2018-06-19T08:51:16Z</time>
      </trkpt>
      <trkpt lat="45.94328" lon="4.83142">
        <ele>266</ele>
        <time>2018-06-19T08:51:17Z</time>
      </trkpt>
      <trkpt lat="45.9433" lon="4.83148">
        <ele>266</ele>
        <time>2018-06-19T08:51:18Z</time>
      </trkpt>
      <trkpt lat="45.94332" lon="4.83154">
        <ele>266</ele>
        <time>2018-06-19T08:51:19Z</time>
      </trkpt>
      <trkpt lat="45.94337" lon="4.83163">
        <ele>266</ele>
        <time>2018-06-19T08:51:21Z</time>
      </trkpt>
      <trkpt lat="45.94338" lon="4.83169">
        <ele>266</ele>
        <time>2018-06-19T08:51:22Z</time>
      </trkpt>
      <trkpt lat="45.9434" lon="4.83178">
        <ele>266</ele>
        <time>2018-06-19T08:51:23Z</time>
      </trkpt>
      <trkpt lat="45.94342" lon="4.83184">
        <ele>266</ele>
        <time>2018-06-19T08:51:24Z</time>
      </trkpt>
      <trkpt lat="45.94345" lon="4.83191">
        <ele>266</ele>
        <time>2018-06-19T08:51:25Z</time>
      </trkpt>
      <trkpt lat="45.94347" lon="4.83197">
        <ele>266</ele>
        <time>2018-06-19T08:51:26Z</time>
      </trkpt>
      <trkpt lat="45.9435" lon="4.83204">
        <ele>266</ele>
        <time>2018-06-19T08:51:27Z</time>
      </trkpt>
      <trkpt lat="45.94352" lon="4.83211">
        <ele>266</ele>
        <time>2018-06-19T08:51:28Z</time>
      </trkpt>
      <trkpt lat="45.94355" lon="4.83218">
        <ele>266</ele>
        <time>2018-06-19T08:51:29Z</time>
      </trkpt>
      <trkpt lat="45.94357" lon="4.83224">
        <ele>266</ele>
        <time>2018-06-19T08:51:30Z</time>
      </trkpt>
      <trkpt lat="45.94359" lon="4.8323">
        <ele>266</ele>
        <time>2018-06-19T08:51:31Z</time>
      </trkpt>
      <trkpt lat="45.94362" lon="4.83237">
        <ele>265</ele>
        <time>2018-06-19T08:51:32Z</time>
      </trkpt>
      <trkpt lat="45.94365" lon="4.83248">
        <ele>265</ele>
        <time>2018-06-19T08:51:34Z</time>
      </trkpt>
      <trkpt lat="45.94367" lon="4.83253">
        <ele>265</ele>
        <time>2018-06-19T08:51:35Z</time>
      </trkpt>
      <trkpt lat="45.94369" lon="4.83259">
        <ele>265</ele>
        <time>2018-06-19T08:51:36Z</time>
      </trkpt>
      <trkpt lat="45.94371" lon="4.83268">
        <ele>264</ele>
        <time>2018-06-19T08:51:37Z</time>
      </trkpt>
      <trkpt lat="45.94373" lon="4.83274">
        <ele>264</ele>
        <time>2018-06-19T08:51:38Z</time>
      </trkpt>
      <trkpt lat="45.94375" lon="4.83283">
        <ele>264</ele>
        <time>2018-06-19T08:51:39Z</time>
      </trkpt>
      <trkpt lat="45.94378" lon="4.8329">
        <ele>264</ele>
        <time>2018-06-19T08:51:40Z</time>
      </trkpt>
      <trkpt lat="45.94381" lon="4.83297">
        <ele>264</ele>
        <time>2018-06-19T08:51:41Z</time>
      </trkpt>
      <trkpt lat="45.94384" lon="4.83304">
        <ele>264</ele>
        <time>2018-06-19T08:51:42Z</time>
      </trkpt>
      <trkpt lat="45.94386" lon="4.83311">
        <ele>264</ele>
        <time>2018-06-19T08:51:43Z</time>
      </trkpt>
      <trkpt lat="45.94389" lon="4.83318">
        <ele>264</ele>
        <time>2018-06-19T08:51:44Z</time>
      </trkpt>
      <trkpt lat="45.94391" lon="4.83324">
        <ele>264</ele>
        <time>2018-06-19T08:51:45Z</time>
      </trkpt>
      <trkpt lat="45.94393" lon="4.83329">
        <ele>264</ele>
        <time>2018-06-19T08:51:46Z</time>
      </trkpt>
      <trkpt lat="45.94396" lon="4.83336">
        <ele>263</ele>
        <time>2018-06-19T08:51:47Z</time>
      </trkpt>
      <trkpt lat="45.94398" lon="4.83342">
        <ele>263</ele>
        <time>2018-06-19T08:51:48Z</time>
      </trkpt>
      <trkpt lat="45.944" lon="4.83348">
        <ele>263</ele>
        <time>2018-06-19T08:51:49Z</time>
      </trkpt>
      <trkpt lat="45.94403" lon="4.83354">
        <ele>263</ele>
        <time>2018-06-19T08:51:50Z</time>
      </trkpt>
      <trkpt lat="45.94406" lon="4.83359">
        <ele>264</ele>
        <time>2018-06-19T08:51:51Z</time>
      </trkpt>
      <trkpt lat="45.9441" lon="4.83366">
        <ele>264</ele>
        <time>2018-06-19T08:51:52Z</time>
      </trkpt>
      <trkpt lat="45.94413" lon="4.83371">
        <ele>264</ele>
        <time>2018-06-19T08:51:53Z</time>
      </trkpt>
      <trkpt lat="45.94416" lon="4.83377">
        <ele>264</ele>
        <time>2018-06-19T08:51:54Z</time>
      </trkpt>
      <trkpt lat="45.94418" lon="4.83384">
        <ele>264</ele>
        <time>2018-06-19T08:51:55Z</time>
      </trkpt>
      <trkpt lat="45.94422" lon="4.8339">
        <ele>264</ele>
        <time>2018-06-19T08:51:56Z</time>
      </trkpt>
      <trkpt lat="45.94425" lon="4.83397">
        <ele>264</ele>
        <time>2018-06-19T08:51:57Z</time>
      </trkpt>
      <trkpt lat="45.94427" lon="4.83403">
        <ele>264</ele>
        <time>2018-06-19T08:51:58Z</time>
      </trkpt>
      <trkpt lat="45.9443" lon="4.83409">
        <ele>264</ele>
        <time>2018-06-19T08:51:59Z</time>
      </trkpt>
      <trkpt lat="45.94435" lon="4.83416">
        <ele>264</ele>
        <time>2018-06-19T08:52:00Z</time>
      </trkpt>
      <trkpt lat="45.94438" lon="4.83423">
        <ele>264</ele>
        <time>2018-06-19T08:52:01Z</time>
      </trkpt>
      <trkpt lat="45.94441" lon="4.83431">
        <ele>263</ele>
        <time>2018-06-19T08:52:02Z</time>
      </trkpt>
      <trkpt lat="45.94444" lon="4.83436">
        <ele>263</ele>
        <time>2018-06-19T08:52:03Z</time>
      </trkpt>
      <trkpt lat="45.94449" lon="4.83444">
        <ele>263</ele>
        <time>2018-06-19T08:52:04Z</time>
      </trkpt>
      <trkpt lat="45.94452" lon="4.8345">
        <ele>263</ele>
        <time>2018-06-19T08:52:05Z</time>
      </trkpt>
      <trkpt lat="45.94455" lon="4.83457">
        <ele>263</ele>
        <time>2018-06-19T08:52:06Z</time>
      </trkpt>
      <trkpt lat="45.94459" lon="4.83463">
        <ele>263</ele>
        <time>2018-06-19T08:52:07Z</time>
      </trkpt>
      <trkpt lat="45.94463" lon="4.8347">
        <ele>263</ele>
        <time>2018-06-19T08:52:08Z</time>
      </trkpt>
      <trkpt lat="45.94467" lon="4.83476">
        <ele>263</ele>
        <time>2018-06-19T08:52:09Z</time>
      </trkpt>
      <trkpt lat="45.9447" lon="4.83482">
        <ele>263</ele>
        <time>2018-06-19T08:52:10Z</time>
      </trkpt>
      <trkpt lat="45.94473" lon="4.83489">
        <ele>263</ele>
        <time>2018-06-19T08:52:11Z</time>
      </trkpt>
      <trkpt lat="45.94477" lon="4.83494">
        <ele>263</ele>
        <time>2018-06-19T08:52:12Z</time>
      </trkpt>
      <trkpt lat="45.9448" lon="4.83501">
        <ele>262</ele>
        <time>2018-06-19T08:52:13Z</time>
      </trkpt>
      <trkpt lat="45.94484" lon="4.83507">
        <ele>262</ele>
        <time>2018-06-19T08:52:14Z</time>
      </trkpt>
      <trkpt lat="45.94487" lon="4.83514">
        <ele>262</ele>
        <time>2018-06-19T08:52:15Z</time>
      </trkpt>
      <trkpt lat="45.94492" lon="4.8352">
        <ele>262</ele>
        <time>2018-06-19T08:52:16Z</time>
      </trkpt>
      <trkpt lat="45.94496" lon="4.83526">
        <ele>262</ele>
        <time>2018-06-19T08:52:17Z</time>
      </trkpt>
      <trkpt lat="45.945" lon="4.83532">
        <ele>262</ele>
        <time>2018-06-19T08:52:18Z</time>
      </trkpt>
      <trkpt lat="45.94504" lon="4.83539">
        <ele>262</ele>
        <time>2018-06-19T08:52:19Z</time>
      </trkpt>
      <trkpt lat="45.94508" lon="4.83545">
        <ele>261</ele>
        <time>2018-06-19T08:52:20Z</time>
      </trkpt>
      <trkpt lat="45.94512" lon="4.8355">
        <ele>261</ele>
        <time>2018-06-19T08:52:21Z</time>
      </trkpt>
      <trkpt lat="45.94514" lon="4.83556">
        <ele>261</ele>
        <time>2018-06-19T08:52:22Z</time>
      </trkpt>
      <trkpt lat="45.94517" lon="4.83563">
        <ele>261</ele>
        <time>2018-06-19T08:52:23Z</time>
      </trkpt>
      <trkpt lat="45.94519" lon="4.83568">
        <ele>261</ele>
        <time>2018-06-19T08:52:24Z</time>
      </trkpt>
      <trkpt lat="45.94521" lon="4.83576">
        <ele>261</ele>
        <time>2018-06-19T08:52:25Z</time>
      </trkpt>
      <trkpt lat="45.94523" lon="4.83583">
        <ele>261</ele>
        <time>2018-06-19T08:52:26Z</time>
      </trkpt>
      <trkpt lat="45.94525" lon="4.83589">
        <ele>261</ele>
        <time>2018-06-19T08:52:27Z</time>
      </trkpt>
      <trkpt lat="45.94527" lon="4.83597">
        <ele>261</ele>
        <time>2018-06-19T08:52:28Z</time>
      </trkpt>
      <trkpt lat="45.94529" lon="4.83604">
        <ele>261</ele>
        <time>2018-06-19T08:52:29Z</time>
      </trkpt>
      <trkpt lat="45.94531" lon="4.83612">
        <ele>261</ele>
        <time>2018-06-19T08:52:30Z</time>
      </trkpt>
      <trkpt lat="45.94531" lon="4.83619">
        <ele>261</ele>
        <time>2018-06-19T08:52:31Z</time>
      </trkpt>
      <trkpt lat="45.94533" lon="4.83627">
        <ele>261</ele>
        <time>2018-06-19T08:52:32Z</time>
      </trkpt>
      <trkpt lat="45.94534" lon="4.83636">
        <ele>261</ele>
        <time>2018-06-19T08:52:33Z</time>
      </trkpt>
      <trkpt lat="45.94535" lon="4.83644">
        <ele>261</ele>
        <time>2018-06-19T08:52:34Z</time>
      </trkpt>
      <trkpt lat="45.94537" lon="4.83653">
        <ele>261</ele>
        <time>2018-06-19T08:52:35Z</time>
      </trkpt>
      <trkpt lat="45.94538" lon="4.83663">
        <ele>261</ele>
        <time>2018-06-19T08:52:36Z</time>
      </trkpt>
      <trkpt lat="45.94539" lon="4.83672">
        <ele>262</ele>
        <time>2018-06-19T08:52:37Z</time>
      </trkpt>
      <trkpt lat="45.94541" lon="4.8368">
        <ele>262</ele>
        <time>2018-06-19T08:52:38Z</time>
      </trkpt>
      <trkpt lat="45.94542" lon="4.83689">
        <ele>262</ele>
        <time>2018-06-19T08:52:39Z</time>
      </trkpt>
      <trkpt lat="45.94544" lon="4.83697">
        <ele>262</ele>
        <time>2018-06-19T08:52:40Z</time>
      </trkpt>
      <trkpt lat="45.94545" lon="4.83705">
        <ele>262</ele>
        <time>2018-06-19T08:52:41Z</time>
      </trkpt>
      <trkpt lat="45.94547" lon="4.83714">
        <ele>262</ele>
        <time>2018-06-19T08:52:42Z</time>
      </trkpt>
      <trkpt lat="45.94549" lon="4.8372">
        <ele>262</ele>
        <time>2018-06-19T08:52:43Z</time>
      </trkpt>
      <trkpt lat="45.94549" lon="4.83729">
        <ele>262</ele>
        <time>2018-06-19T08:52:44Z</time>
      </trkpt>
      <trkpt lat="45.94551" lon="4.83737">
        <ele>262</ele>
        <time>2018-06-19T08:52:45Z</time>
      </trkpt>
      <trkpt lat="45.94552" lon="4.83745">
        <ele>262</ele>
        <time>2018-06-19T08:52:46Z</time>
      </trkpt>
      <trkpt lat="45.94554" lon="4.83753">
        <ele>263</ele>
        <time>2018-06-19T08:52:47Z</time>
      </trkpt>
      <trkpt lat="45.94554" lon="4.83761">
        <ele>263</ele>
        <time>2018-06-19T08:52:48Z</time>
      </trkpt>
      <trkpt lat="45.94555" lon="4.8377">
        <ele>263</ele>
        <time>2018-06-19T08:52:49Z</time>
      </trkpt>
      <trkpt lat="45.94557" lon="4.83778">
        <ele>264</ele>
        <time>2018-06-19T08:52:50Z</time>
      </trkpt>
      <trkpt lat="45.94558" lon="4.83787">
        <ele>264</ele>
        <time>2018-06-19T08:52:51Z</time>
      </trkpt>
      <trkpt lat="45.94559" lon="4.83794">
        <ele>264</ele>
        <time>2018-06-19T08:52:52Z</time>
      </trkpt>
      <trkpt lat="45.94561" lon="4.83803">
        <ele>264</ele>
        <time>2018-06-19T08:52:53Z</time>
      </trkpt>
      <trkpt lat="45.94562" lon="4.83811">
        <ele>264</ele>
        <time>2018-06-19T08:52:54Z</time>
      </trkpt>
      <trkpt lat="45.94563" lon="4.8382">
        <ele>264</ele>
        <time>2018-06-19T08:52:55Z</time>
      </trkpt>
      <trkpt lat="45.94565" lon="4.83828">
        <ele>265</ele>
        <time>2018-06-19T08:52:56Z</time>
      </trkpt>
      <trkpt lat="45.94566" lon="4.83835">
        <ele>266</ele>
        <time>2018-06-19T08:52:57Z</time>
      </trkpt>
      <trkpt lat="45.94567" lon="4.83843">
        <ele>266</ele>
        <time>2018-06-19T08:52:58Z</time>
      </trkpt>
      <trkpt lat="45.94568" lon="4.83851">
        <ele>266</ele>
        <time>2018-06-19T08:52:59Z</time>
      </trkpt>
      <trkpt lat="45.9457" lon="4.83859">
        <ele>267</ele>
        <time>2018-06-19T08:53:00Z</time>
      </trkpt>
      <trkpt lat="45.9457" lon="4.83867">
        <ele>267</ele>
        <time>2018-06-19T08:53:01Z</time>
      </trkpt>
      <trkpt lat="45.94572" lon="4.83873">
        <ele>267</ele>
        <time>2018-06-19T08:53:02Z</time>
      </trkpt>
      <trkpt lat="45.94573" lon="4.83882">
        <ele>267</ele>
        <time>2018-06-19T08:53:03Z</time>
      </trkpt>
      <trkpt lat="45.94575" lon="4.83889">
        <ele>267</ele>
        <time>2018-06-19T08:53:04Z</time>
      </trkpt>
      <trkpt lat="45.94575" lon="4.83896">
        <ele>267</ele>
        <time>2018-06-19T08:53:05Z</time>
      </trkpt>
      <trkpt lat="45.94577" lon="4.83902">
        <ele>268</ele>
        <time>2018-06-19T08:53:06Z</time>
      </trkpt>
      <trkpt lat="45.94578" lon="4.83909">
        <ele>268</ele>
        <time>2018-06-19T08:53:07Z</time>
      </trkpt>
      <trkpt lat="45.94579" lon="4.83915">
        <ele>268</ele>
        <time>2018-06-19T08:53:08Z</time>
      </trkpt>
      <trkpt lat="45.9458" lon="4.83921">
        <ele>268</ele>
        <time>2018-06-19T08:53:09Z</time>
      </trkpt>
      <trkpt lat="45.94584" lon="4.83932">
        <ele>268</ele>
        <time>2018-06-19T08:53:11Z</time>
      </trkpt>
      <trkpt lat="45.94584" lon="4.83937">
        <ele>268</ele>
        <time>2018-06-19T08:53:12Z</time>
      </trkpt>
      <trkpt lat="45.94586" lon="4.83949">
        <ele>268</ele>
        <time>2018-06-19T08:53:14Z</time>
      </trkpt>
      <trkpt lat="45.94586" lon="4.83956">
        <ele>268</ele>
        <time>2018-06-19T08:53:15Z</time>
      </trkpt>
      <trkpt lat="45.94588" lon="4.83962">
        <ele>268</ele>
        <time>2018-06-19T08:53:16Z</time>
      </trkpt>
      <trkpt lat="45.94589" lon="4.83968">
        <ele>268</ele>
        <time>2018-06-19T08:53:17Z</time>
      </trkpt>
      <trkpt lat="45.94592" lon="4.83979">
        <ele>268</ele>
        <time>2018-06-19T08:53:19Z</time>
      </trkpt>
      <trkpt lat="45.94593" lon="4.83986">
        <ele>269</ele>
        <time>2018-06-19T08:53:20Z</time>
      </trkpt>
      <trkpt lat="45.94593" lon="4.83995">
        <ele>269</ele>
        <time>2018-06-19T08:53:21Z</time>
      </trkpt>
      <trkpt lat="45.94594" lon="4.84002">
        <ele>269</ele>
        <time>2018-06-19T08:53:22Z</time>
      </trkpt>
      <trkpt lat="45.94596" lon="4.84009">
        <ele>269</ele>
        <time>2018-06-19T08:53:23Z</time>
      </trkpt>
      <trkpt lat="45.94596" lon="4.84015">
        <ele>269</ele>
        <time>2018-06-19T08:53:24Z</time>
      </trkpt>
      <trkpt lat="45.94597" lon="4.84022">
        <ele>269</ele>
        <time>2018-06-19T08:53:25Z</time>
      </trkpt>
      <trkpt lat="45.94599" lon="4.84029">
        <ele>269</ele>
        <time>2018-06-19T08:53:26Z</time>
      </trkpt>
      <trkpt lat="45.946" lon="4.8404">
        <ele>269</ele>
        <time>2018-06-19T08:53:28Z</time>
      </trkpt>
      <trkpt lat="45.94601" lon="4.84047">
        <ele>269</ele>
        <time>2018-06-19T08:53:29Z</time>
      </trkpt>
      <trkpt lat="45.94602" lon="4.84059">
        <ele>269</ele>
        <time>2018-06-19T08:53:31Z</time>
      </trkpt>
      <trkpt lat="45.94603" lon="4.84068">
        <ele>269</ele>
        <time>2018-06-19T08:53:32Z</time>
      </trkpt>
      <trkpt lat="45.94604" lon="4.84075">
        <ele>269</ele>
        <time>2018-06-19T08:53:33Z</time>
      </trkpt>
      <trkpt lat="45.94605" lon="4.84083">
        <ele>269</ele>
        <time>2018-06-19T08:53:34Z</time>
      </trkpt>
      <trkpt lat="45.94606" lon="4.8409">
        <ele>269</ele>
        <time>2018-06-19T08:53:35Z</time>
      </trkpt>
      <trkpt lat="45.94608" lon="4.84098">
        <ele>269</ele>
        <time>2018-06-19T08:53:36Z</time>
      </trkpt>
      <trkpt lat="45.94609" lon="4.84105">
        <ele>269</ele>
        <time>2018-06-19T08:53:37Z</time>
      </trkpt>
      <trkpt lat="45.9461" lon="4.84112">
        <ele>269</ele>
        <time>2018-06-19T08:53:38Z</time>
      </trkpt>
      <trkpt lat="45.94612" lon="4.84124">
        <ele>269</ele>
        <time>2018-06-19T08:53:40Z</time>
      </trkpt>
      <trkpt lat="45.94613" lon="4.84131">
        <ele>269</ele>
        <time>2018-06-19T08:53:41Z</time>
      </trkpt>
      <trkpt lat="45.94614" lon="4.84142">
        <ele>269</ele>
        <time>2018-06-19T08:53:43Z</time>
      </trkpt>
      <trkpt lat="45.94616" lon="4.84149">
        <ele>269</ele>
        <time>2018-06-19T08:53:44Z</time>
      </trkpt>
      <trkpt lat="45.94616" lon="4.84156">
        <ele>269</ele>
        <time>2018-06-19T08:53:45Z</time>
      </trkpt>
      <trkpt lat="45.94617" lon="4.84162">
        <ele>269</ele>
        <time>2018-06-19T08:53:46Z</time>
      </trkpt>
      <trkpt lat="45.94617" lon="4.84169">
        <ele>269</ele>
        <time>2018-06-19T08:53:47Z</time>
      </trkpt>
      <trkpt lat="45.94618" lon="4.84176">
        <ele>269</ele>
        <time>2018-06-19T08:53:48Z</time>
      </trkpt>
      <trkpt lat="45.9462" lon="4.84185">
        <ele>269</ele>
        <time>2018-06-19T08:53:49Z</time>
      </trkpt>
      <trkpt lat="45.94622" lon="4.84193">
        <ele>269</ele>
        <time>2018-06-19T08:53:50Z</time>
      </trkpt>
      <trkpt lat="45.94624" lon="4.84199">
        <ele>269</ele>
        <time>2018-06-19T08:53:51Z</time>
      </trkpt>
      <trkpt lat="45.94624" lon="4.84206">
        <ele>269</ele>
        <time>2018-06-19T08:53:52Z</time>
      </trkpt>
      <trkpt lat="45.94626" lon="4.84215">
        <ele>269</ele>
        <time>2018-06-19T08:53:53Z</time>
      </trkpt>
      <trkpt lat="45.94628" lon="4.84223">
        <ele>269</ele>
        <time>2018-06-19T08:53:54Z</time>
      </trkpt>
      <trkpt lat="45.94629" lon="4.8423">
        <ele>269</ele>
        <time>2018-06-19T08:53:55Z</time>
      </trkpt>
      <trkpt lat="45.94629" lon="4.84237">
        <ele>269</ele>
        <time>2018-06-19T08:53:56Z</time>
      </trkpt>
      <trkpt lat="45.94631" lon="4.84249">
        <ele>269</ele>
        <time>2018-06-19T08:53:58Z</time>
      </trkpt>
      <trkpt lat="45.94632" lon="4.84255">
        <ele>269</ele>
        <time>2018-06-19T08:53:59Z</time>
      </trkpt>
      <trkpt lat="45.94633" lon="4.84262">
        <ele>269</ele>
        <time>2018-06-19T08:54:00Z</time>
      </trkpt>
      <trkpt lat="45.94634" lon="4.84268">
        <ele>269</ele>
        <time>2018-06-19T08:54:01Z</time>
      </trkpt>
      <trkpt lat="45.94635" lon="4.84275">
        <ele>269</ele>
        <time>2018-06-19T08:54:02Z</time>
      </trkpt>
      <trkpt lat="45.94636" lon="4.84281">
        <ele>269</ele>
        <time>2018-06-19T08:54:03Z</time>
      </trkpt>
      <trkpt lat="45.94638" lon="4.84292">
        <ele>269</ele>
        <time>2018-06-19T08:54:04Z</time>
      </trkpt>
      <trkpt lat="45.94639" lon="4.84297">
        <ele>269</ele>
        <time>2018-06-19T08:54:05Z</time>
      </trkpt>
      <trkpt lat="45.94641" lon="4.84304">
        <ele>269</ele>
        <time>2018-06-19T08:54:06Z</time>
      </trkpt>
      <trkpt lat="45.94641" lon="4.84311">
        <ele>269</ele>
        <time>2018-06-19T08:54:07Z</time>
      </trkpt>
      <trkpt lat="45.94642" lon="4.84318">
        <ele>269</ele>
        <time>2018-06-19T08:54:08Z</time>
      </trkpt>
      <trkpt lat="45.94643" lon="4.84325">
        <ele>268</ele>
        <time>2018-06-19T08:54:09Z</time>
      </trkpt>
      <trkpt lat="45.94643" lon="4.84331">
        <ele>268</ele>
        <time>2018-06-19T08:54:10Z</time>
      </trkpt>
      <trkpt lat="45.94644" lon="4.8434">
        <ele>268</ele>
        <time>2018-06-19T08:54:11Z</time>
      </trkpt>
      <trkpt lat="45.94645" lon="4.84347">
        <ele>268</ele>
        <time>2018-06-19T08:54:12Z</time>
      </trkpt>
      <trkpt lat="45.94646" lon="4.84353">
        <ele>268</ele>
        <time>2018-06-19T08:54:13Z</time>
      </trkpt>
      <trkpt lat="45.94647" lon="4.84365">
        <ele>268</ele>
        <time>2018-06-19T08:54:15Z</time>
      </trkpt>
      <trkpt lat="45.94648" lon="4.84371">
        <ele>268</ele>
        <time>2018-06-19T08:54:16Z</time>
      </trkpt>
      <trkpt lat="45.94649" lon="4.84378">
        <ele>268</ele>
        <time>2018-06-19T08:54:17Z</time>
      </trkpt>
      <trkpt lat="45.9465" lon="4.84384">
        <ele>268</ele>
        <time>2018-06-19T08:54:18Z</time>
      </trkpt>
      <trkpt lat="45.94651" lon="4.84395">
        <ele>268</ele>
        <time>2018-06-19T08:54:20Z</time>
      </trkpt>
      <trkpt lat="45.94651" lon="4.84402">
        <ele>268</ele>
        <time>2018-06-19T08:54:21Z</time>
      </trkpt>
      <trkpt lat="45.94651" lon="4.84408">
        <ele>268</ele>
        <time>2018-06-19T08:54:22Z</time>
      </trkpt>
      <trkpt lat="45.94653" lon="4.84415">
        <ele>268</ele>
        <time>2018-06-19T08:54:23Z</time>
      </trkpt>
      <trkpt lat="45.94655" lon="4.84422">
        <ele>268</ele>
        <time>2018-06-19T08:54:24Z</time>
      </trkpt>
      <trkpt lat="45.94656" lon="4.8443">
        <ele>268</ele>
        <time>2018-06-19T08:54:25Z</time>
      </trkpt>
      <trkpt lat="45.94657" lon="4.84441">
        <ele>268</ele>
        <time>2018-06-19T08:54:26Z</time>
      </trkpt>
      <trkpt lat="45.94657" lon="4.84446">
        <ele>268</ele>
        <time>2018-06-19T08:54:27Z</time>
      </trkpt>
      <trkpt lat="45.94658" lon="4.84453">
        <ele>268</ele>
        <time>2018-06-19T08:54:28Z</time>
      </trkpt>
      <trkpt lat="45.94658" lon="4.8446">
        <ele>268</ele>
        <time>2018-06-19T08:54:29Z</time>
      </trkpt>
      <trkpt lat="45.94659" lon="4.84467">
        <ele>268</ele>
        <time>2018-06-19T08:54:30Z</time>
      </trkpt>
      <trkpt lat="45.94658" lon="4.84473">
        <ele>268</ele>
        <time>2018-06-19T08:54:31Z</time>
      </trkpt>
      <trkpt lat="45.94659" lon="4.8448">
        <ele>268</ele>
        <time>2018-06-19T08:54:32Z</time>
      </trkpt>
      <trkpt lat="45.94661" lon="4.84488">
        <ele>268</ele>
        <time>2018-06-19T08:54:33Z</time>
      </trkpt>
      <trkpt lat="45.94662" lon="4.84495">
        <ele>268</ele>
        <time>2018-06-19T08:54:34Z</time>
      </trkpt>
      <trkpt lat="45.94662" lon="4.84502">
        <ele>268</ele>
        <time>2018-06-19T08:54:35Z</time>
      </trkpt>
      <trkpt lat="45.94662" lon="4.8451">
        <ele>268</ele>
        <time>2018-06-19T08:54:36Z</time>
      </trkpt>
      <trkpt lat="45.94663" lon="4.84517">
        <ele>268</ele>
        <time>2018-06-19T08:54:37Z</time>
      </trkpt>
      <trkpt lat="45.94663" lon="4.84522">
        <ele>268</ele>
        <time>2018-06-19T08:54:38Z</time>
      </trkpt>
      <trkpt lat="45.94664" lon="4.84529">
        <ele>268</ele>
        <time>2018-06-19T08:54:39Z</time>
      </trkpt>
      <trkpt lat="45.94666" lon="4.84541">
        <ele>268</ele>
        <time>2018-06-19T08:54:41Z</time>
      </trkpt>
      <trkpt lat="45.94666" lon="4.84548">
        <ele>268</ele>
        <time>2018-06-19T08:54:42Z</time>
      </trkpt>
      <trkpt lat="45.94666" lon="4.84555">
        <ele>268</ele>
        <time>2018-06-19T08:54:43Z</time>
      </trkpt>
      <trkpt lat="45.94666" lon="4.84563">
        <ele>268</ele>
        <time>2018-06-19T08:54:44Z</time>
      </trkpt>
      <trkpt lat="45.94667" lon="4.8457">
        <ele>268</ele>
        <time>2018-06-19T08:54:45Z</time>
      </trkpt>
      <trkpt lat="45.94667" lon="4.84577">
        <ele>268</ele>
        <time>2018-06-19T08:54:46Z</time>
      </trkpt>
      <trkpt lat="45.94667" lon="4.84584">
        <ele>268</ele>
        <time>2018-06-19T08:54:47Z</time>
      </trkpt>
      <trkpt lat="45.94667" lon="4.84591">
        <ele>268</ele>
        <time>2018-06-19T08:54:48Z</time>
      </trkpt>
      <trkpt lat="45.94668" lon="4.84598">
        <ele>268</ele>
        <time>2018-06-19T08:54:49Z</time>
      </trkpt>
      <trkpt lat="45.94668" lon="4.84605">
        <ele>268</ele>
        <time>2018-06-19T08:54:50Z</time>
      </trkpt>
      <trkpt lat="45.94668" lon="4.8461">
        <ele>268</ele>
        <time>2018-06-19T08:54:51Z</time>
      </trkpt>
      <trkpt lat="45.9467" lon="4.84621">
        <ele>268</ele>
        <time>2018-06-19T08:54:52Z</time>
      </trkpt>
      <trkpt lat="45.9467" lon="4.84633">
        <ele>268</ele>
        <time>2018-06-19T08:54:54Z</time>
      </trkpt>
      <trkpt lat="45.94669" lon="4.84637">
        <ele>268</ele>
        <time>2018-06-19T08:54:55Z</time>
      </trkpt>
      <trkpt lat="45.94669" lon="4.84644">
        <ele>268</ele>
        <time>2018-06-19T08:54:56Z</time>
      </trkpt>
      <trkpt lat="45.94669" lon="4.84651">
        <ele>268</ele>
        <time>2018-06-19T08:54:57Z</time>
      </trkpt>
      <trkpt lat="45.9467" lon="4.84659">
        <ele>269</ele>
        <time>2018-06-19T08:54:58Z</time>
      </trkpt>
      <trkpt lat="45.94669" lon="4.84667">
        <ele>269</ele>
        <time>2018-06-19T08:54:59Z</time>
      </trkpt>
      <trkpt lat="45.94668" lon="4.84673">
        <ele>269</ele>
        <time>2018-06-19T08:55:00Z</time>
      </trkpt>
      <trkpt lat="45.94668" lon="4.84681">
        <ele>269</ele>
        <time>2018-06-19T08:55:01Z</time>
      </trkpt>
      <trkpt lat="45.94669" lon="4.84686">
        <ele>269</ele>
        <time>2018-06-19T08:55:02Z</time>
      </trkpt>
      <trkpt lat="45.94669" lon="4.84694">
        <ele>269</ele>
        <time>2018-06-19T08:55:03Z</time>
      </trkpt>
      <trkpt lat="45.9467" lon="4.84701">
        <ele>269</ele>
        <time>2018-06-19T08:55:04Z</time>
      </trkpt>
      <trkpt lat="45.9467" lon="4.84708">
        <ele>269</ele>
        <time>2018-06-19T08:55:05Z</time>
      </trkpt>
      <trkpt lat="45.94671" lon="4.84721">
        <ele>269</ele>
        <time>2018-06-19T08:55:07Z</time>
      </trkpt>
      <trkpt lat="45.9467" lon="4.84726">
        <ele>269</ele>
        <time>2018-06-19T08:55:08Z</time>
      </trkpt>
      <trkpt lat="45.9467" lon="4.84736">
        <ele>269</ele>
        <time>2018-06-19T08:55:09Z</time>
      </trkpt>
      <trkpt lat="45.94671" lon="4.84744">
        <ele>269</ele>
        <time>2018-06-19T08:55:10Z</time>
      </trkpt>
      <trkpt lat="45.9467" lon="4.84751">
        <ele>269</ele>
        <time>2018-06-19T08:55:11Z</time>
      </trkpt>
      <trkpt lat="45.9467" lon="4.84758">
        <ele>269</ele>
        <time>2018-06-19T08:55:12Z</time>
      </trkpt>
      <trkpt lat="45.94672" lon="4.84764">
        <ele>269</ele>
        <time>2018-06-19T08:55:13Z</time>
      </trkpt>
      <trkpt lat="45.94672" lon="4.84771">
        <ele>269</ele>
        <time>2018-06-19T08:55:14Z</time>
      </trkpt>
      <trkpt lat="45.94672" lon="4.84778">
        <ele>269</ele>
        <time>2018-06-19T08:55:15Z</time>
      </trkpt>
      <trkpt lat="45.94673" lon="4.84784">
        <ele>269</ele>
        <time>2018-06-19T08:55:16Z</time>
      </trkpt>
      <trkpt lat="45.94673" lon="4.84791">
        <ele>269</ele>
        <time>2018-06-19T08:55:17Z</time>
      </trkpt>
      <trkpt lat="45.94673" lon="4.84797">
        <ele>268</ele>
        <time>2018-06-19T08:55:18Z</time>
      </trkpt>
      <trkpt lat="45.94674" lon="4.84804">
        <ele>268</ele>
        <time>2018-06-19T08:55:19Z</time>
      </trkpt>
      <trkpt lat="45.94675" lon="4.84811">
        <ele>268</ele>
        <time>2018-06-19T08:55:20Z</time>
      </trkpt>
      <trkpt lat="45.94676" lon="4.84819">
        <ele>268</ele>
        <time>2018-06-19T08:55:21Z</time>
      </trkpt>
      <trkpt lat="45.94679" lon="4.84828">
        <ele>268</ele>
        <time>2018-06-19T08:55:22Z</time>
      </trkpt>
      <trkpt lat="45.9468" lon="4.84836">
        <ele>268</ele>
        <time>2018-06-19T08:55:23Z</time>
      </trkpt>
      <trkpt lat="45.94681" lon="4.84843">
        <ele>268</ele>
        <time>2018-06-19T08:55:24Z</time>
      </trkpt>
      <trkpt lat="45.94682" lon="4.84853">
        <ele>268</ele>
        <time>2018-06-19T08:55:25Z</time>
      </trkpt>
      <trkpt lat="45.94683" lon="4.8486">
        <ele>268</ele>
        <time>2018-06-19T08:55:26Z</time>
      </trkpt>
      <trkpt lat="45.94683" lon="4.84868">
        <ele>268</ele>
        <time>2018-06-19T08:55:27Z</time>
      </trkpt>
      <trkpt lat="45.94684" lon="4.84876">
        <ele>268</ele>
        <time>2018-06-19T08:55:28Z</time>
      </trkpt>
      <trkpt lat="45.94684" lon="4.84883">
        <ele>268</ele>
        <time>2018-06-19T08:55:29Z</time>
      </trkpt>
      <trkpt lat="45.94684" lon="4.8489">
        <ele>268</ele>
        <time>2018-06-19T08:55:30Z</time>
      </trkpt>
      <trkpt lat="45.94685" lon="4.84899">
        <ele>268</ele>
        <time>2018-06-19T08:55:31Z</time>
      </trkpt>
      <trkpt lat="45.94686" lon="4.84909">
        <ele>269</ele>
        <time>2018-06-19T08:55:32Z</time>
      </trkpt>
      <trkpt lat="45.94687" lon="4.84921">
        <ele>269</ele>
        <time>2018-06-19T08:55:34Z</time>
      </trkpt>
      <trkpt lat="45.94687" lon="4.84927">
        <ele>269</ele>
        <time>2018-06-19T08:55:35Z</time>
      </trkpt>
      <trkpt lat="45.94689" lon="4.84934">
        <ele>269</ele>
        <time>2018-06-19T08:55:36Z</time>
      </trkpt>
      <trkpt lat="45.94689" lon="4.8494">
        <ele>269</ele>
        <time>2018-06-19T08:55:37Z</time>
      </trkpt>
      <trkpt lat="45.9469" lon="4.84948">
        <ele>269</ele>
        <time>2018-06-19T08:55:38Z</time>
      </trkpt>
      <trkpt lat="45.94691" lon="4.84954">
        <ele>269</ele>
        <time>2018-06-19T08:55:39Z</time>
      </trkpt>
      <trkpt lat="45.94693" lon="4.84967">
        <ele>269</ele>
        <time>2018-06-19T08:55:41Z</time>
      </trkpt>
      <trkpt lat="45.94694" lon="4.84973">
        <ele>269</ele>
        <time>2018-06-19T08:55:42Z</time>
      </trkpt>
      <trkpt lat="45.94695" lon="4.84985">
        <ele>269</ele>
        <time>2018-06-19T08:55:44Z</time>
      </trkpt>
      <trkpt lat="45.94695" lon="4.84991">
        <ele>269</ele>
        <time>2018-06-19T08:55:45Z</time>
      </trkpt>
      <trkpt lat="45.94697" lon="4.84998">
        <ele>269</ele>
        <time>2018-06-19T08:55:46Z</time>
      </trkpt>
      <trkpt lat="45.94697" lon="4.85005">
        <ele>269</ele>
        <time>2018-06-19T08:55:47Z</time>
      </trkpt>
      <trkpt lat="45.94699" lon="4.85013">
        <ele>269</ele>
        <time>2018-06-19T08:55:48Z</time>
      </trkpt>
      <trkpt lat="45.94701" lon="4.8502">
        <ele>269</ele>
        <time>2018-06-19T08:55:49Z</time>
      </trkpt>
      <trkpt lat="45.94702" lon="4.85029">
        <ele>269</ele>
        <time>2018-06-19T08:55:50Z</time>
      </trkpt>
      <trkpt lat="45.94702" lon="4.85037">
        <ele>269</ele>
        <time>2018-06-19T08:55:51Z</time>
      </trkpt>
      <trkpt lat="45.94702" lon="4.85044">
        <ele>269</ele>
        <time>2018-06-19T08:55:52Z</time>
      </trkpt>
      <trkpt lat="45.94703" lon="4.85052">
        <ele>269</ele>
        <time>2018-06-19T08:55:53Z</time>
      </trkpt>
      <trkpt lat="45.94703" lon="4.8506">
        <ele>269</ele>
        <time>2018-06-19T08:55:54Z</time>
      </trkpt>
      <trkpt lat="45.94705" lon="4.85068">
        <ele>269</ele>
        <time>2018-06-19T08:55:55Z</time>
      </trkpt>
      <trkpt lat="45.94706" lon="4.85075">
        <ele>269</ele>
        <time>2018-06-19T08:55:56Z</time>
      </trkpt>
      <trkpt lat="45.94707" lon="4.85082">
        <ele>269</ele>
        <time>2018-06-19T08:55:57Z</time>
      </trkpt>
      <trkpt lat="45.94707" lon="4.8509">
        <ele>269</ele>
        <time>2018-06-19T08:55:58Z</time>
      </trkpt>
      <trkpt lat="45.94708" lon="4.85098">
        <ele>269</ele>
        <time>2018-06-19T08:55:59Z</time>
      </trkpt>
      <trkpt lat="45.94709" lon="4.85106">
        <ele>269</ele>
        <time>2018-06-19T08:56:00Z</time>
      </trkpt>
      <trkpt lat="45.94709" lon="4.85113">
        <ele>269</ele>
        <time>2018-06-19T08:56:01Z</time>
      </trkpt>
      <trkpt lat="45.9471" lon="4.8512">
        <ele>269</ele>
        <time>2018-06-19T08:56:02Z</time>
      </trkpt>
      <trkpt lat="45.94711" lon="4.85126">
        <ele>269</ele>
        <time>2018-06-19T08:56:03Z</time>
      </trkpt>
      <trkpt lat="45.94713" lon="4.85133">
        <ele>269</ele>
        <time>2018-06-19T08:56:04Z</time>
      </trkpt>
      <trkpt lat="45.94713" lon="4.85139">
        <ele>269</ele>
        <time>2018-06-19T08:56:05Z</time>
      </trkpt>
      <trkpt lat="45.94715" lon="4.85151">
        <ele>269</ele>
        <time>2018-06-19T08:56:07Z</time>
      </trkpt>
      <trkpt lat="45.94715" lon="4.85158">
        <ele>269</ele>
        <time>2018-06-19T08:56:08Z</time>
      </trkpt>
      <trkpt lat="45.94716" lon="4.85165">
        <ele>269</ele>
        <time>2018-06-19T08:56:09Z</time>
      </trkpt>
      <trkpt lat="45.94716" lon="4.85171">
        <ele>269</ele>
        <time>2018-06-19T08:56:10Z</time>
      </trkpt>
      <trkpt lat="45.94717" lon="4.85178">
        <ele>269</ele>
        <time>2018-06-19T08:56:11Z</time>
      </trkpt>
      <trkpt lat="45.94718" lon="4.85186">
        <ele>269</ele>
        <time>2018-06-19T08:56:12Z</time>
      </trkpt>
      <trkpt lat="45.94718" lon="4.85193">
        <ele>269</ele>
        <time>2018-06-19T08:56:13Z</time>
      </trkpt>
      <trkpt lat="45.9472" lon="4.85199">
        <ele>269</ele>
        <time>2018-06-19T08:56:14Z</time>
      </trkpt>
      <trkpt lat="45.94721" lon="4.85208">
        <ele>269</ele>
        <time>2018-06-19T08:56:15Z</time>
      </trkpt>
      <trkpt lat="45.94722" lon="4.85216">
        <ele>269</ele>
        <time>2018-06-19T08:56:16Z</time>
      </trkpt>
      <trkpt lat="45.94723" lon="4.85223">
        <ele>269</ele>
        <time>2018-06-19T08:56:17Z</time>
      </trkpt>
      <trkpt lat="45.94724" lon="4.85231">
        <ele>269</ele>
        <time>2018-06-19T08:56:18Z</time>
      </trkpt>
      <trkpt lat="45.94724" lon="4.85239">
        <ele>269</ele>
        <time>2018-06-19T08:56:19Z</time>
      </trkpt>
      <trkpt lat="45.94726" lon="4.85247">
        <ele>269</ele>
        <time>2018-06-19T08:56:20Z</time>
      </trkpt>
      <trkpt lat="45.94727" lon="4.85254">
        <ele>269</ele>
        <time>2018-06-19T08:56:21Z</time>
      </trkpt>
      <trkpt lat="45.94729" lon="4.85261">
        <ele>269</ele>
        <time>2018-06-19T08:56:22Z</time>
      </trkpt>
      <trkpt lat="45.94729" lon="4.85269">
        <ele>269</ele>
        <time>2018-06-19T08:56:23Z</time>
      </trkpt>
      <trkpt lat="45.9473" lon="4.85276">
        <ele>269</ele>
        <time>2018-06-19T08:56:24Z</time>
      </trkpt>
      <trkpt lat="45.9473" lon="4.85283">
        <ele>269</ele>
        <time>2018-06-19T08:56:25Z</time>
      </trkpt>
      <trkpt lat="45.94731" lon="4.85291">
        <ele>269</ele>
        <time>2018-06-19T08:56:26Z</time>
      </trkpt>
      <trkpt lat="45.94732" lon="4.85298">
        <ele>270</ele>
        <time>2018-06-19T08:56:27Z</time>
      </trkpt>
      <trkpt lat="45.94732" lon="4.85305">
        <ele>270</ele>
        <time>2018-06-19T08:56:28Z</time>
      </trkpt>
      <trkpt lat="45.94733" lon="4.85313">
        <ele>270</ele>
        <time>2018-06-19T08:56:29Z</time>
      </trkpt>
      <trkpt lat="45.94734" lon="4.85322">
        <ele>270</ele>
        <time>2018-06-19T08:56:30Z</time>
      </trkpt>
      <trkpt lat="45.94735" lon="4.8533">
        <ele>270</ele>
        <time>2018-06-19T08:56:31Z</time>
      </trkpt>
      <trkpt lat="45.94736" lon="4.85339">
        <ele>271</ele>
        <time>2018-06-19T08:56:32Z</time>
      </trkpt>
      <trkpt lat="45.94737" lon="4.85346">
        <ele>271</ele>
        <time>2018-06-19T08:56:33Z</time>
      </trkpt>
      <trkpt lat="45.94738" lon="4.85353">
        <ele>271</ele>
        <time>2018-06-19T08:56:34Z</time>
      </trkpt>
      <trkpt lat="45.9474" lon="4.85362">
        <ele>271</ele>
        <time>2018-06-19T08:56:35Z</time>
      </trkpt>
      <trkpt lat="45.9474" lon="4.85369">
        <ele>271</ele>
        <time>2018-06-19T08:56:36Z</time>
      </trkpt>
      <trkpt lat="45.94742" lon="4.85377">
        <ele>271</ele>
        <time>2018-06-19T08:56:37Z</time>
      </trkpt>
      <trkpt lat="45.94743" lon="4.85384">
        <ele>272</ele>
        <time>2018-06-19T08:56:38Z</time>
      </trkpt>
      <trkpt lat="45.94743" lon="4.85391">
        <ele>272</ele>
        <time>2018-06-19T08:56:39Z</time>
      </trkpt>
      <trkpt lat="45.94744" lon="4.85399">
        <ele>272</ele>
        <time>2018-06-19T08:56:40Z</time>
      </trkpt>
      <trkpt lat="45.94744" lon="4.85411">
        <ele>272</ele>
        <time>2018-06-19T08:56:42Z</time>
      </trkpt>
      <trkpt lat="45.94744" lon="4.85418">
        <ele>273</ele>
        <time>2018-06-19T08:56:43Z</time>
      </trkpt>
      <trkpt lat="45.94746" lon="4.8543">
        <ele>273</ele>
        <time>2018-06-19T08:56:45Z</time>
      </trkpt>
      <trkpt lat="45.94747" lon="4.85436">
        <ele>274</ele>
        <time>2018-06-19T08:56:46Z</time>
      </trkpt>
      <trkpt lat="45.94748" lon="4.85443">
        <ele>274</ele>
        <time>2018-06-19T08:56:47Z</time>
      </trkpt>
      <trkpt lat="45.94748" lon="4.8545">
        <ele>274</ele>
        <time>2018-06-19T08:56:48Z</time>
      </trkpt>
      <trkpt lat="45.94748" lon="4.85461">
        <ele>274</ele>
        <time>2018-06-19T08:56:50Z</time>
      </trkpt>
      <trkpt lat="45.94749" lon="4.85469">
        <ele>274</ele>
        <time>2018-06-19T08:56:51Z</time>
      </trkpt>
      <trkpt lat="45.94751" lon="4.8548">
        <ele>275</ele>
        <time>2018-06-19T08:56:53Z</time>
      </trkpt>
      <trkpt lat="45.94751" lon="4.85484">
        <ele>275</ele>
        <time>2018-06-19T08:56:54Z</time>
      </trkpt>
      <trkpt lat="45.94753" lon="4.85495">
        <ele>276</ele>
        <time>2018-06-19T08:56:56Z</time>
      </trkpt>
      <trkpt lat="45.94753" lon="4.85501">
        <ele>276</ele>
        <time>2018-06-19T08:56:57Z</time>
      </trkpt>
      <trkpt lat="45.94754" lon="4.85514">
        <ele>277</ele>
        <time>2018-06-19T08:56:59Z</time>
      </trkpt>
      <trkpt lat="45.94755" lon="4.85521">
        <ele>277</ele>
        <time>2018-06-19T08:57:00Z</time>
      </trkpt>
      <trkpt lat="45.94757" lon="4.85531">
        <ele>278</ele>
        <time>2018-06-19T08:57:02Z</time>
      </trkpt>
      <trkpt lat="45.94758" lon="4.85536">
        <ele>278</ele>
        <time>2018-06-19T08:57:03Z</time>
      </trkpt>
      <trkpt lat="45.94759" lon="4.85546">
        <ele>278</ele>
        <time>2018-06-19T08:57:05Z</time>
      </trkpt>
      <trkpt lat="45.94759" lon="4.85551">
        <ele>278</ele>
        <time>2018-06-19T08:57:06Z</time>
      </trkpt>
      <trkpt lat="45.94762" lon="4.85561">
        <ele>278</ele>
        <time>2018-06-19T08:57:08Z</time>
      </trkpt>
      <trkpt lat="45.94762" lon="4.85567">
        <ele>279</ele>
        <time>2018-06-19T08:57:09Z</time>
      </trkpt>
      <trkpt lat="45.94765" lon="4.85578">
        <ele>279</ele>
        <time>2018-06-19T08:57:11Z</time>
      </trkpt>
      <trkpt lat="45.94766" lon="4.85584">
        <ele>280</ele>
        <time>2018-06-19T08:57:12Z</time>
      </trkpt>
      <trkpt lat="45.94768" lon="4.85595">
        <ele>280</ele>
        <time>2018-06-19T08:57:14Z</time>
      </trkpt>
      <trkpt lat="45.94769" lon="4.85601">
        <ele>280</ele>
        <time>2018-06-19T08:57:15Z</time>
      </trkpt>
      <trkpt lat="45.94771" lon="4.85613">
        <ele>280</ele>
        <time>2018-06-19T08:57:17Z</time>
      </trkpt>
      <trkpt lat="45.94773" lon="4.85619">
        <ele>280</ele>
        <time>2018-06-19T08:57:18Z</time>
      </trkpt>
      <trkpt lat="45.94775" lon="4.85629">
        <ele>280</ele>
        <time>2018-06-19T08:57:20Z</time>
      </trkpt>
      <trkpt lat="45.94777" lon="4.85634">
        <ele>280</ele>
        <time>2018-06-19T08:57:21Z</time>
      </trkpt>
      <trkpt lat="45.94779" lon="4.85644">
        <ele>281</ele>
        <time>2018-06-19T08:57:23Z</time>
      </trkpt>
      <trkpt lat="45.9478" lon="4.85649">
        <ele>281</ele>
        <time>2018-06-19T08:57:24Z</time>
      </trkpt>
      <trkpt lat="45.94783" lon="4.8566">
        <ele>281</ele>
        <time>2018-06-19T08:57:26Z</time>
      </trkpt>
      <trkpt lat="45.94784" lon="4.85665">
        <ele>281</ele>
        <time>2018-06-19T08:57:27Z</time>
      </trkpt>
      <trkpt lat="45.94787" lon="4.85675">
        <ele>280</ele>
        <time>2018-06-19T08:57:29Z</time>
      </trkpt>
      <trkpt lat="45.94788" lon="4.8568">
        <ele>280</ele>
        <time>2018-06-19T08:57:30Z</time>
      </trkpt>
      <trkpt lat="45.9479" lon="4.85691">
        <ele>280</ele>
        <time>2018-06-19T08:57:32Z</time>
      </trkpt>
      <trkpt lat="45.94792" lon="4.85696">
        <ele>280</ele>
        <time>2018-06-19T08:57:33Z</time>
      </trkpt>
      <trkpt lat="45.94794" lon="4.85708">
        <ele>280</ele>
        <time>2018-06-19T08:57:35Z</time>
      </trkpt>
      <trkpt lat="45.94796" lon="4.85714">
        <ele>280</ele>
        <time>2018-06-19T08:57:36Z</time>
      </trkpt>
      <trkpt lat="45.94799" lon="4.85726">
        <ele>280</ele>
        <time>2018-06-19T08:57:38Z</time>
      </trkpt>
      <trkpt lat="45.948" lon="4.85733">
        <ele>280</ele>
        <time>2018-06-19T08:57:39Z</time>
      </trkpt>
      <trkpt lat="45.94804" lon="4.85744">
        <ele>279</ele>
        <time>2018-06-19T08:57:41Z</time>
      </trkpt>
      <trkpt lat="45.94806" lon="4.85752">
        <ele>278</ele>
        <time>2018-06-19T08:57:42Z</time>
      </trkpt>
      <trkpt lat="45.94808" lon="4.85757">
        <ele>278</ele>
        <time>2018-06-19T08:57:43Z</time>
      </trkpt>
      <trkpt lat="45.9481" lon="4.85764">
        <ele>278</ele>
        <time>2018-06-19T08:57:44Z</time>
      </trkpt>
      <trkpt lat="45.94812" lon="4.8577">
        <ele>278</ele>
        <time>2018-06-19T08:57:45Z</time>
      </trkpt>
      <trkpt lat="45.94814" lon="4.85776">
        <ele>278</ele>
        <time>2018-06-19T08:57:46Z</time>
      </trkpt>
      <trkpt lat="45.94817" lon="4.85785">
        <ele>278</ele>
        <time>2018-06-19T08:57:47Z</time>
      </trkpt>
      <trkpt lat="45.94818" lon="4.85792">
        <ele>278</ele>
        <time>2018-06-19T08:57:48Z</time>
      </trkpt>
      <trkpt lat="45.9482" lon="4.85798">
        <ele>278</ele>
        <time>2018-06-19T08:57:49Z</time>
      </trkpt>
      <trkpt lat="45.94821" lon="4.85805">
        <ele>278</ele>
        <time>2018-06-19T08:57:50Z</time>
      </trkpt>
      <trkpt lat="45.94823" lon="4.85811">
        <ele>278</ele>
        <time>2018-06-19T08:57:51Z</time>
      </trkpt>
      <trkpt lat="45.94825" lon="4.85818">
        <ele>278</ele>
        <time>2018-06-19T08:57:52Z</time>
      </trkpt>
      <trkpt lat="45.94828" lon="4.85825">
        <ele>277</ele>
        <time>2018-06-19T08:57:53Z</time>
      </trkpt>
      <trkpt lat="45.94829" lon="4.85833">
        <ele>277</ele>
        <time>2018-06-19T08:57:54Z</time>
      </trkpt>
      <trkpt lat="45.94831" lon="4.8584">
        <ele>277</ele>
        <time>2018-06-19T08:57:55Z</time>
      </trkpt>
      <trkpt lat="45.94832" lon="4.85847">
        <ele>277</ele>
        <time>2018-06-19T08:57:56Z</time>
      </trkpt>
      <trkpt lat="45.94835" lon="4.85855">
        <ele>276</ele>
        <time>2018-06-19T08:57:57Z</time>
      </trkpt>
      <trkpt lat="45.94837" lon="4.85863">
        <ele>276</ele>
        <time>2018-06-19T08:57:58Z</time>
      </trkpt>
      <trkpt lat="45.94839" lon="4.85868">
        <ele>276</ele>
        <time>2018-06-19T08:57:59Z</time>
      </trkpt>
      <trkpt lat="45.94841" lon="4.85876">
        <ele>276</ele>
        <time>2018-06-19T08:58:00Z</time>
      </trkpt>
      <trkpt lat="45.94842" lon="4.85883">
        <ele>276</ele>
        <time>2018-06-19T08:58:01Z</time>
      </trkpt>
      <trkpt lat="45.94844" lon="4.8589">
        <ele>276</ele>
        <time>2018-06-19T08:58:02Z</time>
      </trkpt>
      <trkpt lat="45.94846" lon="4.85898">
        <ele>276</ele>
        <time>2018-06-19T08:58:03Z</time>
      </trkpt>
      <trkpt lat="45.94847" lon="4.85904">
        <ele>276</ele>
        <time>2018-06-19T08:58:04Z</time>
      </trkpt>
      <trkpt lat="45.94849" lon="4.85912">
        <ele>275</ele>
        <time>2018-06-19T08:58:05Z</time>
      </trkpt>
      <trkpt lat="45.94851" lon="4.8592">
        <ele>275</ele>
        <time>2018-06-19T08:58:06Z</time>
      </trkpt>
      <trkpt lat="45.94852" lon="4.85928">
        <ele>275</ele>
        <time>2018-06-19T08:58:07Z</time>
      </trkpt>
      <trkpt lat="45.94854" lon="4.85935">
        <ele>275</ele>
        <time>2018-06-19T08:58:08Z</time>
      </trkpt>
      <trkpt lat="45.94856" lon="4.85942">
        <ele>275</ele>
        <time>2018-06-19T08:58:09Z</time>
      </trkpt>
      <trkpt lat="45.94858" lon="4.85951">
        <ele>275</ele>
        <time>2018-06-19T08:58:10Z</time>
      </trkpt>
      <trkpt lat="45.9486" lon="4.85959">
        <ele>275</ele>
        <time>2018-06-19T08:58:11Z</time>
      </trkpt>
      <trkpt lat="45.94862" lon="4.85966">
        <ele>275</ele>
        <time>2018-06-19T08:58:12Z</time>
      </trkpt>
      <trkpt lat="45.94864" lon="4.85973">
        <ele>275</ele>
        <time>2018-06-19T08:58:13Z</time>
      </trkpt>
      <trkpt lat="45.94866" lon="4.8598">
        <ele>275</ele>
        <time>2018-06-19T08:58:14Z</time>
      </trkpt>
      <trkpt lat="45.94867" lon="4.85987">
        <ele>275</ele>
        <time>2018-06-19T08:58:15Z</time>
      </trkpt>
      <trkpt lat="45.94869" lon="4.85994">
        <ele>275</ele>
        <time>2018-06-19T08:58:16Z</time>
      </trkpt>
      <trkpt lat="45.9487" lon="4.86">
        <ele>274</ele>
        <time>2018-06-19T08:58:17Z</time>
      </trkpt>
      <trkpt lat="45.94873" lon="4.86007">
        <ele>274</ele>
        <time>2018-06-19T08:58:18Z</time>
      </trkpt>
      <trkpt lat="45.94874" lon="4.86013">
        <ele>274</ele>
        <time>2018-06-19T08:58:19Z</time>
      </trkpt>
      <trkpt lat="45.94876" lon="4.86019">
        <ele>274</ele>
        <time>2018-06-19T08:58:20Z</time>
      </trkpt>
      <trkpt lat="45.94878" lon="4.86025">
        <ele>274</ele>
        <time>2018-06-19T08:58:21Z</time>
      </trkpt>
      <trkpt lat="45.94879" lon="4.86031">
        <ele>274</ele>
        <time>2018-06-19T08:58:22Z</time>
      </trkpt>
      <trkpt lat="45.94883" lon="4.86039">
        <ele>274</ele>
        <time>2018-06-19T08:58:23Z</time>
      </trkpt>
      <trkpt lat="45.94884" lon="4.86046">
        <ele>274</ele>
        <time>2018-06-19T08:58:24Z</time>
      </trkpt>
      <trkpt lat="45.94885" lon="4.86052">
        <ele>274</ele>
        <time>2018-06-19T08:58:25Z</time>
      </trkpt>
      <trkpt lat="45.94887" lon="4.86058">
        <ele>274</ele>
        <time>2018-06-19T08:58:26Z</time>
      </trkpt>
      <trkpt lat="45.9489" lon="4.86064">
        <ele>274</ele>
        <time>2018-06-19T08:58:27Z</time>
      </trkpt>
      <trkpt lat="45.94892" lon="4.86071">
        <ele>274</ele>
        <time>2018-06-19T08:58:28Z</time>
      </trkpt>
      <trkpt lat="45.94895" lon="4.86077">
        <ele>274</ele>
        <time>2018-06-19T08:58:29Z</time>
      </trkpt>
      <trkpt lat="45.94898" lon="4.86086">
        <ele>274</ele>
        <time>2018-06-19T08:58:30Z</time>
      </trkpt>
      <trkpt lat="45.949" lon="4.86093">
        <ele>274</ele>
        <time>2018-06-19T08:58:31Z</time>
      </trkpt>
      <trkpt lat="45.94902" lon="4.861">
        <ele>274</ele>
        <time>2018-06-19T08:58:32Z</time>
      </trkpt>
      <trkpt lat="45.94905" lon="4.86106">
        <ele>274</ele>
        <time>2018-06-19T08:58:33Z</time>
      </trkpt>
      <trkpt lat="45.94907" lon="4.86111">
        <ele>274</ele>
        <time>2018-06-19T08:58:34Z</time>
      </trkpt>
      <trkpt lat="45.9491" lon="4.86118">
        <ele>274</ele>
        <time>2018-06-19T08:58:35Z</time>
      </trkpt>
      <trkpt lat="45.94913" lon="4.86125">
        <ele>274</ele>
        <time>2018-06-19T08:58:36Z</time>
      </trkpt>
      <trkpt lat="45.94917" lon="4.86131">
        <ele>274</ele>
        <time>2018-06-19T08:58:37Z</time>
      </trkpt>
      <trkpt lat="45.9492" lon="4.86136">
        <ele>273</ele>
        <time>2018-06-19T08:58:38Z</time>
      </trkpt>
      <trkpt lat="45.94922" lon="4.86141">
        <ele>273</ele>
        <time>2018-06-19T08:58:39Z</time>
      </trkpt>
      <trkpt lat="45.94926" lon="4.86146">
        <ele>273</ele>
        <time>2018-06-19T08:58:40Z</time>
      </trkpt>
      <trkpt lat="45.94931" lon="4.8615">
        <ele>273</ele>
        <time>2018-06-19T08:58:41Z</time>
      </trkpt>
      <trkpt lat="45.94934" lon="4.86155">
        <ele>273</ele>
        <time>2018-06-19T08:58:42Z</time>
      </trkpt>
      <trkpt lat="45.94936" lon="4.86161">
        <ele>273</ele>
        <time>2018-06-19T08:58:43Z</time>
      </trkpt>
      <trkpt lat="45.94938" lon="4.86167">
        <ele>273</ele>
        <time>2018-06-19T08:58:44Z</time>
      </trkpt>
      <trkpt lat="45.94942" lon="4.86173">
        <ele>273</ele>
        <time>2018-06-19T08:58:45Z</time>
      </trkpt>
      <trkpt lat="45.94946" lon="4.86178">
        <ele>273</ele>
        <time>2018-06-19T08:58:46Z</time>
      </trkpt>
      <trkpt lat="45.94951" lon="4.86182">
        <ele>273</ele>
        <time>2018-06-19T08:58:47Z</time>
      </trkpt>
      <trkpt lat="45.94956" lon="4.86186">
        <ele>273</ele>
        <time>2018-06-19T08:58:48Z</time>
      </trkpt>
      <trkpt lat="45.9496" lon="4.86191">
        <ele>272</ele>
        <time>2018-06-19T08:58:49Z</time>
      </trkpt>
      <trkpt lat="45.94965" lon="4.86196">
        <ele>272</ele>
        <time>2018-06-19T08:58:50Z</time>
      </trkpt>
      <trkpt lat="45.9497" lon="4.86201">
        <ele>272</ele>
        <time>2018-06-19T08:58:51Z</time>
      </trkpt>
      <trkpt lat="45.94973" lon="4.86206">
        <ele>272</ele>
        <time>2018-06-19T08:58:52Z</time>
      </trkpt>
      <trkpt lat="45.94978" lon="4.86211">
        <ele>272</ele>
        <time>2018-06-19T08:58:53Z</time>
      </trkpt>
      <trkpt lat="45.94983" lon="4.86217">
        <ele>272</ele>
        <time>2018-06-19T08:58:54Z</time>
      </trkpt>
      <trkpt lat="45.94987" lon="4.86221">
        <ele>272</ele>
        <time>2018-06-19T08:58:55Z</time>
      </trkpt>
      <trkpt lat="45.9499" lon="4.86226">
        <ele>272</ele>
        <time>2018-06-19T08:58:56Z</time>
      </trkpt>
      <trkpt lat="45.94994" lon="4.86231">
        <ele>272</ele>
        <time>2018-06-19T08:58:57Z</time>
      </trkpt>
      <trkpt lat="45.94998" lon="4.86237">
        <ele>272</ele>
        <time>2018-06-19T08:58:58Z</time>
      </trkpt>
      <trkpt lat="45.95003" lon="4.86242">
        <ele>272</ele>
        <time>2018-06-19T08:58:59Z</time>
      </trkpt>
      <trkpt lat="45.95006" lon="4.86246">
        <ele>272</ele>
        <time>2018-06-19T08:59:00Z</time>
      </trkpt>
      <trkpt lat="45.9501" lon="4.86251">
        <ele>272</ele>
        <time>2018-06-19T08:59:01Z</time>
      </trkpt>
      <trkpt lat="45.95015" lon="4.86255">
        <ele>272</ele>
        <time>2018-06-19T08:59:02Z</time>
      </trkpt>
      <trkpt lat="45.9502" lon="4.86261">
        <ele>271</ele>
        <time>2018-06-19T08:59:03Z</time>
      </trkpt>
      <trkpt lat="45.95024" lon="4.86267">
        <ele>271</ele>
        <time>2018-06-19T08:59:04Z</time>
      </trkpt>
      <trkpt lat="45.95029" lon="4.86272">
        <ele>271</ele>
        <time>2018-06-19T08:59:05Z</time>
      </trkpt>
      <trkpt lat="45.95035" lon="4.86279">
        <ele>271</ele>
        <time>2018-06-19T08:59:06Z</time>
      </trkpt>
      <trkpt lat="45.9504" lon="4.86285">
        <ele>271</ele>
        <time>2018-06-19T08:59:07Z</time>
      </trkpt>
      <trkpt lat="45.95045" lon="4.86291">
        <ele>271</ele>
        <time>2018-06-19T08:59:08Z</time>
      </trkpt>
      <trkpt lat="45.95051" lon="4.86297">
        <ele>271</ele>
        <time>2018-06-19T08:59:09Z</time>
      </trkpt>
      <trkpt lat="45.95056" lon="4.86303">
        <ele>271</ele>
        <time>2018-06-19T08:59:10Z</time>
      </trkpt>
      <trkpt lat="45.9506" lon="4.86309">
        <ele>271</ele>
        <time>2018-06-19T08:59:11Z</time>
      </trkpt>
      <trkpt lat="45.95065" lon="4.86313">
        <ele>270</ele>
        <time>2018-06-19T08:59:12Z</time>
      </trkpt>
      <trkpt lat="45.9507" lon="4.86319">
        <ele>270</ele>
        <time>2018-06-19T08:59:13Z</time>
      </trkpt>
      <trkpt lat="45.95075" lon="4.86326">
        <ele>270</ele>
        <time>2018-06-19T08:59:14Z</time>
      </trkpt>
      <trkpt lat="45.95079" lon="4.86332">
        <ele>269</ele>
        <time>2018-06-19T08:59:15Z</time>
      </trkpt>
      <trkpt lat="45.95084" lon="4.86337">
        <ele>269</ele>
        <time>2018-06-19T08:59:16Z</time>
      </trkpt>
      <trkpt lat="45.95087" lon="4.86343">
        <ele>269</ele>
        <time>2018-06-19T08:59:17Z</time>
      </trkpt>
      <trkpt lat="45.95091" lon="4.86349">
        <ele>269</ele>
        <time>2018-06-19T08:59:18Z</time>
      </trkpt>
      <trkpt lat="45.95095" lon="4.86354">
        <ele>269</ele>
        <time>2018-06-19T08:59:19Z</time>
      </trkpt>
      <trkpt lat="45.95099" lon="4.86359">
        <ele>269</ele>
        <time>2018-06-19T08:59:20Z</time>
      </trkpt>
      <trkpt lat="45.95103" lon="4.86365">
        <ele>269</ele>
        <time>2018-06-19T08:59:21Z</time>
      </trkpt>
      <trkpt lat="45.95107" lon="4.86372">
        <ele>269</ele>
        <time>2018-06-19T08:59:22Z</time>
      </trkpt>
      <trkpt lat="45.95111" lon="4.86378">
        <ele>269</ele>
        <time>2018-06-19T08:59:23Z</time>
      </trkpt>
      <trkpt lat="45.95116" lon="4.86383">
        <ele>269</ele>
        <time>2018-06-19T08:59:24Z</time>
      </trkpt>
      <trkpt lat="45.9512" lon="4.86389">
        <ele>269</ele>
        <time>2018-06-19T08:59:25Z</time>
      </trkpt>
      <trkpt lat="45.95126" lon="4.86395">
        <ele>268</ele>
        <time>2018-06-19T08:59:26Z</time>
      </trkpt>
      <trkpt lat="45.95132" lon="4.86401">
        <ele>268</ele>
        <time>2018-06-19T08:59:27Z</time>
      </trkpt>
      <trkpt lat="45.95136" lon="4.86406">
        <ele>268</ele>
        <time>2018-06-19T08:59:28Z</time>
      </trkpt>
      <trkpt lat="45.95141" lon="4.86411">
        <ele>268</ele>
        <time>2018-06-19T08:59:29Z</time>
      </trkpt>
      <trkpt lat="45.95145" lon="4.86416">
        <ele>268</ele>
        <time>2018-06-19T08:59:30Z</time>
      </trkpt>
      <trkpt lat="45.95151" lon="4.86425">
        <ele>268</ele>
        <time>2018-06-19T08:59:32Z</time>
      </trkpt>
      <trkpt lat="45.95154" lon="4.86428">
        <ele>268</ele>
        <time>2018-06-19T08:59:33Z</time>
      </trkpt>
      <trkpt lat="45.9516" lon="4.86435">
        <ele>268</ele>
        <time>2018-06-19T08:59:35Z</time>
      </trkpt>
      <trkpt lat="45.95165" lon="4.8644">
        <ele>268</ele>
        <time>2018-06-19T08:59:36Z</time>
      </trkpt>
      <trkpt lat="45.95169" lon="4.86447">
        <ele>268</ele>
        <time>2018-06-19T08:59:37Z</time>
      </trkpt>
      <trkpt lat="45.95174" lon="4.86451">
        <ele>268</ele>
        <time>2018-06-19T08:59:38Z</time>
      </trkpt>
      <trkpt lat="45.95178" lon="4.86456">
        <ele>268</ele>
        <time>2018-06-19T08:59:39Z</time>
      </trkpt>
      <trkpt lat="45.95182" lon="4.86461">
        <ele>268</ele>
        <time>2018-06-19T08:59:40Z</time>
      </trkpt>
      <trkpt lat="45.95187" lon="4.86466">
        <ele>268</ele>
        <time>2018-06-19T08:59:41Z</time>
      </trkpt>
      <trkpt lat="45.95191" lon="4.86472">
        <ele>268</ele>
        <time>2018-06-19T08:59:42Z</time>
      </trkpt>
      <trkpt lat="45.95196" lon="4.86478">
        <ele>268</ele>
        <time>2018-06-19T08:59:43Z</time>
      </trkpt>
      <trkpt lat="45.952" lon="4.86482">
        <ele>268</ele>
        <time>2018-06-19T08:59:44Z</time>
      </trkpt>
      <trkpt lat="45.95204" lon="4.86489">
        <ele>268</ele>
        <time>2018-06-19T08:59:45Z</time>
      </trkpt>
      <trkpt lat="45.95209" lon="4.86495">
        <ele>268</ele>
        <time>2018-06-19T08:59:46Z</time>
      </trkpt>
      <trkpt lat="45.95214" lon="4.86501">
        <ele>268</ele>
        <time>2018-06-19T08:59:47Z</time>
      </trkpt>
      <trkpt lat="45.95218" lon="4.86508">
        <ele>268</ele>
        <time>2018-06-19T08:59:48Z</time>
      </trkpt>
      <trkpt lat="45.95223" lon="4.86514">
        <ele>268</ele>
        <time>2018-06-19T08:59:49Z</time>
      </trkpt>
      <trkpt lat="45.95228" lon="4.86521">
        <ele>268</ele>
        <time>2018-06-19T08:59:50Z</time>
      </trkpt>
      <trkpt lat="45.95232" lon="4.86528">
        <ele>268</ele>
        <time>2018-06-19T08:59:51Z</time>
      </trkpt>
      <trkpt lat="45.95237" lon="4.86533">
        <ele>268</ele>
        <time>2018-06-19T08:59:52Z</time>
      </trkpt>
      <trkpt lat="45.95243" lon="4.86542">
        <ele>268</ele>
        <time>2018-06-19T08:59:53Z</time>
      </trkpt>
      <trkpt lat="45.95253" lon="4.86553">
        <ele>267</ele>
        <time>2018-06-19T08:59:55Z</time>
      </trkpt>
      <trkpt lat="45.95257" lon="4.86558">
        <ele>267</ele>
        <time>2018-06-19T08:59:56Z</time>
      </trkpt>
      <trkpt lat="45.95261" lon="4.86561">
        <ele>267</ele>
        <time>2018-06-19T08:59:57Z</time>
      </trkpt>
      <trkpt lat="45.95262" lon="4.86568">
        <ele>267</ele>
        <time>2018-06-19T08:59:58Z</time>
      </trkpt>
      <trkpt lat="45.95261" lon="4.86575">
        <ele>267</ele>
        <time>2018-06-19T08:59:59Z</time>
      </trkpt>
      <trkpt lat="45.95259" lon="4.86583">
        <ele>268</ele>
        <time>2018-06-19T09:00:00Z</time>
      </trkpt>
      <trkpt lat="45.95251" lon="4.86582">
        <ele>268</ele>
        <time>2018-06-19T09:00:01Z</time>
      </trkpt>
      <trkpt lat="45.95246" lon="4.86584">
        <ele>268</ele>
        <time>2018-06-19T09:00:02Z</time>
      </trkpt>
      <trkpt lat="45.95241" lon="4.86583">
        <ele>268</ele>
        <time>2018-06-19T09:00:03Z</time>
      </trkpt>
      <trkpt lat="45.95232" lon="4.86582">
        <ele>268</ele>
        <time>2018-06-19T09:00:05Z</time>
      </trkpt>
      <trkpt lat="45.95227" lon="4.8658">
        <ele>268</ele>
        <time>2018-06-19T09:00:06Z</time>
      </trkpt>
      <trkpt lat="45.95219" lon="4.86578">
        <ele>268</ele>
        <time>2018-06-19T09:00:08Z</time>
      </trkpt>
      <trkpt lat="45.95213" lon="4.86577">
        <ele>268</ele>
        <time>2018-06-19T09:00:09Z</time>
      </trkpt>
      <trkpt lat="45.95205" lon="4.86576">
        <ele>268</ele>
        <time>2018-06-19T09:00:11Z</time>
      </trkpt>
      <trkpt lat="45.95201" lon="4.86575">
        <ele>268</ele>
        <time>2018-06-19T09:00:12Z</time>
      </trkpt>
      <trkpt lat="45.95194" lon="4.86577">
        <ele>268</ele>
        <time>2018-06-19T09:00:14Z</time>
      </trkpt>
      <trkpt lat="45.9519" lon="4.86577">
        <ele>269</ele>
        <time>2018-06-19T09:00:15Z</time>
      </trkpt>
      <trkpt lat="45.95182" lon="4.86579">
        <ele>269</ele>
        <time>2018-06-19T09:00:17Z</time>
      </trkpt>
      <trkpt lat="45.95177" lon="4.86578">
        <ele>269</ele>
        <time>2018-06-19T09:00:18Z</time>
      </trkpt>
      <trkpt lat="45.95172" lon="4.86579">
        <ele>269</ele>
        <time>2018-06-19T09:00:19Z</time>
      </trkpt>
      <trkpt lat="45.95168" lon="4.86579">
        <ele>269</ele>
        <time>2018-06-19T09:00:20Z</time>
      </trkpt>
      <trkpt lat="45.95159" lon="4.86579">
        <ele>269</ele>
        <time>2018-06-19T09:00:22Z</time>
      </trkpt>
      <trkpt lat="45.95155" lon="4.8658">
        <ele>269</ele>
        <time>2018-06-19T09:00:23Z</time>
      </trkpt>
      <trkpt lat="45.95146" lon="4.86581">
        <ele>270</ele>
        <time>2018-06-19T09:00:25Z</time>
      </trkpt>
      <trkpt lat="45.95142" lon="4.8658">
        <ele>270</ele>
        <time>2018-06-19T09:00:26Z</time>
      </trkpt>
      <trkpt lat="45.95133" lon="4.8658">
        <ele>270</ele>
        <time>2018-06-19T09:00:28Z</time>
      </trkpt>
      <trkpt lat="45.95129" lon="4.86581">
        <ele>270</ele>
        <time>2018-06-19T09:00:29Z</time>
      </trkpt>
      <trkpt lat="45.9512" lon="4.86582">
        <ele>270</ele>
        <time>2018-06-19T09:00:31Z</time>
      </trkpt>
      <trkpt lat="45.95116" lon="4.86583">
        <ele>270</ele>
        <time>2018-06-19T09:00:32Z</time>
      </trkpt>
      <trkpt lat="45.95107" lon="4.86585">
        <ele>271</ele>
        <time>2018-06-19T09:00:34Z</time>
      </trkpt>
      <trkpt lat="45.95103" lon="4.86585">
        <ele>271</ele>
        <time>2018-06-19T09:00:35Z</time>
      </trkpt>
      <trkpt lat="45.95098" lon="4.86586">
        <ele>271</ele>
        <time>2018-06-19T09:00:36Z</time>
      </trkpt>
      <trkpt lat="45.95094" lon="4.86587">
        <ele>271</ele>
        <time>2018-06-19T09:00:37Z</time>
      </trkpt>
      <trkpt lat="45.95086" lon="4.86589">
        <ele>271</ele>
        <time>2018-06-19T09:00:39Z</time>
      </trkpt>
      <trkpt lat="45.95081" lon="4.8659">
        <ele>271</ele>
        <time>2018-06-19T09:00:40Z</time>
      </trkpt>
      <trkpt lat="45.95073" lon="4.86592">
        <ele>272</ele>
        <time>2018-06-19T09:00:42Z</time>
      </trkpt>
      <trkpt lat="45.95068" lon="4.86593">
        <ele>272</ele>
        <time>2018-06-19T09:00:43Z</time>
      </trkpt>
      <trkpt lat="45.95063" lon="4.86595">
        <ele>272</ele>
        <time>2018-06-19T09:00:44Z</time>
      </trkpt>
      <trkpt lat="45.95059" lon="4.86596">
        <ele>272</ele>
        <time>2018-06-19T09:00:45Z</time>
      </trkpt>
      <trkpt lat="45.9505" lon="4.866">
        <ele>272</ele>
        <time>2018-06-19T09:00:47Z</time>
      </trkpt>
      <trkpt lat="45.95045" lon="4.86601">
        <ele>272</ele>
        <time>2018-06-19T09:00:48Z</time>
      </trkpt>
      <trkpt lat="45.95041" lon="4.86603">
        <ele>273</ele>
        <time>2018-06-19T09:00:49Z</time>
      </trkpt>
      <trkpt lat="45.95037" lon="4.86604">
        <ele>273</ele>
        <time>2018-06-19T09:00:50Z</time>
      </trkpt>
      <trkpt lat="45.95032" lon="4.86607">
        <ele>273</ele>
        <time>2018-06-19T09:00:51Z</time>
      </trkpt>
      <trkpt lat="45.95028" lon="4.86607">
        <ele>273</ele>
        <time>2018-06-19T09:00:52Z</time>
      </trkpt>
      <trkpt lat="45.95023" lon="4.86608">
        <ele>273</ele>
        <time>2018-06-19T09:00:53Z</time>
      </trkpt>
      <trkpt lat="45.95019" lon="4.8661">
        <ele>273</ele>
        <time>2018-06-19T09:00:54Z</time>
      </trkpt>
      <trkpt lat="45.95014" lon="4.8661">
        <ele>273</ele>
        <time>2018-06-19T09:00:55Z</time>
      </trkpt>
      <trkpt lat="45.95009" lon="4.86611">
        <ele>273</ele>
        <time>2018-06-19T09:00:56Z</time>
      </trkpt>
      <trkpt lat="45.95004" lon="4.86611">
        <ele>273</ele>
        <time>2018-06-19T09:00:57Z</time>
      </trkpt>
      <trkpt lat="45.95" lon="4.86612">
        <ele>275</ele>
        <time>2018-06-19T09:00:58Z</time>
      </trkpt>
      <trkpt lat="45.94991" lon="4.86613">
        <ele>275</ele>
        <time>2018-06-19T09:01:00Z</time>
      </trkpt>
      <trkpt lat="45.94986" lon="4.86613">
        <ele>275</ele>
        <time>2018-06-19T09:01:01Z</time>
      </trkpt>
      <trkpt lat="45.94981" lon="4.86613">
        <ele>275</ele>
        <time>2018-06-19T09:01:02Z</time>
      </trkpt>
      <trkpt lat="45.94976" lon="4.86614">
        <ele>275</ele>
        <time>2018-06-19T09:01:03Z</time>
      </trkpt>
      <trkpt lat="45.94971" lon="4.86615">
        <ele>275</ele>
        <time>2018-06-19T09:01:04Z</time>
      </trkpt>
      <trkpt lat="45.94967" lon="4.86616">
        <ele>275</ele>
        <time>2018-06-19T09:01:05Z</time>
      </trkpt>
      <trkpt lat="45.94962" lon="4.8662">
        <ele>275</ele>
        <time>2018-06-19T09:01:06Z</time>
      </trkpt>
      <trkpt lat="45.94958" lon="4.86625">
        <ele>276</ele>
        <time>2018-06-19T09:01:07Z</time>
      </trkpt>
      <trkpt lat="45.94955" lon="4.86629">
        <ele>276</ele>
        <time>2018-06-19T09:01:08Z</time>
      </trkpt>
      <trkpt lat="45.94951" lon="4.86636">
        <ele>276</ele>
        <time>2018-06-19T09:01:09Z</time>
      </trkpt>
      <trkpt lat="45.94947" lon="4.86641">
        <ele>276</ele>
        <time>2018-06-19T09:01:10Z</time>
      </trkpt>
      <trkpt lat="45.94945" lon="4.86649">
        <ele>276</ele>
        <time>2018-06-19T09:01:11Z</time>
      </trkpt>
      <trkpt lat="45.94944" lon="4.86656">
        <ele>276</ele>
        <time>2018-06-19T09:01:12Z</time>
      </trkpt>
      <trkpt lat="45.94943" lon="4.86662">
        <ele>276</ele>
        <time>2018-06-19T09:01:13Z</time>
      </trkpt>
      <trkpt lat="45.94942" lon="4.86674">
        <ele>276</ele>
        <time>2018-06-19T09:01:15Z</time>
      </trkpt>
      <trkpt lat="45.94942" lon="4.86681">
        <ele>276</ele>
        <time>2018-06-19T09:01:16Z</time>
      </trkpt>
      <trkpt lat="45.94943" lon="4.8669">
        <ele>276</ele>
        <time>2018-06-19T09:01:17Z</time>
      </trkpt>
      <trkpt lat="45.94944" lon="4.86696">
        <ele>276</ele>
        <time>2018-06-19T09:01:18Z</time>
      </trkpt>
      <trkpt lat="45.94945" lon="4.86704">
        <ele>275</ele>
        <time>2018-06-19T09:01:19Z</time>
      </trkpt>
      <trkpt lat="45.94947" lon="4.8671">
        <ele>275</ele>
        <time>2018-06-19T09:01:20Z</time>
      </trkpt>
      <trkpt lat="45.94949" lon="4.86718">
        <ele>275</ele>
        <time>2018-06-19T09:01:21Z</time>
      </trkpt>
      <trkpt lat="45.94952" lon="4.86725">
        <ele>275</ele>
        <time>2018-06-19T09:01:22Z</time>
      </trkpt>
      <trkpt lat="45.94954" lon="4.86731">
        <ele>275</ele>
        <time>2018-06-19T09:01:23Z</time>
      </trkpt>
      <trkpt lat="45.94956" lon="4.86736">
        <ele>275</ele>
        <time>2018-06-19T09:01:24Z</time>
      </trkpt>
      <trkpt lat="45.94961" lon="4.86747">
        <ele>275</ele>
        <time>2018-06-19T09:01:26Z</time>
      </trkpt>
      <trkpt lat="45.94964" lon="4.86752">
        <ele>275</ele>
        <time>2018-06-19T09:01:27Z</time>
      </trkpt>
      <trkpt lat="45.94967" lon="4.86757">
        <ele>275</ele>
        <time>2018-06-19T09:01:28Z</time>
      </trkpt>
      <trkpt lat="45.9497" lon="4.86762">
        <ele>275</ele>
        <time>2018-06-19T09:01:29Z</time>
      </trkpt>
      <trkpt lat="45.94973" lon="4.86767">
        <ele>275</ele>
        <time>2018-06-19T09:01:30Z</time>
      </trkpt>
      <trkpt lat="45.94976" lon="4.86773">
        <ele>275</ele>
        <time>2018-06-19T09:01:31Z</time>
      </trkpt>
      <trkpt lat="45.9498" lon="4.86778">
        <ele>275</ele>
        <time>2018-06-19T09:01:32Z</time>
      </trkpt>
      <trkpt lat="45.94983" lon="4.86784">
        <ele>275</ele>
        <time>2018-06-19T09:01:33Z</time>
      </trkpt>
      <trkpt lat="45.94988" lon="4.86793">
        <ele>276</ele>
        <time>2018-06-19T09:01:35Z</time>
      </trkpt>
      <trkpt lat="45.9499" lon="4.86798">
        <ele>276</ele>
        <time>2018-06-19T09:01:36Z</time>
      </trkpt>
      <trkpt lat="45.94995" lon="4.86808">
        <ele>276</ele>
        <time>2018-06-19T09:01:38Z</time>
      </trkpt>
      <trkpt lat="45.94997" lon="4.86813">
        <ele>276</ele>
        <time>2018-06-19T09:01:39Z</time>
      </trkpt>
      <trkpt lat="45.95001" lon="4.86824">
        <ele>275</ele>
        <time>2018-06-19T09:01:41Z</time>
      </trkpt>
      <trkpt lat="45.95003" lon="4.86829">
        <ele>276</ele>
        <time>2018-06-19T09:01:42Z</time>
      </trkpt>
      <trkpt lat="45.95008" lon="4.86839">
        <ele>276</ele>
        <time>2018-06-19T09:01:44Z</time>
      </trkpt>
      <trkpt lat="45.95011" lon="4.86845">
        <ele>275</ele>
        <time>2018-06-19T09:01:45Z</time>
      </trkpt>
      <trkpt lat="45.95013" lon="4.86851">
        <ele>275</ele>
        <time>2018-06-19T09:01:46Z</time>
      </trkpt>
      <trkpt lat="45.95015" lon="4.86857">
        <ele>275</ele>
        <time>2018-06-19T09:01:47Z</time>
      </trkpt>
      <trkpt lat="45.95018" lon="4.86864">
        <ele>275</ele>
        <time>2018-06-19T09:01:48Z</time>
      </trkpt>
      <trkpt lat="45.9502" lon="4.86871">
        <ele>275</ele>
        <time>2018-06-19T09:01:49Z</time>
      </trkpt>
      <trkpt lat="45.95021" lon="4.86877">
        <ele>275</ele>
        <time>2018-06-19T09:01:50Z</time>
      </trkpt>
      <trkpt lat="45.95023" lon="4.86884">
        <ele>275</ele>
        <time>2018-06-19T09:01:51Z</time>
      </trkpt>
      <trkpt lat="45.95025" lon="4.8689">
        <ele>275</ele>
        <time>2018-06-19T09:01:52Z</time>
      </trkpt>
      <trkpt lat="45.95027" lon="4.86896">
        <ele>275</ele>
        <time>2018-06-19T09:01:53Z</time>
      </trkpt>
      <trkpt lat="45.95028" lon="4.86903">
        <ele>275</ele>
        <time>2018-06-19T09:01:54Z</time>
      </trkpt>
      <trkpt lat="45.9503" lon="4.86909">
        <ele>275</ele>
        <time>2018-06-19T09:01:55Z</time>
      </trkpt>
      <trkpt lat="45.95031" lon="4.86916">
        <ele>275</ele>
        <time>2018-06-19T09:01:56Z</time>
      </trkpt>
      <trkpt lat="45.95033" lon="4.86922">
        <ele>276</ele>
        <time>2018-06-19T09:01:57Z</time>
      </trkpt>
      <trkpt lat="45.95035" lon="4.86928">
        <ele>276</ele>
        <time>2018-06-19T09:01:58Z</time>
      </trkpt>
      <trkpt lat="45.95037" lon="4.86935">
        <ele>276</ele>
        <time>2018-06-19T09:01:59Z</time>
      </trkpt>
      <trkpt lat="45.95039" lon="4.86941">
        <ele>276</ele>
        <time>2018-06-19T09:02:00Z</time>
      </trkpt>
      <trkpt lat="45.95041" lon="4.86947">
        <ele>276</ele>
        <time>2018-06-19T09:02:01Z</time>
      </trkpt>
      <trkpt lat="45.95043" lon="4.86954">
        <ele>276</ele>
        <time>2018-06-19T09:02:02Z</time>
      </trkpt>
      <trkpt lat="45.95044" lon="4.86962">
        <ele>276</ele>
        <time>2018-06-19T09:02:03Z</time>
      </trkpt>
      <trkpt lat="45.95046" lon="4.86969">
        <ele>276</ele>
        <time>2018-06-19T09:02:04Z</time>
      </trkpt>
      <trkpt lat="45.95048" lon="4.86977">
        <ele>276</ele>
        <time>2018-06-19T09:02:05Z</time>
      </trkpt>
      <trkpt lat="45.95052" lon="4.86988">
        <ele>276</ele>
        <time>2018-06-19T09:02:07Z</time>
      </trkpt>
      <trkpt lat="45.95055" lon="4.86994">
        <ele>276</ele>
        <time>2018-06-19T09:02:08Z</time>
      </trkpt>
      <trkpt lat="45.9506" lon="4.87004">
        <ele>277</ele>
        <time>2018-06-19T09:02:10Z</time>
      </trkpt>
      <trkpt lat="45.95063" lon="4.8701">
        <ele>277</ele>
        <time>2018-06-19T09:02:11Z</time>
      </trkpt>
      <trkpt lat="45.95067" lon="4.87015">
        <ele>277</ele>
        <time>2018-06-19T09:02:12Z</time>
      </trkpt>
      <trkpt lat="45.9507" lon="4.8702">
        <ele>277</ele>
        <time>2018-06-19T09:02:13Z</time>
      </trkpt>
      <trkpt lat="45.95074" lon="4.87026">
        <ele>277</ele>
        <time>2018-06-19T09:02:15Z</time>
      </trkpt>
      <trkpt lat="45.95077" lon="4.87034">
        <ele>277</ele>
        <time>2018-06-19T09:02:16Z</time>
      </trkpt>
      <trkpt lat="45.95079" lon="4.8704">
        <ele>277</ele>
        <time>2018-06-19T09:02:17Z</time>
      </trkpt>
      <trkpt lat="45.95082" lon="4.87045">
        <ele>277</ele>
        <time>2018-06-19T09:02:18Z</time>
      </trkpt>
      <trkpt lat="45.95087" lon="4.87056">
        <ele>277</ele>
        <time>2018-06-19T09:02:20Z</time>
      </trkpt>
      <trkpt lat="45.95088" lon="4.87061">
        <ele>277</ele>
        <time>2018-06-19T09:02:21Z</time>
      </trkpt>
      <trkpt lat="45.95092" lon="4.8707">
        <ele>277</ele>
        <time>2018-06-19T09:02:23Z</time>
      </trkpt>
      <trkpt lat="45.95093" lon="4.87075">
        <ele>277</ele>
        <time>2018-06-19T09:02:24Z</time>
      </trkpt>
      <trkpt lat="45.95096" lon="4.87081">
        <ele>277</ele>
        <time>2018-06-19T09:02:25Z</time>
      </trkpt>
      <trkpt lat="45.95098" lon="4.87087">
        <ele>277</ele>
        <time>2018-06-19T09:02:26Z</time>
      </trkpt>
      <trkpt lat="45.95101" lon="4.87095">
        <ele>277</ele>
        <time>2018-06-19T09:02:27Z</time>
      </trkpt>
      <trkpt lat="45.95103" lon="4.87102">
        <ele>277</ele>
        <time>2018-06-19T09:02:28Z</time>
      </trkpt>
      <trkpt lat="45.95106" lon="4.87109">
        <ele>277</ele>
        <time>2018-06-19T09:02:29Z</time>
      </trkpt>
      <trkpt lat="45.95108" lon="4.87115">
        <ele>277</ele>
        <time>2018-06-19T09:02:30Z</time>
      </trkpt>
      <trkpt lat="45.9511" lon="4.87122">
        <ele>277</ele>
        <time>2018-06-19T09:02:31Z</time>
      </trkpt>
      <trkpt lat="45.95112" lon="4.8713">
        <ele>277</ele>
        <time>2018-06-19T09:02:32Z</time>
      </trkpt>
      <trkpt lat="45.95114" lon="4.87142">
        <ele>277</ele>
        <time>2018-06-19T09:02:34Z</time>
      </trkpt>
      <trkpt lat="45.95117" lon="4.87149">
        <ele>277</ele>
        <time>2018-06-19T09:02:35Z</time>
      </trkpt>
      <trkpt lat="45.95119" lon="4.87156">
        <ele>277</ele>
        <time>2018-06-19T09:02:36Z</time>
      </trkpt>
      <trkpt lat="45.95121" lon="4.87163">
        <ele>277</ele>
        <time>2018-06-19T09:02:37Z</time>
      </trkpt>
      <trkpt lat="45.95121" lon="4.87171">
        <ele>277</ele>
        <time>2018-06-19T09:02:38Z</time>
      </trkpt>
      <trkpt lat="45.95124" lon="4.8718">
        <ele>276</ele>
        <time>2018-06-19T09:02:39Z</time>
      </trkpt>
      <trkpt lat="45.95125" lon="4.87188">
        <ele>276</ele>
        <time>2018-06-19T09:02:40Z</time>
      </trkpt>
      <trkpt lat="45.95128" lon="4.87195">
        <ele>276</ele>
        <time>2018-06-19T09:02:41Z</time>
      </trkpt>
      <trkpt lat="45.9513" lon="4.87203">
        <ele>276</ele>
        <time>2018-06-19T09:02:42Z</time>
      </trkpt>
      <trkpt lat="45.95131" lon="4.87211">
        <ele>276</ele>
        <time>2018-06-19T09:02:43Z</time>
      </trkpt>
      <trkpt lat="45.95133" lon="4.8722">
        <ele>276</ele>
        <time>2018-06-19T09:02:44Z</time>
      </trkpt>
      <trkpt lat="45.95135" lon="4.87231">
        <ele>276</ele>
        <time>2018-06-19T09:02:45Z</time>
      </trkpt>
      <trkpt lat="45.95137" lon="4.87241">
        <ele>276</ele>
        <time>2018-06-19T09:02:46Z</time>
      </trkpt>
      <trkpt lat="45.9514" lon="4.8725">
        <ele>275</ele>
        <time>2018-06-19T09:02:47Z</time>
      </trkpt>
      <trkpt lat="45.95142" lon="4.87259">
        <ele>274</ele>
        <time>2018-06-19T09:02:48Z</time>
      </trkpt>
      <trkpt lat="45.95144" lon="4.87268">
        <ele>274</ele>
        <time>2018-06-19T09:02:49Z</time>
      </trkpt>
      <trkpt lat="45.95146" lon="4.87279">
        <ele>274</ele>
        <time>2018-06-19T09:02:50Z</time>
      </trkpt>
      <trkpt lat="45.95148" lon="4.87288">
        <ele>274</ele>
        <time>2018-06-19T09:02:51Z</time>
      </trkpt>
      <trkpt lat="45.9515" lon="4.873">
        <ele>274</ele>
        <time>2018-06-19T09:02:52Z</time>
      </trkpt>
      <trkpt lat="45.95152" lon="4.8731">
        <ele>273</ele>
        <time>2018-06-19T09:02:53Z</time>
      </trkpt>
      <trkpt lat="45.95156" lon="4.87319">
        <ele>273</ele>
        <time>2018-06-19T09:02:54Z</time>
      </trkpt>
      <trkpt lat="45.95159" lon="4.87331">
        <ele>272</ele>
        <time>2018-06-19T09:02:55Z</time>
      </trkpt>
      <trkpt lat="45.95161" lon="4.8734">
        <ele>272</ele>
        <time>2018-06-19T09:02:56Z</time>
      </trkpt>
      <trkpt lat="45.95163" lon="4.87351">
        <ele>272</ele>
        <time>2018-06-19T09:02:57Z</time>
      </trkpt>
      <trkpt lat="45.95165" lon="4.87359">
        <ele>272</ele>
        <time>2018-06-19T09:02:58Z</time>
      </trkpt>
      <trkpt lat="45.95167" lon="4.8737">
        <ele>272</ele>
        <time>2018-06-19T09:02:59Z</time>
      </trkpt>
      <trkpt lat="45.95169" lon="4.87378">
        <ele>271</ele>
        <time>2018-06-19T09:03:00Z</time>
      </trkpt>
      <trkpt lat="45.95171" lon="4.87387">
        <ele>271</ele>
        <time>2018-06-19T09:03:01Z</time>
      </trkpt>
      <trkpt lat="45.95173" lon="4.87395">
        <ele>271</ele>
        <time>2018-06-19T09:03:02Z</time>
      </trkpt>
      <trkpt lat="45.95175" lon="4.87402">
        <ele>271</ele>
        <time>2018-06-19T09:03:03Z</time>
      </trkpt>
      <trkpt lat="45.95177" lon="4.87409">
        <ele>271</ele>
        <time>2018-06-19T09:03:04Z</time>
      </trkpt>
      <trkpt lat="45.95177" lon="4.87416">
        <ele>271</ele>
        <time>2018-06-19T09:03:05Z</time>
      </trkpt>
      <trkpt lat="45.9518" lon="4.87424">
        <ele>271</ele>
        <time>2018-06-19T09:03:06Z</time>
      </trkpt>
      <trkpt lat="45.95182" lon="4.87432">
        <ele>271</ele>
        <time>2018-06-19T09:03:07Z</time>
      </trkpt>
      <trkpt lat="45.95184" lon="4.8744">
        <ele>272</ele>
        <time>2018-06-19T09:03:08Z</time>
      </trkpt>
      <trkpt lat="45.95187" lon="4.87447">
        <ele>272</ele>
        <time>2018-06-19T09:03:09Z</time>
      </trkpt>
      <trkpt lat="45.95188" lon="4.87455">
        <ele>272</ele>
        <time>2018-06-19T09:03:10Z</time>
      </trkpt>
      <trkpt lat="45.95191" lon="4.87462">
        <ele>272</ele>
        <time>2018-06-19T09:03:11Z</time>
      </trkpt>
      <trkpt lat="45.95192" lon="4.87469">
        <ele>272</ele>
        <time>2018-06-19T09:03:12Z</time>
      </trkpt>
      <trkpt lat="45.95194" lon="4.87478">
        <ele>272</ele>
        <time>2018-06-19T09:03:13Z</time>
      </trkpt>
      <trkpt lat="45.95196" lon="4.87485">
        <ele>272</ele>
        <time>2018-06-19T09:03:14Z</time>
      </trkpt>
      <trkpt lat="45.95198" lon="4.87494">
        <ele>272</ele>
        <time>2018-06-19T09:03:15Z</time>
      </trkpt>
      <trkpt lat="45.952" lon="4.87503">
        <ele>273</ele>
        <time>2018-06-19T09:03:16Z</time>
      </trkpt>
      <trkpt lat="45.95203" lon="4.87512">
        <ele>273</ele>
        <time>2018-06-19T09:03:17Z</time>
      </trkpt>
      <trkpt lat="45.95202" lon="4.87519">
        <ele>273</ele>
        <time>2018-06-19T09:03:18Z</time>
      </trkpt>
      <trkpt lat="45.95204" lon="4.87526">
        <ele>274</ele>
        <time>2018-06-19T09:03:19Z</time>
      </trkpt>
      <trkpt lat="45.95205" lon="4.87534">
        <ele>274</ele>
        <time>2018-06-19T09:03:20Z</time>
      </trkpt>
      <trkpt lat="45.95204" lon="4.87539">
        <ele>274</ele>
        <time>2018-06-19T09:03:21Z</time>
      </trkpt>
      <trkpt lat="45.95205" lon="4.87547">
        <ele>274</ele>
        <time>2018-06-19T09:03:22Z</time>
      </trkpt>
      <trkpt lat="45.95206" lon="4.87553">
        <ele>274</ele>
        <time>2018-06-19T09:03:23Z</time>
      </trkpt>
      <trkpt lat="45.95206" lon="4.87559">
        <ele>274</ele>
        <time>2018-06-19T09:03:24Z</time>
      </trkpt>
      <trkpt lat="45.95207" lon="4.87566">
        <ele>274</ele>
        <time>2018-06-19T09:03:25Z</time>
      </trkpt>
      <trkpt lat="45.95207" lon="4.87578">
        <ele>274</ele>
        <time>2018-06-19T09:03:27Z</time>
      </trkpt>
      <trkpt lat="45.95208" lon="4.87585">
        <ele>276</ele>
        <time>2018-06-19T09:03:28Z</time>
      </trkpt>
      <trkpt lat="45.95209" lon="4.87597">
        <ele>276</ele>
        <time>2018-06-19T09:03:30Z</time>
      </trkpt>
      <trkpt lat="45.95211" lon="4.87602">
        <ele>276</ele>
        <time>2018-06-19T09:03:31Z</time>
      </trkpt>
      <trkpt lat="45.95212" lon="4.87612">
        <ele>276</ele>
        <time>2018-06-19T09:03:33Z</time>
      </trkpt>
      <trkpt lat="45.95213" lon="4.87618">
        <ele>276</ele>
        <time>2018-06-19T09:03:34Z</time>
      </trkpt>
      <trkpt lat="45.95212" lon="4.87623">
        <ele>276</ele>
        <time>2018-06-19T09:03:36Z</time>
      </trkpt>
      <trkpt lat="45.95213" lon="4.87632">
        <ele>276</ele>
        <time>2018-06-19T09:03:37Z</time>
      </trkpt>
      <trkpt lat="45.95215" lon="4.87643">
        <ele>276</ele>
        <time>2018-06-19T09:03:41Z</time>
      </trkpt>
      <trkpt lat="45.95215" lon="4.87646">
        <ele>276</ele>
        <time>2018-06-19T09:03:42Z</time>
      </trkpt>
      <trkpt lat="45.95216" lon="4.87655">
        <ele>276</ele>
        <time>2018-06-19T09:03:44Z</time>
      </trkpt>
      <trkpt lat="45.95217" lon="4.87668">
        <ele>278</ele>
        <time>2018-06-19T09:03:45Z</time>
      </trkpt>
      <trkpt lat="45.9522" lon="4.87678">
        <ele>279</ele>
        <time>2018-06-19T09:03:48Z</time>
      </trkpt>
      <trkpt lat="45.95221" lon="4.87681">
        <ele>279</ele>
        <time>2018-06-19T09:03:49Z</time>
      </trkpt>
      <trkpt lat="45.95223" lon="4.87693">
        <ele>279</ele>
        <time>2018-06-19T09:03:52Z</time>
      </trkpt>
      <trkpt lat="45.95224" lon="4.87697">
        <ele>279</ele>
        <time>2018-06-19T09:03:53Z</time>
      </trkpt>
      <trkpt lat="45.95225" lon="4.87702">
        <ele>279</ele>
        <time>2018-06-19T09:03:54Z</time>
      </trkpt>
      <trkpt lat="45.95227" lon="4.87714">
        <ele>279</ele>
        <time>2018-06-19T09:03:55Z</time>
      </trkpt>
      <trkpt lat="45.95228" lon="4.87724">
        <ele>280</ele>
        <time>2018-06-19T09:03:58Z</time>
      </trkpt>
      <trkpt lat="45.95229" lon="4.87728">
        <ele>280</ele>
        <time>2018-06-19T09:03:59Z</time>
      </trkpt>
      <trkpt lat="45.95229" lon="4.87732">
        <ele>280</ele>
        <time>2018-06-19T09:04:00Z</time>
      </trkpt>
      <trkpt lat="45.95231" lon="4.87743">
        <ele>280</ele>
        <time>2018-06-19T09:04:01Z</time>
      </trkpt>
      <trkpt lat="45.95234" lon="4.87755">
        <ele>281</ele>
        <time>2018-06-19T09:04:03Z</time>
      </trkpt>
      <trkpt lat="45.95236" lon="4.8776">
        <ele>281</ele>
        <time>2018-06-19T09:04:04Z</time>
      </trkpt>
      <trkpt lat="45.95237" lon="4.87761">
        <ele>281</ele>
        <time>2018-06-19T09:04:05Z</time>
      </trkpt>
      <trkpt lat="45.9524" lon="4.87773">
        <ele>282</ele>
        <time>2018-06-19T09:04:06Z</time>
      </trkpt>
      <trkpt lat="45.95241" lon="4.87784">
        <ele>282</ele>
        <time>2018-06-19T09:04:08Z</time>
      </trkpt>
      <trkpt lat="45.95241" lon="4.87787">
        <ele>282</ele>
        <time>2018-06-19T09:04:09Z</time>
      </trkpt>
      <trkpt lat="45.95243" lon="4.87798">
        <ele>282</ele>
        <time>2018-06-19T09:04:10Z</time>
      </trkpt>
      <trkpt lat="45.95243" lon="4.87801">
        <ele>282</ele>
        <time>2018-06-19T09:04:11Z</time>
      </trkpt>
      <trkpt lat="45.95245" lon="4.87813">
        <ele>282</ele>
        <time>2018-06-19T09:04:13Z</time>
      </trkpt>
      <trkpt lat="45.95245" lon="4.87816">
        <ele>282</ele>
        <time>2018-06-19T09:04:14Z</time>
      </trkpt>
      <trkpt lat="45.95246" lon="4.87819">
        <ele>282</ele>
        <time>2018-06-19T09:04:15Z</time>
      </trkpt>
      <trkpt lat="45.95247" lon="4.8783">
        <ele>282</ele>
        <time>2018-06-19T09:04:16Z</time>
      </trkpt>
      <trkpt lat="45.9525" lon="4.8784">
        <ele>282</ele>
        <time>2018-06-19T09:04:18Z</time>
      </trkpt>
      <trkpt lat="45.9525" lon="4.87846">
        <ele>283</ele>
        <time>2018-06-19T09:04:19Z</time>
      </trkpt>
      <trkpt lat="45.95252" lon="4.87856">
        <ele>281</ele>
        <time>2018-06-19T09:04:21Z</time>
      </trkpt>
      <trkpt lat="45.95252" lon="4.87861">
        <ele>281</ele>
        <time>2018-06-19T09:04:22Z</time>
      </trkpt>
      <trkpt lat="45.95254" lon="4.87873">
        <ele>281</ele>
        <time>2018-06-19T09:04:24Z</time>
      </trkpt>
      <trkpt lat="45.95256" lon="4.87879">
        <ele>281</ele>
        <time>2018-06-19T09:04:25Z</time>
      </trkpt>
      <trkpt lat="45.95258" lon="4.87885">
        <ele>281</ele>
        <time>2018-06-19T09:04:26Z</time>
      </trkpt>
      <trkpt lat="45.95259" lon="4.87891">
        <ele>281</ele>
        <time>2018-06-19T09:04:27Z</time>
      </trkpt>
      <trkpt lat="45.9526" lon="4.87894">
        <ele>281</ele>
        <time>2018-06-19T09:04:28Z</time>
      </trkpt>
      <trkpt lat="45.95262" lon="4.87903">
        <ele>281</ele>
        <time>2018-06-19T09:04:29Z</time>
      </trkpt>
      <trkpt lat="45.95263" lon="4.87915">
        <ele>282</ele>
        <time>2018-06-19T09:04:31Z</time>
      </trkpt>
      <trkpt lat="45.95263" lon="4.87921">
        <ele>281</ele>
        <time>2018-06-19T09:04:32Z</time>
      </trkpt>
      <trkpt lat="45.95261" lon="4.87931">
        <ele>281</ele>
        <time>2018-06-19T09:04:34Z</time>
      </trkpt>
      <trkpt lat="45.95261" lon="4.87937">
        <ele>280</ele>
        <time>2018-06-19T09:04:35Z</time>
      </trkpt>
      <trkpt lat="45.95257" lon="4.87948">
        <ele>280</ele>
        <time>2018-06-19T09:04:37Z</time>
      </trkpt>
      <trkpt lat="45.95256" lon="4.87951">
        <ele>280</ele>
        <time>2018-06-19T09:04:38Z</time>
      </trkpt>
      <trkpt lat="45.95252" lon="4.87957">
        <ele>280</ele>
        <time>2018-06-19T09:04:39Z</time>
      </trkpt>
      <trkpt lat="45.95249" lon="4.87961">
        <ele>282</ele>
        <time>2018-06-19T09:04:40Z</time>
      </trkpt>
      <trkpt lat="45.95242" lon="4.87969">
        <ele>282</ele>
        <time>2018-06-19T09:04:42Z</time>
      </trkpt>
      <trkpt lat="45.9524" lon="4.87974">
        <ele>282</ele>
        <time>2018-06-19T09:04:43Z</time>
      </trkpt>
      <trkpt lat="45.95236" lon="4.87978">
        <ele>282</ele>
        <time>2018-06-19T09:04:44Z</time>
      </trkpt>
      <trkpt lat="45.95233" lon="4.87982">
        <ele>282</ele>
        <time>2018-06-19T09:04:45Z</time>
      </trkpt>
      <trkpt lat="45.95229" lon="4.87988">
        <ele>282</ele>
        <time>2018-06-19T09:04:46Z</time>
      </trkpt>
      <trkpt lat="45.95225" lon="4.87993">
        <ele>282</ele>
        <time>2018-06-19T09:04:47Z</time>
      </trkpt>
      <trkpt lat="45.95224" lon="4.88001">
        <ele>281</ele>
        <time>2018-06-19T09:04:48Z</time>
      </trkpt>
      <trkpt lat="45.9522" lon="4.88005">
        <ele>281</ele>
        <time>2018-06-19T09:04:49Z</time>
      </trkpt>
      <trkpt lat="45.95216" lon="4.88009">
        <ele>281</ele>
        <time>2018-06-19T09:04:50Z</time>
      </trkpt>
      <trkpt lat="45.95212" lon="4.88013">
        <ele>281</ele>
        <time>2018-06-19T09:04:51Z</time>
      </trkpt>
      <trkpt lat="45.95209" lon="4.88019">
        <ele>281</ele>
        <time>2018-06-19T09:04:52Z</time>
      </trkpt>
      <trkpt lat="45.95207" lon="4.88028">
        <ele>281</ele>
        <time>2018-06-19T09:04:53Z</time>
      </trkpt>
      <trkpt lat="45.95203" lon="4.88035">
        <ele>281</ele>
        <time>2018-06-19T09:04:54Z</time>
      </trkpt>
      <trkpt lat="45.95199" lon="4.88038">
        <ele>281</ele>
        <time>2018-06-19T09:04:55Z</time>
      </trkpt>
      <trkpt lat="45.95192" lon="4.88043">
        <ele>281</ele>
        <time>2018-06-19T09:04:57Z</time>
      </trkpt>
      <trkpt lat="45.9519" lon="4.88049">
        <ele>281</ele>
        <time>2018-06-19T09:04:58Z</time>
      </trkpt>
      <trkpt lat="45.95187" lon="4.88053">
        <ele>281</ele>
        <time>2018-06-19T09:04:59Z</time>
      </trkpt>
      <trkpt lat="45.95185" lon="4.88061">
        <ele>281</ele>
        <time>2018-06-19T09:05:00Z</time>
      </trkpt>
      <trkpt lat="45.95183" lon="4.88068">
        <ele>281</ele>
        <time>2018-06-19T09:05:01Z</time>
      </trkpt>
      <trkpt lat="45.95181" lon="4.88074">
        <ele>281</ele>
        <time>2018-06-19T09:05:02Z</time>
      </trkpt>
      <trkpt lat="45.9518" lon="4.88081">
        <ele>281</ele>
        <time>2018-06-19T09:05:03Z</time>
      </trkpt>
      <trkpt lat="45.9518" lon="4.8809">
        <ele>282</ele>
        <time>2018-06-19T09:05:04Z</time>
      </trkpt>
      <trkpt lat="45.9518" lon="4.88099">
        <ele>282</ele>
        <time>2018-06-19T09:05:05Z</time>
      </trkpt>
      <trkpt lat="45.9518" lon="4.88107">
        <ele>282</ele>
        <time>2018-06-19T09:05:06Z</time>
      </trkpt>
      <trkpt lat="45.95178" lon="4.88117">
        <ele>282</ele>
        <time>2018-06-19T09:05:08Z</time>
      </trkpt>
      <trkpt lat="45.95176" lon="4.88121">
        <ele>282</ele>
        <time>2018-06-19T09:05:09Z</time>
      </trkpt>
      <trkpt lat="45.95174" lon="4.88132">
        <ele>283</ele>
        <time>2018-06-19T09:05:11Z</time>
      </trkpt>
      <trkpt lat="45.95173" lon="4.88138">
        <ele>283</ele>
        <time>2018-06-19T09:05:12Z</time>
      </trkpt>
      <trkpt lat="45.95169" lon="4.88149">
        <ele>283</ele>
        <time>2018-06-19T09:05:14Z</time>
      </trkpt>
      <trkpt lat="45.95168" lon="4.88152">
        <ele>284</ele>
        <time>2018-06-19T09:05:15Z</time>
      </trkpt>
      <trkpt lat="45.95167" lon="4.88158">
        <ele>284</ele>
        <time>2018-06-19T09:05:17Z</time>
      </trkpt>
      <trkpt lat="45.95167" lon="4.88168">
        <ele>285</ele>
        <time>2018-06-19T09:05:18Z</time>
      </trkpt>
      <trkpt lat="45.95171" lon="4.88175">
        <ele>285</ele>
        <time>2018-06-19T09:05:20Z</time>
      </trkpt>
      <trkpt lat="45.95177" lon="4.88178">
        <ele>285</ele>
        <time>2018-06-19T09:05:21Z</time>
      </trkpt>
      <trkpt lat="45.95185" lon="4.88176">
        <ele>285</ele>
        <time>2018-06-19T09:05:23Z</time>
      </trkpt>
      <trkpt lat="45.95189" lon="4.88174">
        <ele>285</ele>
        <time>2018-06-19T09:05:24Z</time>
      </trkpt>
      <trkpt lat="45.95194" lon="4.88173">
        <ele>285</ele>
        <time>2018-06-19T09:05:25Z</time>
      </trkpt>
      <trkpt lat="45.95199" lon="4.8817">
        <ele>285</ele>
        <time>2018-06-19T09:05:26Z</time>
      </trkpt>
      <trkpt lat="45.95204" lon="4.8817">
        <ele>285</ele>
        <time>2018-06-19T09:05:27Z</time>
      </trkpt>
      <trkpt lat="45.95209" lon="4.88169">
        <ele>284</ele>
        <time>2018-06-19T09:05:28Z</time>
      </trkpt>
      <trkpt lat="45.95213" lon="4.88169">
        <ele>284</ele>
        <time>2018-06-19T09:05:29Z</time>
      </trkpt>
      <trkpt lat="45.95218" lon="4.8817">
        <ele>284</ele>
        <time>2018-06-19T09:05:30Z</time>
      </trkpt>
      <trkpt lat="45.95225" lon="4.88167">
        <ele>284</ele>
        <time>2018-06-19T09:05:31Z</time>
      </trkpt>
      <trkpt lat="45.9523" lon="4.88168">
        <ele>283</ele>
        <time>2018-06-19T09:05:32Z</time>
      </trkpt>
      <trkpt lat="45.95236" lon="4.88167">
        <ele>283</ele>
        <time>2018-06-19T09:05:33Z</time>
      </trkpt>
      <trkpt lat="45.95242" lon="4.88166">
        <ele>281</ele>
        <time>2018-06-19T09:05:34Z</time>
      </trkpt>
      <trkpt lat="45.95248" lon="4.88166">
        <ele>281</ele>
        <time>2018-06-19T09:05:35Z</time>
      </trkpt>
      <trkpt lat="45.95255" lon="4.88165">
        <ele>281</ele>
        <time>2018-06-19T09:05:36Z</time>
      </trkpt>
      <trkpt lat="45.95261" lon="4.88164">
        <ele>280</ele>
        <time>2018-06-19T09:05:37Z</time>
      </trkpt>
      <trkpt lat="45.95268" lon="4.88165">
        <ele>280</ele>
        <time>2018-06-19T09:05:38Z</time>
      </trkpt>
      <trkpt lat="45.95275" lon="4.88168">
        <ele>281</ele>
        <time>2018-06-19T09:05:39Z</time>
      </trkpt>
      <trkpt lat="45.9528" lon="4.88168">
        <ele>281</ele>
        <time>2018-06-19T09:05:40Z</time>
      </trkpt>
      <trkpt lat="45.95286" lon="4.8817">
        <ele>281</ele>
        <time>2018-06-19T09:05:41Z</time>
      </trkpt>
      <trkpt lat="45.95292" lon="4.88172">
        <ele>281</ele>
        <time>2018-06-19T09:05:42Z</time>
      </trkpt>
      <trkpt lat="45.95299" lon="4.88171">
        <ele>281</ele>
        <time>2018-06-19T09:05:43Z</time>
      </trkpt>
      <trkpt lat="45.95306" lon="4.88171">
        <ele>280</ele>
        <time>2018-06-19T09:05:44Z</time>
      </trkpt>
      <trkpt lat="45.95312" lon="4.88172">
        <ele>280</ele>
        <time>2018-06-19T09:05:45Z</time>
      </trkpt>
      <trkpt lat="45.95319" lon="4.88172">
        <ele>280</ele>
        <time>2018-06-19T09:05:46Z</time>
      </trkpt>
      <trkpt lat="45.95326" lon="4.88172">
        <ele>279</ele>
        <time>2018-06-19T09:05:47Z</time>
      </trkpt>
      <trkpt lat="45.95332" lon="4.88172">
        <ele>279</ele>
        <time>2018-06-19T09:05:48Z</time>
      </trkpt>
      <trkpt lat="45.95339" lon="4.88171">
        <ele>278</ele>
        <time>2018-06-19T09:05:49Z</time>
      </trkpt>
      <trkpt lat="45.95345" lon="4.8817">
        <ele>278</ele>
        <time>2018-06-19T09:05:50Z</time>
      </trkpt>
      <trkpt lat="45.95351" lon="4.88169">
        <ele>278</ele>
        <time>2018-06-19T09:05:51Z</time>
      </trkpt>
      <trkpt lat="45.95357" lon="4.88168">
        <ele>278</ele>
        <time>2018-06-19T09:05:52Z</time>
      </trkpt>
      <trkpt lat="45.95364" lon="4.88167">
        <ele>278</ele>
        <time>2018-06-19T09:05:53Z</time>
      </trkpt>
      <trkpt lat="45.9537" lon="4.88166">
        <ele>276</ele>
        <time>2018-06-19T09:05:54Z</time>
      </trkpt>
      <trkpt lat="45.95377" lon="4.88164">
        <ele>276</ele>
        <time>2018-06-19T09:05:55Z</time>
      </trkpt>
      <trkpt lat="45.95383" lon="4.88163">
        <ele>276</ele>
        <time>2018-06-19T09:05:56Z</time>
      </trkpt>
      <trkpt lat="45.95388" lon="4.88162">
        <ele>276</ele>
        <time>2018-06-19T09:05:57Z</time>
      </trkpt>
      <trkpt lat="45.95393" lon="4.88161">
        <ele>276</ele>
        <time>2018-06-19T09:05:58Z</time>
      </trkpt>
      <trkpt lat="45.95398" lon="4.8816">
        <ele>276</ele>
        <time>2018-06-19T09:05:59Z</time>
      </trkpt>
      <trkpt lat="45.95402" lon="4.88158">
        <ele>276</ele>
        <time>2018-06-19T09:06:00Z</time>
      </trkpt>
      <trkpt lat="45.9541" lon="4.88157">
        <ele>276</ele>
        <time>2018-06-19T09:06:02Z</time>
      </trkpt>
      <trkpt lat="45.95416" lon="4.88154">
        <ele>276</ele>
        <time>2018-06-19T09:06:03Z</time>
      </trkpt>
      <trkpt lat="45.9542" lon="4.88153">
        <ele>276</ele>
        <time>2018-06-19T09:06:04Z</time>
      </trkpt>
      <trkpt lat="45.95425" lon="4.8815">
        <ele>276</ele>
        <time>2018-06-19T09:06:05Z</time>
      </trkpt>
      <trkpt lat="45.9543" lon="4.88147">
        <ele>276</ele>
        <time>2018-06-19T09:06:06Z</time>
      </trkpt>
      <trkpt lat="45.95435" lon="4.88145">
        <ele>276</ele>
        <time>2018-06-19T09:06:07Z</time>
      </trkpt>
      <trkpt lat="45.95443" lon="4.88142">
        <ele>276</ele>
        <time>2018-06-19T09:06:09Z</time>
      </trkpt>
      <trkpt lat="45.95448" lon="4.88139">
        <ele>276</ele>
        <time>2018-06-19T09:06:10Z</time>
      </trkpt>
      <trkpt lat="45.95456" lon="4.88137">
        <ele>276</ele>
        <time>2018-06-19T09:06:12Z</time>
      </trkpt>
      <trkpt lat="45.9546" lon="4.88137">
        <ele>276</ele>
        <time>2018-06-19T09:06:13Z</time>
      </trkpt>
      <trkpt lat="45.95465" lon="4.88133">
        <ele>276</ele>
        <time>2018-06-19T09:06:14Z</time>
      </trkpt>
      <trkpt lat="45.9547" lon="4.88131">
        <ele>276</ele>
        <time>2018-06-19T09:06:15Z</time>
      </trkpt>
      <trkpt lat="45.95476" lon="4.88126">
        <ele>276</ele>
        <time>2018-06-19T09:06:16Z</time>
      </trkpt>
      <trkpt lat="45.9548" lon="4.88123">
        <ele>276</ele>
        <time>2018-06-19T09:06:17Z</time>
      </trkpt>
      <trkpt lat="45.95485" lon="4.88121">
        <ele>276</ele>
        <time>2018-06-19T09:06:18Z</time>
      </trkpt>
      <trkpt lat="45.9549" lon="4.88119">
        <ele>276</ele>
        <time>2018-06-19T09:06:19Z</time>
      </trkpt>
      <trkpt lat="45.95495" lon="4.88117">
        <ele>276</ele>
        <time>2018-06-19T09:06:20Z</time>
      </trkpt>
      <trkpt lat="45.95499" lon="4.88115">
        <ele>276</ele>
        <time>2018-06-19T09:06:21Z</time>
      </trkpt>
      <trkpt lat="45.95504" lon="4.88112">
        <ele>276</ele>
        <time>2018-06-19T09:06:22Z</time>
      </trkpt>
      <trkpt lat="45.95508" lon="4.88111">
        <ele>276</ele>
        <time>2018-06-19T09:06:23Z</time>
      </trkpt>
      <trkpt lat="45.95513" lon="4.88109">
        <ele>276</ele>
        <time>2018-06-19T09:06:24Z</time>
      </trkpt>
      <trkpt lat="45.95518" lon="4.88107">
        <ele>276</ele>
        <time>2018-06-19T09:06:25Z</time>
      </trkpt>
      <trkpt lat="45.95522" lon="4.88104">
        <ele>277</ele>
        <time>2018-06-19T09:06:26Z</time>
      </trkpt>
      <trkpt lat="45.95526" lon="4.88102">
        <ele>277</ele>
        <time>2018-06-19T09:06:27Z</time>
      </trkpt>
      <trkpt lat="45.95534" lon="4.88097">
        <ele>277</ele>
        <time>2018-06-19T09:06:29Z</time>
      </trkpt>
      <trkpt lat="45.95539" lon="4.88091">
        <ele>277</ele>
        <time>2018-06-19T09:06:30Z</time>
      </trkpt>
      <trkpt lat="45.95547" lon="4.88088">
        <ele>277</ele>
        <time>2018-06-19T09:06:32Z</time>
      </trkpt>
      <trkpt lat="45.95551" lon="4.88086">
        <ele>277</ele>
        <time>2018-06-19T09:06:33Z</time>
      </trkpt>
      <trkpt lat="45.95555" lon="4.88083">
        <ele>277</ele>
        <time>2018-06-19T09:06:34Z</time>
      </trkpt>
      <trkpt lat="45.9556" lon="4.88081">
        <ele>276</ele>
        <time>2018-06-19T09:06:35Z</time>
      </trkpt>
      <trkpt lat="45.95567" lon="4.88077">
        <ele>276</ele>
        <time>2018-06-19T09:06:37Z</time>
      </trkpt>
      <trkpt lat="45.9557" lon="4.88074">
        <ele>276</ele>
        <time>2018-06-19T09:06:38Z</time>
      </trkpt>
      <trkpt lat="45.95578" lon="4.88068">
        <ele>276</ele>
        <time>2018-06-19T09:06:40Z</time>
      </trkpt>
      <trkpt lat="45.95583" lon="4.88066">
        <ele>276</ele>
        <time>2018-06-19T09:06:41Z</time>
      </trkpt>
      <trkpt lat="45.9559" lon="4.88059">
        <ele>278</ele>
        <time>2018-06-19T09:06:43Z</time>
      </trkpt>
      <trkpt lat="45.95593" lon="4.88058">
        <ele>278</ele>
        <time>2018-06-19T09:06:44Z</time>
      </trkpt>
      <trkpt lat="45.956" lon="4.88054">
        <ele>278</ele>
        <time>2018-06-19T09:06:46Z</time>
      </trkpt>
      <trkpt lat="45.95604" lon="4.88051">
        <ele>278</ele>
        <time>2018-06-19T09:06:47Z</time>
      </trkpt>
      <trkpt lat="45.9561" lon="4.88045">
        <ele>278</ele>
        <time>2018-06-19T09:06:49Z</time>
      </trkpt>
      <trkpt lat="45.95614" lon="4.88041">
        <ele>278</ele>
        <time>2018-06-19T09:06:50Z</time>
      </trkpt>
      <trkpt lat="45.95621" lon="4.88035">
        <ele>278</ele>
        <time>2018-06-19T09:06:52Z</time>
      </trkpt>
      <trkpt lat="45.95624" lon="4.88034">
        <ele>278</ele>
        <time>2018-06-19T09:06:53Z</time>
      </trkpt>
      <trkpt lat="45.95629" lon="4.8803">
        <ele>279</ele>
        <time>2018-06-19T09:06:54Z</time>
      </trkpt>
      <trkpt lat="45.95632" lon="4.88027">
        <ele>279</ele>
        <time>2018-06-19T09:06:55Z</time>
      </trkpt>
      <trkpt lat="45.95638" lon="4.88021">
        <ele>279</ele>
        <time>2018-06-19T09:06:57Z</time>
      </trkpt>
      <trkpt lat="45.95642" lon="4.88018">
        <ele>279</ele>
        <time>2018-06-19T09:06:58Z</time>
      </trkpt>
      <trkpt lat="45.95648" lon="4.88013">
        <ele>279</ele>
        <time>2018-06-19T09:07:00Z</time>
      </trkpt>
      <trkpt lat="45.95651" lon="4.88009">
        <ele>280</ele>
        <time>2018-06-19T09:07:01Z</time>
      </trkpt>
      <trkpt lat="45.95658" lon="4.88001">
        <ele>280</ele>
        <time>2018-06-19T09:07:04Z</time>
      </trkpt>
      <trkpt lat="45.95662" lon="4.87997">
        <ele>280</ele>
        <time>2018-06-19T09:07:05Z</time>
      </trkpt>
      <trkpt lat="45.95668" lon="4.8799">
        <ele>282</ele>
        <time>2018-06-19T09:07:08Z</time>
      </trkpt>
      <trkpt lat="45.95674" lon="4.87986">
        <ele>282</ele>
        <time>2018-06-19T09:07:09Z</time>
      </trkpt>
      <trkpt lat="45.95681" lon="4.87981">
        <ele>282</ele>
        <time>2018-06-19T09:07:11Z</time>
      </trkpt>
      <trkpt lat="45.95684" lon="4.87978">
        <ele>282</ele>
        <time>2018-06-19T09:07:12Z</time>
      </trkpt>
      <trkpt lat="45.95687" lon="4.87975">
        <ele>282</ele>
        <time>2018-06-19T09:07:14Z</time>
      </trkpt>
      <trkpt lat="45.95692" lon="4.8797">
        <ele>282</ele>
        <time>2018-06-19T09:07:15Z</time>
      </trkpt>
      <trkpt lat="45.957" lon="4.87963">
        <ele>283</ele>
        <time>2018-06-19T09:07:18Z</time>
      </trkpt>
      <trkpt lat="45.95702" lon="4.87961">
        <ele>283</ele>
        <time>2018-06-19T09:07:19Z</time>
      </trkpt>
      <trkpt lat="45.95709" lon="4.87954">
        <ele>283</ele>
        <time>2018-06-19T09:07:22Z</time>
      </trkpt>
      <trkpt lat="45.95717" lon="4.87948">
        <ele>283</ele>
        <time>2018-06-19T09:07:23Z</time>
      </trkpt>
      <trkpt lat="45.95723" lon="4.87943">
        <ele>283</ele>
        <time>2018-06-19T09:07:25Z</time>
      </trkpt>
      <trkpt lat="45.95727" lon="4.8794">
        <ele>283</ele>
        <time>2018-06-19T09:07:26Z</time>
      </trkpt>
      <trkpt lat="45.95735" lon="4.87934">
        <ele>284</ele>
        <time>2018-06-19T09:07:29Z</time>
      </trkpt>
      <trkpt lat="45.95739" lon="4.87929">
        <ele>284</ele>
        <time>2018-06-19T09:07:30Z</time>
      </trkpt>
      <trkpt lat="45.95746" lon="4.87924">
        <ele>284</ele>
        <time>2018-06-19T09:07:32Z</time>
      </trkpt>
      <trkpt lat="45.95748" lon="4.87923">
        <ele>284</ele>
        <time>2018-06-19T09:07:33Z</time>
      </trkpt>
      <trkpt lat="45.95755" lon="4.87918">
        <ele>285</ele>
        <time>2018-06-19T09:07:36Z</time>
      </trkpt>
      <trkpt lat="45.95757" lon="4.87916">
        <ele>285</ele>
        <time>2018-06-19T09:07:37Z</time>
      </trkpt>
      <trkpt lat="45.95763" lon="4.87912">
        <ele>286</ele>
        <time>2018-06-19T09:07:39Z</time>
      </trkpt>
      <trkpt lat="45.95766" lon="4.8791">
        <ele>286</ele>
        <time>2018-06-19T09:07:40Z</time>
      </trkpt>
      <trkpt lat="45.95774" lon="4.87905">
        <ele>286</ele>
        <time>2018-06-19T09:07:43Z</time>
      </trkpt>
      <trkpt lat="45.95782" lon="4.87901">
        <ele>286</ele>
        <time>2018-06-19T09:07:44Z</time>
      </trkpt>
      <trkpt lat="45.9579" lon="4.87896">
        <ele>286</ele>
        <time>2018-06-19T09:07:48Z</time>
      </trkpt>
      <trkpt lat="45.95792" lon="4.87894">
        <ele>286</ele>
        <time>2018-06-19T09:07:49Z</time>
      </trkpt>
      <trkpt lat="45.958" lon="4.87889">
        <ele>287</ele>
        <time>2018-06-19T09:07:50Z</time>
      </trkpt>
      <trkpt lat="45.95802" lon="4.87888">
        <ele>287</ele>
        <time>2018-06-19T09:07:51Z</time>
      </trkpt>
      <trkpt lat="45.9581" lon="4.87884">
        <ele>287</ele>
        <time>2018-06-19T09:07:53Z</time>
      </trkpt>
      <trkpt lat="45.95814" lon="4.87883">
        <ele>287</ele>
        <time>2018-06-19T09:07:54Z</time>
      </trkpt>
      <trkpt lat="45.95821" lon="4.87879">
        <ele>287</ele>
        <time>2018-06-19T09:07:56Z</time>
      </trkpt>
      <trkpt lat="45.95823" lon="4.87879">
        <ele>287</ele>
        <time>2018-06-19T09:07:57Z</time>
      </trkpt>
      <trkpt lat="45.9583" lon="4.87876">
        <ele>287</ele>
        <time>2018-06-19T09:08:00Z</time>
      </trkpt>
      <trkpt lat="45.95833" lon="4.87875">
        <ele>287</ele>
        <time>2018-06-19T09:08:01Z</time>
      </trkpt>
      <trkpt lat="45.95841" lon="4.87872">
        <ele>289</ele>
        <time>2018-06-19T09:08:02Z</time>
      </trkpt>
      <trkpt lat="45.95845" lon="4.87868">
        <ele>289</ele>
        <time>2018-06-19T09:08:03Z</time>
      </trkpt>
      <trkpt lat="45.95848" lon="4.87863">
        <ele>289</ele>
        <time>2018-06-19T09:08:04Z</time>
      </trkpt>
      <trkpt lat="45.95851" lon="4.87858">
        <ele>289</ele>
        <time>2018-06-19T09:08:05Z</time>
      </trkpt>
      <trkpt lat="45.95855" lon="4.87854">
        <ele>289</ele>
        <time>2018-06-19T09:08:06Z</time>
      </trkpt>
      <trkpt lat="45.95859" lon="4.87849">
        <ele>289</ele>
        <time>2018-06-19T09:08:07Z</time>
      </trkpt>
      <trkpt lat="45.95862" lon="4.87843">
        <ele>289</ele>
        <time>2018-06-19T09:08:08Z</time>
      </trkpt>
      <trkpt lat="45.95866" lon="4.87839">
        <ele>289</ele>
        <time>2018-06-19T09:08:09Z</time>
      </trkpt>
      <trkpt lat="45.95873" lon="4.87831">
        <ele>288</ele>
        <time>2018-06-19T09:08:11Z</time>
      </trkpt>
      <trkpt lat="45.95877" lon="4.87828">
        <ele>288</ele>
        <time>2018-06-19T09:08:12Z</time>
      </trkpt>
      <trkpt lat="45.95881" lon="4.87825">
        <ele>288</ele>
        <time>2018-06-19T09:08:13Z</time>
      </trkpt>
      <trkpt lat="45.95884" lon="4.8782">
        <ele>288</ele>
        <time>2018-06-19T09:08:14Z</time>
      </trkpt>
      <trkpt lat="45.95891" lon="4.87812">
        <ele>288</ele>
        <time>2018-06-19T09:08:16Z</time>
      </trkpt>
      <trkpt lat="45.95894" lon="4.87808">
        <ele>288</ele>
        <time>2018-06-19T09:08:17Z</time>
      </trkpt>
      <trkpt lat="45.95897" lon="4.87803">
        <ele>288</ele>
        <time>2018-06-19T09:08:18Z</time>
      </trkpt>
      <trkpt lat="45.95901" lon="4.87799">
        <ele>288</ele>
        <time>2018-06-19T09:08:19Z</time>
      </trkpt>
      <trkpt lat="45.95904" lon="4.87793">
        <ele>288</ele>
        <time>2018-06-19T09:08:20Z</time>
      </trkpt>
      <trkpt lat="45.95907" lon="4.87789">
        <ele>288</ele>
        <time>2018-06-19T09:08:21Z</time>
      </trkpt>
      <trkpt lat="45.95909" lon="4.87784">
        <ele>288</ele>
        <time>2018-06-19T09:08:22Z</time>
      </trkpt>
      <trkpt lat="45.95913" lon="4.87779">
        <ele>288</ele>
        <time>2018-06-19T09:08:23Z</time>
      </trkpt>
      <trkpt lat="45.95916" lon="4.87772">
        <ele>288</ele>
        <time>2018-06-19T09:08:24Z</time>
      </trkpt>
      <trkpt lat="45.95919" lon="4.87768">
        <ele>289</ele>
        <time>2018-06-19T09:08:25Z</time>
      </trkpt>
      <trkpt lat="45.95926" lon="4.87759">
        <ele>288</ele>
        <time>2018-06-19T09:08:27Z</time>
      </trkpt>
      <trkpt lat="45.95927" lon="4.87756">
        <ele>288</ele>
        <time>2018-06-19T09:08:28Z</time>
      </trkpt>
      <trkpt lat="45.9593" lon="4.87751">
        <ele>288</ele>
        <time>2018-06-19T09:08:29Z</time>
      </trkpt>
      <trkpt lat="45.95934" lon="4.87747">
        <ele>288</ele>
        <time>2018-06-19T09:08:30Z</time>
      </trkpt>
      <trkpt lat="45.9594" lon="4.87739">
        <ele>288</ele>
        <time>2018-06-19T09:08:32Z</time>
      </trkpt>
      <trkpt lat="45.95944" lon="4.87732">
        <ele>289</ele>
        <time>2018-06-19T09:08:33Z</time>
      </trkpt>
      <trkpt lat="45.9595" lon="4.87724">
        <ele>289</ele>
        <time>2018-06-19T09:08:35Z</time>
      </trkpt>
      <trkpt lat="45.95953" lon="4.8772">
        <ele>289</ele>
        <time>2018-06-19T09:08:36Z</time>
      </trkpt>
      <trkpt lat="45.95959" lon="4.87713">
        <ele>289</ele>
        <time>2018-06-19T09:08:38Z</time>
      </trkpt>
      <trkpt lat="45.95963" lon="4.87708">
        <ele>289</ele>
        <time>2018-06-19T09:08:39Z</time>
      </trkpt>
      <trkpt lat="45.95969" lon="4.87699">
        <ele>289</ele>
        <time>2018-06-19T09:08:41Z</time>
      </trkpt>
      <trkpt lat="45.95973" lon="4.87693">
        <ele>289</ele>
        <time>2018-06-19T09:08:42Z</time>
      </trkpt>
      <trkpt lat="45.95978" lon="4.87686">
        <ele>289</ele>
        <time>2018-06-19T09:08:44Z</time>
      </trkpt>
      <trkpt lat="45.95982" lon="4.87683">
        <ele>289</ele>
        <time>2018-06-19T09:08:45Z</time>
      </trkpt>
      <trkpt lat="45.95986" lon="4.87678">
        <ele>289</ele>
        <time>2018-06-19T09:08:46Z</time>
      </trkpt>
      <trkpt lat="45.9599" lon="4.87674">
        <ele>289</ele>
        <time>2018-06-19T09:08:47Z</time>
      </trkpt>
      <trkpt lat="45.95993" lon="4.87669">
        <ele>290</ele>
        <time>2018-06-19T09:08:48Z</time>
      </trkpt>
      <trkpt lat="45.95996" lon="4.87664">
        <ele>290</ele>
        <time>2018-06-19T09:08:49Z</time>
      </trkpt>
      <trkpt lat="45.96" lon="4.8766">
        <ele>290</ele>
        <time>2018-06-19T09:08:50Z</time>
      </trkpt>
      <trkpt lat="45.96004" lon="4.87656">
        <ele>290</ele>
        <time>2018-06-19T09:08:51Z</time>
      </trkpt>
      <trkpt lat="45.96008" lon="4.87652">
        <ele>289</ele>
        <time>2018-06-19T09:08:52Z</time>
      </trkpt>
      <trkpt lat="45.96011" lon="4.87645">
        <ele>289</ele>
        <time>2018-06-19T09:08:53Z</time>
      </trkpt>
      <trkpt lat="45.96015" lon="4.8764">
        <ele>289</ele>
        <time>2018-06-19T09:08:54Z</time>
      </trkpt>
      <trkpt lat="45.9602" lon="4.87635">
        <ele>289</ele>
        <time>2018-06-19T09:08:55Z</time>
      </trkpt>
      <trkpt lat="45.96024" lon="4.87632">
        <ele>289</ele>
        <time>2018-06-19T09:08:56Z</time>
      </trkpt>
      <trkpt lat="45.96028" lon="4.87629">
        <ele>289</ele>
        <time>2018-06-19T09:08:57Z</time>
      </trkpt>
      <trkpt lat="45.96035" lon="4.87623">
        <ele>289</ele>
        <time>2018-06-19T09:08:59Z</time>
      </trkpt>
      <trkpt lat="45.96038" lon="4.87619">
        <ele>289</ele>
        <time>2018-06-19T09:09:00Z</time>
      </trkpt>
      <trkpt lat="45.96042" lon="4.87615">
        <ele>289</ele>
        <time>2018-06-19T09:09:01Z</time>
      </trkpt>
      <trkpt lat="45.96046" lon="4.87611">
        <ele>289</ele>
        <time>2018-06-19T09:09:02Z</time>
      </trkpt>
      <trkpt lat="45.9605" lon="4.87607">
        <ele>289</ele>
        <time>2018-06-19T09:09:03Z</time>
      </trkpt>
      <trkpt lat="45.96054" lon="4.87602">
        <ele>289</ele>
        <time>2018-06-19T09:09:04Z</time>
      </trkpt>
      <trkpt lat="45.96061" lon="4.87594">
        <ele>288</ele>
        <time>2018-06-19T09:09:06Z</time>
      </trkpt>
      <trkpt lat="45.96065" lon="4.8759">
        <ele>288</ele>
        <time>2018-06-19T09:09:07Z</time>
      </trkpt>
      <trkpt lat="45.96069" lon="4.87586">
        <ele>288</ele>
        <time>2018-06-19T09:09:08Z</time>
      </trkpt>
      <trkpt lat="45.96073" lon="4.87581">
        <ele>288</ele>
        <time>2018-06-19T09:09:09Z</time>
      </trkpt>
      <trkpt lat="45.96077" lon="4.87577">
        <ele>288</ele>
        <time>2018-06-19T09:09:10Z</time>
      </trkpt>
      <trkpt lat="45.96082" lon="4.87572">
        <ele>288</ele>
        <time>2018-06-19T09:09:11Z</time>
      </trkpt>
      <trkpt lat="45.96087" lon="4.87567">
        <ele>287</ele>
        <time>2018-06-19T09:09:12Z</time>
      </trkpt>
      <trkpt lat="45.96091" lon="4.87562">
        <ele>287</ele>
        <time>2018-06-19T09:09:13Z</time>
      </trkpt>
      <trkpt lat="45.96095" lon="4.87557">
        <ele>287</ele>
        <time>2018-06-19T09:09:14Z</time>
      </trkpt>
      <trkpt lat="45.96099" lon="4.87551">
        <ele>287</ele>
        <time>2018-06-19T09:09:15Z</time>
      </trkpt>
      <trkpt lat="45.96103" lon="4.87546">
        <ele>287</ele>
        <time>2018-06-19T09:09:16Z</time>
      </trkpt>
      <trkpt lat="45.96108" lon="4.8754">
        <ele>287</ele>
        <time>2018-06-19T09:09:17Z</time>
      </trkpt>
      <trkpt lat="45.96112" lon="4.87534">
        <ele>287</ele>
        <time>2018-06-19T09:09:18Z</time>
      </trkpt>
      <trkpt lat="45.96117" lon="4.8753">
        <ele>287</ele>
        <time>2018-06-19T09:09:19Z</time>
      </trkpt>
      <trkpt lat="45.96122" lon="4.87525">
        <ele>286</ele>
        <time>2018-06-19T09:09:20Z</time>
      </trkpt>
      <trkpt lat="45.96127" lon="4.87521">
        <ele>286</ele>
        <time>2018-06-19T09:09:21Z</time>
      </trkpt>
      <trkpt lat="45.96132" lon="4.87512">
        <ele>286</ele>
        <time>2018-06-19T09:09:22Z</time>
      </trkpt>
      <trkpt lat="45.96136" lon="4.87508">
        <ele>286</ele>
        <time>2018-06-19T09:09:23Z</time>
      </trkpt>
      <trkpt lat="45.9614" lon="4.87501">
        <ele>286</ele>
        <time>2018-06-19T09:09:24Z</time>
      </trkpt>
      <trkpt lat="45.96145" lon="4.87499">
        <ele>285</ele>
        <time>2018-06-19T09:09:25Z</time>
      </trkpt>
      <trkpt lat="45.96149" lon="4.87493">
        <ele>285</ele>
        <time>2018-06-19T09:09:26Z</time>
      </trkpt>
      <trkpt lat="45.96154" lon="4.87488">
        <ele>285</ele>
        <time>2018-06-19T09:09:27Z</time>
      </trkpt>
      <trkpt lat="45.96159" lon="4.87483">
        <ele>285</ele>
        <time>2018-06-19T09:09:28Z</time>
      </trkpt>
      <trkpt lat="45.96163" lon="4.87478">
        <ele>285</ele>
        <time>2018-06-19T09:09:29Z</time>
      </trkpt>
      <trkpt lat="45.96168" lon="4.87474">
        <ele>284</ele>
        <time>2018-06-19T09:09:30Z</time>
      </trkpt>
      <trkpt lat="45.96173" lon="4.87468">
        <ele>284</ele>
        <time>2018-06-19T09:09:31Z</time>
      </trkpt>
      <trkpt lat="45.96178" lon="4.87463">
        <ele>284</ele>
        <time>2018-06-19T09:09:32Z</time>
      </trkpt>
      <trkpt lat="45.96183" lon="4.87456">
        <ele>284</ele>
        <time>2018-06-19T09:09:33Z</time>
      </trkpt>
      <trkpt lat="45.96188" lon="4.87451">
        <ele>284</ele>
        <time>2018-06-19T09:09:34Z</time>
      </trkpt>
      <trkpt lat="45.96192" lon="4.87446">
        <ele>284</ele>
        <time>2018-06-19T09:09:35Z</time>
      </trkpt>
      <trkpt lat="45.96197" lon="4.8744">
        <ele>284</ele>
        <time>2018-06-19T09:09:36Z</time>
      </trkpt>
      <trkpt lat="45.96201" lon="4.87434">
        <ele>284</ele>
        <time>2018-06-19T09:09:37Z</time>
      </trkpt>
      <trkpt lat="45.96206" lon="4.87428">
        <ele>284</ele>
        <time>2018-06-19T09:09:38Z</time>
      </trkpt>
      <trkpt lat="45.96211" lon="4.87423">
        <ele>284</ele>
        <time>2018-06-19T09:09:39Z</time>
      </trkpt>
      <trkpt lat="45.96215" lon="4.87417">
        <ele>284</ele>
        <time>2018-06-19T09:09:40Z</time>
      </trkpt>
      <trkpt lat="45.9622" lon="4.87411">
        <ele>283</ele>
        <time>2018-06-19T09:09:41Z</time>
      </trkpt>
      <trkpt lat="45.96226" lon="4.87404">
        <ele>283</ele>
        <time>2018-06-19T09:09:42Z</time>
      </trkpt>
      <trkpt lat="45.96231" lon="4.87398">
        <ele>283</ele>
        <time>2018-06-19T09:09:43Z</time>
      </trkpt>
      <trkpt lat="45.96235" lon="4.87392">
        <ele>283</ele>
        <time>2018-06-19T09:09:44Z</time>
      </trkpt>
      <trkpt lat="45.96241" lon="4.87388">
        <ele>283</ele>
        <time>2018-06-19T09:09:45Z</time>
      </trkpt>
      <trkpt lat="45.96246" lon="4.87382">
        <ele>283</ele>
        <time>2018-06-19T09:09:46Z</time>
      </trkpt>
      <trkpt lat="45.96251" lon="4.87377">
        <ele>283</ele>
        <time>2018-06-19T09:09:47Z</time>
      </trkpt>
      <trkpt lat="45.96255" lon="4.87372">
        <ele>283</ele>
        <time>2018-06-19T09:09:48Z</time>
      </trkpt>
      <trkpt lat="45.96259" lon="4.87367">
        <ele>283</ele>
        <time>2018-06-19T09:09:49Z</time>
      </trkpt>
      <trkpt lat="45.96264" lon="4.87361">
        <ele>283</ele>
        <time>2018-06-19T09:09:50Z</time>
      </trkpt>
      <trkpt lat="45.96268" lon="4.87356">
        <ele>283</ele>
        <time>2018-06-19T09:09:51Z</time>
      </trkpt>
      <trkpt lat="45.96273" lon="4.8735">
        <ele>283</ele>
        <time>2018-06-19T09:09:52Z</time>
      </trkpt>
      <trkpt lat="45.96277" lon="4.87345">
        <ele>284</ele>
        <time>2018-06-19T09:09:53Z</time>
      </trkpt>
      <trkpt lat="45.96281" lon="4.8734">
        <ele>284</ele>
        <time>2018-06-19T09:09:54Z</time>
      </trkpt>
      <trkpt lat="45.96285" lon="4.87334">
        <ele>284</ele>
        <time>2018-06-19T09:09:55Z</time>
      </trkpt>
      <trkpt lat="45.96289" lon="4.87329">
        <ele>283</ele>
        <time>2018-06-19T09:09:56Z</time>
      </trkpt>
      <trkpt lat="45.96294" lon="4.87322">
        <ele>283</ele>
        <time>2018-06-19T09:09:57Z</time>
      </trkpt>
      <trkpt lat="45.96297" lon="4.87317">
        <ele>283</ele>
        <time>2018-06-19T09:09:58Z</time>
      </trkpt>
      <trkpt lat="45.96301" lon="4.87312">
        <ele>283</ele>
        <time>2018-06-19T09:09:59Z</time>
      </trkpt>
      <trkpt lat="45.96304" lon="4.87306">
        <ele>283</ele>
        <time>2018-06-19T09:10:00Z</time>
      </trkpt>
      <trkpt lat="45.96308" lon="4.87301">
        <ele>283</ele>
        <time>2018-06-19T09:10:01Z</time>
      </trkpt>
      <trkpt lat="45.96314" lon="4.87292">
        <ele>283</ele>
        <time>2018-06-19T09:10:03Z</time>
      </trkpt>
      <trkpt lat="45.96317" lon="4.87288">
        <ele>283</ele>
        <time>2018-06-19T09:10:04Z</time>
      </trkpt>
      <trkpt lat="45.96321" lon="4.87284">
        <ele>283</ele>
        <time>2018-06-19T09:10:05Z</time>
      </trkpt>
      <trkpt lat="45.96325" lon="4.87278">
        <ele>283</ele>
        <time>2018-06-19T09:10:06Z</time>
      </trkpt>
      <trkpt lat="45.96329" lon="4.87274">
        <ele>283</ele>
        <time>2018-06-19T09:10:07Z</time>
      </trkpt>
      <trkpt lat="45.96334" lon="4.87269">
        <ele>283</ele>
        <time>2018-06-19T09:10:08Z</time>
      </trkpt>
      <trkpt lat="45.96339" lon="4.87263">
        <ele>283</ele>
        <time>2018-06-19T09:10:09Z</time>
      </trkpt>
      <trkpt lat="45.96342" lon="4.87257">
        <ele>283</ele>
        <time>2018-06-19T09:10:10Z</time>
      </trkpt>
      <trkpt lat="45.96346" lon="4.87251">
        <ele>283</ele>
        <time>2018-06-19T09:10:11Z</time>
      </trkpt>
      <trkpt lat="45.9635" lon="4.87249">
        <ele>283</ele>
        <time>2018-06-19T09:10:12Z</time>
      </trkpt>
      <trkpt lat="45.96355" lon="4.87243">
        <ele>282</ele>
        <time>2018-06-19T09:10:13Z</time>
      </trkpt>
      <trkpt lat="45.96358" lon="4.87238">
        <ele>282</ele>
        <time>2018-06-19T09:10:14Z</time>
      </trkpt>
      <trkpt lat="45.96361" lon="4.87232">
        <ele>282</ele>
        <time>2018-06-19T09:10:15Z</time>
      </trkpt>
      <trkpt lat="45.96365" lon="4.87226">
        <ele>282</ele>
        <time>2018-06-19T09:10:16Z</time>
      </trkpt>
      <trkpt lat="45.96369" lon="4.8722">
        <ele>282</ele>
        <time>2018-06-19T09:10:17Z</time>
      </trkpt>
      <trkpt lat="45.96373" lon="4.87216">
        <ele>282</ele>
        <time>2018-06-19T09:10:18Z</time>
      </trkpt>
      <trkpt lat="45.96377" lon="4.87211">
        <ele>282</ele>
        <time>2018-06-19T09:10:19Z</time>
      </trkpt>
      <trkpt lat="45.96381" lon="4.87207">
        <ele>282</ele>
        <time>2018-06-19T09:10:20Z</time>
      </trkpt>
      <trkpt lat="45.96387" lon="4.87197">
        <ele>282</ele>
        <time>2018-06-19T09:10:22Z</time>
      </trkpt>
      <trkpt lat="45.96392" lon="4.87186">
        <ele>282</ele>
        <time>2018-06-19T09:10:23Z</time>
      </trkpt>
      <trkpt lat="45.96396" lon="4.87181">
        <ele>282</ele>
        <time>2018-06-19T09:10:24Z</time>
      </trkpt>
      <trkpt lat="45.964" lon="4.87174">
        <ele>282</ele>
        <time>2018-06-19T09:10:25Z</time>
      </trkpt>
      <trkpt lat="45.96406" lon="4.87168">
        <ele>281</ele>
        <time>2018-06-19T09:10:26Z</time>
      </trkpt>
      <trkpt lat="45.9641" lon="4.87162">
        <ele>281</ele>
        <time>2018-06-19T09:10:27Z</time>
      </trkpt>
      <trkpt lat="45.96415" lon="4.87156">
        <ele>281</ele>
        <time>2018-06-19T09:10:28Z</time>
      </trkpt>
      <trkpt lat="45.96419" lon="4.8715">
        <ele>281</ele>
        <time>2018-06-19T09:10:29Z</time>
      </trkpt>
      <trkpt lat="45.96423" lon="4.87146">
        <ele>281</ele>
        <time>2018-06-19T09:10:30Z</time>
      </trkpt>
      <trkpt lat="45.96427" lon="4.87141">
        <ele>281</ele>
        <time>2018-06-19T09:10:31Z</time>
      </trkpt>
      <trkpt lat="45.96431" lon="4.87136">
        <ele>281</ele>
        <time>2018-06-19T09:10:32Z</time>
      </trkpt>
      <trkpt lat="45.96435" lon="4.87131">
        <ele>281</ele>
        <time>2018-06-19T09:10:33Z</time>
      </trkpt>
      <trkpt lat="45.96439" lon="4.87126">
        <ele>281</ele>
        <time>2018-06-19T09:10:34Z</time>
      </trkpt>
      <trkpt lat="45.96443" lon="4.87122">
        <ele>281</ele>
        <time>2018-06-19T09:10:35Z</time>
      </trkpt>
      <trkpt lat="45.96448" lon="4.87116">
        <ele>281</ele>
        <time>2018-06-19T09:10:36Z</time>
      </trkpt>
      <trkpt lat="45.96452" lon="4.87111">
        <ele>281</ele>
        <time>2018-06-19T09:10:37Z</time>
      </trkpt>
      <trkpt lat="45.96457" lon="4.87103">
        <ele>281</ele>
        <time>2018-06-19T09:10:39Z</time>
      </trkpt>
      <trkpt lat="45.9646" lon="4.87097">
        <ele>282</ele>
        <time>2018-06-19T09:10:40Z</time>
      </trkpt>
      <trkpt lat="45.96464" lon="4.87093">
        <ele>282</ele>
        <time>2018-06-19T09:10:41Z</time>
      </trkpt>
      <trkpt lat="45.96468" lon="4.87088">
        <ele>282</ele>
        <time>2018-06-19T09:10:42Z</time>
      </trkpt>
      <trkpt lat="45.96471" lon="4.87082">
        <ele>281</ele>
        <time>2018-06-19T09:10:43Z</time>
      </trkpt>
      <trkpt lat="45.96475" lon="4.87079">
        <ele>282</ele>
        <time>2018-06-19T09:10:44Z</time>
      </trkpt>
      <trkpt lat="45.96482" lon="4.8707">
        <ele>282</ele>
        <time>2018-06-19T09:10:46Z</time>
      </trkpt>
      <trkpt lat="45.96486" lon="4.87065">
        <ele>282</ele>
        <time>2018-06-19T09:10:47Z</time>
      </trkpt>
      <trkpt lat="45.9649" lon="4.87057">
        <ele>281</ele>
        <time>2018-06-19T09:10:48Z</time>
      </trkpt>
      <trkpt lat="45.96494" lon="4.87052">
        <ele>281</ele>
        <time>2018-06-19T09:10:49Z</time>
      </trkpt>
      <trkpt lat="45.965" lon="4.87044">
        <ele>281</ele>
        <time>2018-06-19T09:10:51Z</time>
      </trkpt>
      <trkpt lat="45.96503" lon="4.87041">
        <ele>282</ele>
        <time>2018-06-19T09:10:52Z</time>
      </trkpt>
      <trkpt lat="45.96511" lon="4.87046">
        <ele>283</ele>
        <time>2018-06-19T09:10:56Z</time>
      </trkpt>
      <trkpt lat="45.96512" lon="4.87049">
        <ele>283</ele>
        <time>2018-06-19T09:10:57Z</time>
      </trkpt>
      <trkpt lat="45.96517" lon="4.87058">
        <ele>283</ele>
        <time>2018-06-19T09:11:00Z</time>
      </trkpt>
      <trkpt lat="45.96519" lon="4.87061">
        <ele>283</ele>
        <time>2018-06-19T09:11:01Z</time>
      </trkpt>
      <trkpt lat="45.96526" lon="4.87065">
        <ele>283</ele>
        <time>2018-06-19T09:11:04Z</time>
      </trkpt>
      <trkpt lat="45.96528" lon="4.87065">
        <ele>283</ele>
        <time>2018-06-19T09:11:05Z</time>
      </trkpt>
      <trkpt lat="45.96536" lon="4.87059">
        <ele>283</ele>
        <time>2018-06-19T09:11:10Z</time>
      </trkpt>
      <trkpt lat="45.96537" lon="4.87058">
        <ele>283</ele>
        <time>2018-06-19T09:11:11Z</time>
      </trkpt>
      <trkpt lat="45.96542" lon="4.87067">
        <ele>283</ele>
        <time>2018-06-19T09:11:20Z</time>
      </trkpt>
      <trkpt lat="45.96543" lon="4.87068">
        <ele>283</ele>
        <time>2018-06-19T09:11:21Z</time>
      </trkpt>
      <trkpt lat="45.96552" lon="4.87069">
        <ele>283</ele>
        <time>2018-06-19T09:11:26Z</time>
      </trkpt>
      <trkpt lat="45.96554" lon="4.87069">
        <ele>283</ele>
        <time>2018-06-19T09:11:27Z</time>
      </trkpt>
      <trkpt lat="45.96559" lon="4.87065">
        <ele>283</ele>
        <time>2018-06-19T09:11:29Z</time>
      </trkpt>
      <trkpt lat="45.96563" lon="4.87056">
        <ele>283</ele>
        <time>2018-06-19T09:11:30Z</time>
      </trkpt>
      <trkpt lat="45.96561" lon="4.87044">
        <ele>283</ele>
        <time>2018-06-19T09:11:33Z</time>
      </trkpt>
      <trkpt lat="45.96559" lon="4.87035">
        <ele>283</ele>
        <time>2018-06-19T09:11:34Z</time>
      </trkpt>
      <trkpt lat="45.96556" lon="4.87027">
        <ele>283</ele>
        <time>2018-06-19T09:11:37Z</time>
      </trkpt>
      <trkpt lat="45.96553" lon="4.87024">
        <ele>283</ele>
        <time>2018-06-19T09:11:38Z</time>
      </trkpt>
      <trkpt lat="45.96546" lon="4.87022">
        <ele>283</ele>
        <time>2018-06-19T09:11:42Z</time>
      </trkpt>
      <trkpt lat="45.96544" lon="4.87023">
        <ele>283</ele>
        <time>2018-06-19T09:11:43Z</time>
      </trkpt>
      <trkpt lat="45.96535" lon="4.87024">
        <ele>283</ele>
        <time>2018-06-19T09:11:47Z</time>
      </trkpt>
      <trkpt lat="45.96533" lon="4.87025">
        <ele>283</ele>
        <time>2018-06-19T09:11:48Z</time>
      </trkpt>
      <trkpt lat="45.96528" lon="4.87026">
        <ele>283</ele>
        <time>2018-06-19T09:12:05Z</time>
      </trkpt>
      <trkpt lat="45.96528" lon="4.87026">
        <ele>283</ele>
        <time>2018-06-19T09:12:06Z</time>
      </trkpt>
      <trkpt lat="45.96529" lon="4.87026">
        <ele>283</ele>
        <time>2018-06-19T09:12:33Z</time>
      </trkpt>
      <trkpt lat="45.96528" lon="4.87026">
        <ele>283</ele>
        <time>2018-06-19T09:12:34Z</time>
      </trkpt>
      <trkpt lat="45.96529" lon="4.87029">
        <ele>283</ele>
        <time>2018-06-19T09:18:31Z</time>
      </trkpt>
      <trkpt lat="45.96529" lon="4.87029">
        <ele>283</ele>
        <time>2018-06-19T09:18:32Z</time>
      </trkpt>
      <trkpt lat="45.96528" lon="4.87028">
        <ele>283</ele>
        <time>2018-06-19T09:19:09Z</time>
      </trkpt>
      <trkpt lat="45.96528" lon="4.87028">
        <ele>283</ele>
        <time>2018-06-19T09:19:10Z</time>
      </trkpt>
      <trkpt lat="45.96535" lon="4.8703">
        <ele>283</ele>
        <time>2018-06-19T09:19:36Z</time>
      </trkpt>
      <trkpt lat="45.96537" lon="4.8703">
        <ele>283</ele>
        <time>2018-06-19T09:19:37Z</time>
      </trkpt>
      <trkpt lat="45.96544" lon="4.87024">
        <ele>283</ele>
        <time>2018-06-19T09:19:42Z</time>
      </trkpt>
      <trkpt lat="45.96545" lon="4.8702">
        <ele>283</ele>
        <time>2018-06-19T09:19:43Z</time>
      </trkpt>
      <trkpt lat="45.96543" lon="4.87008">
        <ele>283</ele>
        <time>2018-06-19T09:19:46Z</time>
      </trkpt>
      <trkpt lat="45.96543" lon="4.87004">
        <ele>283</ele>
        <time>2018-06-19T09:19:47Z</time>
      </trkpt>
      <trkpt lat="45.96545" lon="4.86992">
        <ele>283</ele>
        <time>2018-06-19T09:19:50Z</time>
      </trkpt>
      <trkpt lat="45.96547" lon="4.86989">
        <ele>283</ele>
        <time>2018-06-19T09:19:51Z</time>
      </trkpt>
      <trkpt lat="45.96551" lon="4.86981">
        <ele>283</ele>
        <time>2018-06-19T09:19:53Z</time>
      </trkpt>
      <trkpt lat="45.96553" lon="4.86977">
        <ele>283</ele>
        <time>2018-06-19T09:19:54Z</time>
      </trkpt>
      <trkpt lat="45.96557" lon="4.86969">
        <ele>283</ele>
        <time>2018-06-19T09:19:56Z</time>
      </trkpt>
      <trkpt lat="45.9656" lon="4.86965">
        <ele>283</ele>
        <time>2018-06-19T09:19:57Z</time>
      </trkpt>
      <trkpt lat="45.96564" lon="4.86957">
        <ele>284</ele>
        <time>2018-06-19T09:19:59Z</time>
      </trkpt>
      <trkpt lat="45.96566" lon="4.86953">
        <ele>284</ele>
        <time>2018-06-19T09:20:00Z</time>
      </trkpt>
      <trkpt lat="45.9657" lon="4.86946">
        <ele>284</ele>
        <time>2018-06-19T09:20:02Z</time>
      </trkpt>
      <trkpt lat="45.96572" lon="4.86942">
        <ele>284</ele>
        <time>2018-06-19T09:20:03Z</time>
      </trkpt>
      <trkpt lat="45.96575" lon="4.86938">
        <ele>284</ele>
        <time>2018-06-19T09:20:04Z</time>
      </trkpt>
      <trkpt lat="45.9658" lon="4.86929">
        <ele>284</ele>
        <time>2018-06-19T09:20:05Z</time>
      </trkpt>
      <trkpt lat="45.96584" lon="4.86923">
        <ele>285</ele>
        <time>2018-06-19T09:20:07Z</time>
      </trkpt>
      <trkpt lat="45.96587" lon="4.86917">
        <ele>285</ele>
        <time>2018-06-19T09:20:08Z</time>
      </trkpt>
      <trkpt lat="45.96592" lon="4.86908">
        <ele>286</ele>
        <time>2018-06-19T09:20:10Z</time>
      </trkpt>
      <trkpt lat="45.96593" lon="4.86905">
        <ele>286</ele>
        <time>2018-06-19T09:20:11Z</time>
      </trkpt>
      <trkpt lat="45.96598" lon="4.86897">
        <ele>286</ele>
        <time>2018-06-19T09:20:14Z</time>
      </trkpt>
      <trkpt lat="45.96603" lon="4.86889">
        <ele>287</ele>
        <time>2018-06-19T09:20:15Z</time>
      </trkpt>
      <trkpt lat="45.96607" lon="4.86883">
        <ele>287</ele>
        <time>2018-06-19T09:20:17Z</time>
      </trkpt>
      <trkpt lat="45.9661" lon="4.86878">
        <ele>287</ele>
        <time>2018-06-19T09:20:18Z</time>
      </trkpt>
      <trkpt lat="45.96616" lon="4.86869">
        <ele>287</ele>
        <time>2018-06-19T09:20:20Z</time>
      </trkpt>
      <trkpt lat="45.96618" lon="4.86865">
        <ele>287</ele>
        <time>2018-06-19T09:20:21Z</time>
      </trkpt>
      <trkpt lat="45.96623" lon="4.86857">
        <ele>287</ele>
        <time>2018-06-19T09:20:23Z</time>
      </trkpt>
      <trkpt lat="45.96626" lon="4.86853">
        <ele>287</ele>
        <time>2018-06-19T09:20:24Z</time>
      </trkpt>
      <trkpt lat="45.96631" lon="4.86844">
        <ele>287</ele>
        <time>2018-06-19T09:20:26Z</time>
      </trkpt>
      <trkpt lat="45.96633" lon="4.86839">
        <ele>287</ele>
        <time>2018-06-19T09:20:27Z</time>
      </trkpt>
      <trkpt lat="45.96639" lon="4.8683">
        <ele>288</ele>
        <time>2018-06-19T09:20:29Z</time>
      </trkpt>
      <trkpt lat="45.96642" lon="4.86826">
        <ele>288</ele>
        <time>2018-06-19T09:20:30Z</time>
      </trkpt>
      <trkpt lat="45.96648" lon="4.86817">
        <ele>288</ele>
        <time>2018-06-19T09:20:32Z</time>
      </trkpt>
      <trkpt lat="45.96651" lon="4.86812">
        <ele>288</ele>
        <time>2018-06-19T09:20:33Z</time>
      </trkpt>
      <trkpt lat="45.96654" lon="4.86807">
        <ele>288</ele>
        <time>2018-06-19T09:20:34Z</time>
      </trkpt>
      <trkpt lat="45.96657" lon="4.86802">
        <ele>288</ele>
        <time>2018-06-19T09:20:35Z</time>
      </trkpt>
      <trkpt lat="45.96662" lon="4.86792">
        <ele>288</ele>
        <time>2018-06-19T09:20:37Z</time>
      </trkpt>
      <trkpt lat="45.96665" lon="4.86788">
        <ele>288</ele>
        <time>2018-06-19T09:20:38Z</time>
      </trkpt>
      <trkpt lat="45.9667" lon="4.86779">
        <ele>289</ele>
        <time>2018-06-19T09:20:40Z</time>
      </trkpt>
      <trkpt lat="45.96672" lon="4.86775">
        <ele>289</ele>
        <time>2018-06-19T09:20:41Z</time>
      </trkpt>
      <trkpt lat="45.96678" lon="4.86766">
        <ele>289</ele>
        <time>2018-06-19T09:20:43Z</time>
      </trkpt>
      <trkpt lat="45.9668" lon="4.86761">
        <ele>289</ele>
        <time>2018-06-19T09:20:44Z</time>
      </trkpt>
      <trkpt lat="45.96686" lon="4.86752">
        <ele>289</ele>
        <time>2018-06-19T09:20:46Z</time>
      </trkpt>
      <trkpt lat="45.96689" lon="4.86748">
        <ele>289</ele>
        <time>2018-06-19T09:20:47Z</time>
      </trkpt>
      <trkpt lat="45.96695" lon="4.86739">
        <ele>289</ele>
        <time>2018-06-19T09:20:49Z</time>
      </trkpt>
      <trkpt lat="45.96698" lon="4.86735">
        <ele>289</ele>
        <time>2018-06-19T09:20:50Z</time>
      </trkpt>
      <trkpt lat="45.96701" lon="4.86725">
        <ele>289</ele>
        <time>2018-06-19T09:20:52Z</time>
      </trkpt>
      <trkpt lat="45.96704" lon="4.8672">
        <ele>289</ele>
        <time>2018-06-19T09:20:53Z</time>
      </trkpt>
      <trkpt lat="45.9671" lon="4.86713">
        <ele>289</ele>
        <time>2018-06-19T09:20:55Z</time>
      </trkpt>
      <trkpt lat="45.96711" lon="4.86709">
        <ele>289</ele>
        <time>2018-06-19T09:20:56Z</time>
      </trkpt>
      <trkpt lat="45.96715" lon="4.867">
        <ele>289</ele>
        <time>2018-06-19T09:20:58Z</time>
      </trkpt>
      <trkpt lat="45.96719" lon="4.86693">
        <ele>289</ele>
        <time>2018-06-19T09:20:59Z</time>
      </trkpt>
      <trkpt lat="45.96723" lon="4.86685">
        <ele>289</ele>
        <time>2018-06-19T09:21:01Z</time>
      </trkpt>
      <trkpt lat="45.96726" lon="4.86683">
        <ele>289</ele>
        <time>2018-06-19T09:21:02Z</time>
      </trkpt>
      <trkpt lat="45.96731" lon="4.86673">
        <ele>290</ele>
        <time>2018-06-19T09:21:04Z</time>
      </trkpt>
      <trkpt lat="45.96734" lon="4.86669">
        <ele>290</ele>
        <time>2018-06-19T09:21:05Z</time>
      </trkpt>
      <trkpt lat="45.96739" lon="4.86661">
        <ele>290</ele>
        <time>2018-06-19T09:21:07Z</time>
      </trkpt>
      <trkpt lat="45.96742" lon="4.86657">
        <ele>290</ele>
        <time>2018-06-19T09:21:08Z</time>
      </trkpt>
      <trkpt lat="45.96747" lon="4.86649">
        <ele>290</ele>
        <time>2018-06-19T09:21:10Z</time>
      </trkpt>
      <trkpt lat="45.9675" lon="4.86645">
        <ele>290</ele>
        <time>2018-06-19T09:21:11Z</time>
      </trkpt>
      <trkpt lat="45.96755" lon="4.86638">
        <ele>290</ele>
        <time>2018-06-19T09:21:13Z</time>
      </trkpt>
      <trkpt lat="45.96758" lon="4.86634">
        <ele>290</ele>
        <time>2018-06-19T09:21:14Z</time>
      </trkpt>
      <trkpt lat="45.96763" lon="4.86625">
        <ele>289</ele>
        <time>2018-06-19T09:21:16Z</time>
      </trkpt>
      <trkpt lat="45.96766" lon="4.8662">
        <ele>289</ele>
        <time>2018-06-19T09:21:17Z</time>
      </trkpt>
      <trkpt lat="45.96772" lon="4.86611">
        <ele>289</ele>
        <time>2018-06-19T09:21:19Z</time>
      </trkpt>
      <trkpt lat="45.96775" lon="4.86607">
        <ele>289</ele>
        <time>2018-06-19T09:21:20Z</time>
      </trkpt>
      <trkpt lat="45.96781" lon="4.86598">
        <ele>289</ele>
        <time>2018-06-19T09:21:22Z</time>
      </trkpt>
      <trkpt lat="45.96783" lon="4.86593">
        <ele>289</ele>
        <time>2018-06-19T09:21:23Z</time>
      </trkpt>
      <trkpt lat="45.96788" lon="4.86584">
        <ele>289</ele>
        <time>2018-06-19T09:21:25Z</time>
      </trkpt>
      <trkpt lat="45.96791" lon="4.8658">
        <ele>290</ele>
        <time>2018-06-19T09:21:26Z</time>
      </trkpt>
      <trkpt lat="45.96796" lon="4.86569">
        <ele>290</ele>
        <time>2018-06-19T09:21:28Z</time>
      </trkpt>
      <trkpt lat="45.96799" lon="4.86565">
        <ele>290</ele>
        <time>2018-06-19T09:21:29Z</time>
      </trkpt>
      <trkpt lat="45.96804" lon="4.86556">
        <ele>290</ele>
        <time>2018-06-19T09:21:31Z</time>
      </trkpt>
      <trkpt lat="45.96807" lon="4.86551">
        <ele>290</ele>
        <time>2018-06-19T09:21:32Z</time>
      </trkpt>
      <trkpt lat="45.9681" lon="4.86546">
        <ele>290</ele>
        <time>2018-06-19T09:21:33Z</time>
      </trkpt>
      <trkpt lat="45.96813" lon="4.86541">
        <ele>290</ele>
        <time>2018-06-19T09:21:34Z</time>
      </trkpt>
      <trkpt lat="45.96819" lon="4.86533">
        <ele>290</ele>
        <time>2018-06-19T09:21:36Z</time>
      </trkpt>
      <trkpt lat="45.96821" lon="4.8653">
        <ele>290</ele>
        <time>2018-06-19T09:21:37Z</time>
      </trkpt>
      <trkpt lat="45.96827" lon="4.86522">
        <ele>289</ele>
        <time>2018-06-19T09:21:39Z</time>
      </trkpt>
      <trkpt lat="45.96829" lon="4.86517">
        <ele>289</ele>
        <time>2018-06-19T09:21:40Z</time>
      </trkpt>
      <trkpt lat="45.96833" lon="4.86507">
        <ele>289</ele>
        <time>2018-06-19T09:21:42Z</time>
      </trkpt>
      <trkpt lat="45.96835" lon="4.86502">
        <ele>289</ele>
        <time>2018-06-19T09:21:43Z</time>
      </trkpt>
      <trkpt lat="45.9684" lon="4.86492">
        <ele>289</ele>
        <time>2018-06-19T09:21:45Z</time>
      </trkpt>
      <trkpt lat="45.96841" lon="4.86487">
        <ele>289</ele>
        <time>2018-06-19T09:21:46Z</time>
      </trkpt>
      <trkpt lat="45.96843" lon="4.8648">
        <ele>289</ele>
        <time>2018-06-19T09:21:47Z</time>
      </trkpt>
      <trkpt lat="45.96845" lon="4.86474">
        <ele>289</ele>
        <time>2018-06-19T09:21:48Z</time>
      </trkpt>
      <trkpt lat="45.96849" lon="4.86463">
        <ele>289</ele>
        <time>2018-06-19T09:21:50Z</time>
      </trkpt>
      <trkpt lat="45.9685" lon="4.86457">
        <ele>289</ele>
        <time>2018-06-19T09:21:51Z</time>
      </trkpt>
      <trkpt lat="45.96852" lon="4.8645">
        <ele>289</ele>
        <time>2018-06-19T09:21:52Z</time>
      </trkpt>
      <trkpt lat="45.96853" lon="4.86442">
        <ele>290</ele>
        <time>2018-06-19T09:21:53Z</time>
      </trkpt>
      <trkpt lat="45.96854" lon="4.8643">
        <ele>290</ele>
        <time>2018-06-19T09:21:55Z</time>
      </trkpt>
      <trkpt lat="45.96854" lon="4.86424">
        <ele>290</ele>
        <time>2018-06-19T09:21:56Z</time>
      </trkpt>
      <trkpt lat="45.96856" lon="4.86413">
        <ele>291</ele>
        <time>2018-06-19T09:21:58Z</time>
      </trkpt>
      <trkpt lat="45.96859" lon="4.86406">
        <ele>290</ele>
        <time>2018-06-19T09:21:59Z</time>
      </trkpt>
      <trkpt lat="45.9686" lon="4.86394">
        <ele>290</ele>
        <time>2018-06-19T09:22:01Z</time>
      </trkpt>
      <trkpt lat="45.96861" lon="4.86387">
        <ele>290</ele>
        <time>2018-06-19T09:22:02Z</time>
      </trkpt>
      <trkpt lat="45.96862" lon="4.86381">
        <ele>290</ele>
        <time>2018-06-19T09:22:03Z</time>
      </trkpt>
      <trkpt lat="45.96863" lon="4.86374">
        <ele>290</ele>
        <time>2018-06-19T09:22:04Z</time>
      </trkpt>
      <trkpt lat="45.96864" lon="4.86367">
        <ele>290</ele>
        <time>2018-06-19T09:22:05Z</time>
      </trkpt>
      <trkpt lat="45.96866" lon="4.8636">
        <ele>290</ele>
        <time>2018-06-19T09:22:06Z</time>
      </trkpt>
      <trkpt lat="45.96866" lon="4.86354">
        <ele>290</ele>
        <time>2018-06-19T09:22:07Z</time>
      </trkpt>
      <trkpt lat="45.96867" lon="4.86347">
        <ele>290</ele>
        <time>2018-06-19T09:22:08Z</time>
      </trkpt>
      <trkpt lat="45.96868" lon="4.86341">
        <ele>290</ele>
        <time>2018-06-19T09:22:09Z</time>
      </trkpt>
      <trkpt lat="45.9687" lon="4.86333">
        <ele>289</ele>
        <time>2018-06-19T09:22:10Z</time>
      </trkpt>
      <trkpt lat="45.96871" lon="4.86321">
        <ele>289</ele>
        <time>2018-06-19T09:22:12Z</time>
      </trkpt>
      <trkpt lat="45.96872" lon="4.86315">
        <ele>289</ele>
        <time>2018-06-19T09:22:13Z</time>
      </trkpt>
      <trkpt lat="45.96874" lon="4.86304">
        <ele>289</ele>
        <time>2018-06-19T09:22:15Z</time>
      </trkpt>
      <trkpt lat="45.96874" lon="4.86298">
        <ele>289</ele>
        <time>2018-06-19T09:22:16Z</time>
      </trkpt>
      <trkpt lat="45.96876" lon="4.86285">
        <ele>289</ele>
        <time>2018-06-19T09:22:18Z</time>
      </trkpt>
      <trkpt lat="45.96877" lon="4.86279">
        <ele>289</ele>
        <time>2018-06-19T09:22:19Z</time>
      </trkpt>
      <trkpt lat="45.9688" lon="4.86268">
        <ele>288</ele>
        <time>2018-06-19T09:22:21Z</time>
      </trkpt>
      <trkpt lat="45.96881" lon="4.86262">
        <ele>288</ele>
        <time>2018-06-19T09:22:22Z</time>
      </trkpt>
      <trkpt lat="45.96882" lon="4.86249">
        <ele>288</ele>
        <time>2018-06-19T09:22:24Z</time>
      </trkpt>
      <trkpt lat="45.96883" lon="4.86244">
        <ele>288</ele>
        <time>2018-06-19T09:22:25Z</time>
      </trkpt>
      <trkpt lat="45.96884" lon="4.86237">
        <ele>289</ele>
        <time>2018-06-19T09:22:26Z</time>
      </trkpt>
      <trkpt lat="45.96885" lon="4.86231">
        <ele>289</ele>
        <time>2018-06-19T09:22:27Z</time>
      </trkpt>
      <trkpt lat="45.96886" lon="4.86224">
        <ele>289</ele>
        <time>2018-06-19T09:22:28Z</time>
      </trkpt>
      <trkpt lat="45.96886" lon="4.86217">
        <ele>289</ele>
        <time>2018-06-19T09:22:29Z</time>
      </trkpt>
      <trkpt lat="45.96888" lon="4.8621">
        <ele>289</ele>
        <time>2018-06-19T09:22:30Z</time>
      </trkpt>
      <trkpt lat="45.96889" lon="4.86203">
        <ele>289</ele>
        <time>2018-06-19T09:22:31Z</time>
      </trkpt>
      <trkpt lat="45.96889" lon="4.86195">
        <ele>289</ele>
        <time>2018-06-19T09:22:32Z</time>
      </trkpt>
      <trkpt lat="45.96889" lon="4.86188">
        <ele>289</ele>
        <time>2018-06-19T09:22:33Z</time>
      </trkpt>
      <trkpt lat="45.9689" lon="4.86181">
        <ele>289</ele>
        <time>2018-06-19T09:22:34Z</time>
      </trkpt>
      <trkpt lat="45.96891" lon="4.86174">
        <ele>289</ele>
        <time>2018-06-19T09:22:35Z</time>
      </trkpt>
      <trkpt lat="45.96893" lon="4.86168">
        <ele>289</ele>
        <time>2018-06-19T09:22:36Z</time>
      </trkpt>
      <trkpt lat="45.96894" lon="4.86161">
        <ele>289</ele>
        <time>2018-06-19T09:22:37Z</time>
      </trkpt>
      <trkpt lat="45.96896" lon="4.86154">
        <ele>289</ele>
        <time>2018-06-19T09:22:38Z</time>
      </trkpt>
      <trkpt lat="45.96897" lon="4.86147">
        <ele>289</ele>
        <time>2018-06-19T09:22:39Z</time>
      </trkpt>
      <trkpt lat="45.96897" lon="4.8614">
        <ele>289</ele>
        <time>2018-06-19T09:22:40Z</time>
      </trkpt>
      <trkpt lat="45.96898" lon="4.86132">
        <ele>289</ele>
        <time>2018-06-19T09:22:41Z</time>
      </trkpt>
      <trkpt lat="45.96899" lon="4.86125">
        <ele>289</ele>
        <time>2018-06-19T09:22:42Z</time>
      </trkpt>
      <trkpt lat="45.969" lon="4.86118">
        <ele>289</ele>
        <time>2018-06-19T09:22:43Z</time>
      </trkpt>
      <trkpt lat="45.96901" lon="4.8611">
        <ele>289</ele>
        <time>2018-06-19T09:22:44Z</time>
      </trkpt>
      <trkpt lat="45.96902" lon="4.86103">
        <ele>288</ele>
        <time>2018-06-19T09:22:45Z</time>
      </trkpt>
      <trkpt lat="45.96903" lon="4.86096">
        <ele>288</ele>
        <time>2018-06-19T09:22:46Z</time>
      </trkpt>
      <trkpt lat="45.96904" lon="4.86086">
        <ele>288</ele>
        <time>2018-06-19T09:22:47Z</time>
      </trkpt>
      <trkpt lat="45.96904" lon="4.86077">
        <ele>288</ele>
        <time>2018-06-19T09:22:48Z</time>
      </trkpt>
      <trkpt lat="45.96905" lon="4.86069">
        <ele>288</ele>
        <time>2018-06-19T09:22:49Z</time>
      </trkpt>
      <trkpt lat="45.96906" lon="4.86061">
        <ele>288</ele>
        <time>2018-06-19T09:22:50Z</time>
      </trkpt>
      <trkpt lat="45.96907" lon="4.86052">
        <ele>289</ele>
        <time>2018-06-19T09:22:51Z</time>
      </trkpt>
      <trkpt lat="45.96907" lon="4.86043">
        <ele>289</ele>
        <time>2018-06-19T09:22:52Z</time>
      </trkpt>
      <trkpt lat="45.96909" lon="4.86036">
        <ele>289</ele>
        <time>2018-06-19T09:22:53Z</time>
      </trkpt>
      <trkpt lat="45.96909" lon="4.86029">
        <ele>289</ele>
        <time>2018-06-19T09:22:54Z</time>
      </trkpt>
      <trkpt lat="45.9691" lon="4.86021">
        <ele>289</ele>
        <time>2018-06-19T09:22:55Z</time>
      </trkpt>
      <trkpt lat="45.96911" lon="4.86014">
        <ele>288</ele>
        <time>2018-06-19T09:22:56Z</time>
      </trkpt>
      <trkpt lat="45.96912" lon="4.86006">
        <ele>288</ele>
        <time>2018-06-19T09:22:57Z</time>
      </trkpt>
      <trkpt lat="45.96915" lon="4.85998">
        <ele>288</ele>
        <time>2018-06-19T09:22:58Z</time>
      </trkpt>
      <trkpt lat="45.96916" lon="4.8599">
        <ele>288</ele>
        <time>2018-06-19T09:22:59Z</time>
      </trkpt>
      <trkpt lat="45.96918" lon="4.85984">
        <ele>287</ele>
        <time>2018-06-19T09:23:00Z</time>
      </trkpt>
      <trkpt lat="45.9692" lon="4.85976">
        <ele>287</ele>
        <time>2018-06-19T09:23:01Z</time>
      </trkpt>
      <trkpt lat="45.96922" lon="4.85968">
        <ele>287</ele>
        <time>2018-06-19T09:23:02Z</time>
      </trkpt>
      <trkpt lat="45.96924" lon="4.8596">
        <ele>287</ele>
        <time>2018-06-19T09:23:03Z</time>
      </trkpt>
      <trkpt lat="45.96926" lon="4.85953">
        <ele>287</ele>
        <time>2018-06-19T09:23:04Z</time>
      </trkpt>
      <trkpt lat="45.96928" lon="4.85944">
        <ele>286</ele>
        <time>2018-06-19T09:23:05Z</time>
      </trkpt>
      <trkpt lat="45.96931" lon="4.85936">
        <ele>286</ele>
        <time>2018-06-19T09:23:06Z</time>
      </trkpt>
      <trkpt lat="45.96932" lon="4.85929">
        <ele>286</ele>
        <time>2018-06-19T09:23:07Z</time>
      </trkpt>
      <trkpt lat="45.96935" lon="4.8592">
        <ele>286</ele>
        <time>2018-06-19T09:23:08Z</time>
      </trkpt>
      <trkpt lat="45.96936" lon="4.85911">
        <ele>286</ele>
        <time>2018-06-19T09:23:09Z</time>
      </trkpt>
      <trkpt lat="45.96939" lon="4.85903">
        <ele>285</ele>
        <time>2018-06-19T09:23:10Z</time>
      </trkpt>
      <trkpt lat="45.96941" lon="4.85894">
        <ele>285</ele>
        <time>2018-06-19T09:23:11Z</time>
      </trkpt>
      <trkpt lat="45.96944" lon="4.85886">
        <ele>285</ele>
        <time>2018-06-19T09:23:12Z</time>
      </trkpt>
      <trkpt lat="45.96945" lon="4.85878">
        <ele>285</ele>
        <time>2018-06-19T09:23:13Z</time>
      </trkpt>
      <trkpt lat="45.96948" lon="4.8587">
        <ele>285</ele>
        <time>2018-06-19T09:23:14Z</time>
      </trkpt>
      <trkpt lat="45.96949" lon="4.85862">
        <ele>285</ele>
        <time>2018-06-19T09:23:15Z</time>
      </trkpt>
      <trkpt lat="45.96952" lon="4.85854">
        <ele>285</ele>
        <time>2018-06-19T09:23:16Z</time>
      </trkpt>
      <trkpt lat="45.96954" lon="4.85846">
        <ele>285</ele>
        <time>2018-06-19T09:23:17Z</time>
      </trkpt>
      <trkpt lat="45.96956" lon="4.8584">
        <ele>285</ele>
        <time>2018-06-19T09:23:18Z</time>
      </trkpt>
      <trkpt lat="45.96958" lon="4.85831">
        <ele>285</ele>
        <time>2018-06-19T09:23:19Z</time>
      </trkpt>
      <trkpt lat="45.9696" lon="4.85823">
        <ele>285</ele>
        <time>2018-06-19T09:23:20Z</time>
      </trkpt>
      <trkpt lat="45.96962" lon="4.85814">
        <ele>285</ele>
        <time>2018-06-19T09:23:21Z</time>
      </trkpt>
      <trkpt lat="45.96964" lon="4.85806">
        <ele>285</ele>
        <time>2018-06-19T09:23:22Z</time>
      </trkpt>
      <trkpt lat="45.96966" lon="4.85798">
        <ele>285</ele>
        <time>2018-06-19T09:23:23Z</time>
      </trkpt>
      <trkpt lat="45.96968" lon="4.8579">
        <ele>285</ele>
        <time>2018-06-19T09:23:24Z</time>
      </trkpt>
      <trkpt lat="45.96971" lon="4.85782">
        <ele>285</ele>
        <time>2018-06-19T09:23:25Z</time>
      </trkpt>
      <trkpt lat="45.96973" lon="4.85774">
        <ele>285</ele>
        <time>2018-06-19T09:23:26Z</time>
      </trkpt>
      <trkpt lat="45.96975" lon="4.85765">
        <ele>285</ele>
        <time>2018-06-19T09:23:27Z</time>
      </trkpt>
      <trkpt lat="45.96976" lon="4.85758">
        <ele>285</ele>
        <time>2018-06-19T09:23:28Z</time>
      </trkpt>
      <trkpt lat="45.96978" lon="4.8575">
        <ele>285</ele>
        <time>2018-06-19T09:23:29Z</time>
      </trkpt>
      <trkpt lat="45.96979" lon="4.85743">
        <ele>285</ele>
        <time>2018-06-19T09:23:30Z</time>
      </trkpt>
      <trkpt lat="45.96982" lon="4.85736">
        <ele>285</ele>
        <time>2018-06-19T09:23:31Z</time>
      </trkpt>
      <trkpt lat="45.96983" lon="4.85729">
        <ele>285</ele>
        <time>2018-06-19T09:23:32Z</time>
      </trkpt>
      <trkpt lat="45.96985" lon="4.85722">
        <ele>285</ele>
        <time>2018-06-19T09:23:33Z</time>
      </trkpt>
      <trkpt lat="45.96987" lon="4.85716">
        <ele>285</ele>
        <time>2018-06-19T09:23:34Z</time>
      </trkpt>
      <trkpt lat="45.96989" lon="4.8571">
        <ele>285</ele>
        <time>2018-06-19T09:23:35Z</time>
      </trkpt>
      <trkpt lat="45.96991" lon="4.85703">
        <ele>285</ele>
        <time>2018-06-19T09:23:36Z</time>
      </trkpt>
      <trkpt lat="45.96993" lon="4.85696">
        <ele>285</ele>
        <time>2018-06-19T09:23:37Z</time>
      </trkpt>
      <trkpt lat="45.96994" lon="4.8569">
        <ele>285</ele>
        <time>2018-06-19T09:23:38Z</time>
      </trkpt>
      <trkpt lat="45.96996" lon="4.85683">
        <ele>286</ele>
        <time>2018-06-19T09:23:39Z</time>
      </trkpt>
      <trkpt lat="45.96998" lon="4.85677">
        <ele>286</ele>
        <time>2018-06-19T09:23:40Z</time>
      </trkpt>
      <trkpt lat="45.97" lon="4.85669">
        <ele>286</ele>
        <time>2018-06-19T09:23:41Z</time>
      </trkpt>
      <trkpt lat="45.97002" lon="4.85661">
        <ele>285</ele>
        <time>2018-06-19T09:23:42Z</time>
      </trkpt>
      <trkpt lat="45.97004" lon="4.85655">
        <ele>285</ele>
        <time>2018-06-19T09:23:43Z</time>
      </trkpt>
      <trkpt lat="45.97006" lon="4.85647">
        <ele>285</ele>
        <time>2018-06-19T09:23:44Z</time>
      </trkpt>
      <trkpt lat="45.97006" lon="4.85641">
        <ele>284</ele>
        <time>2018-06-19T09:23:45Z</time>
      </trkpt>
      <trkpt lat="45.97008" lon="4.85632">
        <ele>284</ele>
        <time>2018-06-19T09:23:46Z</time>
      </trkpt>
      <trkpt lat="45.9701" lon="4.85626">
        <ele>284</ele>
        <time>2018-06-19T09:23:47Z</time>
      </trkpt>
      <trkpt lat="45.97012" lon="4.85615">
        <ele>284</ele>
        <time>2018-06-19T09:23:48Z</time>
      </trkpt>
      <trkpt lat="45.97015" lon="4.85606">
        <ele>284</ele>
        <time>2018-06-19T09:23:49Z</time>
      </trkpt>
      <trkpt lat="45.97018" lon="4.85596">
        <ele>284</ele>
        <time>2018-06-19T09:23:50Z</time>
      </trkpt>
      <trkpt lat="45.9702" lon="4.85586">
        <ele>284</ele>
        <time>2018-06-19T09:23:51Z</time>
      </trkpt>
      <trkpt lat="45.97023" lon="4.85577">
        <ele>283</ele>
        <time>2018-06-19T09:23:52Z</time>
      </trkpt>
      <trkpt lat="45.97026" lon="4.85566">
        <ele>283</ele>
        <time>2018-06-19T09:23:53Z</time>
      </trkpt>
      <trkpt lat="45.97029" lon="4.85556">
        <ele>283</ele>
        <time>2018-06-19T09:23:54Z</time>
      </trkpt>
      <trkpt lat="45.97033" lon="4.85546">
        <ele>283</ele>
        <time>2018-06-19T09:23:55Z</time>
      </trkpt>
      <trkpt lat="45.97036" lon="4.85535">
        <ele>282</ele>
        <time>2018-06-19T09:23:56Z</time>
      </trkpt>
      <trkpt lat="45.97039" lon="4.85525">
        <ele>282</ele>
        <time>2018-06-19T09:23:57Z</time>
      </trkpt>
      <trkpt lat="45.97042" lon="4.85515">
        <ele>282</ele>
        <time>2018-06-19T09:23:58Z</time>
      </trkpt>
      <trkpt lat="45.97046" lon="4.85506">
        <ele>282</ele>
        <time>2018-06-19T09:23:59Z</time>
      </trkpt>
      <trkpt lat="45.97049" lon="4.85495">
        <ele>281</ele>
        <time>2018-06-19T09:24:00Z</time>
      </trkpt>
      <trkpt lat="45.97051" lon="4.85485">
        <ele>281</ele>
        <time>2018-06-19T09:24:01Z</time>
      </trkpt>
      <trkpt lat="45.97054" lon="4.85476">
        <ele>281</ele>
        <time>2018-06-19T09:24:02Z</time>
      </trkpt>
      <trkpt lat="45.97057" lon="4.85466">
        <ele>281</ele>
        <time>2018-06-19T09:24:03Z</time>
      </trkpt>
      <trkpt lat="45.9706" lon="4.85458">
        <ele>281</ele>
        <time>2018-06-19T09:24:04Z</time>
      </trkpt>
      <trkpt lat="45.97064" lon="4.8545">
        <ele>281</ele>
        <time>2018-06-19T09:24:05Z</time>
      </trkpt>
      <trkpt lat="45.97066" lon="4.85442">
        <ele>281</ele>
        <time>2018-06-19T09:24:06Z</time>
      </trkpt>
      <trkpt lat="45.97069" lon="4.85433">
        <ele>281</ele>
        <time>2018-06-19T09:24:07Z</time>
      </trkpt>
      <trkpt lat="45.97072" lon="4.85425">
        <ele>281</ele>
        <time>2018-06-19T09:24:08Z</time>
      </trkpt>
      <trkpt lat="45.97074" lon="4.85417">
        <ele>280</ele>
        <time>2018-06-19T09:24:09Z</time>
      </trkpt>
      <trkpt lat="45.97077" lon="4.85408">
        <ele>281</ele>
        <time>2018-06-19T09:24:10Z</time>
      </trkpt>
      <trkpt lat="45.97079" lon="4.854">
        <ele>281</ele>
        <time>2018-06-19T09:24:11Z</time>
      </trkpt>
      <trkpt lat="45.97082" lon="4.85391">
        <ele>281</ele>
        <time>2018-06-19T09:24:12Z</time>
      </trkpt>
      <trkpt lat="45.97084" lon="4.85384">
        <ele>280</ele>
        <time>2018-06-19T09:24:13Z</time>
      </trkpt>
      <trkpt lat="45.97087" lon="4.85376">
        <ele>280</ele>
        <time>2018-06-19T09:24:14Z</time>
      </trkpt>
      <trkpt lat="45.97089" lon="4.85367">
        <ele>280</ele>
        <time>2018-06-19T09:24:15Z</time>
      </trkpt>
      <trkpt lat="45.97091" lon="4.85358">
        <ele>280</ele>
        <time>2018-06-19T09:24:16Z</time>
      </trkpt>
      <trkpt lat="45.97095" lon="4.8535">
        <ele>280</ele>
        <time>2018-06-19T09:24:17Z</time>
      </trkpt>
      <trkpt lat="45.97098" lon="4.85342">
        <ele>280</ele>
        <time>2018-06-19T09:24:18Z</time>
      </trkpt>
      <trkpt lat="45.97101" lon="4.85334">
        <ele>280</ele>
        <time>2018-06-19T09:24:19Z</time>
      </trkpt>
      <trkpt lat="45.97104" lon="4.85324">
        <ele>280</ele>
        <time>2018-06-19T09:24:20Z</time>
      </trkpt>
      <trkpt lat="45.97108" lon="4.85315">
        <ele>280</ele>
        <time>2018-06-19T09:24:21Z</time>
      </trkpt>
      <trkpt lat="45.97111" lon="4.85307">
        <ele>280</ele>
        <time>2018-06-19T09:24:22Z</time>
      </trkpt>
      <trkpt lat="45.97115" lon="4.853">
        <ele>280</ele>
        <time>2018-06-19T09:24:23Z</time>
      </trkpt>
      <trkpt lat="45.97119" lon="4.85293">
        <ele>280</ele>
        <time>2018-06-19T09:24:24Z</time>
      </trkpt>
      <trkpt lat="45.97122" lon="4.85286">
        <ele>280</ele>
        <time>2018-06-19T09:24:25Z</time>
      </trkpt>
      <trkpt lat="45.97125" lon="4.85279">
        <ele>279</ele>
        <time>2018-06-19T09:24:26Z</time>
      </trkpt>
      <trkpt lat="45.97128" lon="4.85274">
        <ele>279</ele>
        <time>2018-06-19T09:24:27Z</time>
      </trkpt>
      <trkpt lat="45.97132" lon="4.8527">
        <ele>279</ele>
        <time>2018-06-19T09:24:28Z</time>
      </trkpt>
      <trkpt lat="45.97135" lon="4.85262">
        <ele>279</ele>
        <time>2018-06-19T09:24:29Z</time>
      </trkpt>
      <trkpt lat="45.97138" lon="4.85254">
        <ele>279</ele>
        <time>2018-06-19T09:24:30Z</time>
      </trkpt>
      <trkpt lat="45.97142" lon="4.85246">
        <ele>279</ele>
        <time>2018-06-19T09:24:31Z</time>
      </trkpt>
      <trkpt lat="45.97146" lon="4.85237">
        <ele>279</ele>
        <time>2018-06-19T09:24:32Z</time>
      </trkpt>
      <trkpt lat="45.97149" lon="4.85229">
        <ele>279</ele>
        <time>2018-06-19T09:24:33Z</time>
      </trkpt>
      <trkpt lat="45.97153" lon="4.85222">
        <ele>279</ele>
        <time>2018-06-19T09:24:34Z</time>
      </trkpt>
      <trkpt lat="45.97157" lon="4.85213">
        <ele>279</ele>
        <time>2018-06-19T09:24:35Z</time>
      </trkpt>
      <trkpt lat="45.9716" lon="4.85204">
        <ele>279</ele>
        <time>2018-06-19T09:24:36Z</time>
      </trkpt>
      <trkpt lat="45.97164" lon="4.85196">
        <ele>279</ele>
        <time>2018-06-19T09:24:37Z</time>
      </trkpt>
      <trkpt lat="45.97168" lon="4.85187">
        <ele>278</ele>
        <time>2018-06-19T09:24:38Z</time>
      </trkpt>
      <trkpt lat="45.97172" lon="4.85179">
        <ele>278</ele>
        <time>2018-06-19T09:24:39Z</time>
      </trkpt>
      <trkpt lat="45.97176" lon="4.85172">
        <ele>278</ele>
        <time>2018-06-19T09:24:40Z</time>
      </trkpt>
      <trkpt lat="45.9718" lon="4.85164">
        <ele>278</ele>
        <time>2018-06-19T09:24:41Z</time>
      </trkpt>
      <trkpt lat="45.97183" lon="4.85157">
        <ele>278</ele>
        <time>2018-06-19T09:24:42Z</time>
      </trkpt>
      <trkpt lat="45.97187" lon="4.8515">
        <ele>278</ele>
        <time>2018-06-19T09:24:43Z</time>
      </trkpt>
      <trkpt lat="45.97191" lon="4.85143">
        <ele>278</ele>
        <time>2018-06-19T09:24:44Z</time>
      </trkpt>
      <trkpt lat="45.97196" lon="4.85137">
        <ele>278</ele>
        <time>2018-06-19T09:24:45Z</time>
      </trkpt>
      <trkpt lat="45.97199" lon="4.85131">
        <ele>278</ele>
        <time>2018-06-19T09:24:46Z</time>
      </trkpt>
      <trkpt lat="45.97202" lon="4.85124">
        <ele>278</ele>
        <time>2018-06-19T09:24:47Z</time>
      </trkpt>
      <trkpt lat="45.97205" lon="4.85117">
        <ele>278</ele>
        <time>2018-06-19T09:24:48Z</time>
      </trkpt>
      <trkpt lat="45.97209" lon="4.85105">
        <ele>278</ele>
        <time>2018-06-19T09:24:49Z</time>
      </trkpt>
      <trkpt lat="45.97212" lon="4.85098">
        <ele>278</ele>
        <time>2018-06-19T09:24:50Z</time>
      </trkpt>
      <trkpt lat="45.97215" lon="4.85092">
        <ele>278</ele>
        <time>2018-06-19T09:24:51Z</time>
      </trkpt>
      <trkpt lat="45.97219" lon="4.85085">
        <ele>278</ele>
        <time>2018-06-19T09:24:52Z</time>
      </trkpt>
      <trkpt lat="45.97222" lon="4.8508">
        <ele>278</ele>
        <time>2018-06-19T09:24:53Z</time>
      </trkpt>
      <trkpt lat="45.97225" lon="4.85072">
        <ele>278</ele>
        <time>2018-06-19T09:24:54Z</time>
      </trkpt>
      <trkpt lat="45.97228" lon="4.85065">
        <ele>278</ele>
        <time>2018-06-19T09:24:55Z</time>
      </trkpt>
      <trkpt lat="45.97231" lon="4.85059">
        <ele>279</ele>
        <time>2018-06-19T09:24:56Z</time>
      </trkpt>
      <trkpt lat="45.97234" lon="4.85052">
        <ele>279</ele>
        <time>2018-06-19T09:24:57Z</time>
      </trkpt>
      <trkpt lat="45.97237" lon="4.85046">
        <ele>279</ele>
        <time>2018-06-19T09:24:58Z</time>
      </trkpt>
      <trkpt lat="45.97241" lon="4.85039">
        <ele>279</ele>
        <time>2018-06-19T09:24:59Z</time>
      </trkpt>
      <trkpt lat="45.97244" lon="4.85033">
        <ele>279</ele>
        <time>2018-06-19T09:25:00Z</time>
      </trkpt>
      <trkpt lat="45.97248" lon="4.85026">
        <ele>279</ele>
        <time>2018-06-19T09:25:01Z</time>
      </trkpt>
      <trkpt lat="45.97251" lon="4.85018">
        <ele>279</ele>
        <time>2018-06-19T09:25:02Z</time>
      </trkpt>
      <trkpt lat="45.97254" lon="4.85012">
        <ele>279</ele>
        <time>2018-06-19T09:25:03Z</time>
      </trkpt>
      <trkpt lat="45.97258" lon="4.85005">
        <ele>279</ele>
        <time>2018-06-19T09:25:04Z</time>
      </trkpt>
      <trkpt lat="45.97261" lon="4.84998">
        <ele>279</ele>
        <time>2018-06-19T09:25:05Z</time>
      </trkpt>
      <trkpt lat="45.97264" lon="4.84991">
        <ele>279</ele>
        <time>2018-06-19T09:25:06Z</time>
      </trkpt>
      <trkpt lat="45.97268" lon="4.84983">
        <ele>279</ele>
        <time>2018-06-19T09:25:07Z</time>
      </trkpt>
      <trkpt lat="45.97271" lon="4.84976">
        <ele>278</ele>
        <time>2018-06-19T09:25:08Z</time>
      </trkpt>
      <trkpt lat="45.97274" lon="4.8497">
        <ele>278</ele>
        <time>2018-06-19T09:25:09Z</time>
      </trkpt>
      <trkpt lat="45.97277" lon="4.84964">
        <ele>278</ele>
        <time>2018-06-19T09:25:10Z</time>
      </trkpt>
      <trkpt lat="45.9728" lon="4.84956">
        <ele>278</ele>
        <time>2018-06-19T09:25:11Z</time>
      </trkpt>
      <trkpt lat="45.97284" lon="4.84949">
        <ele>278</ele>
        <time>2018-06-19T09:25:12Z</time>
      </trkpt>
      <trkpt lat="45.97287" lon="4.84945">
        <ele>278</ele>
        <time>2018-06-19T09:25:13Z</time>
      </trkpt>
      <trkpt lat="45.97291" lon="4.84938">
        <ele>278</ele>
        <time>2018-06-19T09:25:14Z</time>
      </trkpt>
      <trkpt lat="45.97294" lon="4.84931">
        <ele>278</ele>
        <time>2018-06-19T09:25:15Z</time>
      </trkpt>
      <trkpt lat="45.97298" lon="4.84926">
        <ele>278</ele>
        <time>2018-06-19T09:25:16Z</time>
      </trkpt>
      <trkpt lat="45.97302" lon="4.84919">
        <ele>278</ele>
        <time>2018-06-19T09:25:17Z</time>
      </trkpt>
      <trkpt lat="45.97306" lon="4.84912">
        <ele>278</ele>
        <time>2018-06-19T09:25:18Z</time>
      </trkpt>
      <trkpt lat="45.9731" lon="4.84906">
        <ele>278</ele>
        <time>2018-06-19T09:25:19Z</time>
      </trkpt>
      <trkpt lat="45.97314" lon="4.84899">
        <ele>278</ele>
        <time>2018-06-19T09:25:20Z</time>
      </trkpt>
      <trkpt lat="45.97317" lon="4.84896">
        <ele>278</ele>
        <time>2018-06-19T09:25:21Z</time>
      </trkpt>
      <trkpt lat="45.9732" lon="4.84891">
        <ele>278</ele>
        <time>2018-06-19T09:25:22Z</time>
      </trkpt>
      <trkpt lat="45.97324" lon="4.84887">
        <ele>278</ele>
        <time>2018-06-19T09:25:23Z</time>
      </trkpt>
      <trkpt lat="45.97328" lon="4.84877">
        <ele>278</ele>
        <time>2018-06-19T09:25:25Z</time>
      </trkpt>
      <trkpt lat="45.97331" lon="4.8487">
        <ele>278</ele>
        <time>2018-06-19T09:25:26Z</time>
      </trkpt>
      <trkpt lat="45.97336" lon="4.84862">
        <ele>277</ele>
        <time>2018-06-19T09:25:27Z</time>
      </trkpt>
      <trkpt lat="45.97337" lon="4.84854">
        <ele>277</ele>
        <time>2018-06-19T09:25:28Z</time>
      </trkpt>
      <trkpt lat="45.97341" lon="4.84844">
        <ele>277</ele>
        <time>2018-06-19T09:25:29Z</time>
      </trkpt>
      <trkpt lat="45.97344" lon="4.84837">
        <ele>277</ele>
        <time>2018-06-19T09:25:30Z</time>
      </trkpt>
      <trkpt lat="45.97347" lon="4.84829">
        <ele>278</ele>
        <time>2018-06-19T09:25:31Z</time>
      </trkpt>
      <trkpt lat="45.9735" lon="4.84821">
        <ele>278</ele>
        <time>2018-06-19T09:25:32Z</time>
      </trkpt>
      <trkpt lat="45.97355" lon="4.8481">
        <ele>278</ele>
        <time>2018-06-19T09:25:34Z</time>
      </trkpt>
      <trkpt lat="45.97358" lon="4.84804">
        <ele>278</ele>
        <time>2018-06-19T09:25:35Z</time>
      </trkpt>
      <trkpt lat="45.97363" lon="4.84795">
        <ele>278</ele>
        <time>2018-06-19T09:25:37Z</time>
      </trkpt>
      <trkpt lat="45.97367" lon="4.84781">
        <ele>278</ele>
        <time>2018-06-19T09:25:38Z</time>
      </trkpt>
      <trkpt lat="45.97371" lon="4.84773">
        <ele>278</ele>
        <time>2018-06-19T09:25:39Z</time>
      </trkpt>
      <trkpt lat="45.97375" lon="4.84766">
        <ele>278</ele>
        <time>2018-06-19T09:25:40Z</time>
      </trkpt>
      <trkpt lat="45.97378" lon="4.84758">
        <ele>278</ele>
        <time>2018-06-19T09:25:41Z</time>
      </trkpt>
      <trkpt lat="45.9738" lon="4.8475">
        <ele>278</ele>
        <time>2018-06-19T09:25:42Z</time>
      </trkpt>
      <trkpt lat="45.97382" lon="4.84744">
        <ele>278</ele>
        <time>2018-06-19T09:25:43Z</time>
      </trkpt>
      <trkpt lat="45.97385" lon="4.84738">
        <ele>278</ele>
        <time>2018-06-19T09:25:44Z</time>
      </trkpt>
      <trkpt lat="45.97389" lon="4.84731">
        <ele>278</ele>
        <time>2018-06-19T09:25:45Z</time>
      </trkpt>
      <trkpt lat="45.97393" lon="4.84727">
        <ele>278</ele>
        <time>2018-06-19T09:25:46Z</time>
      </trkpt>
      <trkpt lat="45.974" lon="4.8472">
        <ele>278</ele>
        <time>2018-06-19T09:25:48Z</time>
      </trkpt>
      <trkpt lat="45.97404" lon="4.84718">
        <ele>278</ele>
        <time>2018-06-19T09:25:49Z</time>
      </trkpt>
      <trkpt lat="45.97408" lon="4.84714">
        <ele>278</ele>
        <time>2018-06-19T09:25:50Z</time>
      </trkpt>
      <trkpt lat="45.97413" lon="4.8471">
        <ele>278</ele>
        <time>2018-06-19T09:25:51Z</time>
      </trkpt>
      <trkpt lat="45.97419" lon="4.84706">
        <ele>276</ele>
        <time>2018-06-19T09:25:52Z</time>
      </trkpt>
      <trkpt lat="45.97424" lon="4.84703">
        <ele>276</ele>
        <time>2018-06-19T09:25:53Z</time>
      </trkpt>
      <trkpt lat="45.97429" lon="4.847">
        <ele>276</ele>
        <time>2018-06-19T09:25:54Z</time>
      </trkpt>
      <trkpt lat="45.97434" lon="4.84697">
        <ele>276</ele>
        <time>2018-06-19T09:25:55Z</time>
      </trkpt>
      <trkpt lat="45.97439" lon="4.84694">
        <ele>276</ele>
        <time>2018-06-19T09:25:56Z</time>
      </trkpt>
      <trkpt lat="45.97444" lon="4.84688">
        <ele>276</ele>
        <time>2018-06-19T09:25:57Z</time>
      </trkpt>
      <trkpt lat="45.97448" lon="4.84684">
        <ele>276</ele>
        <time>2018-06-19T09:25:58Z</time>
      </trkpt>
      <trkpt lat="45.97452" lon="4.8468">
        <ele>276</ele>
        <time>2018-06-19T09:25:59Z</time>
      </trkpt>
      <trkpt lat="45.97457" lon="4.84677">
        <ele>276</ele>
        <time>2018-06-19T09:26:00Z</time>
      </trkpt>
      <trkpt lat="45.97462" lon="4.84674">
        <ele>276</ele>
        <time>2018-06-19T09:26:01Z</time>
      </trkpt>
      <trkpt lat="45.97467" lon="4.84671">
        <ele>276</ele>
        <time>2018-06-19T09:26:02Z</time>
      </trkpt>
      <trkpt lat="45.97472" lon="4.84668">
        <ele>276</ele>
        <time>2018-06-19T09:26:03Z</time>
      </trkpt>
      <trkpt lat="45.97477" lon="4.84664">
        <ele>276</ele>
        <time>2018-06-19T09:26:04Z</time>
      </trkpt>
      <trkpt lat="45.97483" lon="4.84659">
        <ele>276</ele>
        <time>2018-06-19T09:26:05Z</time>
      </trkpt>
      <trkpt lat="45.97489" lon="4.84655">
        <ele>275</ele>
        <time>2018-06-19T09:26:06Z</time>
      </trkpt>
      <trkpt lat="45.97494" lon="4.84652">
        <ele>275</ele>
        <time>2018-06-19T09:26:07Z</time>
      </trkpt>
      <trkpt lat="45.97501" lon="4.8465">
        <ele>275</ele>
        <time>2018-06-19T09:26:08Z</time>
      </trkpt>
      <trkpt lat="45.97506" lon="4.84647">
        <ele>275</ele>
        <time>2018-06-19T09:26:09Z</time>
      </trkpt>
      <trkpt lat="45.97511" lon="4.84645">
        <ele>275</ele>
        <time>2018-06-19T09:26:10Z</time>
      </trkpt>
      <trkpt lat="45.97516" lon="4.84642">
        <ele>275</ele>
        <time>2018-06-19T09:26:11Z</time>
      </trkpt>
      <trkpt lat="45.97522" lon="4.84637">
        <ele>275</ele>
        <time>2018-06-19T09:26:12Z</time>
      </trkpt>
      <trkpt lat="45.97526" lon="4.84632">
        <ele>275</ele>
        <time>2018-06-19T09:26:13Z</time>
      </trkpt>
      <trkpt lat="45.9753" lon="4.84625">
        <ele>275</ele>
        <time>2018-06-19T09:26:14Z</time>
      </trkpt>
      <trkpt lat="45.97535" lon="4.84618">
        <ele>275</ele>
        <time>2018-06-19T09:26:15Z</time>
      </trkpt>
      <trkpt lat="45.9754" lon="4.84615">
        <ele>275</ele>
        <time>2018-06-19T09:26:16Z</time>
      </trkpt>
      <trkpt lat="45.97544" lon="4.84612">
        <ele>274</ele>
        <time>2018-06-19T09:26:17Z</time>
      </trkpt>
      <trkpt lat="45.97549" lon="4.84608">
        <ele>274</ele>
        <time>2018-06-19T09:26:18Z</time>
      </trkpt>
      <trkpt lat="45.97553" lon="4.84604">
        <ele>274</ele>
        <time>2018-06-19T09:26:19Z</time>
      </trkpt>
      <trkpt lat="45.97558" lon="4.846">
        <ele>274</ele>
        <time>2018-06-19T09:26:20Z</time>
      </trkpt>
      <trkpt lat="45.97562" lon="4.84595">
        <ele>274</ele>
        <time>2018-06-19T09:26:21Z</time>
      </trkpt>
      <trkpt lat="45.97566" lon="4.84589">
        <ele>274</ele>
        <time>2018-06-19T09:26:22Z</time>
      </trkpt>
      <trkpt lat="45.97571" lon="4.84585">
        <ele>274</ele>
        <time>2018-06-19T09:26:23Z</time>
      </trkpt>
      <trkpt lat="45.97574" lon="4.84581">
        <ele>274</ele>
        <time>2018-06-19T09:26:24Z</time>
      </trkpt>
      <trkpt lat="45.97578" lon="4.84576">
        <ele>274</ele>
        <time>2018-06-19T09:26:25Z</time>
      </trkpt>
      <trkpt lat="45.97582" lon="4.84572">
        <ele>274</ele>
        <time>2018-06-19T09:26:26Z</time>
      </trkpt>
      <trkpt lat="45.97586" lon="4.84567">
        <ele>274</ele>
        <time>2018-06-19T09:26:27Z</time>
      </trkpt>
      <trkpt lat="45.9759" lon="4.84562">
        <ele>274</ele>
        <time>2018-06-19T09:26:28Z</time>
      </trkpt>
      <trkpt lat="45.97594" lon="4.84555">
        <ele>275</ele>
        <time>2018-06-19T09:26:29Z</time>
      </trkpt>
      <trkpt lat="45.97596" lon="4.8455">
        <ele>275</ele>
        <time>2018-06-19T09:26:30Z</time>
      </trkpt>
      <trkpt lat="45.97601" lon="4.84545">
        <ele>275</ele>
        <time>2018-06-19T09:26:31Z</time>
      </trkpt>
      <trkpt lat="45.97605" lon="4.8454">
        <ele>275</ele>
        <time>2018-06-19T09:26:32Z</time>
      </trkpt>
      <trkpt lat="45.97609" lon="4.84536">
        <ele>275</ele>
        <time>2018-06-19T09:26:33Z</time>
      </trkpt>
      <trkpt lat="45.97613" lon="4.84532">
        <ele>275</ele>
        <time>2018-06-19T09:26:34Z</time>
      </trkpt>
      <trkpt lat="45.97617" lon="4.84529">
        <ele>275</ele>
        <time>2018-06-19T09:26:35Z</time>
      </trkpt>
      <trkpt lat="45.97624" lon="4.8452">
        <ele>275</ele>
        <time>2018-06-19T09:26:37Z</time>
      </trkpt>
      <trkpt lat="45.97628" lon="4.84516">
        <ele>275</ele>
        <time>2018-06-19T09:26:38Z</time>
      </trkpt>
      <trkpt lat="45.97631" lon="4.84512">
        <ele>275</ele>
        <time>2018-06-19T09:26:39Z</time>
      </trkpt>
      <trkpt lat="45.97635" lon="4.84507">
        <ele>275</ele>
        <time>2018-06-19T09:26:40Z</time>
      </trkpt>
      <trkpt lat="45.97638" lon="4.84501">
        <ele>275</ele>
        <time>2018-06-19T09:26:41Z</time>
      </trkpt>
      <trkpt lat="45.97642" lon="4.84497">
        <ele>275</ele>
        <time>2018-06-19T09:26:42Z</time>
      </trkpt>
      <trkpt lat="45.97646" lon="4.84493">
        <ele>275</ele>
        <time>2018-06-19T09:26:43Z</time>
      </trkpt>
      <trkpt lat="45.97651" lon="4.8449">
        <ele>275</ele>
        <time>2018-06-19T09:26:44Z</time>
      </trkpt>
      <trkpt lat="45.97655" lon="4.84486">
        <ele>275</ele>
        <time>2018-06-19T09:26:45Z</time>
      </trkpt>
      <trkpt lat="45.9766" lon="4.84482">
        <ele>276</ele>
        <time>2018-06-19T09:26:46Z</time>
      </trkpt>
      <trkpt lat="45.97664" lon="4.84479">
        <ele>276</ele>
        <time>2018-06-19T09:26:47Z</time>
      </trkpt>
      <trkpt lat="45.97669" lon="4.84475">
        <ele>276</ele>
        <time>2018-06-19T09:26:48Z</time>
      </trkpt>
      <trkpt lat="45.97674" lon="4.84471">
        <ele>276</ele>
        <time>2018-06-19T09:26:49Z</time>
      </trkpt>
      <trkpt lat="45.9768" lon="4.84469">
        <ele>277</ele>
        <time>2018-06-19T09:26:50Z</time>
      </trkpt>
      <trkpt lat="45.97684" lon="4.84466">
        <ele>277</ele>
        <time>2018-06-19T09:26:51Z</time>
      </trkpt>
      <trkpt lat="45.97688" lon="4.84463">
        <ele>277</ele>
        <time>2018-06-19T09:26:52Z</time>
      </trkpt>
      <trkpt lat="45.97693" lon="4.84461">
        <ele>277</ele>
        <time>2018-06-19T09:26:53Z</time>
      </trkpt>
      <trkpt lat="45.97698" lon="4.84459">
        <ele>277</ele>
        <time>2018-06-19T09:26:54Z</time>
      </trkpt>
      <trkpt lat="45.97703" lon="4.84457">
        <ele>277</ele>
        <time>2018-06-19T09:26:55Z</time>
      </trkpt>
      <trkpt lat="45.97708" lon="4.84455">
        <ele>277</ele>
        <time>2018-06-19T09:26:56Z</time>
      </trkpt>
      <trkpt lat="45.97712" lon="4.84453">
        <ele>277</ele>
        <time>2018-06-19T09:26:57Z</time>
      </trkpt>
      <trkpt lat="45.97716" lon="4.84451">
        <ele>277</ele>
        <time>2018-06-19T09:26:58Z</time>
      </trkpt>
      <trkpt lat="45.97722" lon="4.84449">
        <ele>277</ele>
        <time>2018-06-19T09:26:59Z</time>
      </trkpt>
      <trkpt lat="45.97726" lon="4.84448">
        <ele>277</ele>
        <time>2018-06-19T09:27:00Z</time>
      </trkpt>
      <trkpt lat="45.97731" lon="4.84446">
        <ele>277</ele>
        <time>2018-06-19T09:27:01Z</time>
      </trkpt>
      <trkpt lat="45.97736" lon="4.84444">
        <ele>277</ele>
        <time>2018-06-19T09:27:02Z</time>
      </trkpt>
      <trkpt lat="45.97742" lon="4.84443">
        <ele>277</ele>
        <time>2018-06-19T09:27:03Z</time>
      </trkpt>
      <trkpt lat="45.97747" lon="4.84441">
        <ele>277</ele>
        <time>2018-06-19T09:27:04Z</time>
      </trkpt>
      <trkpt lat="45.97752" lon="4.84439">
        <ele>277</ele>
        <time>2018-06-19T09:27:05Z</time>
      </trkpt>
      <trkpt lat="45.97757" lon="4.84438">
        <ele>277</ele>
        <time>2018-06-19T09:27:06Z</time>
      </trkpt>
      <trkpt lat="45.97763" lon="4.84437">
        <ele>277</ele>
        <time>2018-06-19T09:27:07Z</time>
      </trkpt>
      <trkpt lat="45.97768" lon="4.84435">
        <ele>277</ele>
        <time>2018-06-19T09:27:08Z</time>
      </trkpt>
      <trkpt lat="45.97772" lon="4.84432">
        <ele>277</ele>
        <time>2018-06-19T09:27:09Z</time>
      </trkpt>
      <trkpt lat="45.97776" lon="4.8443">
        <ele>277</ele>
        <time>2018-06-19T09:27:10Z</time>
      </trkpt>
      <trkpt lat="45.97782" lon="4.84429">
        <ele>277</ele>
        <time>2018-06-19T09:27:11Z</time>
      </trkpt>
      <trkpt lat="45.97787" lon="4.84426">
        <ele>277</ele>
        <time>2018-06-19T09:27:12Z</time>
      </trkpt>
      <trkpt lat="45.97792" lon="4.84424">
        <ele>277</ele>
        <time>2018-06-19T09:27:13Z</time>
      </trkpt>
      <trkpt lat="45.97799" lon="4.84422">
        <ele>277</ele>
        <time>2018-06-19T09:27:14Z</time>
      </trkpt>
      <trkpt lat="45.97803" lon="4.8442">
        <ele>277</ele>
        <time>2018-06-19T09:27:15Z</time>
      </trkpt>
      <trkpt lat="45.97808" lon="4.84417">
        <ele>277</ele>
        <time>2018-06-19T09:27:16Z</time>
      </trkpt>
      <trkpt lat="45.97813" lon="4.84414">
        <ele>276</ele>
        <time>2018-06-19T09:27:17Z</time>
      </trkpt>
      <trkpt lat="45.97819" lon="4.84411">
        <ele>276</ele>
        <time>2018-06-19T09:27:18Z</time>
      </trkpt>
      <trkpt lat="45.97822" lon="4.84406">
        <ele>276</ele>
        <time>2018-06-19T09:27:19Z</time>
      </trkpt>
      <trkpt lat="45.97826" lon="4.84401">
        <ele>276</ele>
        <time>2018-06-19T09:27:20Z</time>
      </trkpt>
      <trkpt lat="45.9783" lon="4.84398">
        <ele>276</ele>
        <time>2018-06-19T09:27:21Z</time>
      </trkpt>
      <trkpt lat="45.97834" lon="4.84394">
        <ele>276</ele>
        <time>2018-06-19T09:27:22Z</time>
      </trkpt>
      <trkpt lat="45.97839" lon="4.84389">
        <ele>276</ele>
        <time>2018-06-19T09:27:23Z</time>
      </trkpt>
      <trkpt lat="45.97843" lon="4.84385">
        <ele>276</ele>
        <time>2018-06-19T09:27:24Z</time>
      </trkpt>
      <trkpt lat="45.97847" lon="4.84381">
        <ele>276</ele>
        <time>2018-06-19T09:27:25Z</time>
      </trkpt>
      <trkpt lat="45.97851" lon="4.84376">
        <ele>276</ele>
        <time>2018-06-19T09:27:26Z</time>
      </trkpt>
      <trkpt lat="45.97854" lon="4.84371">
        <ele>276</ele>
        <time>2018-06-19T09:27:27Z</time>
      </trkpt>
      <trkpt lat="45.97858" lon="4.84366">
        <ele>276</ele>
        <time>2018-06-19T09:27:28Z</time>
      </trkpt>
      <trkpt lat="45.97862" lon="4.84361">
        <ele>276</ele>
        <time>2018-06-19T09:27:29Z</time>
      </trkpt>
      <trkpt lat="45.97866" lon="4.84357">
        <ele>276</ele>
        <time>2018-06-19T09:27:30Z</time>
      </trkpt>
      <trkpt lat="45.97869" lon="4.84351">
        <ele>276</ele>
        <time>2018-06-19T09:27:31Z</time>
      </trkpt>
      <trkpt lat="45.97872" lon="4.84345">
        <ele>276</ele>
        <time>2018-06-19T09:27:32Z</time>
      </trkpt>
      <trkpt lat="45.97877" lon="4.84341">
        <ele>275</ele>
        <time>2018-06-19T09:27:33Z</time>
      </trkpt>
      <trkpt lat="45.9788" lon="4.84336">
        <ele>275</ele>
        <time>2018-06-19T09:27:34Z</time>
      </trkpt>
      <trkpt lat="45.97884" lon="4.8433">
        <ele>275</ele>
        <time>2018-06-19T09:27:35Z</time>
      </trkpt>
      <trkpt lat="45.97887" lon="4.84323">
        <ele>275</ele>
        <time>2018-06-19T09:27:36Z</time>
      </trkpt>
      <trkpt lat="45.97891" lon="4.84318">
        <ele>275</ele>
        <time>2018-06-19T09:27:37Z</time>
      </trkpt>
      <trkpt lat="45.97895" lon="4.84312">
        <ele>275</ele>
        <time>2018-06-19T09:27:38Z</time>
      </trkpt>
      <trkpt lat="45.97898" lon="4.84305">
        <ele>275</ele>
        <time>2018-06-19T09:27:39Z</time>
      </trkpt>
      <trkpt lat="45.97902" lon="4.843">
        <ele>275</ele>
        <time>2018-06-19T09:27:40Z</time>
      </trkpt>
      <trkpt lat="45.97906" lon="4.84293">
        <ele>275</ele>
        <time>2018-06-19T09:27:41Z</time>
      </trkpt>
      <trkpt lat="45.9791" lon="4.84287">
        <ele>275</ele>
        <time>2018-06-19T09:27:42Z</time>
      </trkpt>
      <trkpt lat="45.97915" lon="4.84282">
        <ele>275</ele>
        <time>2018-06-19T09:27:43Z</time>
      </trkpt>
      <trkpt lat="45.97918" lon="4.84277">
        <ele>275</ele>
        <time>2018-06-19T09:27:44Z</time>
      </trkpt>
      <trkpt lat="45.97923" lon="4.84271">
        <ele>275</ele>
        <time>2018-06-19T09:27:45Z</time>
      </trkpt>
      <trkpt lat="45.97927" lon="4.84265">
        <ele>275</ele>
        <time>2018-06-19T09:27:46Z</time>
      </trkpt>
      <trkpt lat="45.97931" lon="4.84262">
        <ele>275</ele>
        <time>2018-06-19T09:27:47Z</time>
      </trkpt>
      <trkpt lat="45.97935" lon="4.84257">
        <ele>275</ele>
        <time>2018-06-19T09:27:48Z</time>
      </trkpt>
      <trkpt lat="45.9794" lon="4.84251">
        <ele>275</ele>
        <time>2018-06-19T09:27:49Z</time>
      </trkpt>
      <trkpt lat="45.97944" lon="4.84247">
        <ele>275</ele>
        <time>2018-06-19T09:27:50Z</time>
      </trkpt>
      <trkpt lat="45.97948" lon="4.84244">
        <ele>275</ele>
        <time>2018-06-19T09:27:51Z</time>
      </trkpt>
      <trkpt lat="45.97952" lon="4.8424">
        <ele>275</ele>
        <time>2018-06-19T09:27:52Z</time>
      </trkpt>
      <trkpt lat="45.97957" lon="4.84237">
        <ele>275</ele>
        <time>2018-06-19T09:27:53Z</time>
      </trkpt>
      <trkpt lat="45.97961" lon="4.84232">
        <ele>274</ele>
        <time>2018-06-19T09:27:54Z</time>
      </trkpt>
      <trkpt lat="45.97967" lon="4.84225">
        <ele>274</ele>
        <time>2018-06-19T09:27:57Z</time>
      </trkpt>
      <trkpt lat="45.97972" lon="4.84221">
        <ele>274</ele>
        <time>2018-06-19T09:27:58Z</time>
      </trkpt>
      <trkpt lat="45.97976" lon="4.84216">
        <ele>274</ele>
        <time>2018-06-19T09:27:59Z</time>
      </trkpt>
      <trkpt lat="45.97983" lon="4.84213">
        <ele>274</ele>
        <time>2018-06-19T09:28:00Z</time>
      </trkpt>
      <trkpt lat="45.97988" lon="4.84209">
        <ele>274</ele>
        <time>2018-06-19T09:28:01Z</time>
      </trkpt>
      <trkpt lat="45.97993" lon="4.84204">
        <ele>274</ele>
        <time>2018-06-19T09:28:02Z</time>
      </trkpt>
      <trkpt lat="45.97996" lon="4.84201">
        <ele>274</ele>
        <time>2018-06-19T09:28:03Z</time>
      </trkpt>
      <trkpt lat="45.98002" lon="4.84197">
        <ele>274</ele>
        <time>2018-06-19T09:28:04Z</time>
      </trkpt>
      <trkpt lat="45.98006" lon="4.84193">
        <ele>274</ele>
        <time>2018-06-19T09:28:05Z</time>
      </trkpt>
      <trkpt lat="45.98011" lon="4.84189">
        <ele>274</ele>
        <time>2018-06-19T09:28:06Z</time>
      </trkpt>
      <trkpt lat="45.98016" lon="4.84184">
        <ele>274</ele>
        <time>2018-06-19T09:28:07Z</time>
      </trkpt>
      <trkpt lat="45.9802" lon="4.8418">
        <ele>274</ele>
        <time>2018-06-19T09:28:08Z</time>
      </trkpt>
      <trkpt lat="45.98025" lon="4.84176">
        <ele>274</ele>
        <time>2018-06-19T09:28:09Z</time>
      </trkpt>
      <trkpt lat="45.98029" lon="4.84171">
        <ele>274</ele>
        <time>2018-06-19T09:28:10Z</time>
      </trkpt>
      <trkpt lat="45.98034" lon="4.84166">
        <ele>273</ele>
        <time>2018-06-19T09:28:11Z</time>
      </trkpt>
      <trkpt lat="45.98039" lon="4.84162">
        <ele>273</ele>
        <time>2018-06-19T09:28:12Z</time>
      </trkpt>
      <trkpt lat="45.98043" lon="4.84158">
        <ele>273</ele>
        <time>2018-06-19T09:28:13Z</time>
      </trkpt>
      <trkpt lat="45.98047" lon="4.84153">
        <ele>273</ele>
        <time>2018-06-19T09:28:14Z</time>
      </trkpt>
      <trkpt lat="45.98051" lon="4.84147">
        <ele>273</ele>
        <time>2018-06-19T09:28:15Z</time>
      </trkpt>
      <trkpt lat="45.98056" lon="4.84143">
        <ele>273</ele>
        <time>2018-06-19T09:28:16Z</time>
      </trkpt>
      <trkpt lat="45.98061" lon="4.84139">
        <ele>273</ele>
        <time>2018-06-19T09:28:17Z</time>
      </trkpt>
      <trkpt lat="45.98065" lon="4.84135">
        <ele>273</ele>
        <time>2018-06-19T09:28:18Z</time>
      </trkpt>
      <trkpt lat="45.98069" lon="4.84131">
        <ele>273</ele>
        <time>2018-06-19T09:28:19Z</time>
      </trkpt>
      <trkpt lat="45.98073" lon="4.84127">
        <ele>273</ele>
        <time>2018-06-19T09:28:20Z</time>
      </trkpt>
      <trkpt lat="45.98078" lon="4.84123">
        <ele>273</ele>
        <time>2018-06-19T09:28:21Z</time>
      </trkpt>
      <trkpt lat="45.98083" lon="4.84119">
        <ele>273</ele>
        <time>2018-06-19T09:28:22Z</time>
      </trkpt>
      <trkpt lat="45.98087" lon="4.84115">
        <ele>273</ele>
        <time>2018-06-19T09:28:23Z</time>
      </trkpt>
      <trkpt lat="45.98092" lon="4.84111">
        <ele>273</ele>
        <time>2018-06-19T09:28:24Z</time>
      </trkpt>
      <trkpt lat="45.98096" lon="4.84107">
        <ele>273</ele>
        <time>2018-06-19T09:28:25Z</time>
      </trkpt>
      <trkpt lat="45.981" lon="4.84103">
        <ele>273</ele>
        <time>2018-06-19T09:28:26Z</time>
      </trkpt>
      <trkpt lat="45.98105" lon="4.84099">
        <ele>273</ele>
        <time>2018-06-19T09:28:27Z</time>
      </trkpt>
      <trkpt lat="45.9811" lon="4.84095">
        <ele>273</ele>
        <time>2018-06-19T09:28:28Z</time>
      </trkpt>
      <trkpt lat="45.98114" lon="4.84091">
        <ele>273</ele>
        <time>2018-06-19T09:28:29Z</time>
      </trkpt>
      <trkpt lat="45.98119" lon="4.84086">
        <ele>273</ele>
        <time>2018-06-19T09:28:30Z</time>
      </trkpt>
      <trkpt lat="45.98124" lon="4.84081">
        <ele>273</ele>
        <time>2018-06-19T09:28:31Z</time>
      </trkpt>
      <trkpt lat="45.98128" lon="4.84076">
        <ele>273</ele>
        <time>2018-06-19T09:28:32Z</time>
      </trkpt>
      <trkpt lat="45.98132" lon="4.8407">
        <ele>273</ele>
        <time>2018-06-19T09:28:33Z</time>
      </trkpt>
      <trkpt lat="45.98136" lon="4.84064">
        <ele>273</ele>
        <time>2018-06-19T09:28:34Z</time>
      </trkpt>
      <trkpt lat="45.9814" lon="4.84058">
        <ele>273</ele>
        <time>2018-06-19T09:28:35Z</time>
      </trkpt>
      <trkpt lat="45.98145" lon="4.84052">
        <ele>273</ele>
        <time>2018-06-19T09:28:36Z</time>
      </trkpt>
      <trkpt lat="45.98149" lon="4.84044">
        <ele>273</ele>
        <time>2018-06-19T09:28:37Z</time>
      </trkpt>
      <trkpt lat="45.98153" lon="4.84039">
        <ele>273</ele>
        <time>2018-06-19T09:28:38Z</time>
      </trkpt>
      <trkpt lat="45.98158" lon="4.84032">
        <ele>273</ele>
        <time>2018-06-19T09:28:39Z</time>
      </trkpt>
      <trkpt lat="45.98162" lon="4.84025">
        <ele>273</ele>
        <time>2018-06-19T09:28:40Z</time>
      </trkpt>
      <trkpt lat="45.98165" lon="4.84018">
        <ele>273</ele>
        <time>2018-06-19T09:28:41Z</time>
      </trkpt>
      <trkpt lat="45.98168" lon="4.84012">
        <ele>273</ele>
        <time>2018-06-19T09:28:42Z</time>
      </trkpt>
      <trkpt lat="45.98171" lon="4.84005">
        <ele>273</ele>
        <time>2018-06-19T09:28:43Z</time>
      </trkpt>
      <trkpt lat="45.98174" lon="4.83998">
        <ele>273</ele>
        <time>2018-06-19T09:28:44Z</time>
      </trkpt>
      <trkpt lat="45.98178" lon="4.8399">
        <ele>273</ele>
        <time>2018-06-19T09:28:45Z</time>
      </trkpt>
      <trkpt lat="45.9818" lon="4.83983">
        <ele>273</ele>
        <time>2018-06-19T09:28:46Z</time>
      </trkpt>
      <trkpt lat="45.98182" lon="4.83976">
        <ele>273</ele>
        <time>2018-06-19T09:28:47Z</time>
      </trkpt>
      <trkpt lat="45.98186" lon="4.8397">
        <ele>273</ele>
        <time>2018-06-19T09:28:48Z</time>
      </trkpt>
      <trkpt lat="45.9819" lon="4.8396">
        <ele>273</ele>
        <time>2018-06-19T09:28:50Z</time>
      </trkpt>
      <trkpt lat="45.98193" lon="4.83951">
        <ele>273</ele>
        <time>2018-06-19T09:28:51Z</time>
      </trkpt>
      <trkpt lat="45.98197" lon="4.83944">
        <ele>273</ele>
        <time>2018-06-19T09:28:52Z</time>
      </trkpt>
      <trkpt lat="45.98199" lon="4.83938">
        <ele>273</ele>
        <time>2018-06-19T09:28:53Z</time>
      </trkpt>
      <trkpt lat="45.98201" lon="4.83931">
        <ele>273</ele>
        <time>2018-06-19T09:28:54Z</time>
      </trkpt>
      <trkpt lat="45.98203" lon="4.83924">
        <ele>273</ele>
        <time>2018-06-19T09:28:55Z</time>
      </trkpt>
      <trkpt lat="45.98205" lon="4.83916">
        <ele>273</ele>
        <time>2018-06-19T09:28:56Z</time>
      </trkpt>
      <trkpt lat="45.98207" lon="4.83909">
        <ele>273</ele>
        <time>2018-06-19T09:28:57Z</time>
      </trkpt>
      <trkpt lat="45.98209" lon="4.83903">
        <ele>273</ele>
        <time>2018-06-19T09:28:58Z</time>
      </trkpt>
      <trkpt lat="45.98212" lon="4.83896">
        <ele>273</ele>
        <time>2018-06-19T09:28:59Z</time>
      </trkpt>
      <trkpt lat="45.98214" lon="4.83889">
        <ele>273</ele>
        <time>2018-06-19T09:29:00Z</time>
      </trkpt>
      <trkpt lat="45.98216" lon="4.83881">
        <ele>272</ele>
        <time>2018-06-19T09:29:01Z</time>
      </trkpt>
      <trkpt lat="45.98221" lon="4.83876">
        <ele>272</ele>
        <time>2018-06-19T09:29:02Z</time>
      </trkpt>
      <trkpt lat="45.98224" lon="4.83868">
        <ele>272</ele>
        <time>2018-06-19T09:29:03Z</time>
      </trkpt>
      <trkpt lat="45.98227" lon="4.83859">
        <ele>272</ele>
        <time>2018-06-19T09:29:04Z</time>
      </trkpt>
      <trkpt lat="45.9823" lon="4.83851">
        <ele>272</ele>
        <time>2018-06-19T09:29:05Z</time>
      </trkpt>
      <trkpt lat="45.98232" lon="4.83846">
        <ele>272</ele>
        <time>2018-06-19T09:29:06Z</time>
      </trkpt>
      <trkpt lat="45.98234" lon="4.83838">
        <ele>272</ele>
        <time>2018-06-19T09:29:07Z</time>
      </trkpt>
      <trkpt lat="45.98237" lon="4.8383">
        <ele>272</ele>
        <time>2018-06-19T09:29:08Z</time>
      </trkpt>
      <trkpt lat="45.98241" lon="4.83823">
        <ele>272</ele>
        <time>2018-06-19T09:29:09Z</time>
      </trkpt>
      <trkpt lat="45.98243" lon="4.83813">
        <ele>272</ele>
        <time>2018-06-19T09:29:10Z</time>
      </trkpt>
      <trkpt lat="45.98247" lon="4.83804">
        <ele>272</ele>
        <time>2018-06-19T09:29:11Z</time>
      </trkpt>
      <trkpt lat="45.98249" lon="4.83797">
        <ele>272</ele>
        <time>2018-06-19T09:29:12Z</time>
      </trkpt>
      <trkpt lat="45.98252" lon="4.8379">
        <ele>272</ele>
        <time>2018-06-19T09:29:13Z</time>
      </trkpt>
      <trkpt lat="45.98254" lon="4.83783">
        <ele>272</ele>
        <time>2018-06-19T09:29:14Z</time>
      </trkpt>
      <trkpt lat="45.98257" lon="4.83776">
        <ele>272</ele>
        <time>2018-06-19T09:29:15Z</time>
      </trkpt>
      <trkpt lat="45.98259" lon="4.8377">
        <ele>272</ele>
        <time>2018-06-19T09:29:16Z</time>
      </trkpt>
      <trkpt lat="45.98261" lon="4.83764">
        <ele>272</ele>
        <time>2018-06-19T09:29:17Z</time>
      </trkpt>
      <trkpt lat="45.98263" lon="4.83758">
        <ele>272</ele>
        <time>2018-06-19T09:29:18Z</time>
      </trkpt>
      <trkpt lat="45.98265" lon="4.83752">
        <ele>272</ele>
        <time>2018-06-19T09:29:19Z</time>
      </trkpt>
      <trkpt lat="45.98267" lon="4.83746">
        <ele>272</ele>
        <time>2018-06-19T09:29:20Z</time>
      </trkpt>
      <trkpt lat="45.9827" lon="4.83738">
        <ele>272</ele>
        <time>2018-06-19T09:29:21Z</time>
      </trkpt>
      <trkpt lat="45.98272" lon="4.8373">
        <ele>272</ele>
        <time>2018-06-19T09:29:22Z</time>
      </trkpt>
      <trkpt lat="45.98275" lon="4.83723">
        <ele>272</ele>
        <time>2018-06-19T09:29:23Z</time>
      </trkpt>
      <trkpt lat="45.98277" lon="4.83716">
        <ele>272</ele>
        <time>2018-06-19T09:29:24Z</time>
      </trkpt>
      <trkpt lat="45.98279" lon="4.83708">
        <ele>272</ele>
        <time>2018-06-19T09:29:25Z</time>
      </trkpt>
      <trkpt lat="45.98282" lon="4.83701">
        <ele>272</ele>
        <time>2018-06-19T09:29:26Z</time>
      </trkpt>
      <trkpt lat="45.98285" lon="4.83694">
        <ele>272</ele>
        <time>2018-06-19T09:29:27Z</time>
      </trkpt>
      <trkpt lat="45.98287" lon="4.83687">
        <ele>272</ele>
        <time>2018-06-19T09:29:28Z</time>
      </trkpt>
      <trkpt lat="45.9829" lon="4.8368">
        <ele>272</ele>
        <time>2018-06-19T09:29:29Z</time>
      </trkpt>
      <trkpt lat="45.98293" lon="4.83673">
        <ele>272</ele>
        <time>2018-06-19T09:29:30Z</time>
      </trkpt>
      <trkpt lat="45.98295" lon="4.83666">
        <ele>271</ele>
        <time>2018-06-19T09:29:31Z</time>
      </trkpt>
      <trkpt lat="45.98299" lon="4.8366">
        <ele>271</ele>
        <time>2018-06-19T09:29:32Z</time>
      </trkpt>
      <trkpt lat="45.98301" lon="4.83651">
        <ele>271</ele>
        <time>2018-06-19T09:29:33Z</time>
      </trkpt>
      <trkpt lat="45.98304" lon="4.83645">
        <ele>271</ele>
        <time>2018-06-19T09:29:34Z</time>
      </trkpt>
      <trkpt lat="45.98306" lon="4.83638">
        <ele>271</ele>
        <time>2018-06-19T09:29:35Z</time>
      </trkpt>
      <trkpt lat="45.98309" lon="4.83632">
        <ele>271</ele>
        <time>2018-06-19T09:29:36Z</time>
      </trkpt>
      <trkpt lat="45.98312" lon="4.83625">
        <ele>271</ele>
        <time>2018-06-19T09:29:37Z</time>
      </trkpt>
      <trkpt lat="45.98316" lon="4.83619">
        <ele>271</ele>
        <time>2018-06-19T09:29:38Z</time>
      </trkpt>
      <trkpt lat="45.9832" lon="4.83613">
        <ele>271</ele>
        <time>2018-06-19T09:29:39Z</time>
      </trkpt>
      <trkpt lat="45.98323" lon="4.83607">
        <ele>271</ele>
        <time>2018-06-19T09:29:40Z</time>
      </trkpt>
      <trkpt lat="45.98327" lon="4.83602">
        <ele>271</ele>
        <time>2018-06-19T09:29:41Z</time>
      </trkpt>
      <trkpt lat="45.98331" lon="4.83596">
        <ele>270</ele>
        <time>2018-06-19T09:29:42Z</time>
      </trkpt>
      <trkpt lat="45.98335" lon="4.8359">
        <ele>270</ele>
        <time>2018-06-19T09:29:43Z</time>
      </trkpt>
      <trkpt lat="45.9834" lon="4.83584">
        <ele>270</ele>
        <time>2018-06-19T09:29:44Z</time>
      </trkpt>
      <trkpt lat="45.98344" lon="4.83577">
        <ele>270</ele>
        <time>2018-06-19T09:29:45Z</time>
      </trkpt>
      <trkpt lat="45.98349" lon="4.83571">
        <ele>269</ele>
        <time>2018-06-19T09:29:46Z</time>
      </trkpt>
      <trkpt lat="45.98352" lon="4.83566">
        <ele>269</ele>
        <time>2018-06-19T09:29:47Z</time>
      </trkpt>
      <trkpt lat="45.98356" lon="4.83559">
        <ele>269</ele>
        <time>2018-06-19T09:29:48Z</time>
      </trkpt>
      <trkpt lat="45.98361" lon="4.83554">
        <ele>269</ele>
        <time>2018-06-19T09:29:49Z</time>
      </trkpt>
      <trkpt lat="45.98363" lon="4.83548">
        <ele>269</ele>
        <time>2018-06-19T09:29:50Z</time>
      </trkpt>
      <trkpt lat="45.98367" lon="4.83543">
        <ele>269</ele>
        <time>2018-06-19T09:29:51Z</time>
      </trkpt>
      <trkpt lat="45.98372" lon="4.83536">
        <ele>269</ele>
        <time>2018-06-19T09:29:52Z</time>
      </trkpt>
      <trkpt lat="45.98376" lon="4.8353">
        <ele>269</ele>
        <time>2018-06-19T09:29:53Z</time>
      </trkpt>
      <trkpt lat="45.9838" lon="4.83524">
        <ele>269</ele>
        <time>2018-06-19T09:29:54Z</time>
      </trkpt>
      <trkpt lat="45.98385" lon="4.83518">
        <ele>269</ele>
        <time>2018-06-19T09:29:55Z</time>
      </trkpt>
      <trkpt lat="45.9839" lon="4.83512">
        <ele>269</ele>
        <time>2018-06-19T09:29:56Z</time>
      </trkpt>
      <trkpt lat="45.98395" lon="4.83508">
        <ele>269</ele>
        <time>2018-06-19T09:29:57Z</time>
      </trkpt>
      <trkpt lat="45.98399" lon="4.83502">
        <ele>269</ele>
        <time>2018-06-19T09:29:58Z</time>
      </trkpt>
      <trkpt lat="45.98404" lon="4.83497">
        <ele>269</ele>
        <time>2018-06-19T09:29:59Z</time>
      </trkpt>
      <trkpt lat="45.98409" lon="4.8349">
        <ele>268</ele>
        <time>2018-06-19T09:30:00Z</time>
      </trkpt>
      <trkpt lat="45.98414" lon="4.83484">
        <ele>269</ele>
        <time>2018-06-19T09:30:01Z</time>
      </trkpt>
      <trkpt lat="45.98419" lon="4.83478">
        <ele>268</ele>
        <time>2018-06-19T09:30:02Z</time>
      </trkpt>
      <trkpt lat="45.98424" lon="4.83473">
        <ele>268</ele>
        <time>2018-06-19T09:30:03Z</time>
      </trkpt>
      <trkpt lat="45.98428" lon="4.83467">
        <ele>268</ele>
        <time>2018-06-19T09:30:04Z</time>
      </trkpt>
      <trkpt lat="45.98432" lon="4.83461">
        <ele>268</ele>
        <time>2018-06-19T09:30:05Z</time>
      </trkpt>
      <trkpt lat="45.98436" lon="4.83455">
        <ele>268</ele>
        <time>2018-06-19T09:30:06Z</time>
      </trkpt>
      <trkpt lat="45.98441" lon="4.83449">
        <ele>268</ele>
        <time>2018-06-19T09:30:07Z</time>
      </trkpt>
      <trkpt lat="45.98446" lon="4.83443">
        <ele>268</ele>
        <time>2018-06-19T09:30:08Z</time>
      </trkpt>
      <trkpt lat="45.9845" lon="4.83437">
        <ele>268</ele>
        <time>2018-06-19T09:30:09Z</time>
      </trkpt>
      <trkpt lat="45.98455" lon="4.8343">
        <ele>268</ele>
        <time>2018-06-19T09:30:10Z</time>
      </trkpt>
      <trkpt lat="45.9846" lon="4.83423">
        <ele>269</ele>
        <time>2018-06-19T09:30:11Z</time>
      </trkpt>
      <trkpt lat="45.98465" lon="4.83417">
        <ele>269</ele>
        <time>2018-06-19T09:30:12Z</time>
      </trkpt>
      <trkpt lat="45.9847" lon="4.8341">
        <ele>269</ele>
        <time>2018-06-19T09:30:13Z</time>
      </trkpt>
      <trkpt lat="45.98475" lon="4.834">
        <ele>269</ele>
        <time>2018-06-19T09:30:14Z</time>
      </trkpt>
      <trkpt lat="45.98477" lon="4.83397">
        <ele>269</ele>
        <time>2018-06-19T09:30:15Z</time>
      </trkpt>
      <trkpt lat="45.98482" lon="4.83392">
        <ele>269</ele>
        <time>2018-06-19T09:30:16Z</time>
      </trkpt>
      <trkpt lat="45.98486" lon="4.83386">
        <ele>269</ele>
        <time>2018-06-19T09:30:17Z</time>
      </trkpt>
      <trkpt lat="45.9849" lon="4.83381">
        <ele>269</ele>
        <time>2018-06-19T09:30:18Z</time>
      </trkpt>
      <trkpt lat="45.98494" lon="4.83375">
        <ele>270</ele>
        <time>2018-06-19T09:30:19Z</time>
      </trkpt>
      <trkpt lat="45.98497" lon="4.83371">
        <ele>270</ele>
        <time>2018-06-19T09:30:20Z</time>
      </trkpt>
      <trkpt lat="45.98502" lon="4.83366">
        <ele>269</ele>
        <time>2018-06-19T09:30:21Z</time>
      </trkpt>
      <trkpt lat="45.98506" lon="4.8336">
        <ele>269</ele>
        <time>2018-06-19T09:30:22Z</time>
      </trkpt>
      <trkpt lat="45.98509" lon="4.83354">
        <ele>270</ele>
        <time>2018-06-19T09:30:23Z</time>
      </trkpt>
      <trkpt lat="45.98513" lon="4.83348">
        <ele>270</ele>
        <time>2018-06-19T09:30:24Z</time>
      </trkpt>
      <trkpt lat="45.98517" lon="4.83343">
        <ele>270</ele>
        <time>2018-06-19T09:30:25Z</time>
      </trkpt>
      <trkpt lat="45.98521" lon="4.83338">
        <ele>270</ele>
        <time>2018-06-19T09:30:26Z</time>
      </trkpt>
      <trkpt lat="45.98524" lon="4.83333">
        <ele>270</ele>
        <time>2018-06-19T09:30:27Z</time>
      </trkpt>
      <trkpt lat="45.98528" lon="4.83328">
        <ele>269</ele>
        <time>2018-06-19T09:30:28Z</time>
      </trkpt>
      <trkpt lat="45.98531" lon="4.83324">
        <ele>269</ele>
        <time>2018-06-19T09:30:29Z</time>
      </trkpt>
      <trkpt lat="45.98535" lon="4.8332">
        <ele>269</ele>
        <time>2018-06-19T09:30:30Z</time>
      </trkpt>
      <trkpt lat="45.98539" lon="4.83314">
        <ele>269</ele>
        <time>2018-06-19T09:30:31Z</time>
      </trkpt>
      <trkpt lat="45.98543" lon="4.83309">
        <ele>269</ele>
        <time>2018-06-19T09:30:32Z</time>
      </trkpt>
      <trkpt lat="45.98547" lon="4.83304">
        <ele>269</ele>
        <time>2018-06-19T09:30:33Z</time>
      </trkpt>
      <trkpt lat="45.98551" lon="4.83298">
        <ele>269</ele>
        <time>2018-06-19T09:30:34Z</time>
      </trkpt>
      <trkpt lat="45.98555" lon="4.83292">
        <ele>269</ele>
        <time>2018-06-19T09:30:35Z</time>
      </trkpt>
      <trkpt lat="45.98559" lon="4.83287">
        <ele>269</ele>
        <time>2018-06-19T09:30:36Z</time>
      </trkpt>
      <trkpt lat="45.98563" lon="4.83282">
        <ele>269</ele>
        <time>2018-06-19T09:30:37Z</time>
      </trkpt>
      <trkpt lat="45.98567" lon="4.83277">
        <ele>269</ele>
        <time>2018-06-19T09:30:38Z</time>
      </trkpt>
      <trkpt lat="45.98572" lon="4.83272">
        <ele>269</ele>
        <time>2018-06-19T09:30:39Z</time>
      </trkpt>
      <trkpt lat="45.98576" lon="4.83265">
        <ele>269</ele>
        <time>2018-06-19T09:30:40Z</time>
      </trkpt>
      <trkpt lat="45.9858" lon="4.8326">
        <ele>268</ele>
        <time>2018-06-19T09:30:41Z</time>
      </trkpt>
      <trkpt lat="45.98584" lon="4.83254">
        <ele>268</ele>
        <time>2018-06-19T09:30:42Z</time>
      </trkpt>
      <trkpt lat="45.98589" lon="4.83248">
        <ele>268</ele>
        <time>2018-06-19T09:30:43Z</time>
      </trkpt>
      <trkpt lat="45.98592" lon="4.83242">
        <ele>268</ele>
        <time>2018-06-19T09:30:44Z</time>
      </trkpt>
      <trkpt lat="45.98596" lon="4.83236">
        <ele>268</ele>
        <time>2018-06-19T09:30:45Z</time>
      </trkpt>
      <trkpt lat="45.986" lon="4.83231">
        <ele>268</ele>
        <time>2018-06-19T09:30:46Z</time>
      </trkpt>
      <trkpt lat="45.98604" lon="4.83225">
        <ele>267</ele>
        <time>2018-06-19T09:30:47Z</time>
      </trkpt>
      <trkpt lat="45.98608" lon="4.83219">
        <ele>267</ele>
        <time>2018-06-19T09:30:48Z</time>
      </trkpt>
      <trkpt lat="45.98613" lon="4.83214">
        <ele>267</ele>
        <time>2018-06-19T09:30:49Z</time>
      </trkpt>
      <trkpt lat="45.98617" lon="4.83209">
        <ele>267</ele>
        <time>2018-06-19T09:30:50Z</time>
      </trkpt>
      <trkpt lat="45.98622" lon="4.83203">
        <ele>267</ele>
        <time>2018-06-19T09:30:51Z</time>
      </trkpt>
      <trkpt lat="45.98626" lon="4.83197">
        <ele>267</ele>
        <time>2018-06-19T09:30:52Z</time>
      </trkpt>
      <trkpt lat="45.98631" lon="4.83192">
        <ele>267</ele>
        <time>2018-06-19T09:30:53Z</time>
      </trkpt>
      <trkpt lat="45.98636" lon="4.83186">
        <ele>267</ele>
        <time>2018-06-19T09:30:54Z</time>
      </trkpt>
      <trkpt lat="45.98642" lon="4.83181">
        <ele>267</ele>
        <time>2018-06-19T09:30:55Z</time>
      </trkpt>
      <trkpt lat="45.98647" lon="4.83176">
        <ele>267</ele>
        <time>2018-06-19T09:30:56Z</time>
      </trkpt>
      <trkpt lat="45.98653" lon="4.83171">
        <ele>267</ele>
        <time>2018-06-19T09:30:57Z</time>
      </trkpt>
      <trkpt lat="45.98658" lon="4.83167">
        <ele>266</ele>
        <time>2018-06-19T09:30:58Z</time>
      </trkpt>
      <trkpt lat="45.98664" lon="4.83163">
        <ele>266</ele>
        <time>2018-06-19T09:30:59Z</time>
      </trkpt>
      <trkpt lat="45.98669" lon="4.83159">
        <ele>266</ele>
        <time>2018-06-19T09:31:00Z</time>
      </trkpt>
      <trkpt lat="45.98674" lon="4.83155">
        <ele>266</ele>
        <time>2018-06-19T09:31:01Z</time>
      </trkpt>
      <trkpt lat="45.9868" lon="4.83151">
        <ele>266</ele>
        <time>2018-06-19T09:31:02Z</time>
      </trkpt>
      <trkpt lat="45.98685" lon="4.83146">
        <ele>266</ele>
        <time>2018-06-19T09:31:03Z</time>
      </trkpt>
      <trkpt lat="45.98691" lon="4.83143">
        <ele>266</ele>
        <time>2018-06-19T09:31:04Z</time>
      </trkpt>
      <trkpt lat="45.98696" lon="4.83139">
        <ele>266</ele>
        <time>2018-06-19T09:31:05Z</time>
      </trkpt>
      <trkpt lat="45.98702" lon="4.83134">
        <ele>266</ele>
        <time>2018-06-19T09:31:06Z</time>
      </trkpt>
      <trkpt lat="45.98707" lon="4.8313">
        <ele>266</ele>
        <time>2018-06-19T09:31:07Z</time>
      </trkpt>
      <trkpt lat="45.98713" lon="4.83125">
        <ele>266</ele>
        <time>2018-06-19T09:31:08Z</time>
      </trkpt>
      <trkpt lat="45.98718" lon="4.83121">
        <ele>266</ele>
        <time>2018-06-19T09:31:09Z</time>
      </trkpt>
      <trkpt lat="45.98723" lon="4.83117">
        <ele>267</ele>
        <time>2018-06-19T09:31:10Z</time>
      </trkpt>
      <trkpt lat="45.98728" lon="4.83113">
        <ele>267</ele>
        <time>2018-06-19T09:31:11Z</time>
      </trkpt>
      <trkpt lat="45.98733" lon="4.83109">
        <ele>267</ele>
        <time>2018-06-19T09:31:12Z</time>
      </trkpt>
      <trkpt lat="45.98738" lon="4.83105">
        <ele>267</ele>
        <time>2018-06-19T09:31:13Z</time>
      </trkpt>
      <trkpt lat="45.98743" lon="4.831">
        <ele>267</ele>
        <time>2018-06-19T09:31:14Z</time>
      </trkpt>
      <trkpt lat="45.98748" lon="4.83097">
        <ele>267</ele>
        <time>2018-06-19T09:31:15Z</time>
      </trkpt>
      <trkpt lat="45.98753" lon="4.83093">
        <ele>266</ele>
        <time>2018-06-19T09:31:16Z</time>
      </trkpt>
      <trkpt lat="45.98758" lon="4.83089">
        <ele>266</ele>
        <time>2018-06-19T09:31:17Z</time>
      </trkpt>
      <trkpt lat="45.98763" lon="4.83084">
        <ele>266</ele>
        <time>2018-06-19T09:31:18Z</time>
      </trkpt>
      <trkpt lat="45.98769" lon="4.8308">
        <ele>266</ele>
        <time>2018-06-19T09:31:19Z</time>
      </trkpt>
      <trkpt lat="45.98775" lon="4.83076">
        <ele>265</ele>
        <time>2018-06-19T09:31:20Z</time>
      </trkpt>
      <trkpt lat="45.98781" lon="4.83071">
        <ele>265</ele>
        <time>2018-06-19T09:31:21Z</time>
      </trkpt>
      <trkpt lat="45.98786" lon="4.83067">
        <ele>265</ele>
        <time>2018-06-19T09:31:22Z</time>
      </trkpt>
      <trkpt lat="45.98792" lon="4.83061">
        <ele>265</ele>
        <time>2018-06-19T09:31:23Z</time>
      </trkpt>
      <trkpt lat="45.98798" lon="4.83056">
        <ele>264</ele>
        <time>2018-06-19T09:31:24Z</time>
      </trkpt>
      <trkpt lat="45.98804" lon="4.8305">
        <ele>264</ele>
        <time>2018-06-19T09:31:25Z</time>
      </trkpt>
      <trkpt lat="45.9881" lon="4.83045">
        <ele>264</ele>
        <time>2018-06-19T09:31:26Z</time>
      </trkpt>
      <trkpt lat="45.98817" lon="4.8304">
        <ele>264</ele>
        <time>2018-06-19T09:31:27Z</time>
      </trkpt>
      <trkpt lat="45.98824" lon="4.83034">
        <ele>264</ele>
        <time>2018-06-19T09:31:28Z</time>
      </trkpt>
      <trkpt lat="45.98831" lon="4.83028">
        <ele>264</ele>
        <time>2018-06-19T09:31:29Z</time>
      </trkpt>
      <trkpt lat="45.98838" lon="4.83023">
        <ele>261</ele>
        <time>2018-06-19T09:31:30Z</time>
      </trkpt>
      <trkpt lat="45.98845" lon="4.83018">
        <ele>261</ele>
        <time>2018-06-19T09:31:31Z</time>
      </trkpt>
      <trkpt lat="45.98854" lon="4.83013">
        <ele>261</ele>
        <time>2018-06-19T09:31:32Z</time>
      </trkpt>
      <trkpt lat="45.98862" lon="4.83006">
        <ele>260</ele>
        <time>2018-06-19T09:31:33Z</time>
      </trkpt>
      <trkpt lat="45.9887" lon="4.82997">
        <ele>260</ele>
        <time>2018-06-19T09:31:34Z</time>
      </trkpt>
      <trkpt lat="45.98878" lon="4.82991">
        <ele>260</ele>
        <time>2018-06-19T09:31:35Z</time>
      </trkpt>
      <trkpt lat="45.98887" lon="4.82985">
        <ele>259</ele>
        <time>2018-06-19T09:31:36Z</time>
      </trkpt>
      <trkpt lat="45.98895" lon="4.8298">
        <ele>259</ele>
        <time>2018-06-19T09:31:37Z</time>
      </trkpt>
      <trkpt lat="45.98904" lon="4.82971">
        <ele>259</ele>
        <time>2018-06-19T09:31:38Z</time>
      </trkpt>
      <trkpt lat="45.98911" lon="4.82962">
        <ele>258</ele>
        <time>2018-06-19T09:31:39Z</time>
      </trkpt>
      <trkpt lat="45.98918" lon="4.82948">
        <ele>255</ele>
        <time>2018-06-19T09:31:40Z</time>
      </trkpt>
      <trkpt lat="45.98924" lon="4.82934">
        <ele>255</ele>
        <time>2018-06-19T09:31:41Z</time>
      </trkpt>
      <trkpt lat="45.9893" lon="4.8292">
        <ele>255</ele>
        <time>2018-06-19T09:31:42Z</time>
      </trkpt>
      <trkpt lat="45.98936" lon="4.82907">
        <ele>254</ele>
        <time>2018-06-19T09:31:43Z</time>
      </trkpt>
      <trkpt lat="45.98943" lon="4.82892">
        <ele>253</ele>
        <time>2018-06-19T09:31:44Z</time>
      </trkpt>
      <trkpt lat="45.98949" lon="4.82877">
        <ele>253</ele>
        <time>2018-06-19T09:31:45Z</time>
      </trkpt>
      <trkpt lat="45.98956" lon="4.82862">
        <ele>252</ele>
        <time>2018-06-19T09:31:46Z</time>
      </trkpt>
      <trkpt lat="45.98962" lon="4.82848">
        <ele>252</ele>
        <time>2018-06-19T09:31:47Z</time>
      </trkpt>
      <trkpt lat="45.98969" lon="4.82832">
        <ele>249</ele>
        <time>2018-06-19T09:31:48Z</time>
      </trkpt>
      <trkpt lat="45.98976" lon="4.82817">
        <ele>248</ele>
        <time>2018-06-19T09:31:49Z</time>
      </trkpt>
      <trkpt lat="45.98983" lon="4.82802">
        <ele>248</ele>
        <time>2018-06-19T09:31:50Z</time>
      </trkpt>
      <trkpt lat="45.98989" lon="4.82786">
        <ele>247</ele>
        <time>2018-06-19T09:31:51Z</time>
      </trkpt>
      <trkpt lat="45.98996" lon="4.82772">
        <ele>245</ele>
        <time>2018-06-19T09:31:52Z</time>
      </trkpt>
      <trkpt lat="45.99002" lon="4.82757">
        <ele>241</ele>
        <time>2018-06-19T09:31:53Z</time>
      </trkpt>
      <trkpt lat="45.99009" lon="4.82743">
        <ele>240</ele>
        <time>2018-06-19T09:31:54Z</time>
      </trkpt>
      <trkpt lat="45.99015" lon="4.82728">
        <ele>239</ele>
        <time>2018-06-19T09:31:55Z</time>
      </trkpt>
      <trkpt lat="45.99022" lon="4.82714">
        <ele>239</ele>
        <time>2018-06-19T09:31:56Z</time>
      </trkpt>
      <trkpt lat="45.99029" lon="4.82699">
        <ele>238</ele>
        <time>2018-06-19T09:31:57Z</time>
      </trkpt>
      <trkpt lat="45.99034" lon="4.82685">
        <ele>238</ele>
        <time>2018-06-19T09:31:58Z</time>
      </trkpt>
      <trkpt lat="45.9904" lon="4.82671">
        <ele>238</ele>
        <time>2018-06-19T09:31:59Z</time>
      </trkpt>
      <trkpt lat="45.99045" lon="4.82658">
        <ele>236</ele>
        <time>2018-06-19T09:32:00Z</time>
      </trkpt>
      <trkpt lat="45.99051" lon="4.82645">
        <ele>236</ele>
        <time>2018-06-19T09:32:01Z</time>
      </trkpt>
      <trkpt lat="45.99056" lon="4.82635">
        <ele>236</ele>
        <time>2018-06-19T09:32:02Z</time>
      </trkpt>
      <trkpt lat="45.99061" lon="4.82625">
        <ele>236</ele>
        <time>2018-06-19T09:32:03Z</time>
      </trkpt>
      <trkpt lat="45.99065" lon="4.82615">
        <ele>236</ele>
        <time>2018-06-19T09:32:04Z</time>
      </trkpt>
      <trkpt lat="45.99069" lon="4.82607">
        <ele>236</ele>
        <time>2018-06-19T09:32:05Z</time>
      </trkpt>
      <trkpt lat="45.99072" lon="4.826">
        <ele>235</ele>
        <time>2018-06-19T09:32:06Z</time>
      </trkpt>
      <trkpt lat="45.99075" lon="4.82588">
        <ele>235</ele>
        <time>2018-06-19T09:32:08Z</time>
      </trkpt>
      <trkpt lat="45.99075" lon="4.82582">
        <ele>235</ele>
        <time>2018-06-19T09:32:09Z</time>
      </trkpt>
      <trkpt lat="45.99071" lon="4.82571">
        <ele>235</ele>
        <time>2018-06-19T09:32:11Z</time>
      </trkpt>
      <trkpt lat="45.99066" lon="4.82568">
        <ele>235</ele>
        <time>2018-06-19T09:32:12Z</time>
      </trkpt>
      <trkpt lat="45.99062" lon="4.82566">
        <ele>235</ele>
        <time>2018-06-19T09:32:13Z</time>
      </trkpt>
      <trkpt lat="45.99056" lon="4.82564">
        <ele>235</ele>
        <time>2018-06-19T09:32:14Z</time>
      </trkpt>
      <trkpt lat="45.99051" lon="4.82563">
        <ele>235</ele>
        <time>2018-06-19T09:32:15Z</time>
      </trkpt>
      <trkpt lat="45.99046" lon="4.82561">
        <ele>235</ele>
        <time>2018-06-19T09:32:16Z</time>
      </trkpt>
      <trkpt lat="45.99038" lon="4.82556">
        <ele>235</ele>
        <time>2018-06-19T09:32:18Z</time>
      </trkpt>
      <trkpt lat="45.99035" lon="4.82552">
        <ele>235</ele>
        <time>2018-06-19T09:32:19Z</time>
      </trkpt>
      <trkpt lat="45.99027" lon="4.82545">
        <ele>235</ele>
        <time>2018-06-19T09:32:21Z</time>
      </trkpt>
      <trkpt lat="45.99024" lon="4.82541">
        <ele>235</ele>
        <time>2018-06-19T09:32:22Z</time>
      </trkpt>
      <trkpt lat="45.9902" lon="4.82536">
        <ele>235</ele>
        <time>2018-06-19T09:32:23Z</time>
      </trkpt>
      <trkpt lat="45.99017" lon="4.82532">
        <ele>235</ele>
        <time>2018-06-19T09:32:24Z</time>
      </trkpt>
      <trkpt lat="45.99013" lon="4.82527">
        <ele>235</ele>
        <time>2018-06-19T09:32:25Z</time>
      </trkpt>
      <trkpt lat="45.9901" lon="4.8252">
        <ele>235</ele>
        <time>2018-06-19T09:32:26Z</time>
      </trkpt>
      <trkpt lat="45.99007" lon="4.82514">
        <ele>235</ele>
        <time>2018-06-19T09:32:27Z</time>
      </trkpt>
      <trkpt lat="45.99004" lon="4.82508">
        <ele>235</ele>
        <time>2018-06-19T09:32:28Z</time>
      </trkpt>
      <trkpt lat="45.99002" lon="4.82502">
        <ele>235</ele>
        <time>2018-06-19T09:32:29Z</time>
      </trkpt>
      <trkpt lat="45.98999" lon="4.82496">
        <ele>235</ele>
        <time>2018-06-19T09:32:30Z</time>
      </trkpt>
      <trkpt lat="45.98995" lon="4.82485">
        <ele>236</ele>
        <time>2018-06-19T09:32:32Z</time>
      </trkpt>
      <trkpt lat="45.98993" lon="4.82479">
        <ele>236</ele>
        <time>2018-06-19T09:32:33Z</time>
      </trkpt>
      <trkpt lat="45.98991" lon="4.82474">
        <ele>236</ele>
        <time>2018-06-19T09:32:34Z</time>
      </trkpt>
      <trkpt lat="45.9899" lon="4.82467">
        <ele>236</ele>
        <time>2018-06-19T09:32:35Z</time>
      </trkpt>
      <trkpt lat="45.98987" lon="4.8246">
        <ele>236</ele>
        <time>2018-06-19T09:32:36Z</time>
      </trkpt>
      <trkpt lat="45.98986" lon="4.82453">
        <ele>236</ele>
        <time>2018-06-19T09:32:37Z</time>
      </trkpt>
      <trkpt lat="45.98983" lon="4.82446">
        <ele>236</ele>
        <time>2018-06-19T09:32:38Z</time>
      </trkpt>
      <trkpt lat="45.98982" lon="4.82438">
        <ele>236</ele>
        <time>2018-06-19T09:32:39Z</time>
      </trkpt>
      <trkpt lat="45.9898" lon="4.8243">
        <ele>236</ele>
        <time>2018-06-19T09:32:40Z</time>
      </trkpt>
      <trkpt lat="45.98978" lon="4.82423">
        <ele>236</ele>
        <time>2018-06-19T09:32:41Z</time>
      </trkpt>
      <trkpt lat="45.98977" lon="4.82416">
        <ele>235</ele>
        <time>2018-06-19T09:32:42Z</time>
      </trkpt>
      <trkpt lat="45.98975" lon="4.82409">
        <ele>235</ele>
        <time>2018-06-19T09:32:43Z</time>
      </trkpt>
      <trkpt lat="45.98973" lon="4.82402">
        <ele>235</ele>
        <time>2018-06-19T09:32:44Z</time>
      </trkpt>
      <trkpt lat="45.98971" lon="4.82395">
        <ele>235</ele>
        <time>2018-06-19T09:32:45Z</time>
      </trkpt>
      <trkpt lat="45.9897" lon="4.82388">
        <ele>235</ele>
        <time>2018-06-19T09:32:46Z</time>
      </trkpt>
      <trkpt lat="45.98968" lon="4.82381">
        <ele>235</ele>
        <time>2018-06-19T09:32:47Z</time>
      </trkpt>
      <trkpt lat="45.98965" lon="4.82374">
        <ele>235</ele>
        <time>2018-06-19T09:32:48Z</time>
      </trkpt>
      <trkpt lat="45.98963" lon="4.82368">
        <ele>235</ele>
        <time>2018-06-19T09:32:49Z</time>
      </trkpt>
      <trkpt lat="45.98961" lon="4.82361">
        <ele>235</ele>
        <time>2018-06-19T09:32:50Z</time>
      </trkpt>
      <trkpt lat="45.98959" lon="4.82354">
        <ele>235</ele>
        <time>2018-06-19T09:32:51Z</time>
      </trkpt>
      <trkpt lat="45.98956" lon="4.82348">
        <ele>235</ele>
        <time>2018-06-19T09:32:52Z</time>
      </trkpt>
      <trkpt lat="45.98954" lon="4.82343">
        <ele>235</ele>
        <time>2018-06-19T09:32:53Z</time>
      </trkpt>
      <trkpt lat="45.9895" lon="4.82338">
        <ele>235</ele>
        <time>2018-06-19T09:32:54Z</time>
      </trkpt>
      <trkpt lat="45.98947" lon="4.82333">
        <ele>234</ele>
        <time>2018-06-19T09:32:55Z</time>
      </trkpt>
      <trkpt lat="45.98943" lon="4.82328">
        <ele>234</ele>
        <time>2018-06-19T09:32:56Z</time>
      </trkpt>
      <trkpt lat="45.9894" lon="4.82322">
        <ele>234</ele>
        <time>2018-06-19T09:32:57Z</time>
      </trkpt>
      <trkpt lat="45.98936" lon="4.82318">
        <ele>235</ele>
        <time>2018-06-19T09:32:58Z</time>
      </trkpt>
      <trkpt lat="45.98932" lon="4.82313">
        <ele>235</ele>
        <time>2018-06-19T09:32:59Z</time>
      </trkpt>
      <trkpt lat="45.98928" lon="4.82308">
        <ele>234</ele>
        <time>2018-06-19T09:33:00Z</time>
      </trkpt>
      <trkpt lat="45.98924" lon="4.82303">
        <ele>234</ele>
        <time>2018-06-19T09:33:01Z</time>
      </trkpt>
      <trkpt lat="45.9892" lon="4.82298">
        <ele>234</ele>
        <time>2018-06-19T09:33:02Z</time>
      </trkpt>
      <trkpt lat="45.98914" lon="4.82294">
        <ele>236</ele>
        <time>2018-06-19T09:33:03Z</time>
      </trkpt>
      <trkpt lat="45.9891" lon="4.82289">
        <ele>236</ele>
        <time>2018-06-19T09:33:04Z</time>
      </trkpt>
      <trkpt lat="45.98907" lon="4.82284">
        <ele>236</ele>
        <time>2018-06-19T09:33:05Z</time>
      </trkpt>
      <trkpt lat="45.98902" lon="4.82279">
        <ele>236</ele>
        <time>2018-06-19T09:33:06Z</time>
      </trkpt>
      <trkpt lat="45.98899" lon="4.82274">
        <ele>236</ele>
        <time>2018-06-19T09:33:07Z</time>
      </trkpt>
      <trkpt lat="45.98895" lon="4.82268">
        <ele>236</ele>
        <time>2018-06-19T09:33:08Z</time>
      </trkpt>
      <trkpt lat="45.98892" lon="4.82262">
        <ele>236</ele>
        <time>2018-06-19T09:33:09Z</time>
      </trkpt>
      <trkpt lat="45.98889" lon="4.82256">
        <ele>236</ele>
        <time>2018-06-19T09:33:10Z</time>
      </trkpt>
      <trkpt lat="45.98886" lon="4.82249">
        <ele>235</ele>
        <time>2018-06-19T09:33:11Z</time>
      </trkpt>
      <trkpt lat="45.98883" lon="4.82243">
        <ele>236</ele>
        <time>2018-06-19T09:33:12Z</time>
      </trkpt>
      <trkpt lat="45.98881" lon="4.82237">
        <ele>236</ele>
        <time>2018-06-19T09:33:13Z</time>
      </trkpt>
      <trkpt lat="45.98878" lon="4.8223">
        <ele>236</ele>
        <time>2018-06-19T09:33:14Z</time>
      </trkpt>
      <trkpt lat="45.98875" lon="4.82225">
        <ele>236</ele>
        <time>2018-06-19T09:33:15Z</time>
      </trkpt>
      <trkpt lat="45.98873" lon="4.82219">
        <ele>236</ele>
        <time>2018-06-19T09:33:16Z</time>
      </trkpt>
      <trkpt lat="45.9887" lon="4.82213">
        <ele>236</ele>
        <time>2018-06-19T09:33:17Z</time>
      </trkpt>
      <trkpt lat="45.98868" lon="4.82207">
        <ele>236</ele>
        <time>2018-06-19T09:33:18Z</time>
      </trkpt>
      <trkpt lat="45.98866" lon="4.822">
        <ele>236</ele>
        <time>2018-06-19T09:33:19Z</time>
      </trkpt>
      <trkpt lat="45.98863" lon="4.82193">
        <ele>236</ele>
        <time>2018-06-19T09:33:20Z</time>
      </trkpt>
      <trkpt lat="45.98861" lon="4.82187">
        <ele>236</ele>
        <time>2018-06-19T09:33:21Z</time>
      </trkpt>
      <trkpt lat="45.98859" lon="4.82181">
        <ele>236</ele>
        <time>2018-06-19T09:33:22Z</time>
      </trkpt>
      <trkpt lat="45.98856" lon="4.82173">
        <ele>236</ele>
        <time>2018-06-19T09:33:23Z</time>
      </trkpt>
      <trkpt lat="45.98854" lon="4.82166">
        <ele>236</ele>
        <time>2018-06-19T09:33:24Z</time>
      </trkpt>
      <trkpt lat="45.98851" lon="4.82159">
        <ele>236</ele>
        <time>2018-06-19T09:33:25Z</time>
      </trkpt>
      <trkpt lat="45.98849" lon="4.82151">
        <ele>236</ele>
        <time>2018-06-19T09:33:26Z</time>
      </trkpt>
      <trkpt lat="45.98845" lon="4.82143">
        <ele>236</ele>
        <time>2018-06-19T09:33:27Z</time>
      </trkpt>
      <trkpt lat="45.98844" lon="4.82136">
        <ele>236</ele>
        <time>2018-06-19T09:33:28Z</time>
      </trkpt>
      <trkpt lat="45.98842" lon="4.82129">
        <ele>236</ele>
        <time>2018-06-19T09:33:29Z</time>
      </trkpt>
      <trkpt lat="45.9884" lon="4.8212">
        <ele>235</ele>
        <time>2018-06-19T09:33:30Z</time>
      </trkpt>
      <trkpt lat="45.98838" lon="4.82112">
        <ele>235</ele>
        <time>2018-06-19T09:33:31Z</time>
      </trkpt>
      <trkpt lat="45.98838" lon="4.82103">
        <ele>236</ele>
        <time>2018-06-19T09:33:32Z</time>
      </trkpt>
      <trkpt lat="45.98837" lon="4.82094">
        <ele>236</ele>
        <time>2018-06-19T09:33:33Z</time>
      </trkpt>
      <trkpt lat="45.98835" lon="4.82086">
        <ele>236</ele>
        <time>2018-06-19T09:33:34Z</time>
      </trkpt>
      <trkpt lat="45.98833" lon="4.82078">
        <ele>236</ele>
        <time>2018-06-19T09:33:35Z</time>
      </trkpt>
      <trkpt lat="45.98832" lon="4.82072">
        <ele>237</ele>
        <time>2018-06-19T09:33:36Z</time>
      </trkpt>
      <trkpt lat="45.98831" lon="4.82065">
        <ele>237</ele>
        <time>2018-06-19T09:33:37Z</time>
      </trkpt>
      <trkpt lat="45.98831" lon="4.82059">
        <ele>237</ele>
        <time>2018-06-19T09:33:38Z</time>
      </trkpt>
      <trkpt lat="45.9883" lon="4.82052">
        <ele>237</ele>
        <time>2018-06-19T09:33:39Z</time>
      </trkpt>
      <trkpt lat="45.98828" lon="4.82045">
        <ele>238</ele>
        <time>2018-06-19T09:33:40Z</time>
      </trkpt>
      <trkpt lat="45.98827" lon="4.82038">
        <ele>238</ele>
        <time>2018-06-19T09:33:41Z</time>
      </trkpt>
      <trkpt lat="45.98825" lon="4.82032">
        <ele>238</ele>
        <time>2018-06-19T09:33:42Z</time>
      </trkpt>
      <trkpt lat="45.98825" lon="4.82025">
        <ele>238</ele>
        <time>2018-06-19T09:33:43Z</time>
      </trkpt>
      <trkpt lat="45.98825" lon="4.82019">
        <ele>238</ele>
        <time>2018-06-19T09:33:44Z</time>
      </trkpt>
      <trkpt lat="45.98822" lon="4.82011">
        <ele>238</ele>
        <time>2018-06-19T09:33:45Z</time>
      </trkpt>
      <trkpt lat="45.98822" lon="4.82004">
        <ele>238</ele>
        <time>2018-06-19T09:33:46Z</time>
      </trkpt>
      <trkpt lat="45.98819" lon="4.81996">
        <ele>238</ele>
        <time>2018-06-19T09:33:47Z</time>
      </trkpt>
      <trkpt lat="45.98818" lon="4.81989">
        <ele>238</ele>
        <time>2018-06-19T09:33:48Z</time>
      </trkpt>
      <trkpt lat="45.98817" lon="4.8198">
        <ele>239</ele>
        <time>2018-06-19T09:33:49Z</time>
      </trkpt>
      <trkpt lat="45.98816" lon="4.81971">
        <ele>239</ele>
        <time>2018-06-19T09:33:50Z</time>
      </trkpt>
      <trkpt lat="45.98814" lon="4.81964">
        <ele>239</ele>
        <time>2018-06-19T09:33:51Z</time>
      </trkpt>
      <trkpt lat="45.98812" lon="4.81956">
        <ele>239</ele>
        <time>2018-06-19T09:33:52Z</time>
      </trkpt>
      <trkpt lat="45.98811" lon="4.81947">
        <ele>239</ele>
        <time>2018-06-19T09:33:53Z</time>
      </trkpt>
      <trkpt lat="45.9881" lon="4.8194">
        <ele>239</ele>
        <time>2018-06-19T09:33:54Z</time>
      </trkpt>
      <trkpt lat="45.98809" lon="4.81932">
        <ele>239</ele>
        <time>2018-06-19T09:33:55Z</time>
      </trkpt>
      <trkpt lat="45.98808" lon="4.81925">
        <ele>239</ele>
        <time>2018-06-19T09:33:56Z</time>
      </trkpt>
      <trkpt lat="45.98807" lon="4.81918">
        <ele>239</ele>
        <time>2018-06-19T09:33:57Z</time>
      </trkpt>
      <trkpt lat="45.98805" lon="4.81911">
        <ele>239</ele>
        <time>2018-06-19T09:33:58Z</time>
      </trkpt>
      <trkpt lat="45.98804" lon="4.81905">
        <ele>239</ele>
        <time>2018-06-19T09:33:59Z</time>
      </trkpt>
      <trkpt lat="45.98803" lon="4.81898">
        <ele>239</ele>
        <time>2018-06-19T09:34:00Z</time>
      </trkpt>
      <trkpt lat="45.98803" lon="4.81891">
        <ele>239</ele>
        <time>2018-06-19T09:34:01Z</time>
      </trkpt>
      <trkpt lat="45.988" lon="4.81884">
        <ele>239</ele>
        <time>2018-06-19T09:34:02Z</time>
      </trkpt>
      <trkpt lat="45.98798" lon="4.81877">
        <ele>239</ele>
        <time>2018-06-19T09:34:03Z</time>
      </trkpt>
      <trkpt lat="45.98797" lon="4.8187">
        <ele>239</ele>
        <time>2018-06-19T09:34:04Z</time>
      </trkpt>
      <trkpt lat="45.98795" lon="4.81864">
        <ele>239</ele>
        <time>2018-06-19T09:34:05Z</time>
      </trkpt>
      <trkpt lat="45.98792" lon="4.81858">
        <ele>239</ele>
        <time>2018-06-19T09:34:06Z</time>
      </trkpt>
      <trkpt lat="45.98789" lon="4.81852">
        <ele>239</ele>
        <time>2018-06-19T09:34:07Z</time>
      </trkpt>
      <trkpt lat="45.98786" lon="4.81847">
        <ele>239</ele>
        <time>2018-06-19T09:34:08Z</time>
      </trkpt>
      <trkpt lat="45.98783" lon="4.81841">
        <ele>239</ele>
        <time>2018-06-19T09:34:09Z</time>
      </trkpt>
      <trkpt lat="45.98781" lon="4.81832">
        <ele>240</ele>
        <time>2018-06-19T09:34:10Z</time>
      </trkpt>
      <trkpt lat="45.98776" lon="4.81827">
        <ele>240</ele>
        <time>2018-06-19T09:34:11Z</time>
      </trkpt>
      <trkpt lat="45.98774" lon="4.81817">
        <ele>240</ele>
        <time>2018-06-19T09:34:13Z</time>
      </trkpt>
      <trkpt lat="45.98773" lon="4.81812">
        <ele>240</ele>
        <time>2018-06-19T09:34:14Z</time>
      </trkpt>
      <trkpt lat="45.9877" lon="4.81802">
        <ele>240</ele>
        <time>2018-06-19T09:34:16Z</time>
      </trkpt>
      <trkpt lat="45.98766" lon="4.81797">
        <ele>240</ele>
        <time>2018-06-19T09:34:17Z</time>
      </trkpt>
      <trkpt lat="45.98761" lon="4.81789">
        <ele>241</ele>
        <time>2018-06-19T09:34:19Z</time>
      </trkpt>
      <trkpt lat="45.98757" lon="4.81783">
        <ele>241</ele>
        <time>2018-06-19T09:34:20Z</time>
      </trkpt>
      <trkpt lat="45.98754" lon="4.81779">
        <ele>241</ele>
        <time>2018-06-19T09:34:22Z</time>
      </trkpt>
      <trkpt lat="45.98752" lon="4.81769">
        <ele>241</ele>
        <time>2018-06-19T09:34:23Z</time>
      </trkpt>
      <trkpt lat="45.98749" lon="4.81764">
        <ele>240</ele>
        <time>2018-06-19T09:34:25Z</time>
      </trkpt>
      <trkpt lat="45.98745" lon="4.81755">
        <ele>241</ele>
        <time>2018-06-19T09:34:26Z</time>
      </trkpt>
      <trkpt lat="45.98741" lon="4.81749">
        <ele>240</ele>
        <time>2018-06-19T09:34:28Z</time>
      </trkpt>
      <trkpt lat="45.98736" lon="4.81742">
        <ele>240</ele>
        <time>2018-06-19T09:34:29Z</time>
      </trkpt>
      <trkpt lat="45.9873" lon="4.81733">
        <ele>239</ele>
        <time>2018-06-19T09:34:31Z</time>
      </trkpt>
      <trkpt lat="45.98727" lon="4.81731">
        <ele>239</ele>
        <time>2018-06-19T09:34:32Z</time>
      </trkpt>
      <trkpt lat="45.98722" lon="4.8173">
        <ele>239</ele>
        <time>2018-06-19T09:34:33Z</time>
      </trkpt>
      <trkpt lat="45.98718" lon="4.8173">
        <ele>239</ele>
        <time>2018-06-19T09:34:34Z</time>
      </trkpt>
      <trkpt lat="45.98712" lon="4.81729">
        <ele>239</ele>
        <time>2018-06-19T09:34:35Z</time>
      </trkpt>
      <trkpt lat="45.98707" lon="4.8173">
        <ele>239</ele>
        <time>2018-06-19T09:34:36Z</time>
      </trkpt>
      <trkpt lat="45.98703" lon="4.8173">
        <ele>239</ele>
        <time>2018-06-19T09:34:37Z</time>
      </trkpt>
      <trkpt lat="45.98698" lon="4.81732">
        <ele>239</ele>
        <time>2018-06-19T09:34:38Z</time>
      </trkpt>
      <trkpt lat="45.98694" lon="4.81733">
        <ele>238</ele>
        <time>2018-06-19T09:34:39Z</time>
      </trkpt>
      <trkpt lat="45.98689" lon="4.81733">
        <ele>238</ele>
        <time>2018-06-19T09:34:40Z</time>
      </trkpt>
      <trkpt lat="45.98684" lon="4.81734">
        <ele>238</ele>
        <time>2018-06-19T09:34:41Z</time>
      </trkpt>
      <trkpt lat="45.9868" lon="4.81736">
        <ele>238</ele>
        <time>2018-06-19T09:34:42Z</time>
      </trkpt>
      <trkpt lat="45.98675" lon="4.81738">
        <ele>238</ele>
        <time>2018-06-19T09:34:43Z</time>
      </trkpt>
      <trkpt lat="45.98669" lon="4.81739">
        <ele>238</ele>
        <time>2018-06-19T09:34:44Z</time>
      </trkpt>
      <trkpt lat="45.98664" lon="4.81739">
        <ele>237</ele>
        <time>2018-06-19T09:34:45Z</time>
      </trkpt>
      <trkpt lat="45.98659" lon="4.81741">
        <ele>237</ele>
        <time>2018-06-19T09:34:46Z</time>
      </trkpt>
      <trkpt lat="45.98653" lon="4.81742">
        <ele>237</ele>
        <time>2018-06-19T09:34:48Z</time>
      </trkpt>
      <trkpt lat="45.98646" lon="4.81745">
        <ele>237</ele>
        <time>2018-06-19T09:34:49Z</time>
      </trkpt>
      <trkpt lat="45.98642" lon="4.81747">
        <ele>237</ele>
        <time>2018-06-19T09:34:50Z</time>
      </trkpt>
      <trkpt lat="45.98637" lon="4.81748">
        <ele>237</ele>
        <time>2018-06-19T09:34:51Z</time>
      </trkpt>
      <trkpt lat="45.98632" lon="4.81749">
        <ele>237</ele>
        <time>2018-06-19T09:34:52Z</time>
      </trkpt>
      <trkpt lat="45.98626" lon="4.81751">
        <ele>238</ele>
        <time>2018-06-19T09:34:53Z</time>
      </trkpt>
      <trkpt lat="45.98621" lon="4.8175">
        <ele>238</ele>
        <time>2018-06-19T09:34:54Z</time>
      </trkpt>
      <trkpt lat="45.98616" lon="4.81752">
        <ele>238</ele>
        <time>2018-06-19T09:34:55Z</time>
      </trkpt>
      <trkpt lat="45.98611" lon="4.81754">
        <ele>238</ele>
        <time>2018-06-19T09:34:56Z</time>
      </trkpt>
      <trkpt lat="45.98606" lon="4.81756">
        <ele>238</ele>
        <time>2018-06-19T09:34:57Z</time>
      </trkpt>
      <trkpt lat="45.98601" lon="4.81758">
        <ele>238</ele>
        <time>2018-06-19T09:34:58Z</time>
      </trkpt>
      <trkpt lat="45.98595" lon="4.81759">
        <ele>237</ele>
        <time>2018-06-19T09:34:59Z</time>
      </trkpt>
      <trkpt lat="45.98589" lon="4.81764">
        <ele>237</ele>
        <time>2018-06-19T09:35:00Z</time>
      </trkpt>
      <trkpt lat="45.98584" lon="4.81769">
        <ele>238</ele>
        <time>2018-06-19T09:35:01Z</time>
      </trkpt>
      <trkpt lat="45.9858" lon="4.81772">
        <ele>237</ele>
        <time>2018-06-19T09:35:02Z</time>
      </trkpt>
      <trkpt lat="45.98575" lon="4.81777">
        <ele>238</ele>
        <time>2018-06-19T09:35:03Z</time>
      </trkpt>
      <trkpt lat="45.98571" lon="4.81784">
        <ele>238</ele>
        <time>2018-06-19T09:35:04Z</time>
      </trkpt>
      <trkpt lat="45.98567" lon="4.8179">
        <ele>238</ele>
        <time>2018-06-19T09:35:05Z</time>
      </trkpt>
      <trkpt lat="45.98561" lon="4.81797">
        <ele>238</ele>
        <time>2018-06-19T09:35:06Z</time>
      </trkpt>
      <trkpt lat="45.98558" lon="4.81799">
        <ele>238</ele>
        <time>2018-06-19T09:35:07Z</time>
      </trkpt>
      <trkpt lat="45.98553" lon="4.81802">
        <ele>238</ele>
        <time>2018-06-19T09:35:08Z</time>
      </trkpt>
      <trkpt lat="45.98548" lon="4.81807">
        <ele>238</ele>
        <time>2018-06-19T09:35:09Z</time>
      </trkpt>
      <trkpt lat="45.9854" lon="4.81805">
        <ele>238</ele>
        <time>2018-06-19T09:35:11Z</time>
      </trkpt>
      <trkpt lat="45.98537" lon="4.81801">
        <ele>238</ele>
        <time>2018-06-19T09:35:12Z</time>
      </trkpt>
      <trkpt lat="45.98533" lon="4.81797">
        <ele>238</ele>
        <time>2018-06-19T09:35:13Z</time>
      </trkpt>
      <trkpt lat="45.98528" lon="4.81793">
        <ele>238</ele>
        <time>2018-06-19T09:35:14Z</time>
      </trkpt>
      <trkpt lat="45.98524" lon="4.81789">
        <ele>238</ele>
        <time>2018-06-19T09:35:15Z</time>
      </trkpt>
      <trkpt lat="45.9852" lon="4.81784">
        <ele>238</ele>
        <time>2018-06-19T09:35:16Z</time>
      </trkpt>
      <trkpt lat="45.98516" lon="4.81778">
        <ele>238</ele>
        <time>2018-06-19T09:35:17Z</time>
      </trkpt>
      <trkpt lat="45.98513" lon="4.81774">
        <ele>238</ele>
        <time>2018-06-19T09:35:18Z</time>
      </trkpt>
      <trkpt lat="45.98509" lon="4.81769">
        <ele>237</ele>
        <time>2018-06-19T09:35:19Z</time>
      </trkpt>
      <trkpt lat="45.98506" lon="4.81764">
        <ele>237</ele>
        <time>2018-06-19T09:35:20Z</time>
      </trkpt>
      <trkpt lat="45.98502" lon="4.81758">
        <ele>237</ele>
        <time>2018-06-19T09:35:21Z</time>
      </trkpt>
      <trkpt lat="45.98499" lon="4.81754">
        <ele>237</ele>
        <time>2018-06-19T09:35:22Z</time>
      </trkpt>
      <trkpt lat="45.98492" lon="4.81747">
        <ele>238</ele>
        <time>2018-06-19T09:35:24Z</time>
      </trkpt>
      <trkpt lat="45.98488" lon="4.81744">
        <ele>238</ele>
        <time>2018-06-19T09:35:25Z</time>
      </trkpt>
      <trkpt lat="45.98481" lon="4.81737">
        <ele>238</ele>
        <time>2018-06-19T09:35:27Z</time>
      </trkpt>
      <trkpt lat="45.98478" lon="4.81733">
        <ele>238</ele>
        <time>2018-06-19T09:35:28Z</time>
      </trkpt>
      <trkpt lat="45.98472" lon="4.81726">
        <ele>239</ele>
        <time>2018-06-19T09:35:30Z</time>
      </trkpt>
      <trkpt lat="45.98468" lon="4.81722">
        <ele>239</ele>
        <time>2018-06-19T09:35:31Z</time>
      </trkpt>
      <trkpt lat="45.98463" lon="4.81715">
        <ele>239</ele>
        <time>2018-06-19T09:35:34Z</time>
      </trkpt>
      <trkpt lat="45.98461" lon="4.81712">
        <ele>239</ele>
        <time>2018-06-19T09:35:35Z</time>
      </trkpt>
      <trkpt lat="45.98456" lon="4.81706">
        <ele>239</ele>
        <time>2018-06-19T09:35:37Z</time>
      </trkpt>
      <trkpt lat="45.98454" lon="4.81703">
        <ele>239</ele>
        <time>2018-06-19T09:35:38Z</time>
      </trkpt>
      <trkpt lat="45.9845" lon="4.81695">
        <ele>239</ele>
        <time>2018-06-19T09:35:40Z</time>
      </trkpt>
      <trkpt lat="45.98445" lon="4.81685">
        <ele>239</ele>
        <time>2018-06-19T09:35:41Z</time>
      </trkpt>
      <trkpt lat="45.98438" lon="4.81677">
        <ele>240</ele>
        <time>2018-06-19T09:35:43Z</time>
      </trkpt>
      <trkpt lat="45.98435" lon="4.81673">
        <ele>240</ele>
        <time>2018-06-19T09:35:44Z</time>
      </trkpt>
      <trkpt lat="45.9843" lon="4.8167">
        <ele>240</ele>
        <time>2018-06-19T09:35:45Z</time>
      </trkpt>
      <trkpt lat="45.98426" lon="4.81668">
        <ele>240</ele>
        <time>2018-06-19T09:35:46Z</time>
      </trkpt>
      <trkpt lat="45.98417" lon="4.81664">
        <ele>241</ele>
        <time>2018-06-19T09:35:48Z</time>
      </trkpt>
      <trkpt lat="45.98412" lon="4.81665">
        <ele>241</ele>
        <time>2018-06-19T09:35:49Z</time>
      </trkpt>
      <trkpt lat="45.98407" lon="4.81665">
        <ele>241</ele>
        <time>2018-06-19T09:35:50Z</time>
      </trkpt>
      <trkpt lat="45.98402" lon="4.81666">
        <ele>242</ele>
        <time>2018-06-19T09:35:51Z</time>
      </trkpt>
      <trkpt lat="45.98398" lon="4.81667">
        <ele>243</ele>
        <time>2018-06-19T09:35:52Z</time>
      </trkpt>
      <trkpt lat="45.98393" lon="4.81668">
        <ele>243</ele>
        <time>2018-06-19T09:35:53Z</time>
      </trkpt>
      <trkpt lat="45.98388" lon="4.81669">
        <ele>243</ele>
        <time>2018-06-19T09:35:54Z</time>
      </trkpt>
      <trkpt lat="45.98383" lon="4.8167">
        <ele>243</ele>
        <time>2018-06-19T09:35:55Z</time>
      </trkpt>
      <trkpt lat="45.98378" lon="4.81671">
        <ele>244</ele>
        <time>2018-06-19T09:35:56Z</time>
      </trkpt>
      <trkpt lat="45.98372" lon="4.81672">
        <ele>244</ele>
        <time>2018-06-19T09:35:57Z</time>
      </trkpt>
      <trkpt lat="45.98368" lon="4.81673">
        <ele>244</ele>
        <time>2018-06-19T09:35:58Z</time>
      </trkpt>
      <trkpt lat="45.98363" lon="4.81674">
        <ele>244</ele>
        <time>2018-06-19T09:35:59Z</time>
      </trkpt>
      <trkpt lat="45.98358" lon="4.81675">
        <ele>245</ele>
        <time>2018-06-19T09:36:00Z</time>
      </trkpt>
      <trkpt lat="45.98353" lon="4.81675">
        <ele>245</ele>
        <time>2018-06-19T09:36:01Z</time>
      </trkpt>
      <trkpt lat="45.98349" lon="4.81674">
        <ele>245</ele>
        <time>2018-06-19T09:36:02Z</time>
      </trkpt>
      <trkpt lat="45.98344" lon="4.81673">
        <ele>245</ele>
        <time>2018-06-19T09:36:03Z</time>
      </trkpt>
      <trkpt lat="45.98339" lon="4.81671">
        <ele>245</ele>
        <time>2018-06-19T09:36:04Z</time>
      </trkpt>
      <trkpt lat="45.98334" lon="4.81668">
        <ele>246</ele>
        <time>2018-06-19T09:36:05Z</time>
      </trkpt>
      <trkpt lat="45.9833" lon="4.81666">
        <ele>246</ele>
        <time>2018-06-19T09:36:06Z</time>
      </trkpt>
      <trkpt lat="45.98325" lon="4.81663">
        <ele>246</ele>
        <time>2018-06-19T09:36:07Z</time>
      </trkpt>
      <trkpt lat="45.98321" lon="4.81661">
        <ele>246</ele>
        <time>2018-06-19T09:36:08Z</time>
      </trkpt>
      <trkpt lat="45.98316" lon="4.81658">
        <ele>246</ele>
        <time>2018-06-19T09:36:09Z</time>
      </trkpt>
      <trkpt lat="45.98311" lon="4.81654">
        <ele>246</ele>
        <time>2018-06-19T09:36:10Z</time>
      </trkpt>
      <trkpt lat="45.98307" lon="4.81649">
        <ele>246</ele>
        <time>2018-06-19T09:36:11Z</time>
      </trkpt>
      <trkpt lat="45.98303" lon="4.81645">
        <ele>246</ele>
        <time>2018-06-19T09:36:12Z</time>
      </trkpt>
      <trkpt lat="45.98299" lon="4.8164">
        <ele>247</ele>
        <time>2018-06-19T09:36:13Z</time>
      </trkpt>
      <trkpt lat="45.98296" lon="4.81636">
        <ele>247</ele>
        <time>2018-06-19T09:36:14Z</time>
      </trkpt>
      <trkpt lat="45.98292" lon="4.81632">
        <ele>247</ele>
        <time>2018-06-19T09:36:15Z</time>
      </trkpt>
      <trkpt lat="45.98289" lon="4.81627">
        <ele>247</ele>
        <time>2018-06-19T09:36:16Z</time>
      </trkpt>
      <trkpt lat="45.98286" lon="4.81622">
        <ele>247</ele>
        <time>2018-06-19T09:36:17Z</time>
      </trkpt>
      <trkpt lat="45.98282" lon="4.81617">
        <ele>247</ele>
        <time>2018-06-19T09:36:18Z</time>
      </trkpt>
      <trkpt lat="45.98279" lon="4.81611">
        <ele>247</ele>
        <time>2018-06-19T09:36:19Z</time>
      </trkpt>
      <trkpt lat="45.98277" lon="4.81605">
        <ele>247</ele>
        <time>2018-06-19T09:36:20Z</time>
      </trkpt>
      <trkpt lat="45.98275" lon="4.81599">
        <ele>247</ele>
        <time>2018-06-19T09:36:21Z</time>
      </trkpt>
      <trkpt lat="45.98271" lon="4.81595">
        <ele>247</ele>
        <time>2018-06-19T09:36:22Z</time>
      </trkpt>
      <trkpt lat="45.98269" lon="4.81588">
        <ele>247</ele>
        <time>2018-06-19T09:36:23Z</time>
      </trkpt>
      <trkpt lat="45.98265" lon="4.81582">
        <ele>247</ele>
        <time>2018-06-19T09:36:24Z</time>
      </trkpt>
      <trkpt lat="45.98263" lon="4.81575">
        <ele>247</ele>
        <time>2018-06-19T09:36:25Z</time>
      </trkpt>
      <trkpt lat="45.9826" lon="4.81569">
        <ele>247</ele>
        <time>2018-06-19T09:36:26Z</time>
      </trkpt>
      <trkpt lat="45.98258" lon="4.81563">
        <ele>247</ele>
        <time>2018-06-19T09:36:27Z</time>
      </trkpt>
      <trkpt lat="45.98256" lon="4.81557">
        <ele>247</ele>
        <time>2018-06-19T09:36:28Z</time>
      </trkpt>
      <trkpt lat="45.98253" lon="4.8155">
        <ele>247</ele>
        <time>2018-06-19T09:36:29Z</time>
      </trkpt>
      <trkpt lat="45.98251" lon="4.81544">
        <ele>247</ele>
        <time>2018-06-19T09:36:30Z</time>
      </trkpt>
      <trkpt lat="45.98248" lon="4.81539">
        <ele>249</ele>
        <time>2018-06-19T09:36:31Z</time>
      </trkpt>
      <trkpt lat="45.98247" lon="4.81533">
        <ele>249</ele>
        <time>2018-06-19T09:36:32Z</time>
      </trkpt>
      <trkpt lat="45.98244" lon="4.81527">
        <ele>249</ele>
        <time>2018-06-19T09:36:33Z</time>
      </trkpt>
      <trkpt lat="45.98243" lon="4.8152">
        <ele>249</ele>
        <time>2018-06-19T09:36:34Z</time>
      </trkpt>
      <trkpt lat="45.98241" lon="4.81514">
        <ele>249</ele>
        <time>2018-06-19T09:36:35Z</time>
      </trkpt>
      <trkpt lat="45.98236" lon="4.81503">
        <ele>249</ele>
        <time>2018-06-19T09:36:37Z</time>
      </trkpt>
      <trkpt lat="45.98235" lon="4.81497">
        <ele>249</ele>
        <time>2018-06-19T09:36:38Z</time>
      </trkpt>
      <trkpt lat="45.98234" lon="4.8149">
        <ele>249</ele>
        <time>2018-06-19T09:36:39Z</time>
      </trkpt>
      <trkpt lat="45.98232" lon="4.81484">
        <ele>249</ele>
        <time>2018-06-19T09:36:40Z</time>
      </trkpt>
      <trkpt lat="45.98229" lon="4.81473">
        <ele>249</ele>
        <time>2018-06-19T09:36:42Z</time>
      </trkpt>
      <trkpt lat="45.98227" lon="4.81466">
        <ele>249</ele>
        <time>2018-06-19T09:36:43Z</time>
      </trkpt>
      <trkpt lat="45.98223" lon="4.81455">
        <ele>249</ele>
        <time>2018-06-19T09:36:45Z</time>
      </trkpt>
      <trkpt lat="45.9822" lon="4.81449">
        <ele>249</ele>
        <time>2018-06-19T09:36:46Z</time>
      </trkpt>
      <trkpt lat="45.98217" lon="4.81437">
        <ele>249</ele>
        <time>2018-06-19T09:36:48Z</time>
      </trkpt>
      <trkpt lat="45.98215" lon="4.81431">
        <ele>249</ele>
        <time>2018-06-19T09:36:49Z</time>
      </trkpt>
      <trkpt lat="45.98214" lon="4.81425">
        <ele>249</ele>
        <time>2018-06-19T09:36:50Z</time>
      </trkpt>
      <trkpt lat="45.98212" lon="4.81418">
        <ele>249</ele>
        <time>2018-06-19T09:36:51Z</time>
      </trkpt>
      <trkpt lat="45.9821" lon="4.81412">
        <ele>248</ele>
        <time>2018-06-19T09:36:52Z</time>
      </trkpt>
      <trkpt lat="45.98208" lon="4.81405">
        <ele>248</ele>
        <time>2018-06-19T09:36:53Z</time>
      </trkpt>
      <trkpt lat="45.98207" lon="4.81399">
        <ele>248</ele>
        <time>2018-06-19T09:36:54Z</time>
      </trkpt>
      <trkpt lat="45.98205" lon="4.81393">
        <ele>248</ele>
        <time>2018-06-19T09:36:55Z</time>
      </trkpt>
      <trkpt lat="45.98205" lon="4.81386">
        <ele>248</ele>
        <time>2018-06-19T09:36:56Z</time>
      </trkpt>
      <trkpt lat="45.98203" lon="4.81379">
        <ele>248</ele>
        <time>2018-06-19T09:36:57Z</time>
      </trkpt>
      <trkpt lat="45.98204" lon="4.8137">
        <ele>248</ele>
        <time>2018-06-19T09:36:58Z</time>
      </trkpt>
      <trkpt lat="45.98202" lon="4.81364">
        <ele>248</ele>
        <time>2018-06-19T09:36:59Z</time>
      </trkpt>
      <trkpt lat="45.98201" lon="4.81357">
        <ele>248</ele>
        <time>2018-06-19T09:37:00Z</time>
      </trkpt>
      <trkpt lat="45.98198" lon="4.8135">
        <ele>248</ele>
        <time>2018-06-19T09:37:01Z</time>
      </trkpt>
      <trkpt lat="45.98195" lon="4.81343">
        <ele>248</ele>
        <time>2018-06-19T09:37:02Z</time>
      </trkpt>
      <trkpt lat="45.98195" lon="4.81335">
        <ele>248</ele>
        <time>2018-06-19T09:37:03Z</time>
      </trkpt>
      <trkpt lat="45.98194" lon="4.81329">
        <ele>247</ele>
        <time>2018-06-19T09:37:04Z</time>
      </trkpt>
      <trkpt lat="45.98193" lon="4.81322">
        <ele>247</ele>
        <time>2018-06-19T09:37:05Z</time>
      </trkpt>
      <trkpt lat="45.98191" lon="4.81315">
        <ele>247</ele>
        <time>2018-06-19T09:37:06Z</time>
      </trkpt>
      <trkpt lat="45.9819" lon="4.81308">
        <ele>247</ele>
        <time>2018-06-19T09:37:07Z</time>
      </trkpt>
      <trkpt lat="45.98187" lon="4.81301">
        <ele>247</ele>
        <time>2018-06-19T09:37:08Z</time>
      </trkpt>
      <trkpt lat="45.98186" lon="4.81295">
        <ele>247</ele>
        <time>2018-06-19T09:37:09Z</time>
      </trkpt>
      <trkpt lat="45.98185" lon="4.81288">
        <ele>247</ele>
        <time>2018-06-19T09:37:10Z</time>
      </trkpt>
      <trkpt lat="45.98182" lon="4.81279">
        <ele>247</ele>
        <time>2018-06-19T09:37:11Z</time>
      </trkpt>
      <trkpt lat="45.9818" lon="4.81272">
        <ele>247</ele>
        <time>2018-06-19T09:37:12Z</time>
      </trkpt>
      <trkpt lat="45.98179" lon="4.81265">
        <ele>247</ele>
        <time>2018-06-19T09:37:13Z</time>
      </trkpt>
      <trkpt lat="45.98178" lon="4.81257">
        <ele>247</ele>
        <time>2018-06-19T09:37:14Z</time>
      </trkpt>
      <trkpt lat="45.98177" lon="4.81249">
        <ele>247</ele>
        <time>2018-06-19T09:37:15Z</time>
      </trkpt>
      <trkpt lat="45.98179" lon="4.81243">
        <ele>247</ele>
        <time>2018-06-19T09:37:16Z</time>
      </trkpt>
      <trkpt lat="45.98177" lon="4.81236">
        <ele>246</ele>
        <time>2018-06-19T09:37:17Z</time>
      </trkpt>
      <trkpt lat="45.98176" lon="4.81228">
        <ele>246</ele>
        <time>2018-06-19T09:37:18Z</time>
      </trkpt>
      <trkpt lat="45.98174" lon="4.8122">
        <ele>246</ele>
        <time>2018-06-19T09:37:19Z</time>
      </trkpt>
      <trkpt lat="45.98174" lon="4.81213">
        <ele>246</ele>
        <time>2018-06-19T09:37:20Z</time>
      </trkpt>
      <trkpt lat="45.98174" lon="4.81205">
        <ele>245</ele>
        <time>2018-06-19T09:37:21Z</time>
      </trkpt>
      <trkpt lat="45.98172" lon="4.81199">
        <ele>245</ele>
        <time>2018-06-19T09:37:22Z</time>
      </trkpt>
      <trkpt lat="45.9817" lon="4.81192">
        <ele>245</ele>
        <time>2018-06-19T09:37:23Z</time>
      </trkpt>
      <trkpt lat="45.98169" lon="4.81183">
        <ele>245</ele>
        <time>2018-06-19T09:37:24Z</time>
      </trkpt>
      <trkpt lat="45.98168" lon="4.81175">
        <ele>245</ele>
        <time>2018-06-19T09:37:25Z</time>
      </trkpt>
      <trkpt lat="45.98167" lon="4.81169">
        <ele>245</ele>
        <time>2018-06-19T09:37:26Z</time>
      </trkpt>
      <trkpt lat="45.98163" lon="4.81161">
        <ele>245</ele>
        <time>2018-06-19T09:37:27Z</time>
      </trkpt>
      <trkpt lat="45.98159" lon="4.81153">
        <ele>245</ele>
        <time>2018-06-19T09:37:28Z</time>
      </trkpt>
      <trkpt lat="45.98155" lon="4.81145">
        <ele>245</ele>
        <time>2018-06-19T09:37:29Z</time>
      </trkpt>
      <trkpt lat="45.98151" lon="4.81138">
        <ele>245</ele>
        <time>2018-06-19T09:37:30Z</time>
      </trkpt>
      <trkpt lat="45.98149" lon="4.8113">
        <ele>245</ele>
        <time>2018-06-19T09:37:31Z</time>
      </trkpt>
      <trkpt lat="45.98146" lon="4.81123">
        <ele>245</ele>
        <time>2018-06-19T09:37:32Z</time>
      </trkpt>
      <trkpt lat="45.98143" lon="4.81115">
        <ele>245</ele>
        <time>2018-06-19T09:37:33Z</time>
      </trkpt>
      <trkpt lat="45.98141" lon="4.81108">
        <ele>245</ele>
        <time>2018-06-19T09:37:34Z</time>
      </trkpt>
      <trkpt lat="45.98138" lon="4.811">
        <ele>245</ele>
        <time>2018-06-19T09:37:35Z</time>
      </trkpt>
      <trkpt lat="45.98135" lon="4.81093">
        <ele>245</ele>
        <time>2018-06-19T09:37:36Z</time>
      </trkpt>
      <trkpt lat="45.98133" lon="4.81086">
        <ele>245</ele>
        <time>2018-06-19T09:37:37Z</time>
      </trkpt>
      <trkpt lat="45.9813" lon="4.81078">
        <ele>243</ele>
        <time>2018-06-19T09:37:38Z</time>
      </trkpt>
      <trkpt lat="45.98126" lon="4.81071">
        <ele>243</ele>
        <time>2018-06-19T09:37:39Z</time>
      </trkpt>
      <trkpt lat="45.98123" lon="4.81064">
        <ele>243</ele>
        <time>2018-06-19T09:37:40Z</time>
      </trkpt>
      <trkpt lat="45.98122" lon="4.81055">
        <ele>243</ele>
        <time>2018-06-19T09:37:41Z</time>
      </trkpt>
      <trkpt lat="45.98119" lon="4.81049">
        <ele>243</ele>
        <time>2018-06-19T09:37:42Z</time>
      </trkpt>
      <trkpt lat="45.98117" lon="4.81041">
        <ele>242</ele>
        <time>2018-06-19T09:37:43Z</time>
      </trkpt>
      <trkpt lat="45.98115" lon="4.81032">
        <ele>242</ele>
        <time>2018-06-19T09:37:44Z</time>
      </trkpt>
      <trkpt lat="45.98111" lon="4.81025">
        <ele>242</ele>
        <time>2018-06-19T09:37:45Z</time>
      </trkpt>
      <trkpt lat="45.98109" lon="4.81017">
        <ele>242</ele>
        <time>2018-06-19T09:37:46Z</time>
      </trkpt>
      <trkpt lat="45.98105" lon="4.81009">
        <ele>242</ele>
        <time>2018-06-19T09:37:47Z</time>
      </trkpt>
      <trkpt lat="45.98104" lon="4.81002">
        <ele>242</ele>
        <time>2018-06-19T09:37:48Z</time>
      </trkpt>
      <trkpt lat="45.98099" lon="4.80994">
        <ele>240</ele>
        <time>2018-06-19T09:37:49Z</time>
      </trkpt>
      <trkpt lat="45.98096" lon="4.80988">
        <ele>240</ele>
        <time>2018-06-19T09:37:50Z</time>
      </trkpt>
      <trkpt lat="45.98094" lon="4.80982">
        <ele>240</ele>
        <time>2018-06-19T09:37:51Z</time>
      </trkpt>
      <trkpt lat="45.98093" lon="4.80976">
        <ele>239</ele>
        <time>2018-06-19T09:37:52Z</time>
      </trkpt>
      <trkpt lat="45.98091" lon="4.80969">
        <ele>239</ele>
        <time>2018-06-19T09:37:53Z</time>
      </trkpt>
      <trkpt lat="45.98088" lon="4.80961">
        <ele>239</ele>
        <time>2018-06-19T09:37:54Z</time>
      </trkpt>
      <trkpt lat="45.98086" lon="4.80952">
        <ele>238</ele>
        <time>2018-06-19T09:37:55Z</time>
      </trkpt>
      <trkpt lat="45.98083" lon="4.80942">
        <ele>240</ele>
        <time>2018-06-19T09:37:56Z</time>
      </trkpt>
      <trkpt lat="45.98081" lon="4.80932">
        <ele>240</ele>
        <time>2018-06-19T09:37:57Z</time>
      </trkpt>
      <trkpt lat="45.98078" lon="4.80921">
        <ele>239</ele>
        <time>2018-06-19T09:37:58Z</time>
      </trkpt>
      <trkpt lat="45.98073" lon="4.80909">
        <ele>238</ele>
        <time>2018-06-19T09:37:59Z</time>
      </trkpt>
      <trkpt lat="45.98071" lon="4.80898">
        <ele>238</ele>
        <time>2018-06-19T09:38:00Z</time>
      </trkpt>
      <trkpt lat="45.98068" lon="4.80886">
        <ele>237</ele>
        <time>2018-06-19T09:38:01Z</time>
      </trkpt>
      <trkpt lat="45.98066" lon="4.80874">
        <ele>237</ele>
        <time>2018-06-19T09:38:02Z</time>
      </trkpt>
      <trkpt lat="45.98064" lon="4.80862">
        <ele>237</ele>
        <time>2018-06-19T09:38:03Z</time>
      </trkpt>
      <trkpt lat="45.98061" lon="4.8085">
        <ele>236</ele>
        <time>2018-06-19T09:38:04Z</time>
      </trkpt>
      <trkpt lat="45.98058" lon="4.80837">
        <ele>236</ele>
        <time>2018-06-19T09:38:05Z</time>
      </trkpt>
      <trkpt lat="45.98055" lon="4.80825">
        <ele>234</ele>
        <time>2018-06-19T09:38:06Z</time>
      </trkpt>
      <trkpt lat="45.98052" lon="4.80813">
        <ele>234</ele>
        <time>2018-06-19T09:38:07Z</time>
      </trkpt>
      <trkpt lat="45.98051" lon="4.80802">
        <ele>234</ele>
        <time>2018-06-19T09:38:08Z</time>
      </trkpt>
      <trkpt lat="45.98048" lon="4.80791">
        <ele>233</ele>
        <time>2018-06-19T09:38:09Z</time>
      </trkpt>
      <trkpt lat="45.98045" lon="4.8078">
        <ele>233</ele>
        <time>2018-06-19T09:38:10Z</time>
      </trkpt>
      <trkpt lat="45.98042" lon="4.80769">
        <ele>233</ele>
        <time>2018-06-19T09:38:11Z</time>
      </trkpt>
      <trkpt lat="45.9804" lon="4.80759">
        <ele>233</ele>
        <time>2018-06-19T09:38:12Z</time>
      </trkpt>
      <trkpt lat="45.98038" lon="4.8075">
        <ele>233</ele>
        <time>2018-06-19T09:38:13Z</time>
      </trkpt>
      <trkpt lat="45.98036" lon="4.80742">
        <ele>231</ele>
        <time>2018-06-19T09:38:14Z</time>
      </trkpt>
      <trkpt lat="45.98032" lon="4.80734">
        <ele>231</ele>
        <time>2018-06-19T09:38:15Z</time>
      </trkpt>
      <trkpt lat="45.98031" lon="4.80727">
        <ele>231</ele>
        <time>2018-06-19T09:38:16Z</time>
      </trkpt>
      <trkpt lat="45.98029" lon="4.80721">
        <ele>231</ele>
        <time>2018-06-19T09:38:17Z</time>
      </trkpt>
      <trkpt lat="45.98028" lon="4.80715">
        <ele>231</ele>
        <time>2018-06-19T09:38:18Z</time>
      </trkpt>
      <trkpt lat="45.98024" lon="4.80709">
        <ele>231</ele>
        <time>2018-06-19T09:38:19Z</time>
      </trkpt>
      <trkpt lat="45.98023" lon="4.80703">
        <ele>231</ele>
        <time>2018-06-19T09:38:20Z</time>
      </trkpt>
      <trkpt lat="45.98032" lon="4.80699">
        <ele>230</ele>
        <time>2018-06-19T09:38:21Z</time>
      </trkpt>
      <trkpt lat="45.98037" lon="4.80698">
        <ele>230</ele>
        <time>2018-06-19T09:38:22Z</time>
      </trkpt>
      <trkpt lat="45.98042" lon="4.80698">
        <ele>230</ele>
        <time>2018-06-19T09:38:23Z</time>
      </trkpt>
      <trkpt lat="45.98048" lon="4.80698">
        <ele>230</ele>
        <time>2018-06-19T09:38:24Z</time>
      </trkpt>
      <trkpt lat="45.98053" lon="4.80698">
        <ele>230</ele>
        <time>2018-06-19T09:38:25Z</time>
      </trkpt>
      <trkpt lat="45.9806" lon="4.80697">
        <ele>230</ele>
        <time>2018-06-19T09:38:26Z</time>
      </trkpt>
      <trkpt lat="45.98066" lon="4.80696">
        <ele>230</ele>
        <time>2018-06-19T09:38:27Z</time>
      </trkpt>
      <trkpt lat="45.98073" lon="4.80695">
        <ele>230</ele>
        <time>2018-06-19T09:38:28Z</time>
      </trkpt>
      <trkpt lat="45.9808" lon="4.80695">
        <ele>230</ele>
        <time>2018-06-19T09:38:29Z</time>
      </trkpt>
      <trkpt lat="45.98086" lon="4.80694">
        <ele>228</ele>
        <time>2018-06-19T09:38:30Z</time>
      </trkpt>
      <trkpt lat="45.98092" lon="4.80694">
        <ele>228</ele>
        <time>2018-06-19T09:38:31Z</time>
      </trkpt>
      <trkpt lat="45.98098" lon="4.80694">
        <ele>228</ele>
        <time>2018-06-19T09:38:32Z</time>
      </trkpt>
      <trkpt lat="45.98105" lon="4.80695">
        <ele>228</ele>
        <time>2018-06-19T09:38:33Z</time>
      </trkpt>
      <trkpt lat="45.98112" lon="4.80695">
        <ele>228</ele>
        <time>2018-06-19T09:38:34Z</time>
      </trkpt>
      <trkpt lat="45.98118" lon="4.80695">
        <ele>228</ele>
        <time>2018-06-19T09:38:35Z</time>
      </trkpt>
      <trkpt lat="45.98125" lon="4.80694">
        <ele>228</ele>
        <time>2018-06-19T09:38:36Z</time>
      </trkpt>
      <trkpt lat="45.98134" lon="4.80693">
        <ele>228</ele>
        <time>2018-06-19T09:38:37Z</time>
      </trkpt>
      <trkpt lat="45.98141" lon="4.80693">
        <ele>228</ele>
        <time>2018-06-19T09:38:38Z</time>
      </trkpt>
      <trkpt lat="45.98146" lon="4.80693">
        <ele>228</ele>
        <time>2018-06-19T09:38:39Z</time>
      </trkpt>
      <trkpt lat="45.98153" lon="4.80692">
        <ele>228</ele>
        <time>2018-06-19T09:38:40Z</time>
      </trkpt>
      <trkpt lat="45.98158" lon="4.80691">
        <ele>227</ele>
        <time>2018-06-19T09:38:41Z</time>
      </trkpt>
      <trkpt lat="45.98164" lon="4.8069">
        <ele>227</ele>
        <time>2018-06-19T09:38:42Z</time>
      </trkpt>
      <trkpt lat="45.9817" lon="4.80689">
        <ele>225</ele>
        <time>2018-06-19T09:38:43Z</time>
      </trkpt>
      <trkpt lat="45.98177" lon="4.80687">
        <ele>225</ele>
        <time>2018-06-19T09:38:44Z</time>
      </trkpt>
      <trkpt lat="45.98184" lon="4.80685">
        <ele>225</ele>
        <time>2018-06-19T09:38:45Z</time>
      </trkpt>
      <trkpt lat="45.98191" lon="4.80683">
        <ele>225</ele>
        <time>2018-06-19T09:38:46Z</time>
      </trkpt>
      <trkpt lat="45.98198" lon="4.8068">
        <ele>225</ele>
        <time>2018-06-19T09:38:47Z</time>
      </trkpt>
      <trkpt lat="45.98206" lon="4.80676">
        <ele>224</ele>
        <time>2018-06-19T09:38:48Z</time>
      </trkpt>
      <trkpt lat="45.98213" lon="4.80672">
        <ele>224</ele>
        <time>2018-06-19T09:38:49Z</time>
      </trkpt>
      <trkpt lat="45.98218" lon="4.80666">
        <ele>224</ele>
        <time>2018-06-19T09:38:50Z</time>
      </trkpt>
      <trkpt lat="45.98221" lon="4.80659">
        <ele>224</ele>
        <time>2018-06-19T09:38:51Z</time>
      </trkpt>
      <trkpt lat="45.98225" lon="4.80651">
        <ele>224</ele>
        <time>2018-06-19T09:38:52Z</time>
      </trkpt>
      <trkpt lat="45.98228" lon="4.80641">
        <ele>224</ele>
        <time>2018-06-19T09:38:53Z</time>
      </trkpt>
      <trkpt lat="45.98231" lon="4.80632">
        <ele>224</ele>
        <time>2018-06-19T09:38:54Z</time>
      </trkpt>
      <trkpt lat="45.98235" lon="4.80622">
        <ele>224</ele>
        <time>2018-06-19T09:38:55Z</time>
      </trkpt>
      <trkpt lat="45.98238" lon="4.80613">
        <ele>224</ele>
        <time>2018-06-19T09:38:56Z</time>
      </trkpt>
      <trkpt lat="45.98242" lon="4.80603">
        <ele>224</ele>
        <time>2018-06-19T09:38:57Z</time>
      </trkpt>
      <trkpt lat="45.98246" lon="4.80593">
        <ele>224</ele>
        <time>2018-06-19T09:38:58Z</time>
      </trkpt>
      <trkpt lat="45.98249" lon="4.80583">
        <ele>224</ele>
        <time>2018-06-19T09:38:59Z</time>
      </trkpt>
      <trkpt lat="45.98252" lon="4.80573">
        <ele>224</ele>
        <time>2018-06-19T09:39:00Z</time>
      </trkpt>
      <trkpt lat="45.98254" lon="4.80564">
        <ele>224</ele>
        <time>2018-06-19T09:39:01Z</time>
      </trkpt>
      <trkpt lat="45.98257" lon="4.80555">
        <ele>224</ele>
        <time>2018-06-19T09:39:02Z</time>
      </trkpt>
      <trkpt lat="45.9826" lon="4.80545">
        <ele>224</ele>
        <time>2018-06-19T09:39:03Z</time>
      </trkpt>
      <trkpt lat="45.98262" lon="4.80537">
        <ele>224</ele>
        <time>2018-06-19T09:39:04Z</time>
      </trkpt>
      <trkpt lat="45.98265" lon="4.8053">
        <ele>224</ele>
        <time>2018-06-19T09:39:05Z</time>
      </trkpt>
      <trkpt lat="45.98267" lon="4.80523">
        <ele>224</ele>
        <time>2018-06-19T09:39:06Z</time>
      </trkpt>
      <trkpt lat="45.9827" lon="4.80517">
        <ele>223</ele>
        <time>2018-06-19T09:39:07Z</time>
      </trkpt>
      <trkpt lat="45.98272" lon="4.80508">
        <ele>223</ele>
        <time>2018-06-19T09:39:08Z</time>
      </trkpt>
      <trkpt lat="45.98274" lon="4.805">
        <ele>223</ele>
        <time>2018-06-19T09:39:09Z</time>
      </trkpt>
      <trkpt lat="45.98276" lon="4.80491">
        <ele>223</ele>
        <time>2018-06-19T09:39:10Z</time>
      </trkpt>
      <trkpt lat="45.98278" lon="4.80482">
        <ele>223</ele>
        <time>2018-06-19T09:39:11Z</time>
      </trkpt>
      <trkpt lat="45.98279" lon="4.80473">
        <ele>223</ele>
        <time>2018-06-19T09:39:12Z</time>
      </trkpt>
      <trkpt lat="45.98281" lon="4.80465">
        <ele>223</ele>
        <time>2018-06-19T09:39:13Z</time>
      </trkpt>
      <trkpt lat="45.98282" lon="4.8046">
        <ele>223</ele>
        <time>2018-06-19T09:39:14Z</time>
      </trkpt>
      <trkpt lat="45.98285" lon="4.8045">
        <ele>224</ele>
        <time>2018-06-19T09:39:15Z</time>
      </trkpt>
      <trkpt lat="45.98287" lon="4.8044">
        <ele>224</ele>
        <time>2018-06-19T09:39:16Z</time>
      </trkpt>
      <trkpt lat="45.98288" lon="4.80431">
        <ele>224</ele>
        <time>2018-06-19T09:39:17Z</time>
      </trkpt>
      <trkpt lat="45.98289" lon="4.80425">
        <ele>224</ele>
        <time>2018-06-19T09:39:18Z</time>
      </trkpt>
      <trkpt lat="45.98292" lon="4.80416">
        <ele>224</ele>
        <time>2018-06-19T09:39:19Z</time>
      </trkpt>
      <trkpt lat="45.98297" lon="4.80406">
        <ele>225</ele>
        <time>2018-06-19T09:39:21Z</time>
      </trkpt>
      <trkpt lat="45.98298" lon="4.80403">
        <ele>225</ele>
        <time>2018-06-19T09:39:22Z</time>
      </trkpt>
      <trkpt lat="45.98299" lon="4.80394">
        <ele>225</ele>
        <time>2018-06-19T09:39:23Z</time>
      </trkpt>
      <trkpt lat="45.98301" lon="4.80387">
        <ele>225</ele>
        <time>2018-06-19T09:39:24Z</time>
      </trkpt>
      <trkpt lat="45.98305" lon="4.80384">
        <ele>225</ele>
        <time>2018-06-19T09:39:25Z</time>
      </trkpt>
      <trkpt lat="45.98307" lon="4.80376">
        <ele>225</ele>
        <time>2018-06-19T09:39:26Z</time>
      </trkpt>
      <trkpt lat="45.98307" lon="4.80367">
        <ele>225</ele>
        <time>2018-06-19T09:39:27Z</time>
      </trkpt>
      <trkpt lat="45.98307" lon="4.80356">
        <ele>225</ele>
        <time>2018-06-19T09:39:28Z</time>
      </trkpt>
      <trkpt lat="45.98309" lon="4.80352">
        <ele>226</ele>
        <time>2018-06-19T09:39:29Z</time>
      </trkpt>
      <trkpt lat="45.9831" lon="4.80342">
        <ele>226</ele>
        <time>2018-06-19T09:39:30Z</time>
      </trkpt>
      <trkpt lat="45.98313" lon="4.80336">
        <ele>227</ele>
        <time>2018-06-19T09:39:31Z</time>
      </trkpt>
      <trkpt lat="45.98315" lon="4.80328">
        <ele>227</ele>
        <time>2018-06-19T09:39:32Z</time>
      </trkpt>
      <trkpt lat="45.98317" lon="4.8032">
        <ele>227</ele>
        <time>2018-06-19T09:39:33Z</time>
      </trkpt>
      <trkpt lat="45.98318" lon="4.80313">
        <ele>227</ele>
        <time>2018-06-19T09:39:34Z</time>
      </trkpt>
      <trkpt lat="45.98319" lon="4.80308">
        <ele>227</ele>
        <time>2018-06-19T09:39:35Z</time>
      </trkpt>
      <trkpt lat="45.98319" lon="4.80299">
        <ele>227</ele>
        <time>2018-06-19T09:39:36Z</time>
      </trkpt>
      <trkpt lat="45.98322" lon="4.8029">
        <ele>227</ele>
        <time>2018-06-19T09:39:38Z</time>
      </trkpt>
      <trkpt lat="45.98323" lon="4.80283">
        <ele>227</ele>
        <time>2018-06-19T09:39:39Z</time>
      </trkpt>
      <trkpt lat="45.98325" lon="4.80274">
        <ele>227</ele>
        <time>2018-06-19T09:39:41Z</time>
      </trkpt>
      <trkpt lat="45.98325" lon="4.80268">
        <ele>227</ele>
        <time>2018-06-19T09:39:42Z</time>
      </trkpt>
      <trkpt lat="45.98328" lon="4.80264">
        <ele>228</ele>
        <time>2018-06-19T09:39:44Z</time>
      </trkpt>
      <trkpt lat="45.98329" lon="4.80255">
        <ele>229</ele>
        <time>2018-06-19T09:39:45Z</time>
      </trkpt>
      <trkpt lat="45.98331" lon="4.8025">
        <ele>229</ele>
        <time>2018-06-19T09:39:46Z</time>
      </trkpt>
      <trkpt lat="45.98336" lon="4.80241">
        <ele>230</ele>
        <time>2018-06-19T09:39:47Z</time>
      </trkpt>
      <trkpt lat="45.98338" lon="4.80233">
        <ele>230</ele>
        <time>2018-06-19T09:39:49Z</time>
      </trkpt>
      <trkpt lat="45.98339" lon="4.80225">
        <ele>230</ele>
        <time>2018-06-19T09:39:50Z</time>
      </trkpt>
      <trkpt lat="45.98337" lon="4.80216">
        <ele>230</ele>
        <time>2018-06-19T09:39:51Z</time>
      </trkpt>
      <trkpt lat="45.98335" lon="4.80209">
        <ele>230</ele>
        <time>2018-06-19T09:39:52Z</time>
      </trkpt>
      <trkpt lat="45.98333" lon="4.80203">
        <ele>227</ele>
        <time>2018-06-19T09:39:53Z</time>
      </trkpt>
      <trkpt lat="45.9833" lon="4.80197">
        <ele>227</ele>
        <time>2018-06-19T09:39:54Z</time>
      </trkpt>
      <trkpt lat="45.98328" lon="4.8019">
        <ele>227</ele>
        <time>2018-06-19T09:39:55Z</time>
      </trkpt>
      <trkpt lat="45.98327" lon="4.80185">
        <ele>227</ele>
        <time>2018-06-19T09:39:56Z</time>
      </trkpt>
      <trkpt lat="45.98325" lon="4.80179">
        <ele>227</ele>
        <time>2018-06-19T09:39:57Z</time>
      </trkpt>
      <trkpt lat="45.98322" lon="4.80173">
        <ele>227</ele>
        <time>2018-06-19T09:39:58Z</time>
      </trkpt>
      <trkpt lat="45.9832" lon="4.80166">
        <ele>228</ele>
        <time>2018-06-19T09:39:59Z</time>
      </trkpt>
      <trkpt lat="45.98318" lon="4.80159">
        <ele>228</ele>
        <time>2018-06-19T09:40:00Z</time>
      </trkpt>
      <trkpt lat="45.98315" lon="4.80152">
        <ele>228</ele>
        <time>2018-06-19T09:40:01Z</time>
      </trkpt>
      <trkpt lat="45.98312" lon="4.80146">
        <ele>228</ele>
        <time>2018-06-19T09:40:02Z</time>
      </trkpt>
      <trkpt lat="45.9831" lon="4.80139">
        <ele>228</ele>
        <time>2018-06-19T09:40:03Z</time>
      </trkpt>
      <trkpt lat="45.98307" lon="4.80133">
        <ele>228</ele>
        <time>2018-06-19T09:40:04Z</time>
      </trkpt>
      <trkpt lat="45.98305" lon="4.80126">
        <ele>228</ele>
        <time>2018-06-19T09:40:05Z</time>
      </trkpt>
      <trkpt lat="45.98303" lon="4.80119">
        <ele>228</ele>
        <time>2018-06-19T09:40:06Z</time>
      </trkpt>
      <trkpt lat="45.983" lon="4.80113">
        <ele>228</ele>
        <time>2018-06-19T09:40:07Z</time>
      </trkpt>
      <trkpt lat="45.98297" lon="4.80107">
        <ele>228</ele>
        <time>2018-06-19T09:40:08Z</time>
      </trkpt>
      <trkpt lat="45.98295" lon="4.80101">
        <ele>228</ele>
        <time>2018-06-19T09:40:09Z</time>
      </trkpt>
      <trkpt lat="45.98292" lon="4.80094">
        <ele>228</ele>
        <time>2018-06-19T09:40:10Z</time>
      </trkpt>
      <trkpt lat="45.98288" lon="4.80083">
        <ele>229</ele>
        <time>2018-06-19T09:40:12Z</time>
      </trkpt>
      <trkpt lat="45.98286" lon="4.80077">
        <ele>229</ele>
        <time>2018-06-19T09:40:13Z</time>
      </trkpt>
      <trkpt lat="45.98284" lon="4.80072">
        <ele>229</ele>
        <time>2018-06-19T09:40:14Z</time>
      </trkpt>
      <trkpt lat="45.98282" lon="4.80065">
        <ele>229</ele>
        <time>2018-06-19T09:40:15Z</time>
      </trkpt>
      <trkpt lat="45.98279" lon="4.80057">
        <ele>229</ele>
        <time>2018-06-19T09:40:16Z</time>
      </trkpt>
      <trkpt lat="45.98276" lon="4.80051">
        <ele>229</ele>
        <time>2018-06-19T09:40:17Z</time>
      </trkpt>
      <trkpt lat="45.98272" lon="4.80042">
        <ele>229</ele>
        <time>2018-06-19T09:40:18Z</time>
      </trkpt>
      <trkpt lat="45.9827" lon="4.80035">
        <ele>229</ele>
        <time>2018-06-19T09:40:19Z</time>
      </trkpt>
      <trkpt lat="45.98265" lon="4.80029">
        <ele>228</ele>
        <time>2018-06-19T09:40:20Z</time>
      </trkpt>
      <trkpt lat="45.98262" lon="4.80021">
        <ele>228</ele>
        <time>2018-06-19T09:40:21Z</time>
      </trkpt>
      <trkpt lat="45.98258" lon="4.80015">
        <ele>228</ele>
        <time>2018-06-19T09:40:22Z</time>
      </trkpt>
      <trkpt lat="45.98256" lon="4.8001">
        <ele>227</ele>
        <time>2018-06-19T09:40:23Z</time>
      </trkpt>
      <trkpt lat="45.98254" lon="4.80004">
        <ele>227</ele>
        <time>2018-06-19T09:40:24Z</time>
      </trkpt>
      <trkpt lat="45.98253" lon="4.79996">
        <ele>227</ele>
        <time>2018-06-19T09:40:25Z</time>
      </trkpt>
      <trkpt lat="45.98251" lon="4.79984">
        <ele>228</ele>
        <time>2018-06-19T09:40:27Z</time>
      </trkpt>
      <trkpt lat="45.98248" lon="4.79978">
        <ele>225</ele>
        <time>2018-06-19T09:40:28Z</time>
      </trkpt>
      <trkpt lat="45.98246" lon="4.79971">
        <ele>225</ele>
        <time>2018-06-19T09:40:29Z</time>
      </trkpt>
      <trkpt lat="45.98241" lon="4.79963">
        <ele>225</ele>
        <time>2018-06-19T09:40:30Z</time>
      </trkpt>
      <trkpt lat="45.98239" lon="4.79956">
        <ele>225</ele>
        <time>2018-06-19T09:40:31Z</time>
      </trkpt>
      <trkpt lat="45.98237" lon="4.7995">
        <ele>225</ele>
        <time>2018-06-19T09:40:32Z</time>
      </trkpt>
      <trkpt lat="45.98233" lon="4.79943">
        <ele>225</ele>
        <time>2018-06-19T09:40:33Z</time>
      </trkpt>
      <trkpt lat="45.9823" lon="4.79936">
        <ele>225</ele>
        <time>2018-06-19T09:40:34Z</time>
      </trkpt>
      <trkpt lat="45.98227" lon="4.7993">
        <ele>225</ele>
        <time>2018-06-19T09:40:35Z</time>
      </trkpt>
      <trkpt lat="45.98225" lon="4.79924">
        <ele>225</ele>
        <time>2018-06-19T09:40:36Z</time>
      </trkpt>
      <trkpt lat="45.98224" lon="4.79916">
        <ele>225</ele>
        <time>2018-06-19T09:40:37Z</time>
      </trkpt>
      <trkpt lat="45.98222" lon="4.7991">
        <ele>225</ele>
        <time>2018-06-19T09:40:38Z</time>
      </trkpt>
      <trkpt lat="45.9822" lon="4.79905">
        <ele>225</ele>
        <time>2018-06-19T09:40:39Z</time>
      </trkpt>
      <trkpt lat="45.98217" lon="4.79898">
        <ele>225</ele>
        <time>2018-06-19T09:40:40Z</time>
      </trkpt>
      <trkpt lat="45.98214" lon="4.79892">
        <ele>225</ele>
        <time>2018-06-19T09:40:41Z</time>
      </trkpt>
      <trkpt lat="45.9821" lon="4.79885">
        <ele>225</ele>
        <time>2018-06-19T09:40:42Z</time>
      </trkpt>
      <trkpt lat="45.98208" lon="4.79879">
        <ele>225</ele>
        <time>2018-06-19T09:40:43Z</time>
      </trkpt>
      <trkpt lat="45.98206" lon="4.79872">
        <ele>225</ele>
        <time>2018-06-19T09:40:44Z</time>
      </trkpt>
      <trkpt lat="45.98202" lon="4.79863">
        <ele>225</ele>
        <time>2018-06-19T09:40:46Z</time>
      </trkpt>
      <trkpt lat="45.98201" lon="4.79857">
        <ele>225</ele>
        <time>2018-06-19T09:40:47Z</time>
      </trkpt>
      <trkpt lat="45.98199" lon="4.79851">
        <ele>225</ele>
        <time>2018-06-19T09:40:48Z</time>
      </trkpt>
      <trkpt lat="45.98197" lon="4.79844">
        <ele>225</ele>
        <time>2018-06-19T09:40:49Z</time>
      </trkpt>
      <trkpt lat="45.98193" lon="4.79833">
        <ele>225</ele>
        <time>2018-06-19T09:40:51Z</time>
      </trkpt>
      <trkpt lat="45.98191" lon="4.79828">
        <ele>225</ele>
        <time>2018-06-19T09:40:52Z</time>
      </trkpt>
      <trkpt lat="45.98187" lon="4.79818">
        <ele>225</ele>
        <time>2018-06-19T09:40:54Z</time>
      </trkpt>
      <trkpt lat="45.98186" lon="4.79813">
        <ele>225</ele>
        <time>2018-06-19T09:40:55Z</time>
      </trkpt>
      <trkpt lat="45.98183" lon="4.79802">
        <ele>226</ele>
        <time>2018-06-19T09:40:58Z</time>
      </trkpt>
      <trkpt lat="45.9818" lon="4.79792">
        <ele>226</ele>
        <time>2018-06-19T09:40:59Z</time>
      </trkpt>
      <trkpt lat="45.98179" lon="4.79786">
        <ele>226</ele>
        <time>2018-06-19T09:41:01Z</time>
      </trkpt>
      <trkpt lat="45.98179" lon="4.79777">
        <ele>226</ele>
        <time>2018-06-19T09:41:02Z</time>
      </trkpt>
      <trkpt lat="45.98181" lon="4.79769">
        <ele>226</ele>
        <time>2018-06-19T09:41:05Z</time>
      </trkpt>
      <trkpt lat="45.98183" lon="4.79765">
        <ele>226</ele>
        <time>2018-06-19T09:41:06Z</time>
      </trkpt>
      <trkpt lat="45.98185" lon="4.79762">
        <ele>226</ele>
        <time>2018-06-19T09:41:07Z</time>
      </trkpt>
      <trkpt lat="45.98192" lon="4.79756">
        <ele>226</ele>
        <time>2018-06-19T09:41:08Z</time>
      </trkpt>
      <trkpt lat="45.98199" lon="4.79753">
        <ele>226</ele>
        <time>2018-06-19T09:41:11Z</time>
      </trkpt>
      <trkpt lat="45.98202" lon="4.79752">
        <ele>226</ele>
        <time>2018-06-19T09:41:12Z</time>
      </trkpt>
      <trkpt lat="45.98208" lon="4.79751">
        <ele>226</ele>
        <time>2018-06-19T09:41:14Z</time>
      </trkpt>
      <trkpt lat="45.98212" lon="4.79751">
        <ele>226</ele>
        <time>2018-06-19T09:41:15Z</time>
      </trkpt>
      <trkpt lat="45.98219" lon="4.7975">
        <ele>227</ele>
        <time>2018-06-19T09:41:17Z</time>
      </trkpt>
      <trkpt lat="45.98222" lon="4.7975">
        <ele>228</ele>
        <time>2018-06-19T09:41:18Z</time>
      </trkpt>
      <trkpt lat="45.98228" lon="4.79749">
        <ele>228</ele>
        <time>2018-06-19T09:41:20Z</time>
      </trkpt>
      <trkpt lat="45.98232" lon="4.79749">
        <ele>228</ele>
        <time>2018-06-19T09:41:21Z</time>
      </trkpt>
      <trkpt lat="45.98237" lon="4.79748">
        <ele>228</ele>
        <time>2018-06-19T09:41:23Z</time>
      </trkpt>
      <trkpt lat="45.98241" lon="4.79748">
        <ele>228</ele>
        <time>2018-06-19T09:41:24Z</time>
      </trkpt>
      <trkpt lat="45.98247" lon="4.79747">
        <ele>228</ele>
        <time>2018-06-19T09:41:26Z</time>
      </trkpt>
      <trkpt lat="45.98251" lon="4.79747">
        <ele>229</ele>
        <time>2018-06-19T09:41:27Z</time>
      </trkpt>
      <trkpt lat="45.98258" lon="4.79746">
        <ele>230</ele>
        <time>2018-06-19T09:41:29Z</time>
      </trkpt>
      <trkpt lat="45.98262" lon="4.79746">
        <ele>231</ele>
        <time>2018-06-19T09:41:30Z</time>
      </trkpt>
      <trkpt lat="45.98269" lon="4.79745">
        <ele>232</ele>
        <time>2018-06-19T09:41:32Z</time>
      </trkpt>
      <trkpt lat="45.98272" lon="4.79744">
        <ele>232</ele>
        <time>2018-06-19T09:41:33Z</time>
      </trkpt>
      <trkpt lat="45.98279" lon="4.79743">
        <ele>233</ele>
        <time>2018-06-19T09:41:35Z</time>
      </trkpt>
      <trkpt lat="45.98282" lon="4.79743">
        <ele>233</ele>
        <time>2018-06-19T09:41:36Z</time>
      </trkpt>
      <trkpt lat="45.98288" lon="4.79742">
        <ele>234</ele>
        <time>2018-06-19T09:41:38Z</time>
      </trkpt>
      <trkpt lat="45.98291" lon="4.79742">
        <ele>234</ele>
        <time>2018-06-19T09:41:39Z</time>
      </trkpt>
      <trkpt lat="45.98298" lon="4.79741">
        <ele>235</ele>
        <time>2018-06-19T09:41:41Z</time>
      </trkpt>
      <trkpt lat="45.98301" lon="4.79741">
        <ele>235</ele>
        <time>2018-06-19T09:41:42Z</time>
      </trkpt>
      <trkpt lat="45.98307" lon="4.7974">
        <ele>235</ele>
        <time>2018-06-19T09:41:44Z</time>
      </trkpt>
      <trkpt lat="45.98311" lon="4.7974">
        <ele>236</ele>
        <time>2018-06-19T09:41:45Z</time>
      </trkpt>
      <trkpt lat="45.98317" lon="4.79739">
        <ele>236</ele>
        <time>2018-06-19T09:41:47Z</time>
      </trkpt>
      <trkpt lat="45.9832" lon="4.79738">
        <ele>236</ele>
        <time>2018-06-19T09:41:48Z</time>
      </trkpt>
      <trkpt lat="45.98328" lon="4.79736">
        <ele>236</ele>
        <time>2018-06-19T09:41:51Z</time>
      </trkpt>
      <trkpt lat="45.98331" lon="4.79736">
        <ele>236</ele>
        <time>2018-06-19T09:41:52Z</time>
      </trkpt>
      <trkpt lat="45.98337" lon="4.79735">
        <ele>239</ele>
        <time>2018-06-19T09:41:54Z</time>
      </trkpt>
      <trkpt lat="45.9834" lon="4.79734">
        <ele>239</ele>
        <time>2018-06-19T09:41:55Z</time>
      </trkpt>
      <trkpt lat="45.98349" lon="4.79734">
        <ele>239</ele>
        <time>2018-06-19T09:41:58Z</time>
      </trkpt>
      <trkpt lat="45.98351" lon="4.79733">
        <ele>240</ele>
        <time>2018-06-19T09:41:59Z</time>
      </trkpt>
      <trkpt lat="45.9836" lon="4.79733">
        <ele>240</ele>
        <time>2018-06-19T09:42:02Z</time>
      </trkpt>
      <trkpt lat="45.98363" lon="4.79732">
        <ele>240</ele>
        <time>2018-06-19T09:42:03Z</time>
      </trkpt>
      <trkpt lat="45.98371" lon="4.79731">
        <ele>240</ele>
        <time>2018-06-19T09:42:06Z</time>
      </trkpt>
      <trkpt lat="45.98374" lon="4.79731">
        <ele>240</ele>
        <time>2018-06-19T09:42:07Z</time>
      </trkpt>
      <trkpt lat="45.98383" lon="4.7973">
        <ele>241</ele>
        <time>2018-06-19T09:42:10Z</time>
      </trkpt>
      <trkpt lat="45.98386" lon="4.7973">
        <ele>241</ele>
        <time>2018-06-19T09:42:11Z</time>
      </trkpt>
      <trkpt lat="45.98395" lon="4.79729">
        <ele>241</ele>
        <time>2018-06-19T09:42:14Z</time>
      </trkpt>
      <trkpt lat="45.98398" lon="4.79729">
        <ele>241</ele>
        <time>2018-06-19T09:42:15Z</time>
      </trkpt>
      <trkpt lat="45.98404" lon="4.79728">
        <ele>241</ele>
        <time>2018-06-19T09:42:17Z</time>
      </trkpt>
      <trkpt lat="45.98407" lon="4.79727">
        <ele>241</ele>
        <time>2018-06-19T09:42:18Z</time>
      </trkpt>
      <trkpt lat="45.98415" lon="4.79726">
        <ele>241</ele>
        <time>2018-06-19T09:42:21Z</time>
      </trkpt>
      <trkpt lat="45.98418" lon="4.79726">
        <ele>242</ele>
        <time>2018-06-19T09:42:22Z</time>
      </trkpt>
      <trkpt lat="45.98427" lon="4.79726">
        <ele>242</ele>
        <time>2018-06-19T09:42:25Z</time>
      </trkpt>
      <trkpt lat="45.9843" lon="4.79725">
        <ele>242</ele>
        <time>2018-06-19T09:42:26Z</time>
      </trkpt>
      <trkpt lat="45.98436" lon="4.79725">
        <ele>242</ele>
        <time>2018-06-19T09:42:28Z</time>
      </trkpt>
      <trkpt lat="45.98439" lon="4.79725">
        <ele>242</ele>
        <time>2018-06-19T09:42:29Z</time>
      </trkpt>
      <trkpt lat="45.98448" lon="4.79725">
        <ele>242</ele>
        <time>2018-06-19T09:42:32Z</time>
      </trkpt>
      <trkpt lat="45.98451" lon="4.79725">
        <ele>243</ele>
        <time>2018-06-19T09:42:33Z</time>
      </trkpt>
      <trkpt lat="45.98457" lon="4.79725">
        <ele>243</ele>
        <time>2018-06-19T09:42:35Z</time>
      </trkpt>
      <trkpt lat="45.9846" lon="4.79725">
        <ele>243</ele>
        <time>2018-06-19T09:42:36Z</time>
      </trkpt>
      <trkpt lat="45.98467" lon="4.79725">
        <ele>243</ele>
        <time>2018-06-19T09:42:38Z</time>
      </trkpt>
      <trkpt lat="45.9847" lon="4.79724">
        <ele>243</ele>
        <time>2018-06-19T09:42:39Z</time>
      </trkpt>
      <trkpt lat="45.98477" lon="4.79724">
        <ele>243</ele>
        <time>2018-06-19T09:42:41Z</time>
      </trkpt>
      <trkpt lat="45.9848" lon="4.79724">
        <ele>243</ele>
        <time>2018-06-19T09:42:42Z</time>
      </trkpt>
      <trkpt lat="45.98486" lon="4.79724">
        <ele>243</ele>
        <time>2018-06-19T09:42:44Z</time>
      </trkpt>
      <trkpt lat="45.9849" lon="4.79724">
        <ele>243</ele>
        <time>2018-06-19T09:42:45Z</time>
      </trkpt>
      <trkpt lat="45.98496" lon="4.79725">
        <ele>243</ele>
        <time>2018-06-19T09:42:47Z</time>
      </trkpt>
      <trkpt lat="45.985" lon="4.79725">
        <ele>243</ele>
        <time>2018-06-19T09:42:48Z</time>
      </trkpt>
      <trkpt lat="45.98509" lon="4.79725">
        <ele>244</ele>
        <time>2018-06-19T09:42:49Z</time>
      </trkpt>
      <trkpt lat="45.98511" lon="4.79725">
        <ele>244</ele>
        <time>2018-06-19T09:42:50Z</time>
      </trkpt>
      <trkpt lat="45.98519" lon="4.79724">
        <ele>244</ele>
        <time>2018-06-19T09:42:53Z</time>
      </trkpt>
      <trkpt lat="45.98522" lon="4.79723">
        <ele>244</ele>
        <time>2018-06-19T09:42:54Z</time>
      </trkpt>
      <trkpt lat="45.98524" lon="4.79722">
        <ele>244</ele>
        <time>2018-06-19T09:42:55Z</time>
      </trkpt>
      <trkpt lat="45.98533" lon="4.79719">
        <ele>244</ele>
        <time>2018-06-19T09:42:56Z</time>
      </trkpt>
      <trkpt lat="45.98539" lon="4.79716">
        <ele>244</ele>
        <time>2018-06-19T09:42:59Z</time>
      </trkpt>
      <trkpt lat="45.98542" lon="4.79714">
        <ele>244</ele>
        <time>2018-06-19T09:43:00Z</time>
      </trkpt>
      <trkpt lat="45.98547" lon="4.7971">
        <ele>244</ele>
        <time>2018-06-19T09:43:02Z</time>
      </trkpt>
      <trkpt lat="45.9855" lon="4.79708">
        <ele>244</ele>
        <time>2018-06-19T09:43:03Z</time>
      </trkpt>
      <trkpt lat="45.98555" lon="4.79703">
        <ele>244</ele>
        <time>2018-06-19T09:43:05Z</time>
      </trkpt>
      <trkpt lat="45.98557" lon="4.79701">
        <ele>244</ele>
        <time>2018-06-19T09:43:06Z</time>
      </trkpt>
      <trkpt lat="45.98563" lon="4.79695">
        <ele>244</ele>
        <time>2018-06-19T09:43:08Z</time>
      </trkpt>
      <trkpt lat="45.98565" lon="4.79692">
        <ele>244</ele>
        <time>2018-06-19T09:43:09Z</time>
      </trkpt>
      <trkpt lat="45.9857" lon="4.79685">
        <ele>244</ele>
        <time>2018-06-19T09:43:11Z</time>
      </trkpt>
      <trkpt lat="45.98573" lon="4.79682">
        <ele>244</ele>
        <time>2018-06-19T09:43:12Z</time>
      </trkpt>
      <trkpt lat="45.98577" lon="4.79674">
        <ele>245</ele>
        <time>2018-06-19T09:43:14Z</time>
      </trkpt>
      <trkpt lat="45.98579" lon="4.7967">
        <ele>245</ele>
        <time>2018-06-19T09:43:15Z</time>
      </trkpt>
      <trkpt lat="45.98581" lon="4.79666">
        <ele>245</ele>
        <time>2018-06-19T09:43:16Z</time>
      </trkpt>
      <trkpt lat="45.98585" lon="4.79656">
        <ele>245</ele>
        <time>2018-06-19T09:43:17Z</time>
      </trkpt>
      <trkpt lat="45.9859" lon="4.79649">
        <ele>245</ele>
        <time>2018-06-19T09:43:20Z</time>
      </trkpt>
      <trkpt lat="45.98592" lon="4.79646">
        <ele>245</ele>
        <time>2018-06-19T09:43:21Z</time>
      </trkpt>
      <trkpt lat="45.98599" lon="4.79639">
        <ele>245</ele>
        <time>2018-06-19T09:43:24Z</time>
      </trkpt>
      <trkpt lat="45.98601" lon="4.79637">
        <ele>245</ele>
        <time>2018-06-19T09:43:25Z</time>
      </trkpt>
      <trkpt lat="45.98609" lon="4.79634">
        <ele>245</ele>
        <time>2018-06-19T09:43:28Z</time>
      </trkpt>
      <trkpt lat="45.98617" lon="4.79631">
        <ele>245</ele>
        <time>2018-06-19T09:43:29Z</time>
      </trkpt>
      <trkpt lat="45.98623" lon="4.79625">
        <ele>245</ele>
        <time>2018-06-19T09:43:31Z</time>
      </trkpt>
      <trkpt lat="45.98626" lon="4.79621">
        <ele>245</ele>
        <time>2018-06-19T09:43:32Z</time>
      </trkpt>
      <trkpt lat="45.9863" lon="4.79609">
        <ele>245</ele>
        <time>2018-06-19T09:43:34Z</time>
      </trkpt>
      <trkpt lat="45.98627" lon="4.79601">
        <ele>245</ele>
        <time>2018-06-19T09:43:35Z</time>
      </trkpt>
      <trkpt lat="45.98626" lon="4.79594">
        <ele>245</ele>
        <time>2018-06-19T09:43:36Z</time>
      </trkpt>
      <trkpt lat="45.98624" lon="4.79587">
        <ele>245</ele>
        <time>2018-06-19T09:43:37Z</time>
      </trkpt>
      <trkpt lat="45.98616" lon="4.7958">
        <ele>245</ele>
        <time>2018-06-19T09:43:39Z</time>
      </trkpt>
      <trkpt lat="45.98611" lon="4.79578">
        <ele>245</ele>
        <time>2018-06-19T09:43:40Z</time>
      </trkpt>
      <trkpt lat="45.98606" lon="4.7958">
        <ele>245</ele>
        <time>2018-06-19T09:43:41Z</time>
      </trkpt>
      <trkpt lat="45.986" lon="4.79581">
        <ele>245</ele>
        <time>2018-06-19T09:43:42Z</time>
      </trkpt>
      <trkpt lat="45.98595" lon="4.79584">
        <ele>245</ele>
        <time>2018-06-19T09:43:43Z</time>
      </trkpt>
      <trkpt lat="45.98589" lon="4.79584">
        <ele>245</ele>
        <time>2018-06-19T09:43:44Z</time>
      </trkpt>
      <trkpt lat="45.98583" lon="4.79584">
        <ele>245</ele>
        <time>2018-06-19T09:43:45Z</time>
      </trkpt>
      <trkpt lat="45.98577" lon="4.79582">
        <ele>245</ele>
        <time>2018-06-19T09:43:46Z</time>
      </trkpt>
      <trkpt lat="45.98572" lon="4.79578">
        <ele>245</ele>
        <time>2018-06-19T09:43:47Z</time>
      </trkpt>
      <trkpt lat="45.98567" lon="4.79575">
        <ele>244</ele>
        <time>2018-06-19T09:43:48Z</time>
      </trkpt>
      <trkpt lat="45.98561" lon="4.79569">
        <ele>244</ele>
        <time>2018-06-19T09:43:49Z</time>
      </trkpt>
      <trkpt lat="45.98557" lon="4.79564">
        <ele>244</ele>
        <time>2018-06-19T09:43:50Z</time>
      </trkpt>
      <trkpt lat="45.98552" lon="4.79559">
        <ele>244</ele>
        <time>2018-06-19T09:43:51Z</time>
      </trkpt>
      <trkpt lat="45.98548" lon="4.79554">
        <ele>244</ele>
        <time>2018-06-19T09:43:52Z</time>
      </trkpt>
      <trkpt lat="45.98544" lon="4.79549">
        <ele>244</ele>
        <time>2018-06-19T09:43:53Z</time>
      </trkpt>
      <trkpt lat="45.9854" lon="4.79541">
        <ele>244</ele>
        <time>2018-06-19T09:43:54Z</time>
      </trkpt>
      <trkpt lat="45.98537" lon="4.79534">
        <ele>244</ele>
        <time>2018-06-19T09:43:55Z</time>
      </trkpt>
      <trkpt lat="45.98534" lon="4.79527">
        <ele>244</ele>
        <time>2018-06-19T09:43:56Z</time>
      </trkpt>
      <trkpt lat="45.98532" lon="4.79519">
        <ele>244</ele>
        <time>2018-06-19T09:43:57Z</time>
      </trkpt>
      <trkpt lat="45.9853" lon="4.79512">
        <ele>244</ele>
        <time>2018-06-19T09:43:58Z</time>
      </trkpt>
      <trkpt lat="45.98528" lon="4.79504">
        <ele>244</ele>
        <time>2018-06-19T09:43:59Z</time>
      </trkpt>
      <trkpt lat="45.98526" lon="4.79495">
        <ele>244</ele>
        <time>2018-06-19T09:44:00Z</time>
      </trkpt>
      <trkpt lat="45.98526" lon="4.79486">
        <ele>244</ele>
        <time>2018-06-19T09:44:01Z</time>
      </trkpt>
      <trkpt lat="45.98525" lon="4.79477">
        <ele>244</ele>
        <time>2018-06-19T09:44:02Z</time>
      </trkpt>
      <trkpt lat="45.98525" lon="4.79468">
        <ele>244</ele>
        <time>2018-06-19T09:44:03Z</time>
      </trkpt>
      <trkpt lat="45.98526" lon="4.79459">
        <ele>244</ele>
        <time>2018-06-19T09:44:04Z</time>
      </trkpt>
      <trkpt lat="45.98527" lon="4.7945">
        <ele>244</ele>
        <time>2018-06-19T09:44:05Z</time>
      </trkpt>
      <trkpt lat="45.98527" lon="4.79441">
        <ele>244</ele>
        <time>2018-06-19T09:44:06Z</time>
      </trkpt>
      <trkpt lat="45.98525" lon="4.79432">
        <ele>244</ele>
        <time>2018-06-19T09:44:07Z</time>
      </trkpt>
      <trkpt lat="45.98525" lon="4.79423">
        <ele>244</ele>
        <time>2018-06-19T09:44:08Z</time>
      </trkpt>
      <trkpt lat="45.98524" lon="4.79415">
        <ele>244</ele>
        <time>2018-06-19T09:44:09Z</time>
      </trkpt>
      <trkpt lat="45.98524" lon="4.79407">
        <ele>244</ele>
        <time>2018-06-19T09:44:10Z</time>
      </trkpt>
      <trkpt lat="45.98523" lon="4.794">
        <ele>244</ele>
        <time>2018-06-19T09:44:11Z</time>
      </trkpt>
      <trkpt lat="45.98522" lon="4.79392">
        <ele>244</ele>
        <time>2018-06-19T09:44:12Z</time>
      </trkpt>
      <trkpt lat="45.98521" lon="4.79384">
        <ele>244</ele>
        <time>2018-06-19T09:44:13Z</time>
      </trkpt>
      <trkpt lat="45.98521" lon="4.79377">
        <ele>244</ele>
        <time>2018-06-19T09:44:14Z</time>
      </trkpt>
      <trkpt lat="45.98515" lon="4.7937">
        <ele>243</ele>
        <time>2018-06-19T09:44:15Z</time>
      </trkpt>
      <trkpt lat="45.98512" lon="4.79362">
        <ele>243</ele>
        <time>2018-06-19T09:44:16Z</time>
      </trkpt>
      <trkpt lat="45.98512" lon="4.79354">
        <ele>243</ele>
        <time>2018-06-19T09:44:17Z</time>
      </trkpt>
      <trkpt lat="45.9851" lon="4.79346">
        <ele>243</ele>
        <time>2018-06-19T09:44:18Z</time>
      </trkpt>
      <trkpt lat="45.98508" lon="4.79338">
        <ele>243</ele>
        <time>2018-06-19T09:44:19Z</time>
      </trkpt>
      <trkpt lat="45.98506" lon="4.79332">
        <ele>243</ele>
        <time>2018-06-19T09:44:20Z</time>
      </trkpt>
      <trkpt lat="45.98503" lon="4.79324">
        <ele>243</ele>
        <time>2018-06-19T09:44:21Z</time>
      </trkpt>
      <trkpt lat="45.98504" lon="4.79319">
        <ele>243</ele>
        <time>2018-06-19T09:44:22Z</time>
      </trkpt>
      <trkpt lat="45.985" lon="4.79311">
        <ele>243</ele>
        <time>2018-06-19T09:44:23Z</time>
      </trkpt>
      <trkpt lat="45.98498" lon="4.79304">
        <ele>243</ele>
        <time>2018-06-19T09:44:24Z</time>
      </trkpt>
      <trkpt lat="45.98495" lon="4.79296">
        <ele>243</ele>
        <time>2018-06-19T09:44:25Z</time>
      </trkpt>
      <trkpt lat="45.98493" lon="4.7929">
        <ele>243</ele>
        <time>2018-06-19T09:44:26Z</time>
      </trkpt>
      <trkpt lat="45.98489" lon="4.79283">
        <ele>243</ele>
        <time>2018-06-19T09:44:27Z</time>
      </trkpt>
      <trkpt lat="45.98486" lon="4.79275">
        <ele>243</ele>
        <time>2018-06-19T09:44:28Z</time>
      </trkpt>
      <trkpt lat="45.98483" lon="4.79268">
        <ele>243</ele>
        <time>2018-06-19T09:44:29Z</time>
      </trkpt>
      <trkpt lat="45.98479" lon="4.79262">
        <ele>243</ele>
        <time>2018-06-19T09:44:30Z</time>
      </trkpt>
      <trkpt lat="45.98475" lon="4.79256">
        <ele>243</ele>
        <time>2018-06-19T09:44:31Z</time>
      </trkpt>
      <trkpt lat="45.98471" lon="4.79248">
        <ele>243</ele>
        <time>2018-06-19T09:44:32Z</time>
      </trkpt>
      <trkpt lat="45.98467" lon="4.79242">
        <ele>243</ele>
        <time>2018-06-19T09:44:33Z</time>
      </trkpt>
      <trkpt lat="45.98463" lon="4.79236">
        <ele>243</ele>
        <time>2018-06-19T09:44:34Z</time>
      </trkpt>
      <trkpt lat="45.9846" lon="4.79229">
        <ele>243</ele>
        <time>2018-06-19T09:44:35Z</time>
      </trkpt>
      <trkpt lat="45.98456" lon="4.79222">
        <ele>243</ele>
        <time>2018-06-19T09:44:36Z</time>
      </trkpt>
      <trkpt lat="45.98452" lon="4.79214">
        <ele>242</ele>
        <time>2018-06-19T09:44:37Z</time>
      </trkpt>
      <trkpt lat="45.98448" lon="4.79208">
        <ele>242</ele>
        <time>2018-06-19T09:44:38Z</time>
      </trkpt>
      <trkpt lat="45.98444" lon="4.79202">
        <ele>242</ele>
        <time>2018-06-19T09:44:39Z</time>
      </trkpt>
      <trkpt lat="45.98441" lon="4.79195">
        <ele>242</ele>
        <time>2018-06-19T09:44:40Z</time>
      </trkpt>
      <trkpt lat="45.98437" lon="4.79188">
        <ele>242</ele>
        <time>2018-06-19T09:44:41Z</time>
      </trkpt>
      <trkpt lat="45.98434" lon="4.79182">
        <ele>242</ele>
        <time>2018-06-19T09:44:42Z</time>
      </trkpt>
      <trkpt lat="45.9843" lon="4.79174">
        <ele>242</ele>
        <time>2018-06-19T09:44:43Z</time>
      </trkpt>
      <trkpt lat="45.98426" lon="4.79167">
        <ele>242</ele>
        <time>2018-06-19T09:44:44Z</time>
      </trkpt>
      <trkpt lat="45.98422" lon="4.7916">
        <ele>242</ele>
        <time>2018-06-19T09:44:45Z</time>
      </trkpt>
      <trkpt lat="45.98418" lon="4.79152">
        <ele>242</ele>
        <time>2018-06-19T09:44:46Z</time>
      </trkpt>
      <trkpt lat="45.98415" lon="4.79145">
        <ele>242</ele>
        <time>2018-06-19T09:44:47Z</time>
      </trkpt>
      <trkpt lat="45.98411" lon="4.79138">
        <ele>242</ele>
        <time>2018-06-19T09:44:48Z</time>
      </trkpt>
      <trkpt lat="45.98407" lon="4.79131">
        <ele>242</ele>
        <time>2018-06-19T09:44:49Z</time>
      </trkpt>
      <trkpt lat="45.98403" lon="4.79124">
        <ele>242</ele>
        <time>2018-06-19T09:44:50Z</time>
      </trkpt>
      <trkpt lat="45.98399" lon="4.79117">
        <ele>242</ele>
        <time>2018-06-19T09:44:51Z</time>
      </trkpt>
      <trkpt lat="45.98395" lon="4.79111">
        <ele>242</ele>
        <time>2018-06-19T09:44:52Z</time>
      </trkpt>
      <trkpt lat="45.98391" lon="4.79104">
        <ele>242</ele>
        <time>2018-06-19T09:44:53Z</time>
      </trkpt>
      <trkpt lat="45.98387" lon="4.79097">
        <ele>242</ele>
        <time>2018-06-19T09:44:54Z</time>
      </trkpt>
      <trkpt lat="45.98382" lon="4.79091">
        <ele>242</ele>
        <time>2018-06-19T09:44:55Z</time>
      </trkpt>
      <trkpt lat="45.98379" lon="4.79084">
        <ele>242</ele>
        <time>2018-06-19T09:44:56Z</time>
      </trkpt>
      <trkpt lat="45.98376" lon="4.79077">
        <ele>242</ele>
        <time>2018-06-19T09:44:57Z</time>
      </trkpt>
      <trkpt lat="45.98373" lon="4.7907">
        <ele>242</ele>
        <time>2018-06-19T09:44:58Z</time>
      </trkpt>
      <trkpt lat="45.98368" lon="4.79064">
        <ele>242</ele>
        <time>2018-06-19T09:44:59Z</time>
      </trkpt>
      <trkpt lat="45.98365" lon="4.79058">
        <ele>242</ele>
        <time>2018-06-19T09:45:00Z</time>
      </trkpt>
      <trkpt lat="45.9836" lon="4.79051">
        <ele>242</ele>
        <time>2018-06-19T09:45:01Z</time>
      </trkpt>
      <trkpt lat="45.98356" lon="4.79043">
        <ele>242</ele>
        <time>2018-06-19T09:45:02Z</time>
      </trkpt>
      <trkpt lat="45.98352" lon="4.79036">
        <ele>242</ele>
        <time>2018-06-19T09:45:03Z</time>
      </trkpt>
      <trkpt lat="45.98346" lon="4.7903">
        <ele>242</ele>
        <time>2018-06-19T09:45:04Z</time>
      </trkpt>
      <trkpt lat="45.98341" lon="4.79025">
        <ele>242</ele>
        <time>2018-06-19T09:45:05Z</time>
      </trkpt>
      <trkpt lat="45.98335" lon="4.79019">
        <ele>242</ele>
        <time>2018-06-19T09:45:06Z</time>
      </trkpt>
      <trkpt lat="45.98329" lon="4.79014">
        <ele>242</ele>
        <time>2018-06-19T09:45:07Z</time>
      </trkpt>
      <trkpt lat="45.98324" lon="4.7901">
        <ele>242</ele>
        <time>2018-06-19T09:45:08Z</time>
      </trkpt>
      <trkpt lat="45.98318" lon="4.79006">
        <ele>242</ele>
        <time>2018-06-19T09:45:09Z</time>
      </trkpt>
      <trkpt lat="45.9831" lon="4.79002">
        <ele>242</ele>
        <time>2018-06-19T09:45:10Z</time>
      </trkpt>
      <trkpt lat="45.98304" lon="4.78998">
        <ele>241</ele>
        <time>2018-06-19T09:45:11Z</time>
      </trkpt>
      <trkpt lat="45.98298" lon="4.78996">
        <ele>241</ele>
        <time>2018-06-19T09:45:12Z</time>
      </trkpt>
      <trkpt lat="45.98292" lon="4.78992">
        <ele>241</ele>
        <time>2018-06-19T09:45:13Z</time>
      </trkpt>
      <trkpt lat="45.98286" lon="4.78988">
        <ele>241</ele>
        <time>2018-06-19T09:45:14Z</time>
      </trkpt>
      <trkpt lat="45.98279" lon="4.78985">
        <ele>241</ele>
        <time>2018-06-19T09:45:15Z</time>
      </trkpt>
      <trkpt lat="45.98272" lon="4.7898">
        <ele>241</ele>
        <time>2018-06-19T09:45:16Z</time>
      </trkpt>
      <trkpt lat="45.98266" lon="4.78977">
        <ele>241</ele>
        <time>2018-06-19T09:45:17Z</time>
      </trkpt>
      <trkpt lat="45.98259" lon="4.78974">
        <ele>241</ele>
        <time>2018-06-19T09:45:18Z</time>
      </trkpt>
      <trkpt lat="45.98252" lon="4.7897">
        <ele>241</ele>
        <time>2018-06-19T09:45:19Z</time>
      </trkpt>
      <trkpt lat="45.98246" lon="4.78965">
        <ele>241</ele>
        <time>2018-06-19T09:45:20Z</time>
      </trkpt>
      <trkpt lat="45.9824" lon="4.78961">
        <ele>241</ele>
        <time>2018-06-19T09:45:21Z</time>
      </trkpt>
      <trkpt lat="45.98234" lon="4.78957">
        <ele>241</ele>
        <time>2018-06-19T09:45:22Z</time>
      </trkpt>
      <trkpt lat="45.98227" lon="4.78953">
        <ele>241</ele>
        <time>2018-06-19T09:45:23Z</time>
      </trkpt>
      <trkpt lat="45.9822" lon="4.78949">
        <ele>241</ele>
        <time>2018-06-19T09:45:24Z</time>
      </trkpt>
      <trkpt lat="45.98216" lon="4.78947">
        <ele>241</ele>
        <time>2018-06-19T09:45:25Z</time>
      </trkpt>
      <trkpt lat="45.9821" lon="4.78943">
        <ele>241</ele>
        <time>2018-06-19T09:45:26Z</time>
      </trkpt>
      <trkpt lat="45.98204" lon="4.78939">
        <ele>241</ele>
        <time>2018-06-19T09:45:27Z</time>
      </trkpt>
      <trkpt lat="45.98197" lon="4.78934">
        <ele>241</ele>
        <time>2018-06-19T09:45:28Z</time>
      </trkpt>
      <trkpt lat="45.98191" lon="4.7893">
        <ele>241</ele>
        <time>2018-06-19T09:45:29Z</time>
      </trkpt>
      <trkpt lat="45.98185" lon="4.78926">
        <ele>241</ele>
        <time>2018-06-19T09:45:30Z</time>
      </trkpt>
      <trkpt lat="45.9818" lon="4.78923">
        <ele>240</ele>
        <time>2018-06-19T09:45:31Z</time>
      </trkpt>
      <trkpt lat="45.98173" lon="4.7892">
        <ele>240</ele>
        <time>2018-06-19T09:45:32Z</time>
      </trkpt>
      <trkpt lat="45.98165" lon="4.7892">
        <ele>240</ele>
        <time>2018-06-19T09:45:33Z</time>
      </trkpt>
      <trkpt lat="45.98159" lon="4.78916">
        <ele>240</ele>
        <time>2018-06-19T09:45:34Z</time>
      </trkpt>
      <trkpt lat="45.98153" lon="4.78912">
        <ele>240</ele>
        <time>2018-06-19T09:45:35Z</time>
      </trkpt>
      <trkpt lat="45.98146" lon="4.78908">
        <ele>240</ele>
        <time>2018-06-19T09:45:36Z</time>
      </trkpt>
      <trkpt lat="45.9814" lon="4.78903">
        <ele>240</ele>
        <time>2018-06-19T09:45:37Z</time>
      </trkpt>
      <trkpt lat="45.98133" lon="4.789">
        <ele>240</ele>
        <time>2018-06-19T09:45:38Z</time>
      </trkpt>
      <trkpt lat="45.98126" lon="4.78897">
        <ele>240</ele>
        <time>2018-06-19T09:45:39Z</time>
      </trkpt>
      <trkpt lat="45.98118" lon="4.78893">
        <ele>240</ele>
        <time>2018-06-19T09:45:40Z</time>
      </trkpt>
      <trkpt lat="45.98112" lon="4.78889">
        <ele>240</ele>
        <time>2018-06-19T09:45:41Z</time>
      </trkpt>
      <trkpt lat="45.98105" lon="4.78885">
        <ele>240</ele>
        <time>2018-06-19T09:45:42Z</time>
      </trkpt>
      <trkpt lat="45.98099" lon="4.78882">
        <ele>240</ele>
        <time>2018-06-19T09:45:43Z</time>
      </trkpt>
      <trkpt lat="45.98092" lon="4.78878">
        <ele>240</ele>
        <time>2018-06-19T09:45:44Z</time>
      </trkpt>
      <trkpt lat="45.98085" lon="4.78874">
        <ele>239</ele>
        <time>2018-06-19T09:45:45Z</time>
      </trkpt>
      <trkpt lat="45.9808" lon="4.78871">
        <ele>239</ele>
        <time>2018-06-19T09:45:46Z</time>
      </trkpt>
      <trkpt lat="45.98074" lon="4.78867">
        <ele>239</ele>
        <time>2018-06-19T09:45:47Z</time>
      </trkpt>
      <trkpt lat="45.98069" lon="4.78863">
        <ele>239</ele>
        <time>2018-06-19T09:45:48Z</time>
      </trkpt>
      <trkpt lat="45.98063" lon="4.78858">
        <ele>239</ele>
        <time>2018-06-19T09:45:49Z</time>
      </trkpt>
      <trkpt lat="45.98057" lon="4.78853">
        <ele>239</ele>
        <time>2018-06-19T09:45:50Z</time>
      </trkpt>
      <trkpt lat="45.9805" lon="4.78848">
        <ele>239</ele>
        <time>2018-06-19T09:45:51Z</time>
      </trkpt>
      <trkpt lat="45.98044" lon="4.78844">
        <ele>239</ele>
        <time>2018-06-19T09:45:52Z</time>
      </trkpt>
      <trkpt lat="45.98039" lon="4.7884">
        <ele>238</ele>
        <time>2018-06-19T09:45:53Z</time>
      </trkpt>
      <trkpt lat="45.98032" lon="4.78837">
        <ele>238</ele>
        <time>2018-06-19T09:45:54Z</time>
      </trkpt>
      <trkpt lat="45.98026" lon="4.78833">
        <ele>238</ele>
        <time>2018-06-19T09:45:55Z</time>
      </trkpt>
      <trkpt lat="45.9802" lon="4.78828">
        <ele>238</ele>
        <time>2018-06-19T09:45:56Z</time>
      </trkpt>
      <trkpt lat="45.98015" lon="4.78823">
        <ele>238</ele>
        <time>2018-06-19T09:45:57Z</time>
      </trkpt>
      <trkpt lat="45.98008" lon="4.78819">
        <ele>238</ele>
        <time>2018-06-19T09:45:58Z</time>
      </trkpt>
      <trkpt lat="45.98002" lon="4.78814">
        <ele>238</ele>
        <time>2018-06-19T09:45:59Z</time>
      </trkpt>
      <trkpt lat="45.97995" lon="4.78809">
        <ele>238</ele>
        <time>2018-06-19T09:46:00Z</time>
      </trkpt>
      <trkpt lat="45.97989" lon="4.78804">
        <ele>238</ele>
        <time>2018-06-19T09:46:01Z</time>
      </trkpt>
      <trkpt lat="45.97983" lon="4.788">
        <ele>238</ele>
        <time>2018-06-19T09:46:02Z</time>
      </trkpt>
      <trkpt lat="45.97977" lon="4.78796">
        <ele>238</ele>
        <time>2018-06-19T09:46:03Z</time>
      </trkpt>
      <trkpt lat="45.97971" lon="4.78791">
        <ele>238</ele>
        <time>2018-06-19T09:46:04Z</time>
      </trkpt>
      <trkpt lat="45.97965" lon="4.78787">
        <ele>238</ele>
        <time>2018-06-19T09:46:05Z</time>
      </trkpt>
      <trkpt lat="45.97959" lon="4.78783">
        <ele>238</ele>
        <time>2018-06-19T09:46:06Z</time>
      </trkpt>
      <trkpt lat="45.97953" lon="4.78779">
        <ele>238</ele>
        <time>2018-06-19T09:46:07Z</time>
      </trkpt>
      <trkpt lat="45.97947" lon="4.78775">
        <ele>238</ele>
        <time>2018-06-19T09:46:08Z</time>
      </trkpt>
      <trkpt lat="45.97941" lon="4.78772">
        <ele>238</ele>
        <time>2018-06-19T09:46:09Z</time>
      </trkpt>
      <trkpt lat="45.97936" lon="4.78768">
        <ele>238</ele>
        <time>2018-06-19T09:46:10Z</time>
      </trkpt>
      <trkpt lat="45.9793" lon="4.78764">
        <ele>238</ele>
        <time>2018-06-19T09:46:11Z</time>
      </trkpt>
      <trkpt lat="45.97924" lon="4.7876">
        <ele>237</ele>
        <time>2018-06-19T09:46:12Z</time>
      </trkpt>
      <trkpt lat="45.97918" lon="4.78755">
        <ele>237</ele>
        <time>2018-06-19T09:46:13Z</time>
      </trkpt>
      <trkpt lat="45.97912" lon="4.78751">
        <ele>237</ele>
        <time>2018-06-19T09:46:14Z</time>
      </trkpt>
      <trkpt lat="45.97905" lon="4.78745">
        <ele>237</ele>
        <time>2018-06-19T09:46:15Z</time>
      </trkpt>
      <trkpt lat="45.97899" lon="4.78741">
        <ele>237</ele>
        <time>2018-06-19T09:46:16Z</time>
      </trkpt>
      <trkpt lat="45.97892" lon="4.78736">
        <ele>236</ele>
        <time>2018-06-19T09:46:17Z</time>
      </trkpt>
      <trkpt lat="45.97886" lon="4.78731">
        <ele>236</ele>
        <time>2018-06-19T09:46:18Z</time>
      </trkpt>
      <trkpt lat="45.97879" lon="4.78726">
        <ele>236</ele>
        <time>2018-06-19T09:46:19Z</time>
      </trkpt>
      <trkpt lat="45.97872" lon="4.78721">
        <ele>236</ele>
        <time>2018-06-19T09:46:20Z</time>
      </trkpt>
      <trkpt lat="45.97866" lon="4.78716">
        <ele>236</ele>
        <time>2018-06-19T09:46:21Z</time>
      </trkpt>
      <trkpt lat="45.97858" lon="4.7871">
        <ele>236</ele>
        <time>2018-06-19T09:46:22Z</time>
      </trkpt>
      <trkpt lat="45.97851" lon="4.78707">
        <ele>236</ele>
        <time>2018-06-19T09:46:23Z</time>
      </trkpt>
      <trkpt lat="45.97844" lon="4.78702">
        <ele>236</ele>
        <time>2018-06-19T09:46:24Z</time>
      </trkpt>
      <trkpt lat="45.97837" lon="4.78698">
        <ele>236</ele>
        <time>2018-06-19T09:46:25Z</time>
      </trkpt>
      <trkpt lat="45.97829" lon="4.78694">
        <ele>235</ele>
        <time>2018-06-19T09:46:26Z</time>
      </trkpt>
      <trkpt lat="45.97822" lon="4.78691">
        <ele>235</ele>
        <time>2018-06-19T09:46:27Z</time>
      </trkpt>
      <trkpt lat="45.97815" lon="4.78688">
        <ele>235</ele>
        <time>2018-06-19T09:46:28Z</time>
      </trkpt>
      <trkpt lat="45.97808" lon="4.78684">
        <ele>235</ele>
        <time>2018-06-19T09:46:29Z</time>
      </trkpt>
      <trkpt lat="45.97801" lon="4.78681">
        <ele>235</ele>
        <time>2018-06-19T09:46:30Z</time>
      </trkpt>
      <trkpt lat="45.97794" lon="4.78677">
        <ele>235</ele>
        <time>2018-06-19T09:46:31Z</time>
      </trkpt>
      <trkpt lat="45.97787" lon="4.78674">
        <ele>235</ele>
        <time>2018-06-19T09:46:32Z</time>
      </trkpt>
      <trkpt lat="45.9778" lon="4.78672">
        <ele>235</ele>
        <time>2018-06-19T09:46:33Z</time>
      </trkpt>
      <trkpt lat="45.97773" lon="4.7867">
        <ele>235</ele>
        <time>2018-06-19T09:46:34Z</time>
      </trkpt>
      <trkpt lat="45.97766" lon="4.78666">
        <ele>235</ele>
        <time>2018-06-19T09:46:35Z</time>
      </trkpt>
      <trkpt lat="45.9776" lon="4.78662">
        <ele>235</ele>
        <time>2018-06-19T09:46:36Z</time>
      </trkpt>
      <trkpt lat="45.97753" lon="4.78659">
        <ele>234</ele>
        <time>2018-06-19T09:46:37Z</time>
      </trkpt>
      <trkpt lat="45.97746" lon="4.78656">
        <ele>234</ele>
        <time>2018-06-19T09:46:38Z</time>
      </trkpt>
      <trkpt lat="45.9774" lon="4.78653">
        <ele>234</ele>
        <time>2018-06-19T09:46:39Z</time>
      </trkpt>
      <trkpt lat="45.97732" lon="4.78649">
        <ele>234</ele>
        <time>2018-06-19T09:46:40Z</time>
      </trkpt>
      <trkpt lat="45.97724" lon="4.78647">
        <ele>234</ele>
        <time>2018-06-19T09:46:41Z</time>
      </trkpt>
      <trkpt lat="45.97717" lon="4.78643">
        <ele>234</ele>
        <time>2018-06-19T09:46:42Z</time>
      </trkpt>
      <trkpt lat="45.9771" lon="4.7864">
        <ele>234</ele>
        <time>2018-06-19T09:46:43Z</time>
      </trkpt>
      <trkpt lat="45.97703" lon="4.78637">
        <ele>234</ele>
        <time>2018-06-19T09:46:44Z</time>
      </trkpt>
      <trkpt lat="45.97696" lon="4.78634">
        <ele>234</ele>
        <time>2018-06-19T09:46:45Z</time>
      </trkpt>
      <trkpt lat="45.9769" lon="4.78631">
        <ele>234</ele>
        <time>2018-06-19T09:46:46Z</time>
      </trkpt>
      <trkpt lat="45.97683" lon="4.78628">
        <ele>234</ele>
        <time>2018-06-19T09:46:47Z</time>
      </trkpt>
      <trkpt lat="45.97676" lon="4.78625">
        <ele>234</ele>
        <time>2018-06-19T09:46:48Z</time>
      </trkpt>
      <trkpt lat="45.9767" lon="4.78621">
        <ele>234</ele>
        <time>2018-06-19T09:46:49Z</time>
      </trkpt>
      <trkpt lat="45.97663" lon="4.78618">
        <ele>233</ele>
        <time>2018-06-19T09:46:50Z</time>
      </trkpt>
      <trkpt lat="45.97656" lon="4.78615">
        <ele>233</ele>
        <time>2018-06-19T09:46:51Z</time>
      </trkpt>
      <trkpt lat="45.9765" lon="4.78612">
        <ele>233</ele>
        <time>2018-06-19T09:46:52Z</time>
      </trkpt>
      <trkpt lat="45.97643" lon="4.7861">
        <ele>233</ele>
        <time>2018-06-19T09:46:53Z</time>
      </trkpt>
      <trkpt lat="45.97636" lon="4.78607">
        <ele>233</ele>
        <time>2018-06-19T09:46:54Z</time>
      </trkpt>
      <trkpt lat="45.97629" lon="4.78605">
        <ele>233</ele>
        <time>2018-06-19T09:46:55Z</time>
      </trkpt>
      <trkpt lat="45.97623" lon="4.78602">
        <ele>233</ele>
        <time>2018-06-19T09:46:56Z</time>
      </trkpt>
      <trkpt lat="45.97616" lon="4.78599">
        <ele>233</ele>
        <time>2018-06-19T09:46:57Z</time>
      </trkpt>
      <trkpt lat="45.97609" lon="4.78597">
        <ele>233</ele>
        <time>2018-06-19T09:46:58Z</time>
      </trkpt>
      <trkpt lat="45.97602" lon="4.78594">
        <ele>233</ele>
        <time>2018-06-19T09:46:59Z</time>
      </trkpt>
      <trkpt lat="45.97594" lon="4.78591">
        <ele>233</ele>
        <time>2018-06-19T09:47:00Z</time>
      </trkpt>
      <trkpt lat="45.97587" lon="4.78589">
        <ele>233</ele>
        <time>2018-06-19T09:47:01Z</time>
      </trkpt>
      <trkpt lat="45.9758" lon="4.78585">
        <ele>233</ele>
        <time>2018-06-19T09:47:02Z</time>
      </trkpt>
      <trkpt lat="45.97573" lon="4.78582">
        <ele>233</ele>
        <time>2018-06-19T09:47:03Z</time>
      </trkpt>
      <trkpt lat="45.97566" lon="4.78579">
        <ele>233</ele>
        <time>2018-06-19T09:47:04Z</time>
      </trkpt>
      <trkpt lat="45.97559" lon="4.78576">
        <ele>233</ele>
        <time>2018-06-19T09:47:05Z</time>
      </trkpt>
      <trkpt lat="45.97552" lon="4.78573">
        <ele>234</ele>
        <time>2018-06-19T09:47:06Z</time>
      </trkpt>
      <trkpt lat="45.97546" lon="4.78571">
        <ele>234</ele>
        <time>2018-06-19T09:47:07Z</time>
      </trkpt>
      <trkpt lat="45.97539" lon="4.78567">
        <ele>234</ele>
        <time>2018-06-19T09:47:08Z</time>
      </trkpt>
      <trkpt lat="45.97532" lon="4.78564">
        <ele>234</ele>
        <time>2018-06-19T09:47:09Z</time>
      </trkpt>
      <trkpt lat="45.97526" lon="4.78561">
        <ele>234</ele>
        <time>2018-06-19T09:47:10Z</time>
      </trkpt>
      <trkpt lat="45.97519" lon="4.78558">
        <ele>234</ele>
        <time>2018-06-19T09:47:11Z</time>
      </trkpt>
      <trkpt lat="45.97513" lon="4.78553">
        <ele>234</ele>
        <time>2018-06-19T09:47:12Z</time>
      </trkpt>
      <trkpt lat="45.97505" lon="4.7855">
        <ele>234</ele>
        <time>2018-06-19T09:47:13Z</time>
      </trkpt>
      <trkpt lat="45.97499" lon="4.78545">
        <ele>233</ele>
        <time>2018-06-19T09:47:14Z</time>
      </trkpt>
      <trkpt lat="45.97492" lon="4.78541">
        <ele>233</ele>
        <time>2018-06-19T09:47:15Z</time>
      </trkpt>
      <trkpt lat="45.97486" lon="4.78536">
        <ele>233</ele>
        <time>2018-06-19T09:47:16Z</time>
      </trkpt>
      <trkpt lat="45.9748" lon="4.7853">
        <ele>233</ele>
        <time>2018-06-19T09:47:17Z</time>
      </trkpt>
      <trkpt lat="45.97473" lon="4.78525">
        <ele>233</ele>
        <time>2018-06-19T09:47:18Z</time>
      </trkpt>
      <trkpt lat="45.97466" lon="4.7852">
        <ele>233</ele>
        <time>2018-06-19T09:47:19Z</time>
      </trkpt>
      <trkpt lat="45.9746" lon="4.78514">
        <ele>233</ele>
        <time>2018-06-19T09:47:20Z</time>
      </trkpt>
      <trkpt lat="45.97454" lon="4.7851">
        <ele>233</ele>
        <time>2018-06-19T09:47:21Z</time>
      </trkpt>
      <trkpt lat="45.97448" lon="4.78504">
        <ele>234</ele>
        <time>2018-06-19T09:47:22Z</time>
      </trkpt>
      <trkpt lat="45.97441" lon="4.78499">
        <ele>234</ele>
        <time>2018-06-19T09:47:23Z</time>
      </trkpt>
      <trkpt lat="45.97436" lon="4.78494">
        <ele>234</ele>
        <time>2018-06-19T09:47:24Z</time>
      </trkpt>
      <trkpt lat="45.97429" lon="4.78488">
        <ele>234</ele>
        <time>2018-06-19T09:47:25Z</time>
      </trkpt>
      <trkpt lat="45.97424" lon="4.78483">
        <ele>234</ele>
        <time>2018-06-19T09:47:26Z</time>
      </trkpt>
      <trkpt lat="45.97416" lon="4.78476">
        <ele>233</ele>
        <time>2018-06-19T09:47:27Z</time>
      </trkpt>
      <trkpt lat="45.9741" lon="4.7847">
        <ele>233</ele>
        <time>2018-06-19T09:47:28Z</time>
      </trkpt>
      <trkpt lat="45.97403" lon="4.78462">
        <ele>233</ele>
        <time>2018-06-19T09:47:29Z</time>
      </trkpt>
      <trkpt lat="45.97398" lon="4.78456">
        <ele>233</ele>
        <time>2018-06-19T09:47:30Z</time>
      </trkpt>
      <trkpt lat="45.97391" lon="4.78449">
        <ele>233</ele>
        <time>2018-06-19T09:47:31Z</time>
      </trkpt>
      <trkpt lat="45.97385" lon="4.78442">
        <ele>233</ele>
        <time>2018-06-19T09:47:32Z</time>
      </trkpt>
      <trkpt lat="45.97379" lon="4.78435">
        <ele>233</ele>
        <time>2018-06-19T09:47:33Z</time>
      </trkpt>
      <trkpt lat="45.97373" lon="4.7843">
        <ele>233</ele>
        <time>2018-06-19T09:47:34Z</time>
      </trkpt>
      <trkpt lat="45.97367" lon="4.78424">
        <ele>233</ele>
        <time>2018-06-19T09:47:35Z</time>
      </trkpt>
      <trkpt lat="45.9736" lon="4.78418">
        <ele>233</ele>
        <time>2018-06-19T09:47:36Z</time>
      </trkpt>
      <trkpt lat="45.97354" lon="4.78412">
        <ele>232</ele>
        <time>2018-06-19T09:47:37Z</time>
      </trkpt>
      <trkpt lat="45.97349" lon="4.78406">
        <ele>232</ele>
        <time>2018-06-19T09:47:38Z</time>
      </trkpt>
      <trkpt lat="45.97343" lon="4.784">
        <ele>232</ele>
        <time>2018-06-19T09:47:39Z</time>
      </trkpt>
      <trkpt lat="45.97338" lon="4.78394">
        <ele>232</ele>
        <time>2018-06-19T09:47:40Z</time>
      </trkpt>
      <trkpt lat="45.97333" lon="4.78388">
        <ele>232</ele>
        <time>2018-06-19T09:47:41Z</time>
      </trkpt>
      <trkpt lat="45.97327" lon="4.78382">
        <ele>232</ele>
        <time>2018-06-19T09:47:42Z</time>
      </trkpt>
      <trkpt lat="45.97322" lon="4.78376">
        <ele>232</ele>
        <time>2018-06-19T09:47:43Z</time>
      </trkpt>
      <trkpt lat="45.97317" lon="4.7837">
        <ele>232</ele>
        <time>2018-06-19T09:47:44Z</time>
      </trkpt>
      <trkpt lat="45.97312" lon="4.78363">
        <ele>232</ele>
        <time>2018-06-19T09:47:45Z</time>
      </trkpt>
      <trkpt lat="45.97307" lon="4.78357">
        <ele>232</ele>
        <time>2018-06-19T09:47:46Z</time>
      </trkpt>
      <trkpt lat="45.97303" lon="4.7835">
        <ele>232</ele>
        <time>2018-06-19T09:47:47Z</time>
      </trkpt>
      <trkpt lat="45.97298" lon="4.78343">
        <ele>232</ele>
        <time>2018-06-19T09:47:48Z</time>
      </trkpt>
      <trkpt lat="45.97293" lon="4.78336">
        <ele>232</ele>
        <time>2018-06-19T09:47:49Z</time>
      </trkpt>
      <trkpt lat="45.97288" lon="4.78328">
        <ele>232</ele>
        <time>2018-06-19T09:47:50Z</time>
      </trkpt>
      <trkpt lat="45.97283" lon="4.78321">
        <ele>232</ele>
        <time>2018-06-19T09:47:51Z</time>
      </trkpt>
      <trkpt lat="45.97279" lon="4.78314">
        <ele>232</ele>
        <time>2018-06-19T09:47:52Z</time>
      </trkpt>
      <trkpt lat="45.97274" lon="4.78307">
        <ele>232</ele>
        <time>2018-06-19T09:47:53Z</time>
      </trkpt>
      <trkpt lat="45.97269" lon="4.78299">
        <ele>232</ele>
        <time>2018-06-19T09:47:54Z</time>
      </trkpt>
      <trkpt lat="45.97264" lon="4.78293">
        <ele>232</ele>
        <time>2018-06-19T09:47:55Z</time>
      </trkpt>
      <trkpt lat="45.97259" lon="4.78286">
        <ele>232</ele>
        <time>2018-06-19T09:47:56Z</time>
      </trkpt>
      <trkpt lat="45.97254" lon="4.78279">
        <ele>232</ele>
        <time>2018-06-19T09:47:57Z</time>
      </trkpt>
      <trkpt lat="45.97249" lon="4.78272">
        <ele>231</ele>
        <time>2018-06-19T09:47:58Z</time>
      </trkpt>
      <trkpt lat="45.97244" lon="4.78265">
        <ele>231</ele>
        <time>2018-06-19T09:47:59Z</time>
      </trkpt>
      <trkpt lat="45.97239" lon="4.78258">
        <ele>231</ele>
        <time>2018-06-19T09:48:00Z</time>
      </trkpt>
      <trkpt lat="45.97235" lon="4.78251">
        <ele>231</ele>
        <time>2018-06-19T09:48:01Z</time>
      </trkpt>
      <trkpt lat="45.97231" lon="4.78244">
        <ele>231</ele>
        <time>2018-06-19T09:48:02Z</time>
      </trkpt>
      <trkpt lat="45.97227" lon="4.78236">
        <ele>231</ele>
        <time>2018-06-19T09:48:03Z</time>
      </trkpt>
      <trkpt lat="45.97223" lon="4.78229">
        <ele>231</ele>
        <time>2018-06-19T09:48:04Z</time>
      </trkpt>
      <trkpt lat="45.9722" lon="4.78223">
        <ele>231</ele>
        <time>2018-06-19T09:48:05Z</time>
      </trkpt>
      <trkpt lat="45.97215" lon="4.78216">
        <ele>231</ele>
        <time>2018-06-19T09:48:06Z</time>
      </trkpt>
      <trkpt lat="45.97211" lon="4.78209">
        <ele>231</ele>
        <time>2018-06-19T09:48:07Z</time>
      </trkpt>
      <trkpt lat="45.97207" lon="4.78202">
        <ele>231</ele>
        <time>2018-06-19T09:48:08Z</time>
      </trkpt>
      <trkpt lat="45.97204" lon="4.78195">
        <ele>231</ele>
        <time>2018-06-19T09:48:09Z</time>
      </trkpt>
      <trkpt lat="45.972" lon="4.78188">
        <ele>231</ele>
        <time>2018-06-19T09:48:10Z</time>
      </trkpt>
      <trkpt lat="45.97197" lon="4.78181">
        <ele>231</ele>
        <time>2018-06-19T09:48:11Z</time>
      </trkpt>
      <trkpt lat="45.97194" lon="4.78174">
        <ele>231</ele>
        <time>2018-06-19T09:48:12Z</time>
      </trkpt>
      <trkpt lat="45.9719" lon="4.78167">
        <ele>231</ele>
        <time>2018-06-19T09:48:13Z</time>
      </trkpt>
      <trkpt lat="45.97186" lon="4.7816">
        <ele>231</ele>
        <time>2018-06-19T09:48:14Z</time>
      </trkpt>
      <trkpt lat="45.97182" lon="4.78152">
        <ele>231</ele>
        <time>2018-06-19T09:48:15Z</time>
      </trkpt>
      <trkpt lat="45.97178" lon="4.78144">
        <ele>231</ele>
        <time>2018-06-19T09:48:16Z</time>
      </trkpt>
      <trkpt lat="45.97174" lon="4.78138">
        <ele>231</ele>
        <time>2018-06-19T09:48:17Z</time>
      </trkpt>
      <trkpt lat="45.97169" lon="4.78129">
        <ele>231</ele>
        <time>2018-06-19T09:48:18Z</time>
      </trkpt>
      <trkpt lat="45.97165" lon="4.78121">
        <ele>230</ele>
        <time>2018-06-19T09:48:19Z</time>
      </trkpt>
      <trkpt lat="45.97162" lon="4.78113">
        <ele>230</ele>
        <time>2018-06-19T09:48:20Z</time>
      </trkpt>
      <trkpt lat="45.97158" lon="4.78104">
        <ele>230</ele>
        <time>2018-06-19T09:48:21Z</time>
      </trkpt>
      <trkpt lat="45.97154" lon="4.78096">
        <ele>230</ele>
        <time>2018-06-19T09:48:22Z</time>
      </trkpt>
      <trkpt lat="45.97148" lon="4.7809">
        <ele>230</ele>
        <time>2018-06-19T09:48:23Z</time>
      </trkpt>
      <trkpt lat="45.97144" lon="4.78083">
        <ele>230</ele>
        <time>2018-06-19T09:48:24Z</time>
      </trkpt>
      <trkpt lat="45.97139" lon="4.78075">
        <ele>230</ele>
        <time>2018-06-19T09:48:25Z</time>
      </trkpt>
      <trkpt lat="45.97135" lon="4.78068">
        <ele>230</ele>
        <time>2018-06-19T09:48:26Z</time>
      </trkpt>
      <trkpt lat="45.9713" lon="4.78062">
        <ele>230</ele>
        <time>2018-06-19T09:48:27Z</time>
      </trkpt>
      <trkpt lat="45.97125" lon="4.78057">
        <ele>229</ele>
        <time>2018-06-19T09:48:28Z</time>
      </trkpt>
      <trkpt lat="45.9712" lon="4.78051">
        <ele>229</ele>
        <time>2018-06-19T09:48:29Z</time>
      </trkpt>
      <trkpt lat="45.97114" lon="4.78046">
        <ele>229</ele>
        <time>2018-06-19T09:48:30Z</time>
      </trkpt>
      <trkpt lat="45.9711" lon="4.78041">
        <ele>229</ele>
        <time>2018-06-19T09:48:31Z</time>
      </trkpt>
      <trkpt lat="45.97104" lon="4.78036">
        <ele>229</ele>
        <time>2018-06-19T09:48:32Z</time>
      </trkpt>
      <trkpt lat="45.97099" lon="4.7803">
        <ele>229</ele>
        <time>2018-06-19T09:48:33Z</time>
      </trkpt>
      <trkpt lat="45.97093" lon="4.78025">
        <ele>229</ele>
        <time>2018-06-19T09:48:34Z</time>
      </trkpt>
      <trkpt lat="45.97088" lon="4.78019">
        <ele>229</ele>
        <time>2018-06-19T09:48:35Z</time>
      </trkpt>
      <trkpt lat="45.97082" lon="4.78014">
        <ele>229</ele>
        <time>2018-06-19T09:48:36Z</time>
      </trkpt>
      <trkpt lat="45.97075" lon="4.78008">
        <ele>229</ele>
        <time>2018-06-19T09:48:37Z</time>
      </trkpt>
      <trkpt lat="45.97069" lon="4.78002">
        <ele>229</ele>
        <time>2018-06-19T09:48:38Z</time>
      </trkpt>
      <trkpt lat="45.97064" lon="4.77996">
        <ele>229</ele>
        <time>2018-06-19T09:48:39Z</time>
      </trkpt>
      <trkpt lat="45.97058" lon="4.7799">
        <ele>229</ele>
        <time>2018-06-19T09:48:40Z</time>
      </trkpt>
      <trkpt lat="45.97052" lon="4.77984">
        <ele>229</ele>
        <time>2018-06-19T09:48:41Z</time>
      </trkpt>
      <trkpt lat="45.97047" lon="4.77978">
        <ele>229</ele>
        <time>2018-06-19T09:48:42Z</time>
      </trkpt>
      <trkpt lat="45.97041" lon="4.77972">
        <ele>229</ele>
        <time>2018-06-19T09:48:43Z</time>
      </trkpt>
      <trkpt lat="45.97035" lon="4.77965">
        <ele>229</ele>
        <time>2018-06-19T09:48:44Z</time>
      </trkpt>
      <trkpt lat="45.9703" lon="4.77959">
        <ele>228</ele>
        <time>2018-06-19T09:48:45Z</time>
      </trkpt>
      <trkpt lat="45.97025" lon="4.77953">
        <ele>228</ele>
        <time>2018-06-19T09:48:46Z</time>
      </trkpt>
      <trkpt lat="45.97019" lon="4.77947">
        <ele>228</ele>
        <time>2018-06-19T09:48:47Z</time>
      </trkpt>
      <trkpt lat="45.97014" lon="4.7794">
        <ele>228</ele>
        <time>2018-06-19T09:48:48Z</time>
      </trkpt>
      <trkpt lat="45.97009" lon="4.77934">
        <ele>228</ele>
        <time>2018-06-19T09:48:49Z</time>
      </trkpt>
      <trkpt lat="45.97004" lon="4.77928">
        <ele>228</ele>
        <time>2018-06-19T09:48:50Z</time>
      </trkpt>
      <trkpt lat="45.96999" lon="4.77921">
        <ele>227</ele>
        <time>2018-06-19T09:48:51Z</time>
      </trkpt>
      <trkpt lat="45.96994" lon="4.77914">
        <ele>227</ele>
        <time>2018-06-19T09:48:52Z</time>
      </trkpt>
      <trkpt lat="45.96989" lon="4.77907">
        <ele>227</ele>
        <time>2018-06-19T09:48:53Z</time>
      </trkpt>
      <trkpt lat="45.96983" lon="4.779">
        <ele>227</ele>
        <time>2018-06-19T09:48:54Z</time>
      </trkpt>
      <trkpt lat="45.96976" lon="4.77894">
        <ele>228</ele>
        <time>2018-06-19T09:48:55Z</time>
      </trkpt>
      <trkpt lat="45.96971" lon="4.77887">
        <ele>228</ele>
        <time>2018-06-19T09:48:56Z</time>
      </trkpt>
      <trkpt lat="45.96965" lon="4.77881">
        <ele>228</ele>
        <time>2018-06-19T09:48:57Z</time>
      </trkpt>
      <trkpt lat="45.96959" lon="4.77874">
        <ele>228</ele>
        <time>2018-06-19T09:48:58Z</time>
      </trkpt>
      <trkpt lat="45.96954" lon="4.77867">
        <ele>228</ele>
        <time>2018-06-19T09:48:59Z</time>
      </trkpt>
      <trkpt lat="45.96948" lon="4.77861">
        <ele>228</ele>
        <time>2018-06-19T09:49:00Z</time>
      </trkpt>
      <trkpt lat="45.96943" lon="4.77854">
        <ele>228</ele>
        <time>2018-06-19T09:49:01Z</time>
      </trkpt>
      <trkpt lat="45.96938" lon="4.77848">
        <ele>228</ele>
        <time>2018-06-19T09:49:02Z</time>
      </trkpt>
      <trkpt lat="45.96932" lon="4.77842">
        <ele>228</ele>
        <time>2018-06-19T09:49:03Z</time>
      </trkpt>
      <trkpt lat="45.96927" lon="4.77836">
        <ele>228</ele>
        <time>2018-06-19T09:49:04Z</time>
      </trkpt>
      <trkpt lat="45.96922" lon="4.77831">
        <ele>228</ele>
        <time>2018-06-19T09:49:05Z</time>
      </trkpt>
      <trkpt lat="45.96916" lon="4.77826">
        <ele>228</ele>
        <time>2018-06-19T09:49:06Z</time>
      </trkpt>
      <trkpt lat="45.96911" lon="4.77821">
        <ele>228</ele>
        <time>2018-06-19T09:49:07Z</time>
      </trkpt>
      <trkpt lat="45.96906" lon="4.77816">
        <ele>228</ele>
        <time>2018-06-19T09:49:08Z</time>
      </trkpt>
      <trkpt lat="45.96901" lon="4.7781">
        <ele>228</ele>
        <time>2018-06-19T09:49:09Z</time>
      </trkpt>
      <trkpt lat="45.96896" lon="4.77805">
        <ele>228</ele>
        <time>2018-06-19T09:49:10Z</time>
      </trkpt>
      <trkpt lat="45.96889" lon="4.77799">
        <ele>228</ele>
        <time>2018-06-19T09:49:11Z</time>
      </trkpt>
      <trkpt lat="45.96884" lon="4.77794">
        <ele>228</ele>
        <time>2018-06-19T09:49:12Z</time>
      </trkpt>
      <trkpt lat="45.96879" lon="4.77788">
        <ele>228</ele>
        <time>2018-06-19T09:49:13Z</time>
      </trkpt>
      <trkpt lat="45.96873" lon="4.77782">
        <ele>228</ele>
        <time>2018-06-19T09:49:14Z</time>
      </trkpt>
      <trkpt lat="45.96867" lon="4.77777">
        <ele>228</ele>
        <time>2018-06-19T09:49:15Z</time>
      </trkpt>
      <trkpt lat="45.96862" lon="4.77772">
        <ele>228</ele>
        <time>2018-06-19T09:49:16Z</time>
      </trkpt>
      <trkpt lat="45.96856" lon="4.77767">
        <ele>228</ele>
        <time>2018-06-19T09:49:17Z</time>
      </trkpt>
      <trkpt lat="45.9685" lon="4.77763">
        <ele>228</ele>
        <time>2018-06-19T09:49:18Z</time>
      </trkpt>
      <trkpt lat="45.96844" lon="4.77756">
        <ele>228</ele>
        <time>2018-06-19T09:49:19Z</time>
      </trkpt>
      <trkpt lat="45.9684" lon="4.77751">
        <ele>228</ele>
        <time>2018-06-19T09:49:20Z</time>
      </trkpt>
      <trkpt lat="45.96834" lon="4.77746">
        <ele>228</ele>
        <time>2018-06-19T09:49:21Z</time>
      </trkpt>
      <trkpt lat="45.96828" lon="4.7774">
        <ele>228</ele>
        <time>2018-06-19T09:49:22Z</time>
      </trkpt>
      <trkpt lat="45.96823" lon="4.77734">
        <ele>228</ele>
        <time>2018-06-19T09:49:23Z</time>
      </trkpt>
      <trkpt lat="45.96817" lon="4.77728">
        <ele>228</ele>
        <time>2018-06-19T09:49:24Z</time>
      </trkpt>
      <trkpt lat="45.96811" lon="4.77722">
        <ele>228</ele>
        <time>2018-06-19T09:49:25Z</time>
      </trkpt>
      <trkpt lat="45.96805" lon="4.77715">
        <ele>228</ele>
        <time>2018-06-19T09:49:26Z</time>
      </trkpt>
      <trkpt lat="45.968" lon="4.77708">
        <ele>228</ele>
        <time>2018-06-19T09:49:27Z</time>
      </trkpt>
      <trkpt lat="45.96794" lon="4.77701">
        <ele>228</ele>
        <time>2018-06-19T09:49:28Z</time>
      </trkpt>
      <trkpt lat="45.96789" lon="4.77695">
        <ele>227</ele>
        <time>2018-06-19T09:49:29Z</time>
      </trkpt>
      <trkpt lat="45.96784" lon="4.77689">
        <ele>227</ele>
        <time>2018-06-19T09:49:30Z</time>
      </trkpt>
      <trkpt lat="45.96778" lon="4.77682">
        <ele>227</ele>
        <time>2018-06-19T09:49:31Z</time>
      </trkpt>
      <trkpt lat="45.96773" lon="4.77676">
        <ele>227</ele>
        <time>2018-06-19T09:49:32Z</time>
      </trkpt>
      <trkpt lat="45.96768" lon="4.7767">
        <ele>227</ele>
        <time>2018-06-19T09:49:33Z</time>
      </trkpt>
      <trkpt lat="45.96764" lon="4.77664">
        <ele>227</ele>
        <time>2018-06-19T09:49:34Z</time>
      </trkpt>
      <trkpt lat="45.96759" lon="4.77658">
        <ele>227</ele>
        <time>2018-06-19T09:49:35Z</time>
      </trkpt>
      <trkpt lat="45.96754" lon="4.77652">
        <ele>227</ele>
        <time>2018-06-19T09:49:36Z</time>
      </trkpt>
      <trkpt lat="45.96749" lon="4.77645">
        <ele>227</ele>
        <time>2018-06-19T09:49:37Z</time>
      </trkpt>
      <trkpt lat="45.96744" lon="4.7764">
        <ele>227</ele>
        <time>2018-06-19T09:49:38Z</time>
      </trkpt>
      <trkpt lat="45.96739" lon="4.77634">
        <ele>227</ele>
        <time>2018-06-19T09:49:39Z</time>
      </trkpt>
      <trkpt lat="45.96734" lon="4.77628">
        <ele>226</ele>
        <time>2018-06-19T09:49:40Z</time>
      </trkpt>
      <trkpt lat="45.96729" lon="4.77622">
        <ele>226</ele>
        <time>2018-06-19T09:49:41Z</time>
      </trkpt>
      <trkpt lat="45.96724" lon="4.77617">
        <ele>226</ele>
        <time>2018-06-19T09:49:42Z</time>
      </trkpt>
      <trkpt lat="45.96719" lon="4.77611">
        <ele>226</ele>
        <time>2018-06-19T09:49:43Z</time>
      </trkpt>
      <trkpt lat="45.96714" lon="4.77605">
        <ele>226</ele>
        <time>2018-06-19T09:49:44Z</time>
      </trkpt>
      <trkpt lat="45.96708" lon="4.77598">
        <ele>226</ele>
        <time>2018-06-19T09:49:45Z</time>
      </trkpt>
      <trkpt lat="45.96702" lon="4.77593">
        <ele>226</ele>
        <time>2018-06-19T09:49:46Z</time>
      </trkpt>
      <trkpt lat="45.96696" lon="4.77588">
        <ele>226</ele>
        <time>2018-06-19T09:49:47Z</time>
      </trkpt>
      <trkpt lat="45.96691" lon="4.77582">
        <ele>225</ele>
        <time>2018-06-19T09:49:48Z</time>
      </trkpt>
      <trkpt lat="45.96686" lon="4.77576">
        <ele>225</ele>
        <time>2018-06-19T09:49:49Z</time>
      </trkpt>
      <trkpt lat="45.9668" lon="4.7757">
        <ele>225</ele>
        <time>2018-06-19T09:49:50Z</time>
      </trkpt>
      <trkpt lat="45.96673" lon="4.77565">
        <ele>225</ele>
        <time>2018-06-19T09:49:51Z</time>
      </trkpt>
      <trkpt lat="45.96667" lon="4.77559">
        <ele>225</ele>
        <time>2018-06-19T09:49:52Z</time>
      </trkpt>
      <trkpt lat="45.96661" lon="4.77555">
        <ele>224</ele>
        <time>2018-06-19T09:49:53Z</time>
      </trkpt>
      <trkpt lat="45.96654" lon="4.7755">
        <ele>224</ele>
        <time>2018-06-19T09:49:54Z</time>
      </trkpt>
      <trkpt lat="45.96648" lon="4.77546">
        <ele>224</ele>
        <time>2018-06-19T09:49:55Z</time>
      </trkpt>
      <trkpt lat="45.96642" lon="4.77543">
        <ele>224</ele>
        <time>2018-06-19T09:49:56Z</time>
      </trkpt>
      <trkpt lat="45.96636" lon="4.77539">
        <ele>224</ele>
        <time>2018-06-19T09:49:57Z</time>
      </trkpt>
      <trkpt lat="45.96631" lon="4.77535">
        <ele>224</ele>
        <time>2018-06-19T09:49:58Z</time>
      </trkpt>
      <trkpt lat="45.96625" lon="4.77531">
        <ele>224</ele>
        <time>2018-06-19T09:49:59Z</time>
      </trkpt>
      <trkpt lat="45.96618" lon="4.77526">
        <ele>224</ele>
        <time>2018-06-19T09:50:00Z</time>
      </trkpt>
      <trkpt lat="45.96612" lon="4.77523">
        <ele>224</ele>
        <time>2018-06-19T09:50:01Z</time>
      </trkpt>
      <trkpt lat="45.96607" lon="4.77518">
        <ele>224</ele>
        <time>2018-06-19T09:50:02Z</time>
      </trkpt>
      <trkpt lat="45.96601" lon="4.77513">
        <ele>224</ele>
        <time>2018-06-19T09:50:03Z</time>
      </trkpt>
      <trkpt lat="45.96595" lon="4.77509">
        <ele>224</ele>
        <time>2018-06-19T09:50:04Z</time>
      </trkpt>
      <trkpt lat="45.96589" lon="4.77505">
        <ele>224</ele>
        <time>2018-06-19T09:50:05Z</time>
      </trkpt>
      <trkpt lat="45.96582" lon="4.77502">
        <ele>224</ele>
        <time>2018-06-19T09:50:06Z</time>
      </trkpt>
      <trkpt lat="45.96576" lon="4.77498">
        <ele>224</ele>
        <time>2018-06-19T09:50:07Z</time>
      </trkpt>
      <trkpt lat="45.9657" lon="4.77494">
        <ele>224</ele>
        <time>2018-06-19T09:50:08Z</time>
      </trkpt>
      <trkpt lat="45.96563" lon="4.7749">
        <ele>224</ele>
        <time>2018-06-19T09:50:09Z</time>
      </trkpt>
      <trkpt lat="45.96557" lon="4.77486">
        <ele>224</ele>
        <time>2018-06-19T09:50:10Z</time>
      </trkpt>
      <trkpt lat="45.9655" lon="4.77483">
        <ele>223</ele>
        <time>2018-06-19T09:50:11Z</time>
      </trkpt>
      <trkpt lat="45.96543" lon="4.7748">
        <ele>223</ele>
        <time>2018-06-19T09:50:12Z</time>
      </trkpt>
      <trkpt lat="45.96537" lon="4.77476">
        <ele>223</ele>
        <time>2018-06-19T09:50:13Z</time>
      </trkpt>
      <trkpt lat="45.9653" lon="4.77473">
        <ele>223</ele>
        <time>2018-06-19T09:50:14Z</time>
      </trkpt>
      <trkpt lat="45.96522" lon="4.77467">
        <ele>223</ele>
        <time>2018-06-19T09:50:15Z</time>
      </trkpt>
      <trkpt lat="45.96515" lon="4.77464">
        <ele>223</ele>
        <time>2018-06-19T09:50:16Z</time>
      </trkpt>
      <trkpt lat="45.96509" lon="4.77459">
        <ele>223</ele>
        <time>2018-06-19T09:50:17Z</time>
      </trkpt>
      <trkpt lat="45.96502" lon="4.77454">
        <ele>223</ele>
        <time>2018-06-19T09:50:18Z</time>
      </trkpt>
      <trkpt lat="45.96496" lon="4.7745">
        <ele>221</ele>
        <time>2018-06-19T09:50:19Z</time>
      </trkpt>
      <trkpt lat="45.96489" lon="4.77445">
        <ele>221</ele>
        <time>2018-06-19T09:50:20Z</time>
      </trkpt>
      <trkpt lat="45.96482" lon="4.77441">
        <ele>221</ele>
        <time>2018-06-19T09:50:21Z</time>
      </trkpt>
      <trkpt lat="45.96475" lon="4.77436">
        <ele>221</ele>
        <time>2018-06-19T09:50:22Z</time>
      </trkpt>
      <trkpt lat="45.96469" lon="4.77432">
        <ele>221</ele>
        <time>2018-06-19T09:50:23Z</time>
      </trkpt>
      <trkpt lat="45.96462" lon="4.77428">
        <ele>221</ele>
        <time>2018-06-19T09:50:24Z</time>
      </trkpt>
      <trkpt lat="45.96455" lon="4.77423">
        <ele>221</ele>
        <time>2018-06-19T09:50:25Z</time>
      </trkpt>
      <trkpt lat="45.96448" lon="4.77419">
        <ele>221</ele>
        <time>2018-06-19T09:50:26Z</time>
      </trkpt>
      <trkpt lat="45.96441" lon="4.77414">
        <ele>222</ele>
        <time>2018-06-19T09:50:27Z</time>
      </trkpt>
      <trkpt lat="45.96434" lon="4.7741">
        <ele>222</ele>
        <time>2018-06-19T09:50:28Z</time>
      </trkpt>
      <trkpt lat="45.96427" lon="4.77407">
        <ele>222</ele>
        <time>2018-06-19T09:50:29Z</time>
      </trkpt>
      <trkpt lat="45.9642" lon="4.77403">
        <ele>222</ele>
        <time>2018-06-19T09:50:30Z</time>
      </trkpt>
      <trkpt lat="45.96414" lon="4.77399">
        <ele>220</ele>
        <time>2018-06-19T09:50:31Z</time>
      </trkpt>
      <trkpt lat="45.96407" lon="4.77394">
        <ele>220</ele>
        <time>2018-06-19T09:50:32Z</time>
      </trkpt>
      <trkpt lat="45.96399" lon="4.7739">
        <ele>220</ele>
        <time>2018-06-19T09:50:33Z</time>
      </trkpt>
      <trkpt lat="45.96393" lon="4.77385">
        <ele>220</ele>
        <time>2018-06-19T09:50:34Z</time>
      </trkpt>
      <trkpt lat="45.96385" lon="4.77381">
        <ele>220</ele>
        <time>2018-06-19T09:50:35Z</time>
      </trkpt>
      <trkpt lat="45.96378" lon="4.77376">
        <ele>220</ele>
        <time>2018-06-19T09:50:36Z</time>
      </trkpt>
      <trkpt lat="45.9637" lon="4.77371">
        <ele>219</ele>
        <time>2018-06-19T09:50:37Z</time>
      </trkpt>
      <trkpt lat="45.96364" lon="4.77367">
        <ele>219</ele>
        <time>2018-06-19T09:50:38Z</time>
      </trkpt>
      <trkpt lat="45.96358" lon="4.77363">
        <ele>219</ele>
        <time>2018-06-19T09:50:39Z</time>
      </trkpt>
      <trkpt lat="45.96351" lon="4.77359">
        <ele>219</ele>
        <time>2018-06-19T09:50:40Z</time>
      </trkpt>
      <trkpt lat="45.96342" lon="4.77354">
        <ele>219</ele>
        <time>2018-06-19T09:50:41Z</time>
      </trkpt>
      <trkpt lat="45.96336" lon="4.77349">
        <ele>220</ele>
        <time>2018-06-19T09:50:42Z</time>
      </trkpt>
      <trkpt lat="45.96327" lon="4.77344">
        <ele>218</ele>
        <time>2018-06-19T09:50:43Z</time>
      </trkpt>
      <trkpt lat="45.96319" lon="4.7734">
        <ele>218</ele>
        <time>2018-06-19T09:50:44Z</time>
      </trkpt>
      <trkpt lat="45.96311" lon="4.77336">
        <ele>218</ele>
        <time>2018-06-19T09:50:45Z</time>
      </trkpt>
      <trkpt lat="45.96303" lon="4.77332">
        <ele>219</ele>
        <time>2018-06-19T09:50:46Z</time>
      </trkpt>
      <trkpt lat="45.96296" lon="4.77328">
        <ele>219</ele>
        <time>2018-06-19T09:50:47Z</time>
      </trkpt>
      <trkpt lat="45.96288" lon="4.77324">
        <ele>219</ele>
        <time>2018-06-19T09:50:48Z</time>
      </trkpt>
      <trkpt lat="45.9628" lon="4.7732">
        <ele>219</ele>
        <time>2018-06-19T09:50:49Z</time>
      </trkpt>
      <trkpt lat="45.96272" lon="4.77315">
        <ele>219</ele>
        <time>2018-06-19T09:50:50Z</time>
      </trkpt>
      <trkpt lat="45.96264" lon="4.7731">
        <ele>218</ele>
        <time>2018-06-19T09:50:51Z</time>
      </trkpt>
      <trkpt lat="45.96256" lon="4.77306">
        <ele>219</ele>
        <time>2018-06-19T09:50:52Z</time>
      </trkpt>
      <trkpt lat="45.96249" lon="4.77302">
        <ele>217</ele>
        <time>2018-06-19T09:50:53Z</time>
      </trkpt>
      <trkpt lat="45.96241" lon="4.77297">
        <ele>217</ele>
        <time>2018-06-19T09:50:54Z</time>
      </trkpt>
      <trkpt lat="45.96234" lon="4.77292">
        <ele>217</ele>
        <time>2018-06-19T09:50:55Z</time>
      </trkpt>
      <trkpt lat="45.96226" lon="4.77288">
        <ele>217</ele>
        <time>2018-06-19T09:50:56Z</time>
      </trkpt>
      <trkpt lat="45.96218" lon="4.77283">
        <ele>217</ele>
        <time>2018-06-19T09:50:57Z</time>
      </trkpt>
      <trkpt lat="45.9621" lon="4.77279">
        <ele>217</ele>
        <time>2018-06-19T09:50:58Z</time>
      </trkpt>
      <trkpt lat="45.96203" lon="4.77273">
        <ele>217</ele>
        <time>2018-06-19T09:50:59Z</time>
      </trkpt>
      <trkpt lat="45.96194" lon="4.77268">
        <ele>216</ele>
        <time>2018-06-19T09:51:00Z</time>
      </trkpt>
      <trkpt lat="45.96186" lon="4.77263">
        <ele>216</ele>
        <time>2018-06-19T09:51:01Z</time>
      </trkpt>
      <trkpt lat="45.96178" lon="4.77259">
        <ele>216</ele>
        <time>2018-06-19T09:51:02Z</time>
      </trkpt>
      <trkpt lat="45.96171" lon="4.77255">
        <ele>216</ele>
        <time>2018-06-19T09:51:03Z</time>
      </trkpt>
      <trkpt lat="45.96163" lon="4.77252">
        <ele>215</ele>
        <time>2018-06-19T09:51:04Z</time>
      </trkpt>
      <trkpt lat="45.96153" lon="4.77249">
        <ele>215</ele>
        <time>2018-06-19T09:51:05Z</time>
      </trkpt>
      <trkpt lat="45.96146" lon="4.77245">
        <ele>215</ele>
        <time>2018-06-19T09:51:06Z</time>
      </trkpt>
      <trkpt lat="45.96138" lon="4.77242">
        <ele>215</ele>
        <time>2018-06-19T09:51:07Z</time>
      </trkpt>
      <trkpt lat="45.9613" lon="4.77239">
        <ele>215</ele>
        <time>2018-06-19T09:51:08Z</time>
      </trkpt>
      <trkpt lat="45.96124" lon="4.77237">
        <ele>214</ele>
        <time>2018-06-19T09:51:09Z</time>
      </trkpt>
      <trkpt lat="45.96116" lon="4.77236">
        <ele>214</ele>
        <time>2018-06-19T09:51:10Z</time>
      </trkpt>
      <trkpt lat="45.96109" lon="4.77236">
        <ele>214</ele>
        <time>2018-06-19T09:51:11Z</time>
      </trkpt>
      <trkpt lat="45.96101" lon="4.77237">
        <ele>213</ele>
        <time>2018-06-19T09:51:12Z</time>
      </trkpt>
      <trkpt lat="45.96092" lon="4.77237">
        <ele>212</ele>
        <time>2018-06-19T09:51:13Z</time>
      </trkpt>
      <trkpt lat="45.96084" lon="4.77236">
        <ele>212</ele>
        <time>2018-06-19T09:51:14Z</time>
      </trkpt>
      <trkpt lat="45.96075" lon="4.77237">
        <ele>210</ele>
        <time>2018-06-19T09:51:15Z</time>
      </trkpt>
      <trkpt lat="45.96067" lon="4.77237">
        <ele>209</ele>
        <time>2018-06-19T09:51:16Z</time>
      </trkpt>
      <trkpt lat="45.96058" lon="4.77237">
        <ele>209</ele>
        <time>2018-06-19T09:51:17Z</time>
      </trkpt>
      <trkpt lat="45.9605" lon="4.77239">
        <ele>209</ele>
        <time>2018-06-19T09:51:18Z</time>
      </trkpt>
      <trkpt lat="45.96041" lon="4.7724">
        <ele>208</ele>
        <time>2018-06-19T09:51:19Z</time>
      </trkpt>
      <trkpt lat="45.96031" lon="4.77243">
        <ele>208</ele>
        <time>2018-06-19T09:51:20Z</time>
      </trkpt>
      <trkpt lat="45.96022" lon="4.77243">
        <ele>207</ele>
        <time>2018-06-19T09:51:21Z</time>
      </trkpt>
      <trkpt lat="45.96013" lon="4.77244">
        <ele>206</ele>
        <time>2018-06-19T09:51:22Z</time>
      </trkpt>
      <trkpt lat="45.96004" lon="4.77244">
        <ele>205</ele>
        <time>2018-06-19T09:51:23Z</time>
      </trkpt>
      <trkpt lat="45.95997" lon="4.77241">
        <ele>203</ele>
        <time>2018-06-19T09:51:24Z</time>
      </trkpt>
      <trkpt lat="45.95989" lon="4.77237">
        <ele>202</ele>
        <time>2018-06-19T09:51:25Z</time>
      </trkpt>
      <trkpt lat="45.9598" lon="4.77231">
        <ele>202</ele>
        <time>2018-06-19T09:51:26Z</time>
      </trkpt>
      <trkpt lat="45.95971" lon="4.77224">
        <ele>202</ele>
        <time>2018-06-19T09:51:27Z</time>
      </trkpt>
      <trkpt lat="45.95964" lon="4.77216">
        <ele>201</ele>
        <time>2018-06-19T09:51:28Z</time>
      </trkpt>
      <trkpt lat="45.95958" lon="4.77205">
        <ele>201</ele>
        <time>2018-06-19T09:51:29Z</time>
      </trkpt>
      <trkpt lat="45.95951" lon="4.77194">
        <ele>201</ele>
        <time>2018-06-19T09:51:30Z</time>
      </trkpt>
      <trkpt lat="45.95947" lon="4.77181">
        <ele>201</ele>
        <time>2018-06-19T09:51:31Z</time>
      </trkpt>
      <trkpt lat="45.95945" lon="4.77168">
        <ele>200</ele>
        <time>2018-06-19T09:51:32Z</time>
      </trkpt>
      <trkpt lat="45.95943" lon="4.77155">
        <ele>201</ele>
        <time>2018-06-19T09:51:33Z</time>
      </trkpt>
      <trkpt lat="45.95943" lon="4.77141">
        <ele>201</ele>
        <time>2018-06-19T09:51:34Z</time>
      </trkpt>
      <trkpt lat="45.95942" lon="4.77127">
        <ele>201</ele>
        <time>2018-06-19T09:51:35Z</time>
      </trkpt>
      <trkpt lat="45.95943" lon="4.77114">
        <ele>201</ele>
        <time>2018-06-19T09:51:36Z</time>
      </trkpt>
      <trkpt lat="45.95943" lon="4.77103">
        <ele>201</ele>
        <time>2018-06-19T09:51:37Z</time>
      </trkpt>
      <trkpt lat="45.95945" lon="4.77089">
        <ele>201</ele>
        <time>2018-06-19T09:51:38Z</time>
      </trkpt>
      <trkpt lat="45.95948" lon="4.77077">
        <ele>200</ele>
        <time>2018-06-19T09:51:39Z</time>
      </trkpt>
      <trkpt lat="45.95951" lon="4.77066">
        <ele>200</ele>
        <time>2018-06-19T09:51:40Z</time>
      </trkpt>
      <trkpt lat="45.95955" lon="4.77053">
        <ele>200</ele>
        <time>2018-06-19T09:51:41Z</time>
      </trkpt>
      <trkpt lat="45.95959" lon="4.77041">
        <ele>200</ele>
        <time>2018-06-19T09:51:42Z</time>
      </trkpt>
      <trkpt lat="45.95963" lon="4.77031">
        <ele>200</ele>
        <time>2018-06-19T09:51:43Z</time>
      </trkpt>
      <trkpt lat="45.95968" lon="4.77019">
        <ele>200</ele>
        <time>2018-06-19T09:51:44Z</time>
      </trkpt>
      <trkpt lat="45.95972" lon="4.77008">
        <ele>200</ele>
        <time>2018-06-19T09:51:45Z</time>
      </trkpt>
      <trkpt lat="45.95977" lon="4.76997">
        <ele>198</ele>
        <time>2018-06-19T09:51:46Z</time>
      </trkpt>
      <trkpt lat="45.95979" lon="4.76982">
        <ele>197</ele>
        <time>2018-06-19T09:51:47Z</time>
      </trkpt>
      <trkpt lat="45.9598" lon="4.76969">
        <ele>197</ele>
        <time>2018-06-19T09:51:48Z</time>
      </trkpt>
      <trkpt lat="45.95978" lon="4.76955">
        <ele>196</ele>
        <time>2018-06-19T09:51:49Z</time>
      </trkpt>
      <trkpt lat="45.95974" lon="4.76943">
        <ele>196</ele>
        <time>2018-06-19T09:51:50Z</time>
      </trkpt>
      <trkpt lat="45.95968" lon="4.76933">
        <ele>195</ele>
        <time>2018-06-19T09:51:51Z</time>
      </trkpt>
      <trkpt lat="45.95961" lon="4.76923">
        <ele>195</ele>
        <time>2018-06-19T09:51:52Z</time>
      </trkpt>
      <trkpt lat="45.95953" lon="4.76915">
        <ele>193</ele>
        <time>2018-06-19T09:51:53Z</time>
      </trkpt>
      <trkpt lat="45.95945" lon="4.76906">
        <ele>192</ele>
        <time>2018-06-19T09:51:54Z</time>
      </trkpt>
      <trkpt lat="45.95937" lon="4.76898">
        <ele>192</ele>
        <time>2018-06-19T09:51:55Z</time>
      </trkpt>
      <trkpt lat="45.95928" lon="4.76889">
        <ele>192</ele>
        <time>2018-06-19T09:51:56Z</time>
      </trkpt>
      <trkpt lat="45.95921" lon="4.76882">
        <ele>192</ele>
        <time>2018-06-19T09:51:57Z</time>
      </trkpt>
      <trkpt lat="45.95913" lon="4.76874">
        <ele>191</ele>
        <time>2018-06-19T09:51:58Z</time>
      </trkpt>
      <trkpt lat="45.95906" lon="4.76865">
        <ele>191</ele>
        <time>2018-06-19T09:51:59Z</time>
      </trkpt>
      <trkpt lat="45.95898" lon="4.76856">
        <ele>191</ele>
        <time>2018-06-19T09:52:00Z</time>
      </trkpt>
      <trkpt lat="45.9589" lon="4.76849">
        <ele>191</ele>
        <time>2018-06-19T09:52:01Z</time>
      </trkpt>
      <trkpt lat="45.95883" lon="4.76841">
        <ele>191</ele>
        <time>2018-06-19T09:52:02Z</time>
      </trkpt>
      <trkpt lat="45.95875" lon="4.76833">
        <ele>191</ele>
        <time>2018-06-19T09:52:03Z</time>
      </trkpt>
      <trkpt lat="45.95867" lon="4.76826">
        <ele>191</ele>
        <time>2018-06-19T09:52:04Z</time>
      </trkpt>
      <trkpt lat="45.9586" lon="4.76818">
        <ele>191</ele>
        <time>2018-06-19T09:52:05Z</time>
      </trkpt>
      <trkpt lat="45.95852" lon="4.7681">
        <ele>191</ele>
        <time>2018-06-19T09:52:06Z</time>
      </trkpt>
      <trkpt lat="45.95845" lon="4.76803">
        <ele>191</ele>
        <time>2018-06-19T09:52:07Z</time>
      </trkpt>
      <trkpt lat="45.95839" lon="4.76794">
        <ele>191</ele>
        <time>2018-06-19T09:52:08Z</time>
      </trkpt>
      <trkpt lat="45.95833" lon="4.76784">
        <ele>190</ele>
        <time>2018-06-19T09:52:09Z</time>
      </trkpt>
      <trkpt lat="45.95829" lon="4.76774">
        <ele>190</ele>
        <time>2018-06-19T09:52:10Z</time>
      </trkpt>
      <trkpt lat="45.95826" lon="4.76762">
        <ele>190</ele>
        <time>2018-06-19T09:52:11Z</time>
      </trkpt>
      <trkpt lat="45.95823" lon="4.76751">
        <ele>191</ele>
        <time>2018-06-19T09:52:12Z</time>
      </trkpt>
      <trkpt lat="45.95823" lon="4.7674">
        <ele>190</ele>
        <time>2018-06-19T09:52:13Z</time>
      </trkpt>
      <trkpt lat="45.95822" lon="4.76729">
        <ele>190</ele>
        <time>2018-06-19T09:52:14Z</time>
      </trkpt>
      <trkpt lat="45.9582" lon="4.76718">
        <ele>189</ele>
        <time>2018-06-19T09:52:15Z</time>
      </trkpt>
      <trkpt lat="45.95819" lon="4.76707">
        <ele>189</ele>
        <time>2018-06-19T09:52:16Z</time>
      </trkpt>
      <trkpt lat="45.95818" lon="4.76696">
        <ele>189</ele>
        <time>2018-06-19T09:52:17Z</time>
      </trkpt>
      <trkpt lat="45.95816" lon="4.76686">
        <ele>189</ele>
        <time>2018-06-19T09:52:18Z</time>
      </trkpt>
      <trkpt lat="45.95815" lon="4.76676">
        <ele>189</ele>
        <time>2018-06-19T09:52:19Z</time>
      </trkpt>
      <trkpt lat="45.95814" lon="4.76666">
        <ele>188</ele>
        <time>2018-06-19T09:52:20Z</time>
      </trkpt>
      <trkpt lat="45.9581" lon="4.76657">
        <ele>188</ele>
        <time>2018-06-19T09:52:21Z</time>
      </trkpt>
      <trkpt lat="45.95809" lon="4.76648">
        <ele>188</ele>
        <time>2018-06-19T09:52:22Z</time>
      </trkpt>
      <trkpt lat="45.9581" lon="4.76639">
        <ele>188</ele>
        <time>2018-06-19T09:52:23Z</time>
      </trkpt>
      <trkpt lat="45.95808" lon="4.76629">
        <ele>188</ele>
        <time>2018-06-19T09:52:24Z</time>
      </trkpt>
      <trkpt lat="45.95805" lon="4.76619">
        <ele>188</ele>
        <time>2018-06-19T09:52:25Z</time>
      </trkpt>
      <trkpt lat="45.95804" lon="4.76611">
        <ele>188</ele>
        <time>2018-06-19T09:52:26Z</time>
      </trkpt>
      <trkpt lat="45.95802" lon="4.766">
        <ele>187</ele>
        <time>2018-06-19T09:52:27Z</time>
      </trkpt>
      <trkpt lat="45.95801" lon="4.76591">
        <ele>187</ele>
        <time>2018-06-19T09:52:28Z</time>
      </trkpt>
      <trkpt lat="45.958" lon="4.76582">
        <ele>187</ele>
        <time>2018-06-19T09:52:29Z</time>
      </trkpt>
      <trkpt lat="45.95794" lon="4.76571">
        <ele>187</ele>
        <time>2018-06-19T09:52:30Z</time>
      </trkpt>
      <trkpt lat="45.95793" lon="4.76562">
        <ele>187</ele>
        <time>2018-06-19T09:52:31Z</time>
      </trkpt>
      <trkpt lat="45.95791" lon="4.76554">
        <ele>187</ele>
        <time>2018-06-19T09:52:32Z</time>
      </trkpt>
      <trkpt lat="45.9579" lon="4.76543">
        <ele>187</ele>
        <time>2018-06-19T09:52:33Z</time>
      </trkpt>
      <trkpt lat="45.95788" lon="4.76533">
        <ele>187</ele>
        <time>2018-06-19T09:52:34Z</time>
      </trkpt>
      <trkpt lat="45.95787" lon="4.76523">
        <ele>187</ele>
        <time>2018-06-19T09:52:35Z</time>
      </trkpt>
      <trkpt lat="45.95785" lon="4.76513">
        <ele>187</ele>
        <time>2018-06-19T09:52:36Z</time>
      </trkpt>
      <trkpt lat="45.95785" lon="4.76504">
        <ele>186</ele>
        <time>2018-06-19T09:52:37Z</time>
      </trkpt>
      <trkpt lat="45.95783" lon="4.76494">
        <ele>186</ele>
        <time>2018-06-19T09:52:38Z</time>
      </trkpt>
      <trkpt lat="45.95778" lon="4.76483">
        <ele>186</ele>
        <time>2018-06-19T09:52:39Z</time>
      </trkpt>
      <trkpt lat="45.95776" lon="4.76475">
        <ele>186</ele>
        <time>2018-06-19T09:52:40Z</time>
      </trkpt>
      <trkpt lat="45.95774" lon="4.76466">
        <ele>186</ele>
        <time>2018-06-19T09:52:41Z</time>
      </trkpt>
      <trkpt lat="45.95773" lon="4.76457">
        <ele>186</ele>
        <time>2018-06-19T09:52:42Z</time>
      </trkpt>
      <trkpt lat="45.95773" lon="4.76449">
        <ele>186</ele>
        <time>2018-06-19T09:52:43Z</time>
      </trkpt>
      <trkpt lat="45.95773" lon="4.76441">
        <ele>186</ele>
        <time>2018-06-19T09:52:44Z</time>
      </trkpt>
      <trkpt lat="45.95772" lon="4.76433">
        <ele>186</ele>
        <time>2018-06-19T09:52:45Z</time>
      </trkpt>
      <trkpt lat="45.95771" lon="4.76426">
        <ele>186</ele>
        <time>2018-06-19T09:52:46Z</time>
      </trkpt>
      <trkpt lat="45.95771" lon="4.76419">
        <ele>186</ele>
        <time>2018-06-19T09:52:47Z</time>
      </trkpt>
      <trkpt lat="45.9577" lon="4.76411">
        <ele>186</ele>
        <time>2018-06-19T09:52:48Z</time>
      </trkpt>
      <trkpt lat="45.95769" lon="4.76403">
        <ele>186</ele>
        <time>2018-06-19T09:52:49Z</time>
      </trkpt>
      <trkpt lat="45.95768" lon="4.76395">
        <ele>186</ele>
        <time>2018-06-19T09:52:50Z</time>
      </trkpt>
      <trkpt lat="45.95768" lon="4.76386">
        <ele>186</ele>
        <time>2018-06-19T09:52:51Z</time>
      </trkpt>
      <trkpt lat="45.95768" lon="4.76377">
        <ele>186</ele>
        <time>2018-06-19T09:52:52Z</time>
      </trkpt>
      <trkpt lat="45.95767" lon="4.76368">
        <ele>186</ele>
        <time>2018-06-19T09:52:53Z</time>
      </trkpt>
      <trkpt lat="45.95767" lon="4.76358">
        <ele>186</ele>
        <time>2018-06-19T09:52:54Z</time>
      </trkpt>
      <trkpt lat="45.95767" lon="4.76349">
        <ele>186</ele>
        <time>2018-06-19T09:52:55Z</time>
      </trkpt>
      <trkpt lat="45.95768" lon="4.76341">
        <ele>186</ele>
        <time>2018-06-19T09:52:56Z</time>
      </trkpt>
      <trkpt lat="45.95768" lon="4.76333">
        <ele>185</ele>
        <time>2018-06-19T09:52:57Z</time>
      </trkpt>
      <trkpt lat="45.95768" lon="4.76324">
        <ele>185</ele>
        <time>2018-06-19T09:52:58Z</time>
      </trkpt>
      <trkpt lat="45.95767" lon="4.76316">
        <ele>185</ele>
        <time>2018-06-19T09:52:59Z</time>
      </trkpt>
      <trkpt lat="45.95767" lon="4.76308">
        <ele>185</ele>
        <time>2018-06-19T09:53:00Z</time>
      </trkpt>
      <trkpt lat="45.95766" lon="4.76299">
        <ele>186</ele>
        <time>2018-06-19T09:53:01Z</time>
      </trkpt>
      <trkpt lat="45.95764" lon="4.76289">
        <ele>186</ele>
        <time>2018-06-19T09:53:02Z</time>
      </trkpt>
      <trkpt lat="45.95765" lon="4.76281">
        <ele>186</ele>
        <time>2018-06-19T09:53:03Z</time>
      </trkpt>
      <trkpt lat="45.95765" lon="4.76273">
        <ele>186</ele>
        <time>2018-06-19T09:53:04Z</time>
      </trkpt>
      <trkpt lat="45.95765" lon="4.76264">
        <ele>185</ele>
        <time>2018-06-19T09:53:05Z</time>
      </trkpt>
      <trkpt lat="45.95765" lon="4.76256">
        <ele>185</ele>
        <time>2018-06-19T09:53:06Z</time>
      </trkpt>
      <trkpt lat="45.95764" lon="4.76247">
        <ele>185</ele>
        <time>2018-06-19T09:53:07Z</time>
      </trkpt>
      <trkpt lat="45.95764" lon="4.76238">
        <ele>186</ele>
        <time>2018-06-19T09:53:08Z</time>
      </trkpt>
      <trkpt lat="45.95763" lon="4.76229">
        <ele>186</ele>
        <time>2018-06-19T09:53:09Z</time>
      </trkpt>
      <trkpt lat="45.95762" lon="4.7622">
        <ele>186</ele>
        <time>2018-06-19T09:53:10Z</time>
      </trkpt>
      <trkpt lat="45.95762" lon="4.76211">
        <ele>186</ele>
        <time>2018-06-19T09:53:11Z</time>
      </trkpt>
      <trkpt lat="45.95761" lon="4.76202">
        <ele>186</ele>
        <time>2018-06-19T09:53:12Z</time>
      </trkpt>
      <trkpt lat="45.9576" lon="4.76192">
        <ele>186</ele>
        <time>2018-06-19T09:53:13Z</time>
      </trkpt>
      <trkpt lat="45.9576" lon="4.76184">
        <ele>186</ele>
        <time>2018-06-19T09:53:14Z</time>
      </trkpt>
      <trkpt lat="45.9576" lon="4.76175">
        <ele>185</ele>
        <time>2018-06-19T09:53:15Z</time>
      </trkpt>
      <trkpt lat="45.95759" lon="4.76167">
        <ele>185</ele>
        <time>2018-06-19T09:53:16Z</time>
      </trkpt>
      <trkpt lat="45.95758" lon="4.76158">
        <ele>186</ele>
        <time>2018-06-19T09:53:17Z</time>
      </trkpt>
      <trkpt lat="45.95759" lon="4.76149">
        <ele>186</ele>
        <time>2018-06-19T09:53:18Z</time>
      </trkpt>
      <trkpt lat="45.95758" lon="4.7614">
        <ele>186</ele>
        <time>2018-06-19T09:53:19Z</time>
      </trkpt>
      <trkpt lat="45.95758" lon="4.76132">
        <ele>186</ele>
        <time>2018-06-19T09:53:20Z</time>
      </trkpt>
      <trkpt lat="45.95758" lon="4.76124">
        <ele>186</ele>
        <time>2018-06-19T09:53:21Z</time>
      </trkpt>
      <trkpt lat="45.95757" lon="4.76116">
        <ele>186</ele>
        <time>2018-06-19T09:53:22Z</time>
      </trkpt>
      <trkpt lat="45.95756" lon="4.76108">
        <ele>186</ele>
        <time>2018-06-19T09:53:23Z</time>
      </trkpt>
      <trkpt lat="45.95756" lon="4.76102">
        <ele>186</ele>
        <time>2018-06-19T09:53:24Z</time>
      </trkpt>
      <trkpt lat="45.95754" lon="4.76094">
        <ele>186</ele>
        <time>2018-06-19T09:53:25Z</time>
      </trkpt>
      <trkpt lat="45.95752" lon="4.76086">
        <ele>185</ele>
        <time>2018-06-19T09:53:26Z</time>
      </trkpt>
      <trkpt lat="45.95751" lon="4.76078">
        <ele>185</ele>
        <time>2018-06-19T09:53:27Z</time>
      </trkpt>
      <trkpt lat="45.95748" lon="4.76069">
        <ele>185</ele>
        <time>2018-06-19T09:53:28Z</time>
      </trkpt>
      <trkpt lat="45.95745" lon="4.76063">
        <ele>185</ele>
        <time>2018-06-19T09:53:29Z</time>
      </trkpt>
      <trkpt lat="45.95741" lon="4.76055">
        <ele>184</ele>
        <time>2018-06-19T09:53:30Z</time>
      </trkpt>
      <trkpt lat="45.95739" lon="4.76046">
        <ele>184</ele>
        <time>2018-06-19T09:53:31Z</time>
      </trkpt>
      <trkpt lat="45.95736" lon="4.76039">
        <ele>184</ele>
        <time>2018-06-19T09:53:32Z</time>
      </trkpt>
      <trkpt lat="45.95732" lon="4.76031">
        <ele>185</ele>
        <time>2018-06-19T09:53:33Z</time>
      </trkpt>
      <trkpt lat="45.95728" lon="4.76023">
        <ele>185</ele>
        <time>2018-06-19T09:53:34Z</time>
      </trkpt>
      <trkpt lat="45.95724" lon="4.76015">
        <ele>185</ele>
        <time>2018-06-19T09:53:35Z</time>
      </trkpt>
      <trkpt lat="45.95721" lon="4.76007">
        <ele>185</ele>
        <time>2018-06-19T09:53:36Z</time>
      </trkpt>
      <trkpt lat="45.95718" lon="4.76">
        <ele>185</ele>
        <time>2018-06-19T09:53:37Z</time>
      </trkpt>
      <trkpt lat="45.95713" lon="4.75992">
        <ele>185</ele>
        <time>2018-06-19T09:53:38Z</time>
      </trkpt>
      <trkpt lat="45.9571" lon="4.75985">
        <ele>185</ele>
        <time>2018-06-19T09:53:39Z</time>
      </trkpt>
      <trkpt lat="45.95706" lon="4.75977">
        <ele>185</ele>
        <time>2018-06-19T09:53:40Z</time>
      </trkpt>
      <trkpt lat="45.95702" lon="4.75971">
        <ele>185</ele>
        <time>2018-06-19T09:53:41Z</time>
      </trkpt>
      <trkpt lat="45.957" lon="4.75964">
        <ele>185</ele>
        <time>2018-06-19T09:53:42Z</time>
      </trkpt>
      <trkpt lat="45.95697" lon="4.75957">
        <ele>185</ele>
        <time>2018-06-19T09:53:43Z</time>
      </trkpt>
      <trkpt lat="45.95693" lon="4.7595">
        <ele>185</ele>
        <time>2018-06-19T09:53:44Z</time>
      </trkpt>
      <trkpt lat="45.9569" lon="4.75942">
        <ele>185</ele>
        <time>2018-06-19T09:53:45Z</time>
      </trkpt>
      <trkpt lat="45.95686" lon="4.75933">
        <ele>185</ele>
        <time>2018-06-19T09:53:46Z</time>
      </trkpt>
      <trkpt lat="45.95683" lon="4.75925">
        <ele>185</ele>
        <time>2018-06-19T09:53:47Z</time>
      </trkpt>
      <trkpt lat="45.9568" lon="4.75917">
        <ele>185</ele>
        <time>2018-06-19T09:53:48Z</time>
      </trkpt>
      <trkpt lat="45.95676" lon="4.75909">
        <ele>185</ele>
        <time>2018-06-19T09:53:49Z</time>
      </trkpt>
      <trkpt lat="45.95674" lon="4.75901">
        <ele>185</ele>
        <time>2018-06-19T09:53:50Z</time>
      </trkpt>
      <trkpt lat="45.95671" lon="4.75892">
        <ele>186</ele>
        <time>2018-06-19T09:53:51Z</time>
      </trkpt>
      <trkpt lat="45.9567" lon="4.75885">
        <ele>186</ele>
        <time>2018-06-19T09:53:52Z</time>
      </trkpt>
      <trkpt lat="45.95666" lon="4.75877">
        <ele>184</ele>
        <time>2018-06-19T09:53:53Z</time>
      </trkpt>
      <trkpt lat="45.95661" lon="4.75868">
        <ele>184</ele>
        <time>2018-06-19T09:53:54Z</time>
      </trkpt>
      <trkpt lat="45.95659" lon="4.7586">
        <ele>184</ele>
        <time>2018-06-19T09:53:55Z</time>
      </trkpt>
      <trkpt lat="45.95657" lon="4.75851">
        <ele>185</ele>
        <time>2018-06-19T09:53:56Z</time>
      </trkpt>
      <trkpt lat="45.95654" lon="4.75842">
        <ele>185</ele>
        <time>2018-06-19T09:53:57Z</time>
      </trkpt>
      <trkpt lat="45.9565" lon="4.75834">
        <ele>185</ele>
        <time>2018-06-19T09:53:58Z</time>
      </trkpt>
      <trkpt lat="45.95649" lon="4.75825">
        <ele>185</ele>
        <time>2018-06-19T09:53:59Z</time>
      </trkpt>
      <trkpt lat="45.95646" lon="4.75814">
        <ele>185</ele>
        <time>2018-06-19T09:54:00Z</time>
      </trkpt>
      <trkpt lat="45.95643" lon="4.75805">
        <ele>185</ele>
        <time>2018-06-19T09:54:01Z</time>
      </trkpt>
      <trkpt lat="45.95642" lon="4.75796">
        <ele>185</ele>
        <time>2018-06-19T09:54:02Z</time>
      </trkpt>
      <trkpt lat="45.9564" lon="4.75786">
        <ele>185</ele>
        <time>2018-06-19T09:54:03Z</time>
      </trkpt>
      <trkpt lat="45.95639" lon="4.75777">
        <ele>186</ele>
        <time>2018-06-19T09:54:04Z</time>
      </trkpt>
      <trkpt lat="45.95638" lon="4.75768">
        <ele>186</ele>
        <time>2018-06-19T09:54:05Z</time>
      </trkpt>
      <trkpt lat="45.95637" lon="4.7576">
        <ele>186</ele>
        <time>2018-06-19T09:54:06Z</time>
      </trkpt>
      <trkpt lat="45.95635" lon="4.7575">
        <ele>187</ele>
        <time>2018-06-19T09:54:07Z</time>
      </trkpt>
      <trkpt lat="45.95634" lon="4.75741">
        <ele>187</ele>
        <time>2018-06-19T09:54:08Z</time>
      </trkpt>
      <trkpt lat="45.95632" lon="4.75732">
        <ele>187</ele>
        <time>2018-06-19T09:54:09Z</time>
      </trkpt>
      <trkpt lat="45.95631" lon="4.75722">
        <ele>187</ele>
        <time>2018-06-19T09:54:10Z</time>
      </trkpt>
      <trkpt lat="45.95629" lon="4.75712">
        <ele>187</ele>
        <time>2018-06-19T09:54:11Z</time>
      </trkpt>
      <trkpt lat="45.95629" lon="4.75704">
        <ele>187</ele>
        <time>2018-06-19T09:54:12Z</time>
      </trkpt>
      <trkpt lat="45.95627" lon="4.75695">
        <ele>187</ele>
        <time>2018-06-19T09:54:13Z</time>
      </trkpt>
      <trkpt lat="45.95626" lon="4.75687">
        <ele>187</ele>
        <time>2018-06-19T09:54:14Z</time>
      </trkpt>
      <trkpt lat="45.95624" lon="4.75679">
        <ele>187</ele>
        <time>2018-06-19T09:54:15Z</time>
      </trkpt>
      <trkpt lat="45.95622" lon="4.75671">
        <ele>187</ele>
        <time>2018-06-19T09:54:16Z</time>
      </trkpt>
      <trkpt lat="45.9562" lon="4.75663">
        <ele>188</ele>
        <time>2018-06-19T09:54:17Z</time>
      </trkpt>
      <trkpt lat="45.95618" lon="4.75655">
        <ele>188</ele>
        <time>2018-06-19T09:54:18Z</time>
      </trkpt>
      <trkpt lat="45.95616" lon="4.75646">
        <ele>188</ele>
        <time>2018-06-19T09:54:19Z</time>
      </trkpt>
      <trkpt lat="45.95614" lon="4.75638">
        <ele>188</ele>
        <time>2018-06-19T09:54:20Z</time>
      </trkpt>
      <trkpt lat="45.95612" lon="4.7563">
        <ele>188</ele>
        <time>2018-06-19T09:54:21Z</time>
      </trkpt>
      <trkpt lat="45.9561" lon="4.75622">
        <ele>188</ele>
        <time>2018-06-19T09:54:22Z</time>
      </trkpt>
      <trkpt lat="45.95607" lon="4.75614">
        <ele>188</ele>
        <time>2018-06-19T09:54:23Z</time>
      </trkpt>
      <trkpt lat="45.95605" lon="4.75607">
        <ele>187</ele>
        <time>2018-06-19T09:54:24Z</time>
      </trkpt>
      <trkpt lat="45.95603" lon="4.756">
        <ele>187</ele>
        <time>2018-06-19T09:54:25Z</time>
      </trkpt>
      <trkpt lat="45.95599" lon="4.75592">
        <ele>187</ele>
        <time>2018-06-19T09:54:26Z</time>
      </trkpt>
      <trkpt lat="45.95597" lon="4.75585">
        <ele>187</ele>
        <time>2018-06-19T09:54:27Z</time>
      </trkpt>
      <trkpt lat="45.95594" lon="4.75578">
        <ele>187</ele>
        <time>2018-06-19T09:54:28Z</time>
      </trkpt>
      <trkpt lat="45.9559" lon="4.7557">
        <ele>188</ele>
        <time>2018-06-19T09:54:29Z</time>
      </trkpt>
      <trkpt lat="45.95586" lon="4.75562">
        <ele>188</ele>
        <time>2018-06-19T09:54:30Z</time>
      </trkpt>
      <trkpt lat="45.95582" lon="4.75555">
        <ele>186</ele>
        <time>2018-06-19T09:54:31Z</time>
      </trkpt>
      <trkpt lat="45.95578" lon="4.75547">
        <ele>186</ele>
        <time>2018-06-19T09:54:32Z</time>
      </trkpt>
      <trkpt lat="45.95572" lon="4.75541">
        <ele>186</ele>
        <time>2018-06-19T09:54:33Z</time>
      </trkpt>
      <trkpt lat="45.95567" lon="4.75535">
        <ele>186</ele>
        <time>2018-06-19T09:54:34Z</time>
      </trkpt>
      <trkpt lat="45.95563" lon="4.7553">
        <ele>186</ele>
        <time>2018-06-19T09:54:35Z</time>
      </trkpt>
      <trkpt lat="45.95558" lon="4.75524">
        <ele>186</ele>
        <time>2018-06-19T09:54:36Z</time>
      </trkpt>
      <trkpt lat="45.95553" lon="4.75518">
        <ele>186</ele>
        <time>2018-06-19T09:54:37Z</time>
      </trkpt>
      <trkpt lat="45.95548" lon="4.75512">
        <ele>186</ele>
        <time>2018-06-19T09:54:38Z</time>
      </trkpt>
      <trkpt lat="45.95544" lon="4.75506">
        <ele>186</ele>
        <time>2018-06-19T09:54:39Z</time>
      </trkpt>
      <trkpt lat="45.95542" lon="4.755">
        <ele>186</ele>
        <time>2018-06-19T09:54:40Z</time>
      </trkpt>
      <trkpt lat="45.95541" lon="4.7549">
        <ele>187</ele>
        <time>2018-06-19T09:54:44Z</time>
      </trkpt>
      <trkpt lat="45.95541" lon="4.75486">
        <ele>187</ele>
        <time>2018-06-19T09:54:45Z</time>
      </trkpt>
      <trkpt lat="45.95542" lon="4.75479">
        <ele>187</ele>
        <time>2018-06-19T09:54:47Z</time>
      </trkpt>
      <trkpt lat="45.95542" lon="4.75468">
        <ele>187</ele>
        <time>2018-06-19T09:54:48Z</time>
      </trkpt>
      <trkpt lat="45.95538" lon="4.75458">
        <ele>187</ele>
        <time>2018-06-19T09:54:50Z</time>
      </trkpt>
      <trkpt lat="45.95535" lon="4.75453">
        <ele>187</ele>
        <time>2018-06-19T09:54:51Z</time>
      </trkpt>
      <trkpt lat="45.95531" lon="4.75449">
        <ele>187</ele>
        <time>2018-06-19T09:54:52Z</time>
      </trkpt>
      <trkpt lat="45.95526" lon="4.75445">
        <ele>187</ele>
        <time>2018-06-19T09:54:53Z</time>
      </trkpt>
      <trkpt lat="45.95521" lon="4.75439">
        <ele>187</ele>
        <time>2018-06-19T09:54:54Z</time>
      </trkpt>
      <trkpt lat="45.95518" lon="4.75433">
        <ele>187</ele>
        <time>2018-06-19T09:54:55Z</time>
      </trkpt>
      <trkpt lat="45.95515" lon="4.75426">
        <ele>186</ele>
        <time>2018-06-19T09:54:56Z</time>
      </trkpt>
      <trkpt lat="45.95512" lon="4.75419">
        <ele>186</ele>
        <time>2018-06-19T09:54:57Z</time>
      </trkpt>
      <trkpt lat="45.9551" lon="4.75412">
        <ele>187</ele>
        <time>2018-06-19T09:54:58Z</time>
      </trkpt>
      <trkpt lat="45.95508" lon="4.75405">
        <ele>187</ele>
        <time>2018-06-19T09:54:59Z</time>
      </trkpt>
      <trkpt lat="45.95505" lon="4.75399">
        <ele>187</ele>
        <time>2018-06-19T09:55:00Z</time>
      </trkpt>
      <trkpt lat="45.95503" lon="4.75392">
        <ele>188</ele>
        <time>2018-06-19T09:55:01Z</time>
      </trkpt>
      <trkpt lat="45.95499" lon="4.75386">
        <ele>185</ele>
        <time>2018-06-19T09:55:02Z</time>
      </trkpt>
      <trkpt lat="45.95496" lon="4.7538">
        <ele>185</ele>
        <time>2018-06-19T09:55:03Z</time>
      </trkpt>
      <trkpt lat="45.95493" lon="4.75373">
        <ele>185</ele>
        <time>2018-06-19T09:55:04Z</time>
      </trkpt>
      <trkpt lat="45.9549" lon="4.75367">
        <ele>186</ele>
        <time>2018-06-19T09:55:05Z</time>
      </trkpt>
      <trkpt lat="45.95488" lon="4.75361">
        <ele>186</ele>
        <time>2018-06-19T09:55:06Z</time>
      </trkpt>
      <trkpt lat="45.95485" lon="4.75354">
        <ele>186</ele>
        <time>2018-06-19T09:55:07Z</time>
      </trkpt>
      <trkpt lat="45.95482" lon="4.75348">
        <ele>186</ele>
        <time>2018-06-19T09:55:08Z</time>
      </trkpt>
      <trkpt lat="45.95478" lon="4.75341">
        <ele>186</ele>
        <time>2018-06-19T09:55:09Z</time>
      </trkpt>
      <trkpt lat="45.95474" lon="4.75335">
        <ele>186</ele>
        <time>2018-06-19T09:55:10Z</time>
      </trkpt>
      <trkpt lat="45.95471" lon="4.75326">
        <ele>188</ele>
        <time>2018-06-19T09:55:11Z</time>
      </trkpt>
      <trkpt lat="45.9547" lon="4.75319">
        <ele>188</ele>
        <time>2018-06-19T09:55:12Z</time>
      </trkpt>
      <trkpt lat="45.95467" lon="4.75313">
        <ele>188</ele>
        <time>2018-06-19T09:55:13Z</time>
      </trkpt>
      <trkpt lat="45.95464" lon="4.75306">
        <ele>188</ele>
        <time>2018-06-19T09:55:14Z</time>
      </trkpt>
      <trkpt lat="45.95461" lon="4.75301">
        <ele>188</ele>
        <time>2018-06-19T09:55:15Z</time>
      </trkpt>
      <trkpt lat="45.95457" lon="4.75295">
        <ele>188</ele>
        <time>2018-06-19T09:55:16Z</time>
      </trkpt>
      <trkpt lat="45.95454" lon="4.7529">
        <ele>188</ele>
        <time>2018-06-19T09:55:17Z</time>
      </trkpt>
      <trkpt lat="45.95451" lon="4.75284">
        <ele>189</ele>
        <time>2018-06-19T09:55:18Z</time>
      </trkpt>
      <trkpt lat="45.95448" lon="4.75278">
        <ele>189</ele>
        <time>2018-06-19T09:55:19Z</time>
      </trkpt>
      <trkpt lat="45.95445" lon="4.75271">
        <ele>189</ele>
        <time>2018-06-19T09:55:20Z</time>
      </trkpt>
      <trkpt lat="45.95441" lon="4.75265">
        <ele>189</ele>
        <time>2018-06-19T09:55:21Z</time>
      </trkpt>
      <trkpt lat="45.95438" lon="4.75259">
        <ele>189</ele>
        <time>2018-06-19T09:55:22Z</time>
      </trkpt>
      <trkpt lat="45.95434" lon="4.75253">
        <ele>189</ele>
        <time>2018-06-19T09:55:23Z</time>
      </trkpt>
      <trkpt lat="45.95431" lon="4.75247">
        <ele>190</ele>
        <time>2018-06-19T09:55:24Z</time>
      </trkpt>
      <trkpt lat="45.95427" lon="4.7524">
        <ele>190</ele>
        <time>2018-06-19T09:55:25Z</time>
      </trkpt>
      <trkpt lat="45.95424" lon="4.75236">
        <ele>190</ele>
        <time>2018-06-19T09:55:26Z</time>
      </trkpt>
      <trkpt lat="45.95421" lon="4.7523">
        <ele>190</ele>
        <time>2018-06-19T09:55:27Z</time>
      </trkpt>
      <trkpt lat="45.95417" lon="4.75225">
        <ele>191</ele>
        <time>2018-06-19T09:55:28Z</time>
      </trkpt>
      <trkpt lat="45.95413" lon="4.75221">
        <ele>189</ele>
        <time>2018-06-19T09:55:29Z</time>
      </trkpt>
      <trkpt lat="45.95408" lon="4.75216">
        <ele>189</ele>
        <time>2018-06-19T09:55:30Z</time>
      </trkpt>
      <trkpt lat="45.95405" lon="4.7521">
        <ele>189</ele>
        <time>2018-06-19T09:55:31Z</time>
      </trkpt>
      <trkpt lat="45.95401" lon="4.75203">
        <ele>189</ele>
        <time>2018-06-19T09:55:32Z</time>
      </trkpt>
      <trkpt lat="45.95399" lon="4.75197">
        <ele>189</ele>
        <time>2018-06-19T09:55:33Z</time>
      </trkpt>
      <trkpt lat="45.95396" lon="4.7519">
        <ele>189</ele>
        <time>2018-06-19T09:55:34Z</time>
      </trkpt>
      <trkpt lat="45.95392" lon="4.75183">
        <ele>189</ele>
        <time>2018-06-19T09:55:35Z</time>
      </trkpt>
      <trkpt lat="45.95389" lon="4.75177">
        <ele>189</ele>
        <time>2018-06-19T09:55:36Z</time>
      </trkpt>
      <trkpt lat="45.95385" lon="4.75171">
        <ele>189</ele>
        <time>2018-06-19T09:55:37Z</time>
      </trkpt>
      <trkpt lat="45.95382" lon="4.75165">
        <ele>191</ele>
        <time>2018-06-19T09:55:38Z</time>
      </trkpt>
      <trkpt lat="45.95378" lon="4.75159">
        <ele>191</ele>
        <time>2018-06-19T09:55:39Z</time>
      </trkpt>
      <trkpt lat="45.95375" lon="4.75152">
        <ele>191</ele>
        <time>2018-06-19T09:55:40Z</time>
      </trkpt>
      <trkpt lat="45.95372" lon="4.75146">
        <ele>191</ele>
        <time>2018-06-19T09:55:41Z</time>
      </trkpt>
      <trkpt lat="45.95369" lon="4.7514">
        <ele>191</ele>
        <time>2018-06-19T09:55:42Z</time>
      </trkpt>
      <trkpt lat="45.95365" lon="4.75133">
        <ele>191</ele>
        <time>2018-06-19T09:55:43Z</time>
      </trkpt>
      <trkpt lat="45.9536" lon="4.75127">
        <ele>191</ele>
        <time>2018-06-19T09:55:44Z</time>
      </trkpt>
      <trkpt lat="45.95357" lon="4.75121">
        <ele>191</ele>
        <time>2018-06-19T09:55:45Z</time>
      </trkpt>
      <trkpt lat="45.95354" lon="4.75115">
        <ele>192</ele>
        <time>2018-06-19T09:55:46Z</time>
      </trkpt>
      <trkpt lat="45.9535" lon="4.75108">
        <ele>192</ele>
        <time>2018-06-19T09:55:47Z</time>
      </trkpt>
      <trkpt lat="45.95346" lon="4.75101">
        <ele>192</ele>
        <time>2018-06-19T09:55:48Z</time>
      </trkpt>
      <trkpt lat="45.95341" lon="4.75095">
        <ele>192</ele>
        <time>2018-06-19T09:55:49Z</time>
      </trkpt>
      <trkpt lat="45.95338" lon="4.75089">
        <ele>193</ele>
        <time>2018-06-19T09:55:50Z</time>
      </trkpt>
      <trkpt lat="45.95334" lon="4.75082">
        <ele>193</ele>
        <time>2018-06-19T09:55:51Z</time>
      </trkpt>
      <trkpt lat="45.9533" lon="4.75076">
        <ele>192</ele>
        <time>2018-06-19T09:55:52Z</time>
      </trkpt>
      <trkpt lat="45.95326" lon="4.7507">
        <ele>192</ele>
        <time>2018-06-19T09:55:53Z</time>
      </trkpt>
      <trkpt lat="45.95322" lon="4.75064">
        <ele>192</ele>
        <time>2018-06-19T09:55:54Z</time>
      </trkpt>
      <trkpt lat="45.95318" lon="4.75057">
        <ele>192</ele>
        <time>2018-06-19T09:55:55Z</time>
      </trkpt>
      <trkpt lat="45.95314" lon="4.75051">
        <ele>192</ele>
        <time>2018-06-19T09:55:56Z</time>
      </trkpt>
      <trkpt lat="45.9531" lon="4.75045">
        <ele>192</ele>
        <time>2018-06-19T09:55:57Z</time>
      </trkpt>
      <trkpt lat="45.95306" lon="4.75039">
        <ele>192</ele>
        <time>2018-06-19T09:55:58Z</time>
      </trkpt>
      <trkpt lat="45.95303" lon="4.75033">
        <ele>192</ele>
        <time>2018-06-19T09:55:59Z</time>
      </trkpt>
      <trkpt lat="45.95299" lon="4.75027">
        <ele>192</ele>
        <time>2018-06-19T09:56:00Z</time>
      </trkpt>
      <trkpt lat="45.95295" lon="4.75021">
        <ele>191</ele>
        <time>2018-06-19T09:56:01Z</time>
      </trkpt>
      <trkpt lat="45.95292" lon="4.75014">
        <ele>191</ele>
        <time>2018-06-19T09:56:02Z</time>
      </trkpt>
      <trkpt lat="45.95288" lon="4.75008">
        <ele>191</ele>
        <time>2018-06-19T09:56:03Z</time>
      </trkpt>
      <trkpt lat="45.95284" lon="4.75004">
        <ele>191</ele>
        <time>2018-06-19T09:56:04Z</time>
      </trkpt>
      <trkpt lat="45.95279" lon="4.74999">
        <ele>192</ele>
        <time>2018-06-19T09:56:05Z</time>
      </trkpt>
      <trkpt lat="45.95274" lon="4.74993">
        <ele>192</ele>
        <time>2018-06-19T09:56:06Z</time>
      </trkpt>
      <trkpt lat="45.95271" lon="4.74986">
        <ele>192</ele>
        <time>2018-06-19T09:56:07Z</time>
      </trkpt>
      <trkpt lat="45.95267" lon="4.74981">
        <ele>192</ele>
        <time>2018-06-19T09:56:08Z</time>
      </trkpt>
      <trkpt lat="45.95262" lon="4.74975">
        <ele>192</ele>
        <time>2018-06-19T09:56:09Z</time>
      </trkpt>
      <trkpt lat="45.95258" lon="4.74969">
        <ele>192</ele>
        <time>2018-06-19T09:56:10Z</time>
      </trkpt>
      <trkpt lat="45.95254" lon="4.74962">
        <ele>192</ele>
        <time>2018-06-19T09:56:11Z</time>
      </trkpt>
      <trkpt lat="45.9525" lon="4.74957">
        <ele>192</ele>
        <time>2018-06-19T09:56:12Z</time>
      </trkpt>
      <trkpt lat="45.95246" lon="4.7495">
        <ele>192</ele>
        <time>2018-06-19T09:56:13Z</time>
      </trkpt>
      <trkpt lat="45.95242" lon="4.74944">
        <ele>192</ele>
        <time>2018-06-19T09:56:14Z</time>
      </trkpt>
      <trkpt lat="45.95238" lon="4.74937">
        <ele>192</ele>
        <time>2018-06-19T09:56:15Z</time>
      </trkpt>
      <trkpt lat="45.95234" lon="4.74931">
        <ele>192</ele>
        <time>2018-06-19T09:56:16Z</time>
      </trkpt>
      <trkpt lat="45.95229" lon="4.74925">
        <ele>192</ele>
        <time>2018-06-19T09:56:17Z</time>
      </trkpt>
      <trkpt lat="45.95225" lon="4.74919">
        <ele>192</ele>
        <time>2018-06-19T09:56:18Z</time>
      </trkpt>
      <trkpt lat="45.95221" lon="4.74912">
        <ele>193</ele>
        <time>2018-06-19T09:56:19Z</time>
      </trkpt>
      <trkpt lat="45.95217" lon="4.74906">
        <ele>193</ele>
        <time>2018-06-19T09:56:20Z</time>
      </trkpt>
      <trkpt lat="45.95214" lon="4.749">
        <ele>193</ele>
        <time>2018-06-19T09:56:21Z</time>
      </trkpt>
      <trkpt lat="45.9521" lon="4.74894">
        <ele>193</ele>
        <time>2018-06-19T09:56:22Z</time>
      </trkpt>
      <trkpt lat="45.95205" lon="4.74887">
        <ele>194</ele>
        <time>2018-06-19T09:56:23Z</time>
      </trkpt>
      <trkpt lat="45.95201" lon="4.74881">
        <ele>194</ele>
        <time>2018-06-19T09:56:24Z</time>
      </trkpt>
      <trkpt lat="45.95196" lon="4.74876">
        <ele>194</ele>
        <time>2018-06-19T09:56:25Z</time>
      </trkpt>
      <trkpt lat="45.95192" lon="4.7487">
        <ele>194</ele>
        <time>2018-06-19T09:56:26Z</time>
      </trkpt>
      <trkpt lat="45.95188" lon="4.74863">
        <ele>194</ele>
        <time>2018-06-19T09:56:27Z</time>
      </trkpt>
      <trkpt lat="45.95184" lon="4.74857">
        <ele>194</ele>
        <time>2018-06-19T09:56:28Z</time>
      </trkpt>
      <trkpt lat="45.9518" lon="4.7485">
        <ele>194</ele>
        <time>2018-06-19T09:56:29Z</time>
      </trkpt>
      <trkpt lat="45.95177" lon="4.74844">
        <ele>194</ele>
        <time>2018-06-19T09:56:30Z</time>
      </trkpt>
      <trkpt lat="45.95172" lon="4.74838">
        <ele>194</ele>
        <time>2018-06-19T09:56:31Z</time>
      </trkpt>
      <trkpt lat="45.95169" lon="4.74832">
        <ele>194</ele>
        <time>2018-06-19T09:56:32Z</time>
      </trkpt>
      <trkpt lat="45.95165" lon="4.74825">
        <ele>194</ele>
        <time>2018-06-19T09:56:33Z</time>
      </trkpt>
      <trkpt lat="45.95161" lon="4.74818">
        <ele>194</ele>
        <time>2018-06-19T09:56:34Z</time>
      </trkpt>
      <trkpt lat="45.95158" lon="4.74812">
        <ele>194</ele>
        <time>2018-06-19T09:56:35Z</time>
      </trkpt>
      <trkpt lat="45.95155" lon="4.74807">
        <ele>194</ele>
        <time>2018-06-19T09:56:36Z</time>
      </trkpt>
      <trkpt lat="45.95151" lon="4.74801">
        <ele>194</ele>
        <time>2018-06-19T09:56:37Z</time>
      </trkpt>
      <trkpt lat="45.95146" lon="4.74796">
        <ele>194</ele>
        <time>2018-06-19T09:56:38Z</time>
      </trkpt>
      <trkpt lat="45.95144" lon="4.74788">
        <ele>194</ele>
        <time>2018-06-19T09:56:39Z</time>
      </trkpt>
      <trkpt lat="45.9514" lon="4.74783">
        <ele>194</ele>
        <time>2018-06-19T09:56:40Z</time>
      </trkpt>
      <trkpt lat="45.95136" lon="4.74777">
        <ele>194</ele>
        <time>2018-06-19T09:56:41Z</time>
      </trkpt>
      <trkpt lat="45.95133" lon="4.74771">
        <ele>194</ele>
        <time>2018-06-19T09:56:42Z</time>
      </trkpt>
      <trkpt lat="45.95129" lon="4.74764">
        <ele>194</ele>
        <time>2018-06-19T09:56:43Z</time>
      </trkpt>
      <trkpt lat="45.95125" lon="4.74759">
        <ele>194</ele>
        <time>2018-06-19T09:56:44Z</time>
      </trkpt>
      <trkpt lat="45.95121" lon="4.74752">
        <ele>194</ele>
        <time>2018-06-19T09:56:45Z</time>
      </trkpt>
      <trkpt lat="45.95117" lon="4.74745">
        <ele>194</ele>
        <time>2018-06-19T09:56:46Z</time>
      </trkpt>
      <trkpt lat="45.95113" lon="4.74738">
        <ele>194</ele>
        <time>2018-06-19T09:56:47Z</time>
      </trkpt>
      <trkpt lat="45.95109" lon="4.7473">
        <ele>194</ele>
        <time>2018-06-19T09:56:48Z</time>
      </trkpt>
      <trkpt lat="45.95105" lon="4.74723">
        <ele>194</ele>
        <time>2018-06-19T09:56:49Z</time>
      </trkpt>
      <trkpt lat="45.95102" lon="4.74716">
        <ele>194</ele>
        <time>2018-06-19T09:56:50Z</time>
      </trkpt>
      <trkpt lat="45.95098" lon="4.74709">
        <ele>194</ele>
        <time>2018-06-19T09:56:51Z</time>
      </trkpt>
      <trkpt lat="45.95094" lon="4.74702">
        <ele>194</ele>
        <time>2018-06-19T09:56:52Z</time>
      </trkpt>
      <trkpt lat="45.95089" lon="4.74695">
        <ele>194</ele>
        <time>2018-06-19T09:56:53Z</time>
      </trkpt>
      <trkpt lat="45.95084" lon="4.74689">
        <ele>195</ele>
        <time>2018-06-19T09:56:54Z</time>
      </trkpt>
      <trkpt lat="45.9508" lon="4.74682">
        <ele>194</ele>
        <time>2018-06-19T09:56:55Z</time>
      </trkpt>
      <trkpt lat="45.95077" lon="4.74676">
        <ele>194</ele>
        <time>2018-06-19T09:56:56Z</time>
      </trkpt>
      <trkpt lat="45.95073" lon="4.74669">
        <ele>194</ele>
        <time>2018-06-19T09:56:57Z</time>
      </trkpt>
      <trkpt lat="45.9507" lon="4.74662">
        <ele>195</ele>
        <time>2018-06-19T09:56:58Z</time>
      </trkpt>
      <trkpt lat="45.95067" lon="4.74656">
        <ele>195</ele>
        <time>2018-06-19T09:56:59Z</time>
      </trkpt>
      <trkpt lat="45.95063" lon="4.7465">
        <ele>195</ele>
        <time>2018-06-19T09:57:00Z</time>
      </trkpt>
      <trkpt lat="45.95059" lon="4.74644">
        <ele>194</ele>
        <time>2018-06-19T09:57:01Z</time>
      </trkpt>
      <trkpt lat="45.95056" lon="4.74637">
        <ele>194</ele>
        <time>2018-06-19T09:57:02Z</time>
      </trkpt>
      <trkpt lat="45.95053" lon="4.74631">
        <ele>194</ele>
        <time>2018-06-19T09:57:03Z</time>
      </trkpt>
      <trkpt lat="45.95049" lon="4.74625">
        <ele>194</ele>
        <time>2018-06-19T09:57:04Z</time>
      </trkpt>
      <trkpt lat="45.95045" lon="4.74617">
        <ele>194</ele>
        <time>2018-06-19T09:57:05Z</time>
      </trkpt>
      <trkpt lat="45.95042" lon="4.7461">
        <ele>194</ele>
        <time>2018-06-19T09:57:06Z</time>
      </trkpt>
      <trkpt lat="45.95038" lon="4.74603">
        <ele>194</ele>
        <time>2018-06-19T09:57:07Z</time>
      </trkpt>
      <trkpt lat="45.95034" lon="4.74597">
        <ele>194</ele>
        <time>2018-06-19T09:57:08Z</time>
      </trkpt>
      <trkpt lat="45.9503" lon="4.74591">
        <ele>194</ele>
        <time>2018-06-19T09:57:09Z</time>
      </trkpt>
      <trkpt lat="45.95027" lon="4.74585">
        <ele>194</ele>
        <time>2018-06-19T09:57:10Z</time>
      </trkpt>
      <trkpt lat="45.95023" lon="4.74578">
        <ele>194</ele>
        <time>2018-06-19T09:57:11Z</time>
      </trkpt>
      <trkpt lat="45.9502" lon="4.74572">
        <ele>194</ele>
        <time>2018-06-19T09:57:12Z</time>
      </trkpt>
      <trkpt lat="45.95016" lon="4.74566">
        <ele>194</ele>
        <time>2018-06-19T09:57:13Z</time>
      </trkpt>
      <trkpt lat="45.95013" lon="4.7456">
        <ele>194</ele>
        <time>2018-06-19T09:57:14Z</time>
      </trkpt>
      <trkpt lat="45.9501" lon="4.74553">
        <ele>194</ele>
        <time>2018-06-19T09:57:15Z</time>
      </trkpt>
      <trkpt lat="45.95006" lon="4.74546">
        <ele>194</ele>
        <time>2018-06-19T09:57:16Z</time>
      </trkpt>
      <trkpt lat="45.95002" lon="4.74539">
        <ele>194</ele>
        <time>2018-06-19T09:57:17Z</time>
      </trkpt>
      <trkpt lat="45.94999" lon="4.74532">
        <ele>193</ele>
        <time>2018-06-19T09:57:18Z</time>
      </trkpt>
      <trkpt lat="45.94995" lon="4.74524">
        <ele>193</ele>
        <time>2018-06-19T09:57:19Z</time>
      </trkpt>
      <trkpt lat="45.9499" lon="4.74516">
        <ele>193</ele>
        <time>2018-06-19T09:57:20Z</time>
      </trkpt>
      <trkpt lat="45.94986" lon="4.74509">
        <ele>193</ele>
        <time>2018-06-19T09:57:21Z</time>
      </trkpt>
      <trkpt lat="45.94982" lon="4.745">
        <ele>193</ele>
        <time>2018-06-19T09:57:22Z</time>
      </trkpt>
      <trkpt lat="45.94977" lon="4.74493">
        <ele>193</ele>
        <time>2018-06-19T09:57:23Z</time>
      </trkpt>
      <trkpt lat="45.94973" lon="4.74485">
        <ele>193</ele>
        <time>2018-06-19T09:57:24Z</time>
      </trkpt>
      <trkpt lat="45.94968" lon="4.74476">
        <ele>193</ele>
        <time>2018-06-19T09:57:25Z</time>
      </trkpt>
      <trkpt lat="45.94964" lon="4.74468">
        <ele>193</ele>
        <time>2018-06-19T09:57:26Z</time>
      </trkpt>
      <trkpt lat="45.94959" lon="4.7446">
        <ele>193</ele>
        <time>2018-06-19T09:57:27Z</time>
      </trkpt>
      <trkpt lat="45.94955" lon="4.74451">
        <ele>192</ele>
        <time>2018-06-19T09:57:28Z</time>
      </trkpt>
      <trkpt lat="45.94951" lon="4.74443">
        <ele>192</ele>
        <time>2018-06-19T09:57:29Z</time>
      </trkpt>
      <trkpt lat="45.94947" lon="4.74434">
        <ele>192</ele>
        <time>2018-06-19T09:57:30Z</time>
      </trkpt>
      <trkpt lat="45.94942" lon="4.74426">
        <ele>192</ele>
        <time>2018-06-19T09:57:31Z</time>
      </trkpt>
      <trkpt lat="45.94938" lon="4.74417">
        <ele>192</ele>
        <time>2018-06-19T09:57:32Z</time>
      </trkpt>
      <trkpt lat="45.94937" lon="4.74408">
        <ele>192</ele>
        <time>2018-06-19T09:57:33Z</time>
      </trkpt>
      <trkpt lat="45.94932" lon="4.74398">
        <ele>192</ele>
        <time>2018-06-19T09:57:34Z</time>
      </trkpt>
      <trkpt lat="45.94927" lon="4.74388">
        <ele>192</ele>
        <time>2018-06-19T09:57:35Z</time>
      </trkpt>
      <trkpt lat="45.94922" lon="4.74379">
        <ele>192</ele>
        <time>2018-06-19T09:57:36Z</time>
      </trkpt>
      <trkpt lat="45.94917" lon="4.7437">
        <ele>192</ele>
        <time>2018-06-19T09:57:37Z</time>
      </trkpt>
      <trkpt lat="45.94912" lon="4.74362">
        <ele>191</ele>
        <time>2018-06-19T09:57:38Z</time>
      </trkpt>
      <trkpt lat="45.94907" lon="4.74353">
        <ele>191</ele>
        <time>2018-06-19T09:57:39Z</time>
      </trkpt>
      <trkpt lat="45.94902" lon="4.74345">
        <ele>191</ele>
        <time>2018-06-19T09:57:40Z</time>
      </trkpt>
      <trkpt lat="45.94897" lon="4.74336">
        <ele>191</ele>
        <time>2018-06-19T09:57:41Z</time>
      </trkpt>
      <trkpt lat="45.94893" lon="4.74328">
        <ele>191</ele>
        <time>2018-06-19T09:57:42Z</time>
      </trkpt>
      <trkpt lat="45.94889" lon="4.74319">
        <ele>191</ele>
        <time>2018-06-19T09:57:43Z</time>
      </trkpt>
      <trkpt lat="45.94884" lon="4.74311">
        <ele>191</ele>
        <time>2018-06-19T09:57:44Z</time>
      </trkpt>
      <trkpt lat="45.9488" lon="4.74302">
        <ele>191</ele>
        <time>2018-06-19T09:57:45Z</time>
      </trkpt>
      <trkpt lat="45.94875" lon="4.74294">
        <ele>191</ele>
        <time>2018-06-19T09:57:46Z</time>
      </trkpt>
      <trkpt lat="45.94871" lon="4.74285">
        <ele>191</ele>
        <time>2018-06-19T09:57:47Z</time>
      </trkpt>
      <trkpt lat="45.94866" lon="4.74277">
        <ele>191</ele>
        <time>2018-06-19T09:57:48Z</time>
      </trkpt>
      <trkpt lat="45.94862" lon="4.74268">
        <ele>190</ele>
        <time>2018-06-19T09:57:49Z</time>
      </trkpt>
      <trkpt lat="45.94857" lon="4.74259">
        <ele>190</ele>
        <time>2018-06-19T09:57:50Z</time>
      </trkpt>
      <trkpt lat="45.94853" lon="4.7425">
        <ele>190</ele>
        <time>2018-06-19T09:57:51Z</time>
      </trkpt>
      <trkpt lat="45.9485" lon="4.74241">
        <ele>190</ele>
        <time>2018-06-19T09:57:52Z</time>
      </trkpt>
      <trkpt lat="45.94845" lon="4.74232">
        <ele>190</ele>
        <time>2018-06-19T09:57:53Z</time>
      </trkpt>
      <trkpt lat="45.94841" lon="4.74225">
        <ele>190</ele>
        <time>2018-06-19T09:57:54Z</time>
      </trkpt>
      <trkpt lat="45.94837" lon="4.74217">
        <ele>190</ele>
        <time>2018-06-19T09:57:55Z</time>
      </trkpt>
      <trkpt lat="45.94833" lon="4.74209">
        <ele>189</ele>
        <time>2018-06-19T09:57:56Z</time>
      </trkpt>
      <trkpt lat="45.94829" lon="4.74202">
        <ele>189</ele>
        <time>2018-06-19T09:57:57Z</time>
      </trkpt>
      <trkpt lat="45.94823" lon="4.74196">
        <ele>189</ele>
        <time>2018-06-19T09:57:58Z</time>
      </trkpt>
      <trkpt lat="45.94819" lon="4.7419">
        <ele>189</ele>
        <time>2018-06-19T09:57:59Z</time>
      </trkpt>
      <trkpt lat="45.94815" lon="4.74182">
        <ele>189</ele>
        <time>2018-06-19T09:58:00Z</time>
      </trkpt>
      <trkpt lat="45.94811" lon="4.74174">
        <ele>189</ele>
        <time>2018-06-19T09:58:01Z</time>
      </trkpt>
      <trkpt lat="45.94806" lon="4.74166">
        <ele>189</ele>
        <time>2018-06-19T09:58:02Z</time>
      </trkpt>
      <trkpt lat="45.94802" lon="4.74158">
        <ele>189</ele>
        <time>2018-06-19T09:58:03Z</time>
      </trkpt>
      <trkpt lat="45.94797" lon="4.7415">
        <ele>189</ele>
        <time>2018-06-19T09:58:04Z</time>
      </trkpt>
      <trkpt lat="45.94793" lon="4.74143">
        <ele>189</ele>
        <time>2018-06-19T09:58:05Z</time>
      </trkpt>
      <trkpt lat="45.94788" lon="4.74135">
        <ele>189</ele>
        <time>2018-06-19T09:58:06Z</time>
      </trkpt>
      <trkpt lat="45.94784" lon="4.74128">
        <ele>189</ele>
        <time>2018-06-19T09:58:07Z</time>
      </trkpt>
      <trkpt lat="45.9478" lon="4.74121">
        <ele>189</ele>
        <time>2018-06-19T09:58:08Z</time>
      </trkpt>
      <trkpt lat="45.94776" lon="4.74114">
        <ele>189</ele>
        <time>2018-06-19T09:58:09Z</time>
      </trkpt>
      <trkpt lat="45.94772" lon="4.74109">
        <ele>189</ele>
        <time>2018-06-19T09:58:10Z</time>
      </trkpt>
      <trkpt lat="45.94768" lon="4.74102">
        <ele>189</ele>
        <time>2018-06-19T09:58:11Z</time>
      </trkpt>
      <trkpt lat="45.94763" lon="4.74095">
        <ele>189</ele>
        <time>2018-06-19T09:58:12Z</time>
      </trkpt>
      <trkpt lat="45.94758" lon="4.74089">
        <ele>189</ele>
        <time>2018-06-19T09:58:13Z</time>
      </trkpt>
      <trkpt lat="45.94754" lon="4.74083">
        <ele>189</ele>
        <time>2018-06-19T09:58:14Z</time>
      </trkpt>
      <trkpt lat="45.94747" lon="4.74077">
        <ele>189</ele>
        <time>2018-06-19T09:58:15Z</time>
      </trkpt>
      <trkpt lat="45.94743" lon="4.74071">
        <ele>188</ele>
        <time>2018-06-19T09:58:16Z</time>
      </trkpt>
      <trkpt lat="45.94738" lon="4.74065">
        <ele>188</ele>
        <time>2018-06-19T09:58:17Z</time>
      </trkpt>
      <trkpt lat="45.94733" lon="4.74059">
        <ele>188</ele>
        <time>2018-06-19T09:58:18Z</time>
      </trkpt>
      <trkpt lat="45.94728" lon="4.74053">
        <ele>188</ele>
        <time>2018-06-19T09:58:19Z</time>
      </trkpt>
      <trkpt lat="45.94724" lon="4.74046">
        <ele>187</ele>
        <time>2018-06-19T09:58:20Z</time>
      </trkpt>
      <trkpt lat="45.9472" lon="4.74041">
        <ele>187</ele>
        <time>2018-06-19T09:58:21Z</time>
      </trkpt>
      <trkpt lat="45.94715" lon="4.74035">
        <ele>187</ele>
        <time>2018-06-19T09:58:22Z</time>
      </trkpt>
      <trkpt lat="45.94711" lon="4.74028">
        <ele>187</ele>
        <time>2018-06-19T09:58:23Z</time>
      </trkpt>
      <trkpt lat="45.94706" lon="4.74024">
        <ele>187</ele>
        <time>2018-06-19T09:58:24Z</time>
      </trkpt>
      <trkpt lat="45.94702" lon="4.74018">
        <ele>187</ele>
        <time>2018-06-19T09:58:25Z</time>
      </trkpt>
      <trkpt lat="45.94699" lon="4.74012">
        <ele>187</ele>
        <time>2018-06-19T09:58:26Z</time>
      </trkpt>
      <trkpt lat="45.94694" lon="4.74006">
        <ele>187</ele>
        <time>2018-06-19T09:58:27Z</time>
      </trkpt>
      <trkpt lat="45.9469" lon="4.74">
        <ele>187</ele>
        <time>2018-06-19T09:58:28Z</time>
      </trkpt>
      <trkpt lat="45.94686" lon="4.73993">
        <ele>187</ele>
        <time>2018-06-19T09:58:29Z</time>
      </trkpt>
      <trkpt lat="45.94681" lon="4.73988">
        <ele>187</ele>
        <time>2018-06-19T09:58:30Z</time>
      </trkpt>
      <trkpt lat="45.94676" lon="4.73982">
        <ele>187</ele>
        <time>2018-06-19T09:58:31Z</time>
      </trkpt>
      <trkpt lat="45.94671" lon="4.73974">
        <ele>187</ele>
        <time>2018-06-19T09:58:32Z</time>
      </trkpt>
      <trkpt lat="45.94666" lon="4.73968">
        <ele>187</ele>
        <time>2018-06-19T09:58:33Z</time>
      </trkpt>
      <trkpt lat="45.9466" lon="4.73962">
        <ele>187</ele>
        <time>2018-06-19T09:58:34Z</time>
      </trkpt>
      <trkpt lat="45.94655" lon="4.73955">
        <ele>187</ele>
        <time>2018-06-19T09:58:35Z</time>
      </trkpt>
      <trkpt lat="45.9465" lon="4.73947">
        <ele>187</ele>
        <time>2018-06-19T09:58:36Z</time>
      </trkpt>
      <trkpt lat="45.94645" lon="4.73941">
        <ele>187</ele>
        <time>2018-06-19T09:58:37Z</time>
      </trkpt>
      <trkpt lat="45.9464" lon="4.73934">
        <ele>187</ele>
        <time>2018-06-19T09:58:38Z</time>
      </trkpt>
      <trkpt lat="45.94634" lon="4.73927">
        <ele>187</ele>
        <time>2018-06-19T09:58:39Z</time>
      </trkpt>
      <trkpt lat="45.94628" lon="4.73921">
        <ele>187</ele>
        <time>2018-06-19T09:58:40Z</time>
      </trkpt>
      <trkpt lat="45.94624" lon="4.73915">
        <ele>187</ele>
        <time>2018-06-19T09:58:41Z</time>
      </trkpt>
      <trkpt lat="45.94618" lon="4.73909">
        <ele>187</ele>
        <time>2018-06-19T09:58:42Z</time>
      </trkpt>
      <trkpt lat="45.94612" lon="4.73903">
        <ele>187</ele>
        <time>2018-06-19T09:58:43Z</time>
      </trkpt>
      <trkpt lat="45.94607" lon="4.73897">
        <ele>187</ele>
        <time>2018-06-19T09:58:44Z</time>
      </trkpt>
      <trkpt lat="45.94602" lon="4.73892">
        <ele>187</ele>
        <time>2018-06-19T09:58:45Z</time>
      </trkpt>
      <trkpt lat="45.94597" lon="4.73885">
        <ele>187</ele>
        <time>2018-06-19T09:58:46Z</time>
      </trkpt>
      <trkpt lat="45.94592" lon="4.73879">
        <ele>187</ele>
        <time>2018-06-19T09:58:47Z</time>
      </trkpt>
      <trkpt lat="45.94586" lon="4.73873">
        <ele>187</ele>
        <time>2018-06-19T09:58:48Z</time>
      </trkpt>
      <trkpt lat="45.94581" lon="4.73867">
        <ele>186</ele>
        <time>2018-06-19T09:58:49Z</time>
      </trkpt>
      <trkpt lat="45.94576" lon="4.7386">
        <ele>186</ele>
        <time>2018-06-19T09:58:50Z</time>
      </trkpt>
      <trkpt lat="45.94571" lon="4.73855">
        <ele>186</ele>
        <time>2018-06-19T09:58:51Z</time>
      </trkpt>
      <trkpt lat="45.94566" lon="4.73849">
        <ele>186</ele>
        <time>2018-06-19T09:58:52Z</time>
      </trkpt>
      <trkpt lat="45.94561" lon="4.73844">
        <ele>186</ele>
        <time>2018-06-19T09:58:53Z</time>
      </trkpt>
      <trkpt lat="45.94556" lon="4.73839">
        <ele>186</ele>
        <time>2018-06-19T09:58:54Z</time>
      </trkpt>
      <trkpt lat="45.94552" lon="4.73833">
        <ele>186</ele>
        <time>2018-06-19T09:58:55Z</time>
      </trkpt>
      <trkpt lat="45.94547" lon="4.73828">
        <ele>186</ele>
        <time>2018-06-19T09:58:56Z</time>
      </trkpt>
      <trkpt lat="45.94542" lon="4.73824">
        <ele>186</ele>
        <time>2018-06-19T09:58:57Z</time>
      </trkpt>
      <trkpt lat="45.94537" lon="4.73819">
        <ele>186</ele>
        <time>2018-06-19T09:58:58Z</time>
      </trkpt>
      <trkpt lat="45.94531" lon="4.73815">
        <ele>186</ele>
        <time>2018-06-19T09:58:59Z</time>
      </trkpt>
      <trkpt lat="45.94525" lon="4.7381">
        <ele>186</ele>
        <time>2018-06-19T09:59:00Z</time>
      </trkpt>
      <trkpt lat="45.9452" lon="4.73804">
        <ele>186</ele>
        <time>2018-06-19T09:59:01Z</time>
      </trkpt>
      <trkpt lat="45.94514" lon="4.73798">
        <ele>186</ele>
        <time>2018-06-19T09:59:02Z</time>
      </trkpt>
      <trkpt lat="45.9451" lon="4.73792">
        <ele>186</ele>
        <time>2018-06-19T09:59:03Z</time>
      </trkpt>
      <trkpt lat="45.94504" lon="4.73787">
        <ele>186</ele>
        <time>2018-06-19T09:59:04Z</time>
      </trkpt>
      <trkpt lat="45.94499" lon="4.73782">
        <ele>186</ele>
        <time>2018-06-19T09:59:05Z</time>
      </trkpt>
      <trkpt lat="45.94495" lon="4.73776">
        <ele>186</ele>
        <time>2018-06-19T09:59:06Z</time>
      </trkpt>
      <trkpt lat="45.94491" lon="4.7377">
        <ele>186</ele>
        <time>2018-06-19T09:59:07Z</time>
      </trkpt>
      <trkpt lat="45.94488" lon="4.73764">
        <ele>186</ele>
        <time>2018-06-19T09:59:08Z</time>
      </trkpt>
      <trkpt lat="45.94484" lon="4.73757">
        <ele>186</ele>
        <time>2018-06-19T09:59:09Z</time>
      </trkpt>
      <trkpt lat="45.94483" lon="4.73749">
        <ele>186</ele>
        <time>2018-06-19T09:59:10Z</time>
      </trkpt>
      <trkpt lat="45.94483" lon="4.73741">
        <ele>186</ele>
        <time>2018-06-19T09:59:11Z</time>
      </trkpt>
      <trkpt lat="45.94483" lon="4.73732">
        <ele>186</ele>
        <time>2018-06-19T09:59:12Z</time>
      </trkpt>
      <trkpt lat="45.94485" lon="4.73723">
        <ele>186</ele>
        <time>2018-06-19T09:59:13Z</time>
      </trkpt>
      <trkpt lat="45.94487" lon="4.73715">
        <ele>186</ele>
        <time>2018-06-19T09:59:14Z</time>
      </trkpt>
      <trkpt lat="45.94489" lon="4.73707">
        <ele>186</ele>
        <time>2018-06-19T09:59:15Z</time>
      </trkpt>
      <trkpt lat="45.9449" lon="4.73698">
        <ele>186</ele>
        <time>2018-06-19T09:59:16Z</time>
      </trkpt>
      <trkpt lat="45.94491" lon="4.73689">
        <ele>186</ele>
        <time>2018-06-19T09:59:17Z</time>
      </trkpt>
      <trkpt lat="45.94494" lon="4.73681">
        <ele>185</ele>
        <time>2018-06-19T09:59:18Z</time>
      </trkpt>
      <trkpt lat="45.94497" lon="4.73672">
        <ele>185</ele>
        <time>2018-06-19T09:59:19Z</time>
      </trkpt>
      <trkpt lat="45.94499" lon="4.73664">
        <ele>185</ele>
        <time>2018-06-19T09:59:20Z</time>
      </trkpt>
      <trkpt lat="45.94498" lon="4.73657">
        <ele>185</ele>
        <time>2018-06-19T09:59:21Z</time>
      </trkpt>
      <trkpt lat="45.94499" lon="4.73649">
        <ele>185</ele>
        <time>2018-06-19T09:59:22Z</time>
      </trkpt>
      <trkpt lat="45.94501" lon="4.73641">
        <ele>184</ele>
        <time>2018-06-19T09:59:23Z</time>
      </trkpt>
      <trkpt lat="45.94501" lon="4.73632">
        <ele>184</ele>
        <time>2018-06-19T09:59:24Z</time>
      </trkpt>
      <trkpt lat="45.94502" lon="4.73623">
        <ele>184</ele>
        <time>2018-06-19T09:59:25Z</time>
      </trkpt>
      <trkpt lat="45.94502" lon="4.73614">
        <ele>184</ele>
        <time>2018-06-19T09:59:26Z</time>
      </trkpt>
      <trkpt lat="45.94503" lon="4.73604">
        <ele>184</ele>
        <time>2018-06-19T09:59:27Z</time>
      </trkpt>
      <trkpt lat="45.94502" lon="4.73595">
        <ele>184</ele>
        <time>2018-06-19T09:59:28Z</time>
      </trkpt>
      <trkpt lat="45.94502" lon="4.73585">
        <ele>185</ele>
        <time>2018-06-19T09:59:29Z</time>
      </trkpt>
      <trkpt lat="45.94502" lon="4.73575">
        <ele>184</ele>
        <time>2018-06-19T09:59:30Z</time>
      </trkpt>
      <trkpt lat="45.94501" lon="4.73564">
        <ele>184</ele>
        <time>2018-06-19T09:59:31Z</time>
      </trkpt>
      <trkpt lat="45.94501" lon="4.73554">
        <ele>183</ele>
        <time>2018-06-19T09:59:32Z</time>
      </trkpt>
      <trkpt lat="45.94502" lon="4.73544">
        <ele>183</ele>
        <time>2018-06-19T09:59:33Z</time>
      </trkpt>
      <trkpt lat="45.94501" lon="4.73534">
        <ele>183</ele>
        <time>2018-06-19T09:59:34Z</time>
      </trkpt>
      <trkpt lat="45.94501" lon="4.73524">
        <ele>183</ele>
        <time>2018-06-19T09:59:35Z</time>
      </trkpt>
      <trkpt lat="45.94501" lon="4.73512">
        <ele>183</ele>
        <time>2018-06-19T09:59:36Z</time>
      </trkpt>
      <trkpt lat="45.945" lon="4.73503">
        <ele>183</ele>
        <time>2018-06-19T09:59:37Z</time>
      </trkpt>
      <trkpt lat="45.945" lon="4.73492">
        <ele>182</ele>
        <time>2018-06-19T09:59:38Z</time>
      </trkpt>
      <trkpt lat="45.94502" lon="4.73481">
        <ele>182</ele>
        <time>2018-06-19T09:59:39Z</time>
      </trkpt>
      <trkpt lat="45.94501" lon="4.73471">
        <ele>182</ele>
        <time>2018-06-19T09:59:40Z</time>
      </trkpt>
      <trkpt lat="45.94501" lon="4.73459">
        <ele>181</ele>
        <time>2018-06-19T09:59:41Z</time>
      </trkpt>
      <trkpt lat="45.945" lon="4.73449">
        <ele>181</ele>
        <time>2018-06-19T09:59:42Z</time>
      </trkpt>
      <trkpt lat="45.945" lon="4.73437">
        <ele>181</ele>
        <time>2018-06-19T09:59:43Z</time>
      </trkpt>
      <trkpt lat="45.94499" lon="4.73425">
        <ele>181</ele>
        <time>2018-06-19T09:59:44Z</time>
      </trkpt>
      <trkpt lat="45.94499" lon="4.73414">
        <ele>180</ele>
        <time>2018-06-19T09:59:45Z</time>
      </trkpt>
      <trkpt lat="45.94499" lon="4.73402">
        <ele>180</ele>
        <time>2018-06-19T09:59:46Z</time>
      </trkpt>
      <trkpt lat="45.94498" lon="4.73391">
        <ele>179</ele>
        <time>2018-06-19T09:59:47Z</time>
      </trkpt>
      <trkpt lat="45.94497" lon="4.73379">
        <ele>179</ele>
        <time>2018-06-19T09:59:48Z</time>
      </trkpt>
      <trkpt lat="45.94496" lon="4.73368">
        <ele>179</ele>
        <time>2018-06-19T09:59:49Z</time>
      </trkpt>
      <trkpt lat="45.94495" lon="4.73356">
        <ele>178</ele>
        <time>2018-06-19T09:59:50Z</time>
      </trkpt>
      <trkpt lat="45.94493" lon="4.73345">
        <ele>178</ele>
        <time>2018-06-19T09:59:51Z</time>
      </trkpt>
      <trkpt lat="45.94492" lon="4.73333">
        <ele>177</ele>
        <time>2018-06-19T09:59:52Z</time>
      </trkpt>
      <trkpt lat="45.94491" lon="4.73321">
        <ele>177</ele>
        <time>2018-06-19T09:59:53Z</time>
      </trkpt>
      <trkpt lat="45.9449" lon="4.7331">
        <ele>177</ele>
        <time>2018-06-19T09:59:54Z</time>
      </trkpt>
      <trkpt lat="45.94488" lon="4.73298">
        <ele>177</ele>
        <time>2018-06-19T09:59:55Z</time>
      </trkpt>
      <trkpt lat="45.94488" lon="4.73286">
        <ele>177</ele>
        <time>2018-06-19T09:59:56Z</time>
      </trkpt>
      <trkpt lat="45.94486" lon="4.73274">
        <ele>177</ele>
        <time>2018-06-19T09:59:57Z</time>
      </trkpt>
      <trkpt lat="45.94484" lon="4.73263">
        <ele>177</ele>
        <time>2018-06-19T09:59:58Z</time>
      </trkpt>
      <trkpt lat="45.94481" lon="4.73251">
        <ele>176</ele>
        <time>2018-06-19T09:59:59Z</time>
      </trkpt>
      <trkpt lat="45.9448" lon="4.73239">
        <ele>175</ele>
        <time>2018-06-19T10:00:00Z</time>
      </trkpt>
      <trkpt lat="45.94478" lon="4.73227">
        <ele>175</ele>
        <time>2018-06-19T10:00:01Z</time>
      </trkpt>
      <trkpt lat="45.94475" lon="4.73215">
        <ele>175</ele>
        <time>2018-06-19T10:00:02Z</time>
      </trkpt>
      <trkpt lat="45.94474" lon="4.73203">
        <ele>175</ele>
        <time>2018-06-19T10:00:03Z</time>
      </trkpt>
      <trkpt lat="45.94472" lon="4.73191">
        <ele>174</ele>
        <time>2018-06-19T10:00:04Z</time>
      </trkpt>
      <trkpt lat="45.94471" lon="4.73179">
        <ele>174</ele>
        <time>2018-06-19T10:00:05Z</time>
      </trkpt>
      <trkpt lat="45.9447" lon="4.73168">
        <ele>174</ele>
        <time>2018-06-19T10:00:06Z</time>
      </trkpt>
      <trkpt lat="45.94468" lon="4.73156">
        <ele>172</ele>
        <time>2018-06-19T10:00:07Z</time>
      </trkpt>
      <trkpt lat="45.94467" lon="4.73146">
        <ele>172</ele>
        <time>2018-06-19T10:00:08Z</time>
      </trkpt>
      <trkpt lat="45.94466" lon="4.73134">
        <ele>172</ele>
        <time>2018-06-19T10:00:09Z</time>
      </trkpt>
      <trkpt lat="45.94465" lon="4.73124">
        <ele>172</ele>
        <time>2018-06-19T10:00:10Z</time>
      </trkpt>
      <trkpt lat="45.94464" lon="4.73114">
        <ele>172</ele>
        <time>2018-06-19T10:00:11Z</time>
      </trkpt>
      <trkpt lat="45.94463" lon="4.73103">
        <ele>172</ele>
        <time>2018-06-19T10:00:12Z</time>
      </trkpt>
      <trkpt lat="45.94462" lon="4.73094">
        <ele>171</ele>
        <time>2018-06-19T10:00:13Z</time>
      </trkpt>
      <trkpt lat="45.94461" lon="4.73085">
        <ele>171</ele>
        <time>2018-06-19T10:00:14Z</time>
      </trkpt>
      <trkpt lat="45.94458" lon="4.73076">
        <ele>170</ele>
        <time>2018-06-19T10:00:15Z</time>
      </trkpt>
      <trkpt lat="45.94457" lon="4.73066">
        <ele>170</ele>
        <time>2018-06-19T10:00:16Z</time>
      </trkpt>
      <trkpt lat="45.94456" lon="4.73058">
        <ele>170</ele>
        <time>2018-06-19T10:00:17Z</time>
      </trkpt>
      <trkpt lat="45.94455" lon="4.7305">
        <ele>170</ele>
        <time>2018-06-19T10:00:18Z</time>
      </trkpt>
      <trkpt lat="45.94453" lon="4.73043">
        <ele>169</ele>
        <time>2018-06-19T10:00:19Z</time>
      </trkpt>
      <trkpt lat="45.94453" lon="4.73035">
        <ele>169</ele>
        <time>2018-06-19T10:00:20Z</time>
      </trkpt>
      <trkpt lat="45.94452" lon="4.73028">
        <ele>169</ele>
        <time>2018-06-19T10:00:21Z</time>
      </trkpt>
      <trkpt lat="45.94451" lon="4.73021">
        <ele>169</ele>
        <time>2018-06-19T10:00:22Z</time>
      </trkpt>
      <trkpt lat="45.94449" lon="4.73015">
        <ele>169</ele>
        <time>2018-06-19T10:00:23Z</time>
      </trkpt>
      <trkpt lat="45.94447" lon="4.73003">
        <ele>169</ele>
        <time>2018-06-19T10:00:25Z</time>
      </trkpt>
      <trkpt lat="45.94447" lon="4.72997">
        <ele>167</ele>
        <time>2018-06-19T10:00:26Z</time>
      </trkpt>
      <trkpt lat="45.94445" lon="4.72985">
        <ele>167</ele>
        <time>2018-06-19T10:00:28Z</time>
      </trkpt>
      <trkpt lat="45.94445" lon="4.72978">
        <ele>167</ele>
        <time>2018-06-19T10:00:29Z</time>
      </trkpt>
      <trkpt lat="45.94444" lon="4.72966">
        <ele>167</ele>
        <time>2018-06-19T10:00:31Z</time>
      </trkpt>
      <trkpt lat="45.94442" lon="4.72961">
        <ele>167</ele>
        <time>2018-06-19T10:00:32Z</time>
      </trkpt>
      <trkpt lat="45.94441" lon="4.72949">
        <ele>167</ele>
        <time>2018-06-19T10:00:34Z</time>
      </trkpt>
      <trkpt lat="45.9444" lon="4.72943">
        <ele>167</ele>
        <time>2018-06-19T10:00:35Z</time>
      </trkpt>
      <trkpt lat="45.94439" lon="4.72933">
        <ele>167</ele>
        <time>2018-06-19T10:00:37Z</time>
      </trkpt>
      <trkpt lat="45.94439" lon="4.7293">
        <ele>167</ele>
        <time>2018-06-19T10:00:38Z</time>
      </trkpt>
      <trkpt lat="45.94438" lon="4.72922">
        <ele>167</ele>
        <time>2018-06-19T10:00:39Z</time>
      </trkpt>
      <trkpt lat="45.94437" lon="4.72916">
        <ele>166</ele>
        <time>2018-06-19T10:00:40Z</time>
      </trkpt>
      <trkpt lat="45.94436" lon="4.72904">
        <ele>166</ele>
        <time>2018-06-19T10:00:42Z</time>
      </trkpt>
      <trkpt lat="45.94435" lon="4.72897">
        <ele>166</ele>
        <time>2018-06-19T10:00:43Z</time>
      </trkpt>
      <trkpt lat="45.94435" lon="4.72891">
        <ele>166</ele>
        <time>2018-06-19T10:00:44Z</time>
      </trkpt>
      <trkpt lat="45.94434" lon="4.72884">
        <ele>166</ele>
        <time>2018-06-19T10:00:45Z</time>
      </trkpt>
      <trkpt lat="45.94433" lon="4.72877">
        <ele>166</ele>
        <time>2018-06-19T10:00:46Z</time>
      </trkpt>
      <trkpt lat="45.94431" lon="4.72869">
        <ele>166</ele>
        <time>2018-06-19T10:00:47Z</time>
      </trkpt>
      <trkpt lat="45.9443" lon="4.72862">
        <ele>166</ele>
        <time>2018-06-19T10:00:48Z</time>
      </trkpt>
      <trkpt lat="45.94429" lon="4.72854">
        <ele>166</ele>
        <time>2018-06-19T10:00:49Z</time>
      </trkpt>
      <trkpt lat="45.94429" lon="4.72847">
        <ele>166</ele>
        <time>2018-06-19T10:00:50Z</time>
      </trkpt>
      <trkpt lat="45.94428" lon="4.72839">
        <ele>166</ele>
        <time>2018-06-19T10:00:51Z</time>
      </trkpt>
      <trkpt lat="45.94427" lon="4.72832">
        <ele>166</ele>
        <time>2018-06-19T10:00:52Z</time>
      </trkpt>
      <trkpt lat="45.94425" lon="4.72823">
        <ele>167</ele>
        <time>2018-06-19T10:00:53Z</time>
      </trkpt>
      <trkpt lat="45.94424" lon="4.72814">
        <ele>167</ele>
        <time>2018-06-19T10:00:54Z</time>
      </trkpt>
      <trkpt lat="45.94423" lon="4.72805">
        <ele>167</ele>
        <time>2018-06-19T10:00:55Z</time>
      </trkpt>
      <trkpt lat="45.94422" lon="4.72796">
        <ele>168</ele>
        <time>2018-06-19T10:00:56Z</time>
      </trkpt>
      <trkpt lat="45.9442" lon="4.72786">
        <ele>168</ele>
        <time>2018-06-19T10:00:57Z</time>
      </trkpt>
      <trkpt lat="45.94419" lon="4.72776">
        <ele>168</ele>
        <time>2018-06-19T10:00:58Z</time>
      </trkpt>
      <trkpt lat="45.94418" lon="4.72767">
        <ele>169</ele>
        <time>2018-06-19T10:00:59Z</time>
      </trkpt>
      <trkpt lat="45.94417" lon="4.72757">
        <ele>170</ele>
        <time>2018-06-19T10:01:00Z</time>
      </trkpt>
      <trkpt lat="45.94416" lon="4.72747">
        <ele>171</ele>
        <time>2018-06-19T10:01:01Z</time>
      </trkpt>
      <trkpt lat="45.94415" lon="4.72738">
        <ele>171</ele>
        <time>2018-06-19T10:01:02Z</time>
      </trkpt>
      <trkpt lat="45.94413" lon="4.72727">
        <ele>172</ele>
        <time>2018-06-19T10:01:03Z</time>
      </trkpt>
      <trkpt lat="45.94411" lon="4.72718">
        <ele>172</ele>
        <time>2018-06-19T10:01:04Z</time>
      </trkpt>
      <trkpt lat="45.94409" lon="4.72709">
        <ele>172</ele>
        <time>2018-06-19T10:01:05Z</time>
      </trkpt>
      <trkpt lat="45.94409" lon="4.72699">
        <ele>172</ele>
        <time>2018-06-19T10:01:06Z</time>
      </trkpt>
      <trkpt lat="45.94408" lon="4.72689">
        <ele>173</ele>
        <time>2018-06-19T10:01:07Z</time>
      </trkpt>
      <trkpt lat="45.94407" lon="4.72679">
        <ele>173</ele>
        <time>2018-06-19T10:01:08Z</time>
      </trkpt>
      <trkpt lat="45.94406" lon="4.7267">
        <ele>173</ele>
        <time>2018-06-19T10:01:09Z</time>
      </trkpt>
      <trkpt lat="45.94406" lon="4.7266">
        <ele>174</ele>
        <time>2018-06-19T10:01:10Z</time>
      </trkpt>
      <trkpt lat="45.94405" lon="4.72651">
        <ele>174</ele>
        <time>2018-06-19T10:01:11Z</time>
      </trkpt>
      <trkpt lat="45.94403" lon="4.72642">
        <ele>174</ele>
        <time>2018-06-19T10:01:12Z</time>
      </trkpt>
      <trkpt lat="45.94402" lon="4.72633">
        <ele>174</ele>
        <time>2018-06-19T10:01:13Z</time>
      </trkpt>
      <trkpt lat="45.94401" lon="4.72624">
        <ele>173</ele>
        <time>2018-06-19T10:01:14Z</time>
      </trkpt>
      <trkpt lat="45.944" lon="4.72615">
        <ele>173</ele>
        <time>2018-06-19T10:01:15Z</time>
      </trkpt>
      <trkpt lat="45.94399" lon="4.72606">
        <ele>173</ele>
        <time>2018-06-19T10:01:16Z</time>
      </trkpt>
      <trkpt lat="45.94398" lon="4.72597">
        <ele>173</ele>
        <time>2018-06-19T10:01:17Z</time>
      </trkpt>
      <trkpt lat="45.94397" lon="4.72588">
        <ele>173</ele>
        <time>2018-06-19T10:01:18Z</time>
      </trkpt>
      <trkpt lat="45.94394" lon="4.72579">
        <ele>173</ele>
        <time>2018-06-19T10:01:19Z</time>
      </trkpt>
      <trkpt lat="45.94392" lon="4.72572">
        <ele>173</ele>
        <time>2018-06-19T10:01:20Z</time>
      </trkpt>
      <trkpt lat="45.94391" lon="4.72563">
        <ele>173</ele>
        <time>2018-06-19T10:01:21Z</time>
      </trkpt>
      <trkpt lat="45.94389" lon="4.72554">
        <ele>173</ele>
        <time>2018-06-19T10:01:22Z</time>
      </trkpt>
      <trkpt lat="45.94389" lon="4.72546">
        <ele>173</ele>
        <time>2018-06-19T10:01:23Z</time>
      </trkpt>
      <trkpt lat="45.94387" lon="4.72537">
        <ele>174</ele>
        <time>2018-06-19T10:01:24Z</time>
      </trkpt>
      <trkpt lat="45.94384" lon="4.72528">
        <ele>174</ele>
        <time>2018-06-19T10:01:25Z</time>
      </trkpt>
      <trkpt lat="45.94382" lon="4.72519">
        <ele>174</ele>
        <time>2018-06-19T10:01:26Z</time>
      </trkpt>
      <trkpt lat="45.94378" lon="4.72512">
        <ele>174</ele>
        <time>2018-06-19T10:01:27Z</time>
      </trkpt>
      <trkpt lat="45.94376" lon="4.72503">
        <ele>174</ele>
        <time>2018-06-19T10:01:28Z</time>
      </trkpt>
      <trkpt lat="45.94373" lon="4.72495">
        <ele>173</ele>
        <time>2018-06-19T10:01:29Z</time>
      </trkpt>
      <trkpt lat="45.9437" lon="4.72488">
        <ele>173</ele>
        <time>2018-06-19T10:01:30Z</time>
      </trkpt>
      <trkpt lat="45.94367" lon="4.7248">
        <ele>173</ele>
        <time>2018-06-19T10:01:31Z</time>
      </trkpt>
      <trkpt lat="45.94364" lon="4.72473">
        <ele>173</ele>
        <time>2018-06-19T10:01:32Z</time>
      </trkpt>
      <trkpt lat="45.94362" lon="4.72464">
        <ele>173</ele>
        <time>2018-06-19T10:01:33Z</time>
      </trkpt>
      <trkpt lat="45.94359" lon="4.72457">
        <ele>173</ele>
        <time>2018-06-19T10:01:34Z</time>
      </trkpt>
      <trkpt lat="45.94356" lon="4.7245">
        <ele>173</ele>
        <time>2018-06-19T10:01:35Z</time>
      </trkpt>
      <trkpt lat="45.94353" lon="4.72442">
        <ele>173</ele>
        <time>2018-06-19T10:01:36Z</time>
      </trkpt>
      <trkpt lat="45.9435" lon="4.72434">
        <ele>173</ele>
        <time>2018-06-19T10:01:37Z</time>
      </trkpt>
      <trkpt lat="45.94346" lon="4.72427">
        <ele>173</ele>
        <time>2018-06-19T10:01:38Z</time>
      </trkpt>
      <trkpt lat="45.94343" lon="4.7242">
        <ele>173</ele>
        <time>2018-06-19T10:01:39Z</time>
      </trkpt>
      <trkpt lat="45.94341" lon="4.72412">
        <ele>173</ele>
        <time>2018-06-19T10:01:40Z</time>
      </trkpt>
      <trkpt lat="45.94336" lon="4.72406">
        <ele>173</ele>
        <time>2018-06-19T10:01:41Z</time>
      </trkpt>
      <trkpt lat="45.94332" lon="4.72399">
        <ele>172</ele>
        <time>2018-06-19T10:01:42Z</time>
      </trkpt>
      <trkpt lat="45.94329" lon="4.72391">
        <ele>172</ele>
        <time>2018-06-19T10:01:43Z</time>
      </trkpt>
      <trkpt lat="45.94326" lon="4.72384">
        <ele>172</ele>
        <time>2018-06-19T10:01:44Z</time>
      </trkpt>
      <trkpt lat="45.94323" lon="4.72377">
        <ele>172</ele>
        <time>2018-06-19T10:01:45Z</time>
      </trkpt>
      <trkpt lat="45.94321" lon="4.7237">
        <ele>172</ele>
        <time>2018-06-19T10:01:46Z</time>
      </trkpt>
      <trkpt lat="45.94317" lon="4.72363">
        <ele>172</ele>
        <time>2018-06-19T10:01:47Z</time>
      </trkpt>
      <trkpt lat="45.94315" lon="4.72356">
        <ele>172</ele>
        <time>2018-06-19T10:01:48Z</time>
      </trkpt>
      <trkpt lat="45.94311" lon="4.7235">
        <ele>172</ele>
        <time>2018-06-19T10:01:49Z</time>
      </trkpt>
      <trkpt lat="45.94308" lon="4.72343">
        <ele>172</ele>
        <time>2018-06-19T10:01:50Z</time>
      </trkpt>
      <trkpt lat="45.94305" lon="4.72336">
        <ele>172</ele>
        <time>2018-06-19T10:01:51Z</time>
      </trkpt>
      <trkpt lat="45.94301" lon="4.7233">
        <ele>171</ele>
        <time>2018-06-19T10:01:52Z</time>
      </trkpt>
      <trkpt lat="45.94298" lon="4.72321">
        <ele>171</ele>
        <time>2018-06-19T10:01:53Z</time>
      </trkpt>
      <trkpt lat="45.94293" lon="4.72313">
        <ele>171</ele>
        <time>2018-06-19T10:01:54Z</time>
      </trkpt>
      <trkpt lat="45.9429" lon="4.72305">
        <ele>171</ele>
        <time>2018-06-19T10:01:55Z</time>
      </trkpt>
      <trkpt lat="45.94288" lon="4.72297">
        <ele>171</ele>
        <time>2018-06-19T10:01:56Z</time>
      </trkpt>
      <trkpt lat="45.94284" lon="4.72289">
        <ele>171</ele>
        <time>2018-06-19T10:01:57Z</time>
      </trkpt>
      <trkpt lat="45.9428" lon="4.72282">
        <ele>171</ele>
        <time>2018-06-19T10:01:58Z</time>
      </trkpt>
      <trkpt lat="45.94276" lon="4.72276">
        <ele>171</ele>
        <time>2018-06-19T10:01:59Z</time>
      </trkpt>
      <trkpt lat="45.94271" lon="4.72273">
        <ele>171</ele>
        <time>2018-06-19T10:02:00Z</time>
      </trkpt>
      <trkpt lat="45.94266" lon="4.72272">
        <ele>171</ele>
        <time>2018-06-19T10:02:01Z</time>
      </trkpt>
      <trkpt lat="45.94261" lon="4.72273">
        <ele>171</ele>
        <time>2018-06-19T10:02:02Z</time>
      </trkpt>
      <trkpt lat="45.94255" lon="4.72274">
        <ele>171</ele>
        <time>2018-06-19T10:02:03Z</time>
      </trkpt>
      <trkpt lat="45.94249" lon="4.72277">
        <ele>171</ele>
        <time>2018-06-19T10:02:04Z</time>
      </trkpt>
      <trkpt lat="45.94243" lon="4.72278">
        <ele>171</ele>
        <time>2018-06-19T10:02:05Z</time>
      </trkpt>
      <trkpt lat="45.94237" lon="4.72281">
        <ele>171</ele>
        <time>2018-06-19T10:02:06Z</time>
      </trkpt>
      <trkpt lat="45.94231" lon="4.72283">
        <ele>171</ele>
        <time>2018-06-19T10:02:07Z</time>
      </trkpt>
      <trkpt lat="45.94224" lon="4.72285">
        <ele>171</ele>
        <time>2018-06-19T10:02:08Z</time>
      </trkpt>
      <trkpt lat="45.94218" lon="4.72286">
        <ele>171</ele>
        <time>2018-06-19T10:02:09Z</time>
      </trkpt>
      <trkpt lat="45.94211" lon="4.72286">
        <ele>171</ele>
        <time>2018-06-19T10:02:10Z</time>
      </trkpt>
      <trkpt lat="45.94205" lon="4.72287">
        <ele>171</ele>
        <time>2018-06-19T10:02:11Z</time>
      </trkpt>
      <trkpt lat="45.94199" lon="4.72287">
        <ele>171</ele>
        <time>2018-06-19T10:02:12Z</time>
      </trkpt>
      <trkpt lat="45.94193" lon="4.72288">
        <ele>171</ele>
        <time>2018-06-19T10:02:13Z</time>
      </trkpt>
      <trkpt lat="45.94187" lon="4.72288">
        <ele>171</ele>
        <time>2018-06-19T10:02:14Z</time>
      </trkpt>
      <trkpt lat="45.94181" lon="4.72288">
        <ele>171</ele>
        <time>2018-06-19T10:02:15Z</time>
      </trkpt>
      <trkpt lat="45.94175" lon="4.72288">
        <ele>171</ele>
        <time>2018-06-19T10:02:16Z</time>
      </trkpt>
      <trkpt lat="45.9417" lon="4.72287">
        <ele>171</ele>
        <time>2018-06-19T10:02:17Z</time>
      </trkpt>
      <trkpt lat="45.94164" lon="4.72287">
        <ele>171</ele>
        <time>2018-06-19T10:02:18Z</time>
      </trkpt>
      <trkpt lat="45.94159" lon="4.72284">
        <ele>171</ele>
        <time>2018-06-19T10:02:19Z</time>
      </trkpt>
      <trkpt lat="45.94154" lon="4.72282">
        <ele>171</ele>
        <time>2018-06-19T10:02:20Z</time>
      </trkpt>
      <trkpt lat="45.94148" lon="4.7228">
        <ele>171</ele>
        <time>2018-06-19T10:02:21Z</time>
      </trkpt>
      <trkpt lat="45.94143" lon="4.72278">
        <ele>171</ele>
        <time>2018-06-19T10:02:22Z</time>
      </trkpt>
      <trkpt lat="45.94138" lon="4.72276">
        <ele>171</ele>
        <time>2018-06-19T10:02:23Z</time>
      </trkpt>
      <trkpt lat="45.94132" lon="4.72273">
        <ele>171</ele>
        <time>2018-06-19T10:02:24Z</time>
      </trkpt>
      <trkpt lat="45.94127" lon="4.7227">
        <ele>171</ele>
        <time>2018-06-19T10:02:25Z</time>
      </trkpt>
      <trkpt lat="45.94121" lon="4.72267">
        <ele>171</ele>
        <time>2018-06-19T10:02:26Z</time>
      </trkpt>
      <trkpt lat="45.94115" lon="4.72264">
        <ele>171</ele>
        <time>2018-06-19T10:02:27Z</time>
      </trkpt>
      <trkpt lat="45.94108" lon="4.72263">
        <ele>171</ele>
        <time>2018-06-19T10:02:28Z</time>
      </trkpt>
      <trkpt lat="45.94102" lon="4.72262">
        <ele>171</ele>
        <time>2018-06-19T10:02:29Z</time>
      </trkpt>
      <trkpt lat="45.94096" lon="4.72262">
        <ele>171</ele>
        <time>2018-06-19T10:02:30Z</time>
      </trkpt>
      <trkpt lat="45.9409" lon="4.72262">
        <ele>171</ele>
        <time>2018-06-19T10:02:31Z</time>
      </trkpt>
      <trkpt lat="45.94084" lon="4.72264">
        <ele>171</ele>
        <time>2018-06-19T10:02:32Z</time>
      </trkpt>
      <trkpt lat="45.94078" lon="4.72267">
        <ele>171</ele>
        <time>2018-06-19T10:02:33Z</time>
      </trkpt>
      <trkpt lat="45.94073" lon="4.7227">
        <ele>171</ele>
        <time>2018-06-19T10:02:34Z</time>
      </trkpt>
      <trkpt lat="45.94068" lon="4.72275">
        <ele>171</ele>
        <time>2018-06-19T10:02:35Z</time>
      </trkpt>
      <trkpt lat="45.94063" lon="4.72279">
        <ele>171</ele>
        <time>2018-06-19T10:02:36Z</time>
      </trkpt>
      <trkpt lat="45.94058" lon="4.72285">
        <ele>171</ele>
        <time>2018-06-19T10:02:37Z</time>
      </trkpt>
      <trkpt lat="45.94053" lon="4.72292">
        <ele>171</ele>
        <time>2018-06-19T10:02:38Z</time>
      </trkpt>
      <trkpt lat="45.94049" lon="4.72299">
        <ele>171</ele>
        <time>2018-06-19T10:02:39Z</time>
      </trkpt>
      <trkpt lat="45.94044" lon="4.72305">
        <ele>171</ele>
        <time>2018-06-19T10:02:40Z</time>
      </trkpt>
      <trkpt lat="45.94039" lon="4.72311">
        <ele>171</ele>
        <time>2018-06-19T10:02:41Z</time>
      </trkpt>
      <trkpt lat="45.94035" lon="4.72318">
        <ele>171</ele>
        <time>2018-06-19T10:02:42Z</time>
      </trkpt>
      <trkpt lat="45.9403" lon="4.72325">
        <ele>171</ele>
        <time>2018-06-19T10:02:43Z</time>
      </trkpt>
      <trkpt lat="45.94025" lon="4.72331">
        <ele>171</ele>
        <time>2018-06-19T10:02:44Z</time>
      </trkpt>
      <trkpt lat="45.9402" lon="4.72337">
        <ele>171</ele>
        <time>2018-06-19T10:02:45Z</time>
      </trkpt>
      <trkpt lat="45.94015" lon="4.72343">
        <ele>171</ele>
        <time>2018-06-19T10:02:46Z</time>
      </trkpt>
      <trkpt lat="45.9401" lon="4.72348">
        <ele>171</ele>
        <time>2018-06-19T10:02:47Z</time>
      </trkpt>
      <trkpt lat="45.94006" lon="4.72355">
        <ele>171</ele>
        <time>2018-06-19T10:02:48Z</time>
      </trkpt>
      <trkpt lat="45.94001" lon="4.7236">
        <ele>171</ele>
        <time>2018-06-19T10:02:49Z</time>
      </trkpt>
      <trkpt lat="45.93997" lon="4.72366">
        <ele>171</ele>
        <time>2018-06-19T10:02:50Z</time>
      </trkpt>
      <trkpt lat="45.93992" lon="4.72369">
        <ele>171</ele>
        <time>2018-06-19T10:02:51Z</time>
      </trkpt>
      <trkpt lat="45.93987" lon="4.72375">
        <ele>171</ele>
        <time>2018-06-19T10:02:52Z</time>
      </trkpt>
      <trkpt lat="45.93983" lon="4.72381">
        <ele>171</ele>
        <time>2018-06-19T10:02:53Z</time>
      </trkpt>
      <trkpt lat="45.93979" lon="4.72386">
        <ele>171</ele>
        <time>2018-06-19T10:02:54Z</time>
      </trkpt>
      <trkpt lat="45.93974" lon="4.72392">
        <ele>171</ele>
        <time>2018-06-19T10:02:55Z</time>
      </trkpt>
      <trkpt lat="45.93971" lon="4.72397">
        <ele>171</ele>
        <time>2018-06-19T10:02:56Z</time>
      </trkpt>
      <trkpt lat="45.93966" lon="4.72402">
        <ele>171</ele>
        <time>2018-06-19T10:02:57Z</time>
      </trkpt>
      <trkpt lat="45.93962" lon="4.72407">
        <ele>171</ele>
        <time>2018-06-19T10:02:58Z</time>
      </trkpt>
      <trkpt lat="45.93958" lon="4.72411">
        <ele>171</ele>
        <time>2018-06-19T10:02:59Z</time>
      </trkpt>
      <trkpt lat="45.93954" lon="4.72417">
        <ele>171</ele>
        <time>2018-06-19T10:03:00Z</time>
      </trkpt>
      <trkpt lat="45.93949" lon="4.72422">
        <ele>171</ele>
        <time>2018-06-19T10:03:01Z</time>
      </trkpt>
      <trkpt lat="45.93944" lon="4.72428">
        <ele>171</ele>
        <time>2018-06-19T10:03:02Z</time>
      </trkpt>
      <trkpt lat="45.9394" lon="4.72432">
        <ele>171</ele>
        <time>2018-06-19T10:03:03Z</time>
      </trkpt>
      <trkpt lat="45.93936" lon="4.72437">
        <ele>171</ele>
        <time>2018-06-19T10:03:04Z</time>
      </trkpt>
      <trkpt lat="45.93932" lon="4.72443">
        <ele>171</ele>
        <time>2018-06-19T10:03:05Z</time>
      </trkpt>
      <trkpt lat="45.93928" lon="4.72448">
        <ele>171</ele>
        <time>2018-06-19T10:03:06Z</time>
      </trkpt>
      <trkpt lat="45.93924" lon="4.72453">
        <ele>171</ele>
        <time>2018-06-19T10:03:07Z</time>
      </trkpt>
      <trkpt lat="45.9392" lon="4.72459">
        <ele>171</ele>
        <time>2018-06-19T10:03:08Z</time>
      </trkpt>
      <trkpt lat="45.93916" lon="4.72464">
        <ele>172</ele>
        <time>2018-06-19T10:03:09Z</time>
      </trkpt>
      <trkpt lat="45.93911" lon="4.7247">
        <ele>172</ele>
        <time>2018-06-19T10:03:10Z</time>
      </trkpt>
      <trkpt lat="45.93907" lon="4.72475">
        <ele>172</ele>
        <time>2018-06-19T10:03:11Z</time>
      </trkpt>
      <trkpt lat="45.93903" lon="4.72482">
        <ele>172</ele>
        <time>2018-06-19T10:03:12Z</time>
      </trkpt>
      <trkpt lat="45.93898" lon="4.72488">
        <ele>172</ele>
        <time>2018-06-19T10:03:13Z</time>
      </trkpt>
      <trkpt lat="45.93893" lon="4.72493">
        <ele>172</ele>
        <time>2018-06-19T10:03:14Z</time>
      </trkpt>
      <trkpt lat="45.93889" lon="4.72498">
        <ele>172</ele>
        <time>2018-06-19T10:03:15Z</time>
      </trkpt>
      <trkpt lat="45.93885" lon="4.72503">
        <ele>173</ele>
        <time>2018-06-19T10:03:16Z</time>
      </trkpt>
      <trkpt lat="45.93881" lon="4.72508">
        <ele>173</ele>
        <time>2018-06-19T10:03:17Z</time>
      </trkpt>
      <trkpt lat="45.93877" lon="4.72511">
        <ele>173</ele>
        <time>2018-06-19T10:03:18Z</time>
      </trkpt>
      <trkpt lat="45.93872" lon="4.72513">
        <ele>173</ele>
        <time>2018-06-19T10:03:19Z</time>
      </trkpt>
      <trkpt lat="45.93866" lon="4.72511">
        <ele>173</ele>
        <time>2018-06-19T10:03:20Z</time>
      </trkpt>
      <trkpt lat="45.93862" lon="4.72508">
        <ele>173</ele>
        <time>2018-06-19T10:03:21Z</time>
      </trkpt>
      <trkpt lat="45.93857" lon="4.72505">
        <ele>173</ele>
        <time>2018-06-19T10:03:22Z</time>
      </trkpt>
      <trkpt lat="45.93851" lon="4.72502">
        <ele>174</ele>
        <time>2018-06-19T10:03:23Z</time>
      </trkpt>
      <trkpt lat="45.93846" lon="4.72499">
        <ele>173</ele>
        <time>2018-06-19T10:03:24Z</time>
      </trkpt>
      <trkpt lat="45.93842" lon="4.72496">
        <ele>173</ele>
        <time>2018-06-19T10:03:25Z</time>
      </trkpt>
      <trkpt lat="45.93837" lon="4.72492">
        <ele>173</ele>
        <time>2018-06-19T10:03:26Z</time>
      </trkpt>
      <trkpt lat="45.93832" lon="4.72489">
        <ele>173</ele>
        <time>2018-06-19T10:03:27Z</time>
      </trkpt>
      <trkpt lat="45.93827" lon="4.72485">
        <ele>173</ele>
        <time>2018-06-19T10:03:28Z</time>
      </trkpt>
      <trkpt lat="45.93822" lon="4.72479">
        <ele>173</ele>
        <time>2018-06-19T10:03:29Z</time>
      </trkpt>
      <trkpt lat="45.93821" lon="4.72471">
        <ele>172</ele>
        <time>2018-06-19T10:03:30Z</time>
      </trkpt>
      <trkpt lat="45.93816" lon="4.72468">
        <ele>172</ele>
        <time>2018-06-19T10:03:31Z</time>
      </trkpt>
      <trkpt lat="45.93812" lon="4.72463">
        <ele>172</ele>
        <time>2018-06-19T10:03:32Z</time>
      </trkpt>
      <trkpt lat="45.93808" lon="4.7246">
        <ele>172</ele>
        <time>2018-06-19T10:03:33Z</time>
      </trkpt>
      <trkpt lat="45.93804" lon="4.72458">
        <ele>172</ele>
        <time>2018-06-19T10:03:34Z</time>
      </trkpt>
      <trkpt lat="45.938" lon="4.72452">
        <ele>172</ele>
        <time>2018-06-19T10:03:35Z</time>
      </trkpt>
      <trkpt lat="45.93795" lon="4.72448">
        <ele>172</ele>
        <time>2018-06-19T10:03:36Z</time>
      </trkpt>
      <trkpt lat="45.93789" lon="4.72445">
        <ele>172</ele>
        <time>2018-06-19T10:03:37Z</time>
      </trkpt>
      <trkpt lat="45.93786" lon="4.72439">
        <ele>172</ele>
        <time>2018-06-19T10:03:38Z</time>
      </trkpt>
      <trkpt lat="45.93782" lon="4.72434">
        <ele>172</ele>
        <time>2018-06-19T10:03:39Z</time>
      </trkpt>
      <trkpt lat="45.93777" lon="4.7243">
        <ele>171</ele>
        <time>2018-06-19T10:03:40Z</time>
      </trkpt>
      <trkpt lat="45.93773" lon="4.72427">
        <ele>171</ele>
        <time>2018-06-19T10:03:41Z</time>
      </trkpt>
      <trkpt lat="45.9377" lon="4.72422">
        <ele>171</ele>
        <time>2018-06-19T10:03:42Z</time>
      </trkpt>
      <trkpt lat="45.93766" lon="4.72417">
        <ele>171</ele>
        <time>2018-06-19T10:03:43Z</time>
      </trkpt>
      <trkpt lat="45.93762" lon="4.72414">
        <ele>171</ele>
        <time>2018-06-19T10:03:44Z</time>
      </trkpt>
      <trkpt lat="45.93758" lon="4.7241">
        <ele>171</ele>
        <time>2018-06-19T10:03:45Z</time>
      </trkpt>
      <trkpt lat="45.93754" lon="4.72405">
        <ele>171</ele>
        <time>2018-06-19T10:03:46Z</time>
      </trkpt>
      <trkpt lat="45.9375" lon="4.72402">
        <ele>171</ele>
        <time>2018-06-19T10:03:47Z</time>
      </trkpt>
      <trkpt lat="45.93745" lon="4.72398">
        <ele>171</ele>
        <time>2018-06-19T10:03:48Z</time>
      </trkpt>
      <trkpt lat="45.93741" lon="4.72394">
        <ele>171</ele>
        <time>2018-06-19T10:03:49Z</time>
      </trkpt>
      <trkpt lat="45.93737" lon="4.7239">
        <ele>171</ele>
        <time>2018-06-19T10:03:50Z</time>
      </trkpt>
      <trkpt lat="45.93733" lon="4.72386">
        <ele>171</ele>
        <time>2018-06-19T10:03:51Z</time>
      </trkpt>
      <trkpt lat="45.93729" lon="4.72383">
        <ele>171</ele>
        <time>2018-06-19T10:03:52Z</time>
      </trkpt>
      <trkpt lat="45.93725" lon="4.72379">
        <ele>171</ele>
        <time>2018-06-19T10:03:53Z</time>
      </trkpt>
      <trkpt lat="45.93721" lon="4.72374">
        <ele>172</ele>
        <time>2018-06-19T10:03:54Z</time>
      </trkpt>
      <trkpt lat="45.93716" lon="4.7237">
        <ele>172</ele>
        <time>2018-06-19T10:03:55Z</time>
      </trkpt>
      <trkpt lat="45.93712" lon="4.72366">
        <ele>172</ele>
        <time>2018-06-19T10:03:56Z</time>
      </trkpt>
      <trkpt lat="45.93708" lon="4.72362">
        <ele>171</ele>
        <time>2018-06-19T10:03:57Z</time>
      </trkpt>
      <trkpt lat="45.93703" lon="4.72357">
        <ele>171</ele>
        <time>2018-06-19T10:03:58Z</time>
      </trkpt>
      <trkpt lat="45.93698" lon="4.72352">
        <ele>171</ele>
        <time>2018-06-19T10:03:59Z</time>
      </trkpt>
      <trkpt lat="45.93695" lon="4.72347">
        <ele>171</ele>
        <time>2018-06-19T10:04:00Z</time>
      </trkpt>
      <trkpt lat="45.9369" lon="4.72343">
        <ele>171</ele>
        <time>2018-06-19T10:04:01Z</time>
      </trkpt>
      <trkpt lat="45.93686" lon="4.72339">
        <ele>171</ele>
        <time>2018-06-19T10:04:02Z</time>
      </trkpt>
      <trkpt lat="45.9368" lon="4.72333">
        <ele>171</ele>
        <time>2018-06-19T10:04:03Z</time>
      </trkpt>
      <trkpt lat="45.93677" lon="4.72331">
        <ele>171</ele>
        <time>2018-06-19T10:04:04Z</time>
      </trkpt>
      <trkpt lat="45.93671" lon="4.72327">
        <ele>171</ele>
        <time>2018-06-19T10:04:05Z</time>
      </trkpt>
      <trkpt lat="45.93667" lon="4.72322">
        <ele>171</ele>
        <time>2018-06-19T10:04:06Z</time>
      </trkpt>
      <trkpt lat="45.93662" lon="4.72317">
        <ele>172</ele>
        <time>2018-06-19T10:04:07Z</time>
      </trkpt>
      <trkpt lat="45.93658" lon="4.72313">
        <ele>172</ele>
        <time>2018-06-19T10:04:08Z</time>
      </trkpt>
      <trkpt lat="45.93654" lon="4.72308">
        <ele>172</ele>
        <time>2018-06-19T10:04:09Z</time>
      </trkpt>
      <trkpt lat="45.9365" lon="4.72305">
        <ele>172</ele>
        <time>2018-06-19T10:04:10Z</time>
      </trkpt>
      <trkpt lat="45.93646" lon="4.723">
        <ele>172</ele>
        <time>2018-06-19T10:04:11Z</time>
      </trkpt>
      <trkpt lat="45.93641" lon="4.72297">
        <ele>172</ele>
        <time>2018-06-19T10:04:12Z</time>
      </trkpt>
      <trkpt lat="45.93637" lon="4.72293">
        <ele>172</ele>
        <time>2018-06-19T10:04:13Z</time>
      </trkpt>
      <trkpt lat="45.93631" lon="4.72289">
        <ele>172</ele>
        <time>2018-06-19T10:04:14Z</time>
      </trkpt>
      <trkpt lat="45.93627" lon="4.72286">
        <ele>172</ele>
        <time>2018-06-19T10:04:15Z</time>
      </trkpt>
      <trkpt lat="45.93622" lon="4.72277">
        <ele>172</ele>
        <time>2018-06-19T10:04:17Z</time>
      </trkpt>
      <trkpt lat="45.93618" lon="4.72275">
        <ele>172</ele>
        <time>2018-06-19T10:04:18Z</time>
      </trkpt>
      <trkpt lat="45.93614" lon="4.72272">
        <ele>172</ele>
        <time>2018-06-19T10:04:19Z</time>
      </trkpt>
      <trkpt lat="45.9361" lon="4.72268">
        <ele>172</ele>
        <time>2018-06-19T10:04:20Z</time>
      </trkpt>
      <trkpt lat="45.93605" lon="4.72262">
        <ele>173</ele>
        <time>2018-06-19T10:04:22Z</time>
      </trkpt>
      <trkpt lat="45.93599" lon="4.72257">
        <ele>173</ele>
        <time>2018-06-19T10:04:23Z</time>
      </trkpt>
      <trkpt lat="45.93591" lon="4.72251">
        <ele>173</ele>
        <time>2018-06-19T10:04:25Z</time>
      </trkpt>
      <trkpt lat="45.93588" lon="4.72246">
        <ele>173</ele>
        <time>2018-06-19T10:04:26Z</time>
      </trkpt>
      <trkpt lat="45.93582" lon="4.72239">
        <ele>173</ele>
        <time>2018-06-19T10:04:28Z</time>
      </trkpt>
      <trkpt lat="45.9358" lon="4.72236">
        <ele>173</ele>
        <time>2018-06-19T10:04:29Z</time>
      </trkpt>
      <trkpt lat="45.93573" lon="4.72229">
        <ele>173</ele>
        <time>2018-06-19T10:04:31Z</time>
      </trkpt>
      <trkpt lat="45.93572" lon="4.72228">
        <ele>173</ele>
        <time>2018-06-19T10:04:32Z</time>
      </trkpt>
      <trkpt lat="45.93566" lon="4.72222">
        <ele>173</ele>
        <time>2018-06-19T10:04:35Z</time>
      </trkpt>
      <trkpt lat="45.93564" lon="4.72221">
        <ele>173</ele>
        <time>2018-06-19T10:04:36Z</time>
      </trkpt>
      <trkpt lat="45.93556" lon="4.72217">
        <ele>173</ele>
        <time>2018-06-19T10:05:19Z</time>
      </trkpt>
      <trkpt lat="45.93555" lon="4.72217">
        <ele>173</ele>
        <time>2018-06-19T10:05:20Z</time>
      </trkpt>
      <trkpt lat="45.93547" lon="4.72219">
        <ele>172</ele>
        <time>2018-06-19T10:05:25Z</time>
      </trkpt>
      <trkpt lat="45.93545" lon="4.72222">
        <ele>172</ele>
        <time>2018-06-19T10:05:26Z</time>
      </trkpt>
      <trkpt lat="45.9354" lon="4.72233">
        <ele>172</ele>
        <time>2018-06-19T10:05:29Z</time>
      </trkpt>
      <trkpt lat="45.93535" lon="4.72243">
        <ele>172</ele>
        <time>2018-06-19T10:05:30Z</time>
      </trkpt>
      <trkpt lat="45.93532" lon="4.72252">
        <ele>172</ele>
        <time>2018-06-19T10:05:32Z</time>
      </trkpt>
      <trkpt lat="45.93531" lon="4.72257">
        <ele>172</ele>
        <time>2018-06-19T10:05:33Z</time>
      </trkpt>
      <trkpt lat="45.93528" lon="4.72264">
        <ele>172</ele>
        <time>2018-06-19T10:05:34Z</time>
      </trkpt>
      <trkpt lat="45.93526" lon="4.72269">
        <ele>172</ele>
        <time>2018-06-19T10:05:35Z</time>
      </trkpt>
      <trkpt lat="45.93522" lon="4.7228">
        <ele>172</ele>
        <time>2018-06-19T10:05:37Z</time>
      </trkpt>
      <trkpt lat="45.9352" lon="4.72285">
        <ele>172</ele>
        <time>2018-06-19T10:05:38Z</time>
      </trkpt>
      <trkpt lat="45.93517" lon="4.7229">
        <ele>172</ele>
        <time>2018-06-19T10:05:39Z</time>
      </trkpt>
      <trkpt lat="45.93514" lon="4.72295">
        <ele>172</ele>
        <time>2018-06-19T10:05:40Z</time>
      </trkpt>
      <trkpt lat="45.93511" lon="4.723">
        <ele>172</ele>
        <time>2018-06-19T10:05:41Z</time>
      </trkpt>
      <trkpt lat="45.93508" lon="4.72304">
        <ele>173</ele>
        <time>2018-06-19T10:05:42Z</time>
      </trkpt>
      <trkpt lat="45.93503" lon="4.7231">
        <ele>173</ele>
        <time>2018-06-19T10:05:43Z</time>
      </trkpt>
      <trkpt lat="45.93501" lon="4.72316">
        <ele>173</ele>
        <time>2018-06-19T10:05:44Z</time>
      </trkpt>
      <trkpt lat="45.93496" lon="4.72322">
        <ele>173</ele>
        <time>2018-06-19T10:05:45Z</time>
      </trkpt>
      <trkpt lat="45.93492" lon="4.72328">
        <ele>173</ele>
        <time>2018-06-19T10:05:46Z</time>
      </trkpt>
      <trkpt lat="45.93487" lon="4.72334">
        <ele>173</ele>
        <time>2018-06-19T10:05:47Z</time>
      </trkpt>
      <trkpt lat="45.93482" lon="4.7234">
        <ele>173</ele>
        <time>2018-06-19T10:05:48Z</time>
      </trkpt>
      <trkpt lat="45.93478" lon="4.72346">
        <ele>173</ele>
        <time>2018-06-19T10:05:49Z</time>
      </trkpt>
      <trkpt lat="45.93474" lon="4.72351">
        <ele>173</ele>
        <time>2018-06-19T10:05:50Z</time>
      </trkpt>
      <trkpt lat="45.9347" lon="4.72357">
        <ele>173</ele>
        <time>2018-06-19T10:05:51Z</time>
      </trkpt>
      <trkpt lat="45.93466" lon="4.72363">
        <ele>173</ele>
        <time>2018-06-19T10:05:52Z</time>
      </trkpt>
      <trkpt lat="45.93462" lon="4.72367">
        <ele>173</ele>
        <time>2018-06-19T10:05:53Z</time>
      </trkpt>
      <trkpt lat="45.93458" lon="4.72374">
        <ele>173</ele>
        <time>2018-06-19T10:05:54Z</time>
      </trkpt>
      <trkpt lat="45.93453" lon="4.72378">
        <ele>173</ele>
        <time>2018-06-19T10:05:55Z</time>
      </trkpt>
      <trkpt lat="45.93449" lon="4.7238">
        <ele>173</ele>
        <time>2018-06-19T10:05:56Z</time>
      </trkpt>
      <trkpt lat="45.93444" lon="4.72385">
        <ele>173</ele>
        <time>2018-06-19T10:05:57Z</time>
      </trkpt>
      <trkpt lat="45.9344" lon="4.7239">
        <ele>173</ele>
        <time>2018-06-19T10:05:58Z</time>
      </trkpt>
      <trkpt lat="45.93436" lon="4.72395">
        <ele>173</ele>
        <time>2018-06-19T10:05:59Z</time>
      </trkpt>
      <trkpt lat="45.93431" lon="4.72399">
        <ele>174</ele>
        <time>2018-06-19T10:06:00Z</time>
      </trkpt>
      <trkpt lat="45.93425" lon="4.72399">
        <ele>174</ele>
        <time>2018-06-19T10:06:01Z</time>
      </trkpt>
      <trkpt lat="45.93419" lon="4.72402">
        <ele>174</ele>
        <time>2018-06-19T10:06:02Z</time>
      </trkpt>
      <trkpt lat="45.93415" lon="4.72404">
        <ele>174</ele>
        <time>2018-06-19T10:06:03Z</time>
      </trkpt>
      <trkpt lat="45.9341" lon="4.72404">
        <ele>174</ele>
        <time>2018-06-19T10:06:04Z</time>
      </trkpt>
      <trkpt lat="45.93404" lon="4.72403">
        <ele>174</ele>
        <time>2018-06-19T10:06:05Z</time>
      </trkpt>
      <trkpt lat="45.93399" lon="4.72403">
        <ele>174</ele>
        <time>2018-06-19T10:06:06Z</time>
      </trkpt>
      <trkpt lat="45.93394" lon="4.72403">
        <ele>174</ele>
        <time>2018-06-19T10:06:07Z</time>
      </trkpt>
      <trkpt lat="45.93389" lon="4.72404">
        <ele>174</ele>
        <time>2018-06-19T10:06:08Z</time>
      </trkpt>
      <trkpt lat="45.93384" lon="4.72408">
        <ele>174</ele>
        <time>2018-06-19T10:06:09Z</time>
      </trkpt>
      <trkpt lat="45.9338" lon="4.72415">
        <ele>174</ele>
        <time>2018-06-19T10:06:10Z</time>
      </trkpt>
      <trkpt lat="45.93381" lon="4.72421">
        <ele>173</ele>
        <time>2018-06-19T10:06:11Z</time>
      </trkpt>
      <trkpt lat="45.93382" lon="4.72429">
        <ele>173</ele>
        <time>2018-06-19T10:06:12Z</time>
      </trkpt>
      <trkpt lat="45.93385" lon="4.72436">
        <ele>173</ele>
        <time>2018-06-19T10:06:13Z</time>
      </trkpt>
      <trkpt lat="45.93387" lon="4.72443">
        <ele>173</ele>
        <time>2018-06-19T10:06:14Z</time>
      </trkpt>
      <trkpt lat="45.93388" lon="4.7245">
        <ele>173</ele>
        <time>2018-06-19T10:06:15Z</time>
      </trkpt>
      <trkpt lat="45.93387" lon="4.72456">
        <ele>173</ele>
        <time>2018-06-19T10:06:16Z</time>
      </trkpt>
      <trkpt lat="45.93386" lon="4.72463">
        <ele>173</ele>
        <time>2018-06-19T10:06:17Z</time>
      </trkpt>
      <trkpt lat="45.93381" lon="4.72467">
        <ele>173</ele>
        <time>2018-06-19T10:06:18Z</time>
      </trkpt>
      <trkpt lat="45.93377" lon="4.72472">
        <ele>173</ele>
        <time>2018-06-19T10:06:19Z</time>
      </trkpt>
      <trkpt lat="45.93374" lon="4.72476">
        <ele>173</ele>
        <time>2018-06-19T10:06:20Z</time>
      </trkpt>
      <trkpt lat="45.93369" lon="4.72481">
        <ele>173</ele>
        <time>2018-06-19T10:06:21Z</time>
      </trkpt>
      <trkpt lat="45.93364" lon="4.72486">
        <ele>173</ele>
        <time>2018-06-19T10:06:22Z</time>
      </trkpt>
      <trkpt lat="45.93359" lon="4.72492">
        <ele>173</ele>
        <time>2018-06-19T10:06:23Z</time>
      </trkpt>
      <trkpt lat="45.93355" lon="4.72497">
        <ele>173</ele>
        <time>2018-06-19T10:06:24Z</time>
      </trkpt>
      <trkpt lat="45.9335" lon="4.72502">
        <ele>172</ele>
        <time>2018-06-19T10:06:25Z</time>
      </trkpt>
      <trkpt lat="45.93345" lon="4.72506">
        <ele>172</ele>
        <time>2018-06-19T10:06:26Z</time>
      </trkpt>
      <trkpt lat="45.93341" lon="4.72511">
        <ele>172</ele>
        <time>2018-06-19T10:06:27Z</time>
      </trkpt>
      <trkpt lat="45.93337" lon="4.72517">
        <ele>172</ele>
        <time>2018-06-19T10:06:28Z</time>
      </trkpt>
      <trkpt lat="45.93332" lon="4.72523">
        <ele>172</ele>
        <time>2018-06-19T10:06:29Z</time>
      </trkpt>
      <trkpt lat="45.93328" lon="4.72528">
        <ele>172</ele>
        <time>2018-06-19T10:06:30Z</time>
      </trkpt>
      <trkpt lat="45.93325" lon="4.72533">
        <ele>172</ele>
        <time>2018-06-19T10:06:31Z</time>
      </trkpt>
      <trkpt lat="45.93319" lon="4.72539">
        <ele>172</ele>
        <time>2018-06-19T10:06:32Z</time>
      </trkpt>
      <trkpt lat="45.93312" lon="4.72543">
        <ele>172</ele>
        <time>2018-06-19T10:06:33Z</time>
      </trkpt>
      <trkpt lat="45.9331" lon="4.72549">
        <ele>172</ele>
        <time>2018-06-19T10:06:34Z</time>
      </trkpt>
      <trkpt lat="45.93306" lon="4.72552">
        <ele>172</ele>
        <time>2018-06-19T10:06:35Z</time>
      </trkpt>
      <trkpt lat="45.93301" lon="4.72558">
        <ele>172</ele>
        <time>2018-06-19T10:06:36Z</time>
      </trkpt>
      <trkpt lat="45.93295" lon="4.72565">
        <ele>172</ele>
        <time>2018-06-19T10:06:37Z</time>
      </trkpt>
      <trkpt lat="45.93289" lon="4.72571">
        <ele>172</ele>
        <time>2018-06-19T10:06:38Z</time>
      </trkpt>
      <trkpt lat="45.93286" lon="4.72575">
        <ele>172</ele>
        <time>2018-06-19T10:06:39Z</time>
      </trkpt>
      <trkpt lat="45.93281" lon="4.7258">
        <ele>172</ele>
        <time>2018-06-19T10:06:40Z</time>
      </trkpt>
      <trkpt lat="45.93277" lon="4.72585">
        <ele>170</ele>
        <time>2018-06-19T10:06:41Z</time>
      </trkpt>
      <trkpt lat="45.93272" lon="4.7259">
        <ele>170</ele>
        <time>2018-06-19T10:06:42Z</time>
      </trkpt>
      <trkpt lat="45.93268" lon="4.72596">
        <ele>170</ele>
        <time>2018-06-19T10:06:43Z</time>
      </trkpt>
      <trkpt lat="45.93264" lon="4.72601">
        <ele>170</ele>
        <time>2018-06-19T10:06:44Z</time>
      </trkpt>
      <trkpt lat="45.9326" lon="4.72607">
        <ele>170</ele>
        <time>2018-06-19T10:06:45Z</time>
      </trkpt>
      <trkpt lat="45.93254" lon="4.72613">
        <ele>170</ele>
        <time>2018-06-19T10:06:46Z</time>
      </trkpt>
      <trkpt lat="45.93251" lon="4.72618">
        <ele>170</ele>
        <time>2018-06-19T10:06:47Z</time>
      </trkpt>
      <trkpt lat="45.93245" lon="4.72627">
        <ele>170</ele>
        <time>2018-06-19T10:06:48Z</time>
      </trkpt>
      <trkpt lat="45.93241" lon="4.72632">
        <ele>170</ele>
        <time>2018-06-19T10:06:49Z</time>
      </trkpt>
      <trkpt lat="45.93237" lon="4.72636">
        <ele>170</ele>
        <time>2018-06-19T10:06:50Z</time>
      </trkpt>
      <trkpt lat="45.93233" lon="4.72641">
        <ele>170</ele>
        <time>2018-06-19T10:06:51Z</time>
      </trkpt>
      <trkpt lat="45.93229" lon="4.72646">
        <ele>170</ele>
        <time>2018-06-19T10:06:52Z</time>
      </trkpt>
      <trkpt lat="45.93222" lon="4.72654">
        <ele>170</ele>
        <time>2018-06-19T10:06:54Z</time>
      </trkpt>
      <trkpt lat="45.93219" lon="4.72661">
        <ele>170</ele>
        <time>2018-06-19T10:06:55Z</time>
      </trkpt>
      <trkpt lat="45.93214" lon="4.72666">
        <ele>170</ele>
        <time>2018-06-19T10:06:56Z</time>
      </trkpt>
      <trkpt lat="45.93209" lon="4.7267">
        <ele>169</ele>
        <time>2018-06-19T10:06:57Z</time>
      </trkpt>
      <trkpt lat="45.93206" lon="4.72675">
        <ele>169</ele>
        <time>2018-06-19T10:06:58Z</time>
      </trkpt>
      <trkpt lat="45.93203" lon="4.7268">
        <ele>169</ele>
        <time>2018-06-19T10:06:59Z</time>
      </trkpt>
      <trkpt lat="45.93199" lon="4.72684">
        <ele>169</ele>
        <time>2018-06-19T10:07:00Z</time>
      </trkpt>
      <trkpt lat="45.93195" lon="4.72689">
        <ele>169</ele>
        <time>2018-06-19T10:07:01Z</time>
      </trkpt>
      <trkpt lat="45.93189" lon="4.72695">
        <ele>169</ele>
        <time>2018-06-19T10:07:02Z</time>
      </trkpt>
      <trkpt lat="45.93186" lon="4.72698">
        <ele>169</ele>
        <time>2018-06-19T10:07:03Z</time>
      </trkpt>
      <trkpt lat="45.93182" lon="4.72702">
        <ele>169</ele>
        <time>2018-06-19T10:07:04Z</time>
      </trkpt>
      <trkpt lat="45.93178" lon="4.72707">
        <ele>169</ele>
        <time>2018-06-19T10:07:05Z</time>
      </trkpt>
      <trkpt lat="45.93173" lon="4.72713">
        <ele>170</ele>
        <time>2018-06-19T10:07:06Z</time>
      </trkpt>
      <trkpt lat="45.93169" lon="4.7272">
        <ele>170</ele>
        <time>2018-06-19T10:07:07Z</time>
      </trkpt>
      <trkpt lat="45.93164" lon="4.72725">
        <ele>170</ele>
        <time>2018-06-19T10:07:08Z</time>
      </trkpt>
      <trkpt lat="45.93159" lon="4.7273">
        <ele>170</ele>
        <time>2018-06-19T10:07:09Z</time>
      </trkpt>
      <trkpt lat="45.93154" lon="4.72735">
        <ele>170</ele>
        <time>2018-06-19T10:07:10Z</time>
      </trkpt>
      <trkpt lat="45.93149" lon="4.72741">
        <ele>170</ele>
        <time>2018-06-19T10:07:11Z</time>
      </trkpt>
      <trkpt lat="45.93143" lon="4.72746">
        <ele>170</ele>
        <time>2018-06-19T10:07:12Z</time>
      </trkpt>
      <trkpt lat="45.93138" lon="4.72751">
        <ele>171</ele>
        <time>2018-06-19T10:07:13Z</time>
      </trkpt>
      <trkpt lat="45.93133" lon="4.72757">
        <ele>171</ele>
        <time>2018-06-19T10:07:14Z</time>
      </trkpt>
      <trkpt lat="45.93128" lon="4.72762">
        <ele>171</ele>
        <time>2018-06-19T10:07:15Z</time>
      </trkpt>
      <trkpt lat="45.93124" lon="4.72768">
        <ele>171</ele>
        <time>2018-06-19T10:07:16Z</time>
      </trkpt>
      <trkpt lat="45.93119" lon="4.72774">
        <ele>171</ele>
        <time>2018-06-19T10:07:17Z</time>
      </trkpt>
      <trkpt lat="45.93115" lon="4.7278">
        <ele>171</ele>
        <time>2018-06-19T10:07:18Z</time>
      </trkpt>
      <trkpt lat="45.9311" lon="4.72786">
        <ele>171</ele>
        <time>2018-06-19T10:07:19Z</time>
      </trkpt>
      <trkpt lat="45.93106" lon="4.72791">
        <ele>171</ele>
        <time>2018-06-19T10:07:20Z</time>
      </trkpt>
      <trkpt lat="45.93102" lon="4.72796">
        <ele>171</ele>
        <time>2018-06-19T10:07:21Z</time>
      </trkpt>
      <trkpt lat="45.93097" lon="4.72801">
        <ele>171</ele>
        <time>2018-06-19T10:07:22Z</time>
      </trkpt>
      <trkpt lat="45.93092" lon="4.72808">
        <ele>172</ele>
        <time>2018-06-19T10:07:23Z</time>
      </trkpt>
      <trkpt lat="45.93087" lon="4.72812">
        <ele>172</ele>
        <time>2018-06-19T10:07:24Z</time>
      </trkpt>
      <trkpt lat="45.93082" lon="4.72817">
        <ele>172</ele>
        <time>2018-06-19T10:07:25Z</time>
      </trkpt>
      <trkpt lat="45.93079" lon="4.72821">
        <ele>173</ele>
        <time>2018-06-19T10:07:26Z</time>
      </trkpt>
      <trkpt lat="45.93075" lon="4.72826">
        <ele>173</ele>
        <time>2018-06-19T10:07:27Z</time>
      </trkpt>
      <trkpt lat="45.9307" lon="4.7283">
        <ele>173</ele>
        <time>2018-06-19T10:07:28Z</time>
      </trkpt>
      <trkpt lat="45.93066" lon="4.72834">
        <ele>173</ele>
        <time>2018-06-19T10:07:29Z</time>
      </trkpt>
      <trkpt lat="45.93058" lon="4.72841">
        <ele>172</ele>
        <time>2018-06-19T10:07:31Z</time>
      </trkpt>
      <trkpt lat="45.93058" lon="4.72841">
        <ele>172</ele>
        <time>2018-06-19T10:07:32Z</time>
      </trkpt>
      <trkpt lat="45.93054" lon="4.72846">
        <ele>172</ele>
        <time>2018-06-19T10:07:33Z</time>
      </trkpt>
      <trkpt lat="45.93051" lon="4.72855">
        <ele>172</ele>
        <time>2018-06-19T10:07:34Z</time>
      </trkpt>
      <trkpt lat="45.93047" lon="4.72856">
        <ele>172</ele>
        <time>2018-06-19T10:07:35Z</time>
      </trkpt>
      <trkpt lat="45.93043" lon="4.72863">
        <ele>172</ele>
        <time>2018-06-19T10:07:36Z</time>
      </trkpt>
      <trkpt lat="45.93037" lon="4.72871">
        <ele>172</ele>
        <time>2018-06-19T10:07:37Z</time>
      </trkpt>
      <trkpt lat="45.9303" lon="4.72882">
        <ele>172</ele>
        <time>2018-06-19T10:07:38Z</time>
      </trkpt>
      <trkpt lat="45.93025" lon="4.72888">
        <ele>172</ele>
        <time>2018-06-19T10:07:39Z</time>
      </trkpt>
      <trkpt lat="45.93021" lon="4.72893">
        <ele>172</ele>
        <time>2018-06-19T10:07:40Z</time>
      </trkpt>
      <trkpt lat="45.93016" lon="4.72899">
        <ele>172</ele>
        <time>2018-06-19T10:07:41Z</time>
      </trkpt>
      <trkpt lat="45.93012" lon="4.72904">
        <ele>171</ele>
        <time>2018-06-19T10:07:42Z</time>
      </trkpt>
      <trkpt lat="45.93008" lon="4.72909">
        <ele>171</ele>
        <time>2018-06-19T10:07:43Z</time>
      </trkpt>
      <trkpt lat="45.93004" lon="4.72913">
        <ele>171</ele>
        <time>2018-06-19T10:07:44Z</time>
      </trkpt>
      <trkpt lat="45.93001" lon="4.72917">
        <ele>171</ele>
        <time>2018-06-19T10:07:45Z</time>
      </trkpt>
      <trkpt lat="45.92997" lon="4.72922">
        <ele>171</ele>
        <time>2018-06-19T10:07:46Z</time>
      </trkpt>
      <trkpt lat="45.92992" lon="4.72927">
        <ele>171</ele>
        <time>2018-06-19T10:07:47Z</time>
      </trkpt>
      <trkpt lat="45.92987" lon="4.7293">
        <ele>171</ele>
        <time>2018-06-19T10:07:48Z</time>
      </trkpt>
      <trkpt lat="45.92984" lon="4.72935">
        <ele>171</ele>
        <time>2018-06-19T10:07:49Z</time>
      </trkpt>
      <trkpt lat="45.92979" lon="4.7294">
        <ele>171</ele>
        <time>2018-06-19T10:07:50Z</time>
      </trkpt>
      <trkpt lat="45.92975" lon="4.72945">
        <ele>171</ele>
        <time>2018-06-19T10:07:51Z</time>
      </trkpt>
      <trkpt lat="45.9297" lon="4.7295">
        <ele>171</ele>
        <time>2018-06-19T10:07:52Z</time>
      </trkpt>
      <trkpt lat="45.92966" lon="4.72955">
        <ele>171</ele>
        <time>2018-06-19T10:07:53Z</time>
      </trkpt>
      <trkpt lat="45.92961" lon="4.72961">
        <ele>171</ele>
        <time>2018-06-19T10:07:54Z</time>
      </trkpt>
      <trkpt lat="45.92956" lon="4.72966">
        <ele>171</ele>
        <time>2018-06-19T10:07:55Z</time>
      </trkpt>
      <trkpt lat="45.92951" lon="4.72972">
        <ele>171</ele>
        <time>2018-06-19T10:07:56Z</time>
      </trkpt>
      <trkpt lat="45.92947" lon="4.72976">
        <ele>171</ele>
        <time>2018-06-19T10:07:57Z</time>
      </trkpt>
      <trkpt lat="45.92944" lon="4.7298">
        <ele>171</ele>
        <time>2018-06-19T10:07:58Z</time>
      </trkpt>
      <trkpt lat="45.9294" lon="4.72985">
        <ele>171</ele>
        <time>2018-06-19T10:07:59Z</time>
      </trkpt>
      <trkpt lat="45.92936" lon="4.7299">
        <ele>171</ele>
        <time>2018-06-19T10:08:00Z</time>
      </trkpt>
      <trkpt lat="45.92932" lon="4.72995">
        <ele>172</ele>
        <time>2018-06-19T10:08:01Z</time>
      </trkpt>
      <trkpt lat="45.92928" lon="4.73">
        <ele>172</ele>
        <time>2018-06-19T10:08:02Z</time>
      </trkpt>
      <trkpt lat="45.92924" lon="4.73004">
        <ele>172</ele>
        <time>2018-06-19T10:08:03Z</time>
      </trkpt>
      <trkpt lat="45.9292" lon="4.73008">
        <ele>172</ele>
        <time>2018-06-19T10:08:04Z</time>
      </trkpt>
      <trkpt lat="45.92918" lon="4.73015">
        <ele>172</ele>
        <time>2018-06-19T10:08:05Z</time>
      </trkpt>
      <trkpt lat="45.92914" lon="4.7302">
        <ele>172</ele>
        <time>2018-06-19T10:08:06Z</time>
      </trkpt>
      <trkpt lat="45.92911" lon="4.73026">
        <ele>172</ele>
        <time>2018-06-19T10:08:07Z</time>
      </trkpt>
      <trkpt lat="45.92907" lon="4.73031">
        <ele>172</ele>
        <time>2018-06-19T10:08:08Z</time>
      </trkpt>
      <trkpt lat="45.92903" lon="4.73036">
        <ele>172</ele>
        <time>2018-06-19T10:08:09Z</time>
      </trkpt>
      <trkpt lat="45.92899" lon="4.7304">
        <ele>172</ele>
        <time>2018-06-19T10:08:10Z</time>
      </trkpt>
      <trkpt lat="45.92895" lon="4.73046">
        <ele>172</ele>
        <time>2018-06-19T10:08:11Z</time>
      </trkpt>
      <trkpt lat="45.92891" lon="4.73052">
        <ele>172</ele>
        <time>2018-06-19T10:08:12Z</time>
      </trkpt>
      <trkpt lat="45.92887" lon="4.73058">
        <ele>172</ele>
        <time>2018-06-19T10:08:13Z</time>
      </trkpt>
      <trkpt lat="45.92884" lon="4.73064">
        <ele>172</ele>
        <time>2018-06-19T10:08:14Z</time>
      </trkpt>
      <trkpt lat="45.9288" lon="4.73069">
        <ele>172</ele>
        <time>2018-06-19T10:08:15Z</time>
      </trkpt>
      <trkpt lat="45.92876" lon="4.73074">
        <ele>172</ele>
        <time>2018-06-19T10:08:16Z</time>
      </trkpt>
      <trkpt lat="45.92872" lon="4.7308">
        <ele>172</ele>
        <time>2018-06-19T10:08:17Z</time>
      </trkpt>
      <trkpt lat="45.92867" lon="4.73085">
        <ele>172</ele>
        <time>2018-06-19T10:08:18Z</time>
      </trkpt>
      <trkpt lat="45.92863" lon="4.73089">
        <ele>171</ele>
        <time>2018-06-19T10:08:19Z</time>
      </trkpt>
      <trkpt lat="45.92859" lon="4.73094">
        <ele>171</ele>
        <time>2018-06-19T10:08:20Z</time>
      </trkpt>
      <trkpt lat="45.92852" lon="4.731">
        <ele>171</ele>
        <time>2018-06-19T10:08:23Z</time>
      </trkpt>
      <trkpt lat="45.9285" lon="4.73098">
        <ele>171</ele>
        <time>2018-06-19T10:08:24Z</time>
      </trkpt>
      <trkpt lat="45.92845" lon="4.73088">
        <ele>171</ele>
        <time>2018-06-19T10:08:26Z</time>
      </trkpt>
      <trkpt lat="45.92845" lon="4.73081">
        <ele>171</ele>
        <time>2018-06-19T10:08:27Z</time>
      </trkpt>
      <trkpt lat="45.92844" lon="4.73075">
        <ele>171</ele>
        <time>2018-06-19T10:08:28Z</time>
      </trkpt>
      <trkpt lat="45.92844" lon="4.73068">
        <ele>171</ele>
        <time>2018-06-19T10:08:29Z</time>
      </trkpt>
      <trkpt lat="45.92842" lon="4.73062">
        <ele>171</ele>
        <time>2018-06-19T10:08:30Z</time>
      </trkpt>
      <trkpt lat="45.92841" lon="4.73055">
        <ele>171</ele>
        <time>2018-06-19T10:08:31Z</time>
      </trkpt>
      <trkpt lat="45.9284" lon="4.73048">
        <ele>171</ele>
        <time>2018-06-19T10:08:32Z</time>
      </trkpt>
      <trkpt lat="45.92838" lon="4.73041">
        <ele>171</ele>
        <time>2018-06-19T10:08:33Z</time>
      </trkpt>
      <trkpt lat="45.92837" lon="4.73035">
        <ele>171</ele>
        <time>2018-06-19T10:08:34Z</time>
      </trkpt>
      <trkpt lat="45.92836" lon="4.73028">
        <ele>171</ele>
        <time>2018-06-19T10:08:35Z</time>
      </trkpt>
      <trkpt lat="45.92834" lon="4.73021">
        <ele>171</ele>
        <time>2018-06-19T10:08:36Z</time>
      </trkpt>
      <trkpt lat="45.92833" lon="4.73015">
        <ele>170</ele>
        <time>2018-06-19T10:08:37Z</time>
      </trkpt>
      <trkpt lat="45.9283" lon="4.73008">
        <ele>170</ele>
        <time>2018-06-19T10:08:38Z</time>
      </trkpt>
      <trkpt lat="45.9283" lon="4.73002">
        <ele>170</ele>
        <time>2018-06-19T10:08:39Z</time>
      </trkpt>
      <trkpt lat="45.92829" lon="4.72995">
        <ele>170</ele>
        <time>2018-06-19T10:08:40Z</time>
      </trkpt>
      <trkpt lat="45.92828" lon="4.72987">
        <ele>170</ele>
        <time>2018-06-19T10:08:41Z</time>
      </trkpt>
      <trkpt lat="45.92827" lon="4.72979">
        <ele>170</ele>
        <time>2018-06-19T10:08:42Z</time>
      </trkpt>
      <trkpt lat="45.92826" lon="4.72972">
        <ele>170</ele>
        <time>2018-06-19T10:08:43Z</time>
      </trkpt>
      <trkpt lat="45.92825" lon="4.72964">
        <ele>170</ele>
        <time>2018-06-19T10:08:44Z</time>
      </trkpt>
      <trkpt lat="45.92824" lon="4.72956">
        <ele>170</ele>
        <time>2018-06-19T10:08:45Z</time>
      </trkpt>
      <trkpt lat="45.92824" lon="4.72947">
        <ele>170</ele>
        <time>2018-06-19T10:08:46Z</time>
      </trkpt>
      <trkpt lat="45.92823" lon="4.7294">
        <ele>170</ele>
        <time>2018-06-19T10:08:47Z</time>
      </trkpt>
      <trkpt lat="45.92822" lon="4.72933">
        <ele>170</ele>
        <time>2018-06-19T10:08:48Z</time>
      </trkpt>
      <trkpt lat="45.9282" lon="4.72926">
        <ele>170</ele>
        <time>2018-06-19T10:08:49Z</time>
      </trkpt>
      <trkpt lat="45.92819" lon="4.72918">
        <ele>170</ele>
        <time>2018-06-19T10:08:50Z</time>
      </trkpt>
      <trkpt lat="45.92817" lon="4.72911">
        <ele>170</ele>
        <time>2018-06-19T10:08:51Z</time>
      </trkpt>
      <trkpt lat="45.92817" lon="4.72903">
        <ele>170</ele>
        <time>2018-06-19T10:08:52Z</time>
      </trkpt>
      <trkpt lat="45.92815" lon="4.72896">
        <ele>170</ele>
        <time>2018-06-19T10:08:53Z</time>
      </trkpt>
      <trkpt lat="45.92814" lon="4.72889">
        <ele>170</ele>
        <time>2018-06-19T10:08:54Z</time>
      </trkpt>
      <trkpt lat="45.92813" lon="4.72881">
        <ele>170</ele>
        <time>2018-06-19T10:08:55Z</time>
      </trkpt>
      <trkpt lat="45.92812" lon="4.72874">
        <ele>170</ele>
        <time>2018-06-19T10:08:56Z</time>
      </trkpt>
      <trkpt lat="45.92811" lon="4.72868">
        <ele>170</ele>
        <time>2018-06-19T10:08:57Z</time>
      </trkpt>
      <trkpt lat="45.9281" lon="4.72862">
        <ele>170</ele>
        <time>2018-06-19T10:08:58Z</time>
      </trkpt>
      <trkpt lat="45.92809" lon="4.72854">
        <ele>170</ele>
        <time>2018-06-19T10:08:59Z</time>
      </trkpt>
      <trkpt lat="45.92807" lon="4.72848">
        <ele>170</ele>
        <time>2018-06-19T10:09:00Z</time>
      </trkpt>
      <trkpt lat="45.92806" lon="4.72841">
        <ele>170</ele>
        <time>2018-06-19T10:09:01Z</time>
      </trkpt>
      <trkpt lat="45.92804" lon="4.72834">
        <ele>170</ele>
        <time>2018-06-19T10:09:02Z</time>
      </trkpt>
      <trkpt lat="45.92804" lon="4.72827">
        <ele>170</ele>
        <time>2018-06-19T10:09:03Z</time>
      </trkpt>
      <trkpt lat="45.92802" lon="4.72819">
        <ele>170</ele>
        <time>2018-06-19T10:09:04Z</time>
      </trkpt>
      <trkpt lat="45.92801" lon="4.72812">
        <ele>170</ele>
        <time>2018-06-19T10:09:05Z</time>
      </trkpt>
      <trkpt lat="45.928" lon="4.72805">
        <ele>170</ele>
        <time>2018-06-19T10:09:06Z</time>
      </trkpt>
      <trkpt lat="45.928" lon="4.72798">
        <ele>171</ele>
        <time>2018-06-19T10:09:07Z</time>
      </trkpt>
      <trkpt lat="45.92796" lon="4.72787">
        <ele>171</ele>
        <time>2018-06-19T10:09:09Z</time>
      </trkpt>
      <trkpt lat="45.92792" lon="4.72785">
        <ele>171</ele>
        <time>2018-06-19T10:09:10Z</time>
      </trkpt>
      <trkpt lat="45.92787" lon="4.72792">
        <ele>170</ele>
        <time>2018-06-19T10:09:13Z</time>
      </trkpt>
      <trkpt lat="45.92783" lon="4.72795">
        <ele>170</ele>
        <time>2018-06-19T10:09:14Z</time>
      </trkpt>
      <trkpt lat="45.92778" lon="4.72798">
        <ele>170</ele>
        <time>2018-06-19T10:09:15Z</time>
      </trkpt>
      <trkpt lat="45.92773" lon="4.72801">
        <ele>170</ele>
        <time>2018-06-19T10:09:16Z</time>
      </trkpt>
      <trkpt lat="45.92769" lon="4.72805">
        <ele>170</ele>
        <time>2018-06-19T10:09:17Z</time>
      </trkpt>
      <trkpt lat="45.92764" lon="4.72807">
        <ele>170</ele>
        <time>2018-06-19T10:09:18Z</time>
      </trkpt>
      <trkpt lat="45.92759" lon="4.72811">
        <ele>170</ele>
        <time>2018-06-19T10:09:19Z</time>
      </trkpt>
      <trkpt lat="45.92755" lon="4.72815">
        <ele>170</ele>
        <time>2018-06-19T10:09:20Z</time>
      </trkpt>
      <trkpt lat="45.9275" lon="4.72819">
        <ele>170</ele>
        <time>2018-06-19T10:09:21Z</time>
      </trkpt>
      <trkpt lat="45.92745" lon="4.72822">
        <ele>169</ele>
        <time>2018-06-19T10:09:22Z</time>
      </trkpt>
      <trkpt lat="45.9274" lon="4.72826">
        <ele>169</ele>
        <time>2018-06-19T10:09:23Z</time>
      </trkpt>
      <trkpt lat="45.92735" lon="4.7283">
        <ele>169</ele>
        <time>2018-06-19T10:09:24Z</time>
      </trkpt>
      <trkpt lat="45.92731" lon="4.72836">
        <ele>169</ele>
        <time>2018-06-19T10:09:25Z</time>
      </trkpt>
      <trkpt lat="45.92725" lon="4.7284">
        <ele>169</ele>
        <time>2018-06-19T10:09:26Z</time>
      </trkpt>
      <trkpt lat="45.92719" lon="4.72844">
        <ele>169</ele>
        <time>2018-06-19T10:09:27Z</time>
      </trkpt>
      <trkpt lat="45.92713" lon="4.72847">
        <ele>169</ele>
        <time>2018-06-19T10:09:28Z</time>
      </trkpt>
      <trkpt lat="45.92707" lon="4.72852">
        <ele>169</ele>
        <time>2018-06-19T10:09:29Z</time>
      </trkpt>
      <trkpt lat="45.92702" lon="4.72856">
        <ele>169</ele>
        <time>2018-06-19T10:09:30Z</time>
      </trkpt>
      <trkpt lat="45.92697" lon="4.72861">
        <ele>169</ele>
        <time>2018-06-19T10:09:31Z</time>
      </trkpt>
      <trkpt lat="45.92691" lon="4.72865">
        <ele>169</ele>
        <time>2018-06-19T10:09:32Z</time>
      </trkpt>
      <trkpt lat="45.92685" lon="4.7287">
        <ele>169</ele>
        <time>2018-06-19T10:09:33Z</time>
      </trkpt>
      <trkpt lat="45.9268" lon="4.72874">
        <ele>169</ele>
        <time>2018-06-19T10:09:34Z</time>
      </trkpt>
      <trkpt lat="45.92674" lon="4.72879">
        <ele>170</ele>
        <time>2018-06-19T10:09:35Z</time>
      </trkpt>
      <trkpt lat="45.92667" lon="4.72884">
        <ele>170</ele>
        <time>2018-06-19T10:09:36Z</time>
      </trkpt>
      <trkpt lat="45.92663" lon="4.72889">
        <ele>169</ele>
        <time>2018-06-19T10:09:37Z</time>
      </trkpt>
      <trkpt lat="45.92657" lon="4.72893">
        <ele>169</ele>
        <time>2018-06-19T10:09:38Z</time>
      </trkpt>
      <trkpt lat="45.92652" lon="4.72898">
        <ele>170</ele>
        <time>2018-06-19T10:09:39Z</time>
      </trkpt>
      <trkpt lat="45.92646" lon="4.72902">
        <ele>169</ele>
        <time>2018-06-19T10:09:40Z</time>
      </trkpt>
      <trkpt lat="45.9264" lon="4.72907">
        <ele>169</ele>
        <time>2018-06-19T10:09:41Z</time>
      </trkpt>
      <trkpt lat="45.92634" lon="4.72911">
        <ele>169</ele>
        <time>2018-06-19T10:09:42Z</time>
      </trkpt>
      <trkpt lat="45.92628" lon="4.72915">
        <ele>169</ele>
        <time>2018-06-19T10:09:43Z</time>
      </trkpt>
      <trkpt lat="45.92622" lon="4.72919">
        <ele>169</ele>
        <time>2018-06-19T10:09:44Z</time>
      </trkpt>
      <trkpt lat="45.92616" lon="4.72924">
        <ele>169</ele>
        <time>2018-06-19T10:09:45Z</time>
      </trkpt>
      <trkpt lat="45.92611" lon="4.7293">
        <ele>169</ele>
        <time>2018-06-19T10:09:46Z</time>
      </trkpt>
      <trkpt lat="45.92606" lon="4.72935">
        <ele>169</ele>
        <time>2018-06-19T10:09:47Z</time>
      </trkpt>
      <trkpt lat="45.926" lon="4.7294">
        <ele>169</ele>
        <time>2018-06-19T10:09:48Z</time>
      </trkpt>
      <trkpt lat="45.92595" lon="4.72946">
        <ele>169</ele>
        <time>2018-06-19T10:09:49Z</time>
      </trkpt>
      <trkpt lat="45.92589" lon="4.72953">
        <ele>169</ele>
        <time>2018-06-19T10:09:50Z</time>
      </trkpt>
      <trkpt lat="45.92584" lon="4.72961">
        <ele>169</ele>
        <time>2018-06-19T10:09:51Z</time>
      </trkpt>
      <trkpt lat="45.92578" lon="4.72967">
        <ele>169</ele>
        <time>2018-06-19T10:09:52Z</time>
      </trkpt>
      <trkpt lat="45.92574" lon="4.72971">
        <ele>169</ele>
        <time>2018-06-19T10:09:53Z</time>
      </trkpt>
      <trkpt lat="45.92569" lon="4.72977">
        <ele>169</ele>
        <time>2018-06-19T10:09:54Z</time>
      </trkpt>
      <trkpt lat="45.92564" lon="4.72983">
        <ele>169</ele>
        <time>2018-06-19T10:09:55Z</time>
      </trkpt>
      <trkpt lat="45.92558" lon="4.72988">
        <ele>169</ele>
        <time>2018-06-19T10:09:56Z</time>
      </trkpt>
      <trkpt lat="45.92552" lon="4.72994">
        <ele>169</ele>
        <time>2018-06-19T10:09:57Z</time>
      </trkpt>
      <trkpt lat="45.92547" lon="4.72999">
        <ele>169</ele>
        <time>2018-06-19T10:09:58Z</time>
      </trkpt>
      <trkpt lat="45.92542" lon="4.73004">
        <ele>169</ele>
        <time>2018-06-19T10:09:59Z</time>
      </trkpt>
      <trkpt lat="45.92536" lon="4.73008">
        <ele>169</ele>
        <time>2018-06-19T10:10:00Z</time>
      </trkpt>
      <trkpt lat="45.92531" lon="4.73013">
        <ele>169</ele>
        <time>2018-06-19T10:10:01Z</time>
      </trkpt>
      <trkpt lat="45.92525" lon="4.73016">
        <ele>169</ele>
        <time>2018-06-19T10:10:02Z</time>
      </trkpt>
      <trkpt lat="45.92519" lon="4.73021">
        <ele>169</ele>
        <time>2018-06-19T10:10:03Z</time>
      </trkpt>
      <trkpt lat="45.92514" lon="4.73027">
        <ele>169</ele>
        <time>2018-06-19T10:10:04Z</time>
      </trkpt>
      <trkpt lat="45.92508" lon="4.73032">
        <ele>169</ele>
        <time>2018-06-19T10:10:05Z</time>
      </trkpt>
      <trkpt lat="45.92503" lon="4.73037">
        <ele>169</ele>
        <time>2018-06-19T10:10:06Z</time>
      </trkpt>
      <trkpt lat="45.92497" lon="4.73042">
        <ele>170</ele>
        <time>2018-06-19T10:10:07Z</time>
      </trkpt>
      <trkpt lat="45.92491" lon="4.73046">
        <ele>170</ele>
        <time>2018-06-19T10:10:08Z</time>
      </trkpt>
      <trkpt lat="45.92486" lon="4.73051">
        <ele>170</ele>
        <time>2018-06-19T10:10:09Z</time>
      </trkpt>
      <trkpt lat="45.92481" lon="4.73055">
        <ele>170</ele>
        <time>2018-06-19T10:10:10Z</time>
      </trkpt>
      <trkpt lat="45.92476" lon="4.73059">
        <ele>170</ele>
        <time>2018-06-19T10:10:11Z</time>
      </trkpt>
      <trkpt lat="45.9247" lon="4.73062">
        <ele>170</ele>
        <time>2018-06-19T10:10:12Z</time>
      </trkpt>
      <trkpt lat="45.92465" lon="4.73066">
        <ele>170</ele>
        <time>2018-06-19T10:10:13Z</time>
      </trkpt>
      <trkpt lat="45.9246" lon="4.73071">
        <ele>170</ele>
        <time>2018-06-19T10:10:14Z</time>
      </trkpt>
      <trkpt lat="45.92456" lon="4.73075">
        <ele>170</ele>
        <time>2018-06-19T10:10:15Z</time>
      </trkpt>
      <trkpt lat="45.92452" lon="4.73079">
        <ele>170</ele>
        <time>2018-06-19T10:10:16Z</time>
      </trkpt>
      <trkpt lat="45.92449" lon="4.73085">
        <ele>170</ele>
        <time>2018-06-19T10:10:17Z</time>
      </trkpt>
      <trkpt lat="45.92444" lon="4.73089">
        <ele>170</ele>
        <time>2018-06-19T10:10:18Z</time>
      </trkpt>
      <trkpt lat="45.9244" lon="4.73093">
        <ele>170</ele>
        <time>2018-06-19T10:10:19Z</time>
      </trkpt>
      <trkpt lat="45.92437" lon="4.73101">
        <ele>170</ele>
        <time>2018-06-19T10:10:20Z</time>
      </trkpt>
      <trkpt lat="45.92433" lon="4.73105">
        <ele>170</ele>
        <time>2018-06-19T10:10:21Z</time>
      </trkpt>
      <trkpt lat="45.92429" lon="4.73109">
        <ele>170</ele>
        <time>2018-06-19T10:10:22Z</time>
      </trkpt>
      <trkpt lat="45.92425" lon="4.73114">
        <ele>170</ele>
        <time>2018-06-19T10:10:23Z</time>
      </trkpt>
      <trkpt lat="45.9242" lon="4.73118">
        <ele>170</ele>
        <time>2018-06-19T10:10:24Z</time>
      </trkpt>
      <trkpt lat="45.92416" lon="4.73122">
        <ele>171</ele>
        <time>2018-06-19T10:10:25Z</time>
      </trkpt>
      <trkpt lat="45.92413" lon="4.73128">
        <ele>171</ele>
        <time>2018-06-19T10:10:26Z</time>
      </trkpt>
      <trkpt lat="45.92412" lon="4.73135">
        <ele>171</ele>
        <time>2018-06-19T10:10:27Z</time>
      </trkpt>
      <trkpt lat="45.9241" lon="4.7314">
        <ele>171</ele>
        <time>2018-06-19T10:10:28Z</time>
      </trkpt>
      <trkpt lat="45.92409" lon="4.73148">
        <ele>171</ele>
        <time>2018-06-19T10:10:29Z</time>
      </trkpt>
      <trkpt lat="45.92409" lon="4.73154">
        <ele>170</ele>
        <time>2018-06-19T10:10:30Z</time>
      </trkpt>
      <trkpt lat="45.92409" lon="4.73162">
        <ele>170</ele>
        <time>2018-06-19T10:10:31Z</time>
      </trkpt>
      <trkpt lat="45.92409" lon="4.7317">
        <ele>170</ele>
        <time>2018-06-19T10:10:32Z</time>
      </trkpt>
      <trkpt lat="45.92409" lon="4.73177">
        <ele>171</ele>
        <time>2018-06-19T10:10:33Z</time>
      </trkpt>
      <trkpt lat="45.92408" lon="4.73184">
        <ele>171</ele>
        <time>2018-06-19T10:10:34Z</time>
      </trkpt>
      <trkpt lat="45.92409" lon="4.73192">
        <ele>171</ele>
        <time>2018-06-19T10:10:35Z</time>
      </trkpt>
      <trkpt lat="45.9241" lon="4.732">
        <ele>171</ele>
        <time>2018-06-19T10:10:36Z</time>
      </trkpt>
      <trkpt lat="45.9241" lon="4.73208">
        <ele>171</ele>
        <time>2018-06-19T10:10:37Z</time>
      </trkpt>
      <trkpt lat="45.9241" lon="4.73216">
        <ele>171</ele>
        <time>2018-06-19T10:10:38Z</time>
      </trkpt>
      <trkpt lat="45.9241" lon="4.73223">
        <ele>171</ele>
        <time>2018-06-19T10:10:39Z</time>
      </trkpt>
      <trkpt lat="45.92409" lon="4.7323">
        <ele>171</ele>
        <time>2018-06-19T10:10:40Z</time>
      </trkpt>
      <trkpt lat="45.9241" lon="4.73238">
        <ele>171</ele>
        <time>2018-06-19T10:10:41Z</time>
      </trkpt>
      <trkpt lat="45.92409" lon="4.73245">
        <ele>171</ele>
        <time>2018-06-19T10:10:42Z</time>
      </trkpt>
      <trkpt lat="45.9241" lon="4.73253">
        <ele>171</ele>
        <time>2018-06-19T10:10:43Z</time>
      </trkpt>
      <trkpt lat="45.92411" lon="4.73261">
        <ele>171</ele>
        <time>2018-06-19T10:10:44Z</time>
      </trkpt>
      <trkpt lat="45.92411" lon="4.73269">
        <ele>171</ele>
        <time>2018-06-19T10:10:45Z</time>
      </trkpt>
      <trkpt lat="45.92412" lon="4.73277">
        <ele>171</ele>
        <time>2018-06-19T10:10:46Z</time>
      </trkpt>
      <trkpt lat="45.92413" lon="4.73283">
        <ele>171</ele>
        <time>2018-06-19T10:10:47Z</time>
      </trkpt>
      <trkpt lat="45.92413" lon="4.73291">
        <ele>171</ele>
        <time>2018-06-19T10:10:48Z</time>
      </trkpt>
      <trkpt lat="45.92413" lon="4.733">
        <ele>171</ele>
        <time>2018-06-19T10:10:49Z</time>
      </trkpt>
      <trkpt lat="45.92414" lon="4.73308">
        <ele>171</ele>
        <time>2018-06-19T10:10:50Z</time>
      </trkpt>
      <trkpt lat="45.92414" lon="4.73316">
        <ele>171</ele>
        <time>2018-06-19T10:10:51Z</time>
      </trkpt>
      <trkpt lat="45.92415" lon="4.73326">
        <ele>171</ele>
        <time>2018-06-19T10:10:52Z</time>
      </trkpt>
      <trkpt lat="45.92415" lon="4.73333">
        <ele>171</ele>
        <time>2018-06-19T10:10:53Z</time>
      </trkpt>
      <trkpt lat="45.92416" lon="4.73341">
        <ele>171</ele>
        <time>2018-06-19T10:10:54Z</time>
      </trkpt>
      <trkpt lat="45.92417" lon="4.73348">
        <ele>171</ele>
        <time>2018-06-19T10:10:55Z</time>
      </trkpt>
      <trkpt lat="45.92418" lon="4.73356">
        <ele>171</ele>
        <time>2018-06-19T10:10:56Z</time>
      </trkpt>
      <trkpt lat="45.9242" lon="4.73364">
        <ele>172</ele>
        <time>2018-06-19T10:10:57Z</time>
      </trkpt>
      <trkpt lat="45.92421" lon="4.73372">
        <ele>172</ele>
        <time>2018-06-19T10:10:58Z</time>
      </trkpt>
      <trkpt lat="45.92423" lon="4.73381">
        <ele>172</ele>
        <time>2018-06-19T10:10:59Z</time>
      </trkpt>
      <trkpt lat="45.92425" lon="4.73389">
        <ele>172</ele>
        <time>2018-06-19T10:11:00Z</time>
      </trkpt>
      <trkpt lat="45.92427" lon="4.73397">
        <ele>172</ele>
        <time>2018-06-19T10:11:01Z</time>
      </trkpt>
      <trkpt lat="45.9243" lon="4.73403">
        <ele>172</ele>
        <time>2018-06-19T10:11:02Z</time>
      </trkpt>
      <trkpt lat="45.92437" lon="4.73411">
        <ele>172</ele>
        <time>2018-06-19T10:11:04Z</time>
      </trkpt>
      <trkpt lat="45.9244" lon="4.73414">
        <ele>172</ele>
        <time>2018-06-19T10:11:05Z</time>
      </trkpt>
      <trkpt lat="45.92443" lon="4.73416">
        <ele>172</ele>
        <time>2018-06-19T10:11:06Z</time>
      </trkpt>
      <trkpt lat="45.92448" lon="4.7342">
        <ele>173</ele>
        <time>2018-06-19T10:11:07Z</time>
      </trkpt>
      <trkpt lat="45.92453" lon="4.73428">
        <ele>173</ele>
        <time>2018-06-19T10:11:09Z</time>
      </trkpt>
      <trkpt lat="45.92456" lon="4.73433">
        <ele>173</ele>
        <time>2018-06-19T10:11:10Z</time>
      </trkpt>
      <trkpt lat="45.92458" lon="4.7344">
        <ele>173</ele>
        <time>2018-06-19T10:11:11Z</time>
      </trkpt>
      <trkpt lat="45.92461" lon="4.73447">
        <ele>173</ele>
        <time>2018-06-19T10:11:12Z</time>
      </trkpt>
      <trkpt lat="45.92462" lon="4.73455">
        <ele>173</ele>
        <time>2018-06-19T10:11:13Z</time>
      </trkpt>
      <trkpt lat="45.92464" lon="4.73462">
        <ele>173</ele>
        <time>2018-06-19T10:11:14Z</time>
      </trkpt>
      <trkpt lat="45.92464" lon="4.73471">
        <ele>173</ele>
        <time>2018-06-19T10:11:15Z</time>
      </trkpt>
      <trkpt lat="45.92464" lon="4.73478">
        <ele>173</ele>
        <time>2018-06-19T10:11:16Z</time>
      </trkpt>
      <trkpt lat="45.92464" lon="4.73485">
        <ele>173</ele>
        <time>2018-06-19T10:11:17Z</time>
      </trkpt>
      <trkpt lat="45.92464" lon="4.73493">
        <ele>173</ele>
        <time>2018-06-19T10:11:18Z</time>
      </trkpt>
      <trkpt lat="45.92464" lon="4.73501">
        <ele>174</ele>
        <time>2018-06-19T10:11:19Z</time>
      </trkpt>
      <trkpt lat="45.92465" lon="4.73506">
        <ele>174</ele>
        <time>2018-06-19T10:11:20Z</time>
      </trkpt>
      <trkpt lat="45.92464" lon="4.73518">
        <ele>174</ele>
        <time>2018-06-19T10:11:22Z</time>
      </trkpt>
      <trkpt lat="45.92464" lon="4.73525">
        <ele>174</ele>
        <time>2018-06-19T10:11:23Z</time>
      </trkpt>
      <trkpt lat="45.92464" lon="4.73537">
        <ele>174</ele>
        <time>2018-06-19T10:11:25Z</time>
      </trkpt>
      <trkpt lat="45.92465" lon="4.73543">
        <ele>173</ele>
        <time>2018-06-19T10:11:26Z</time>
      </trkpt>
      <trkpt lat="45.92465" lon="4.73549">
        <ele>173</ele>
        <time>2018-06-19T10:11:27Z</time>
      </trkpt>
      <trkpt lat="45.92465" lon="4.73556">
        <ele>173</ele>
        <time>2018-06-19T10:11:28Z</time>
      </trkpt>
      <trkpt lat="45.92465" lon="4.73562">
        <ele>173</ele>
        <time>2018-06-19T10:11:29Z</time>
      </trkpt>
      <trkpt lat="45.92465" lon="4.7357">
        <ele>173</ele>
        <time>2018-06-19T10:11:30Z</time>
      </trkpt>
      <trkpt lat="45.92466" lon="4.73577">
        <ele>173</ele>
        <time>2018-06-19T10:11:31Z</time>
      </trkpt>
      <trkpt lat="45.92466" lon="4.73586">
        <ele>174</ele>
        <time>2018-06-19T10:11:32Z</time>
      </trkpt>
      <trkpt lat="45.92466" lon="4.73592">
        <ele>174</ele>
        <time>2018-06-19T10:11:33Z</time>
      </trkpt>
      <trkpt lat="45.92466" lon="4.73601">
        <ele>174</ele>
        <time>2018-06-19T10:11:34Z</time>
      </trkpt>
      <trkpt lat="45.92466" lon="4.7361">
        <ele>174</ele>
        <time>2018-06-19T10:11:35Z</time>
      </trkpt>
      <trkpt lat="45.92468" lon="4.73618">
        <ele>174</ele>
        <time>2018-06-19T10:11:36Z</time>
      </trkpt>
      <trkpt lat="45.92469" lon="4.73626">
        <ele>174</ele>
        <time>2018-06-19T10:11:37Z</time>
      </trkpt>
      <trkpt lat="45.92469" lon="4.73633">
        <ele>174</ele>
        <time>2018-06-19T10:11:38Z</time>
      </trkpt>
      <trkpt lat="45.92468" lon="4.73642">
        <ele>174</ele>
        <time>2018-06-19T10:11:39Z</time>
      </trkpt>
      <trkpt lat="45.92467" lon="4.73649">
        <ele>174</ele>
        <time>2018-06-19T10:11:40Z</time>
      </trkpt>
      <trkpt lat="45.92467" lon="4.73656">
        <ele>174</ele>
        <time>2018-06-19T10:11:41Z</time>
      </trkpt>
      <trkpt lat="45.92464" lon="4.73662">
        <ele>174</ele>
        <time>2018-06-19T10:11:42Z</time>
      </trkpt>
      <trkpt lat="45.92464" lon="4.73669">
        <ele>174</ele>
        <time>2018-06-19T10:11:43Z</time>
      </trkpt>
      <trkpt lat="45.92463" lon="4.73675">
        <ele>174</ele>
        <time>2018-06-19T10:11:44Z</time>
      </trkpt>
      <trkpt lat="45.92463" lon="4.73682">
        <ele>174</ele>
        <time>2018-06-19T10:11:45Z</time>
      </trkpt>
      <trkpt lat="45.92463" lon="4.73689">
        <ele>174</ele>
        <time>2018-06-19T10:11:46Z</time>
      </trkpt>
      <trkpt lat="45.92462" lon="4.73701">
        <ele>174</ele>
        <time>2018-06-19T10:11:49Z</time>
      </trkpt>
      <trkpt lat="45.92462" lon="4.73703">
        <ele>174</ele>
        <time>2018-06-19T10:11:50Z</time>
      </trkpt>
      <trkpt lat="45.92462" lon="4.73705">
        <ele>174</ele>
        <time>2018-06-19T10:11:51Z</time>
      </trkpt>
      <trkpt lat="45.92461" lon="4.73706">
        <ele>174</ele>
        <time>2018-06-19T10:11:52Z</time>
      </trkpt>
      <trkpt lat="45.92462" lon="4.73709">
        <ele>174</ele>
        <time>2018-06-19T10:12:01Z</time>
      </trkpt>
      <trkpt lat="45.92462" lon="4.73709">
        <ele>174</ele>
        <time>2018-06-19T10:12:02Z</time>
      </trkpt>
      <trkpt lat="45.92459" lon="4.7371">
        <ele>174</ele>
        <time>2018-06-19T10:12:31.237Z</time>
      </trkpt>
    </trkseg>
  </trk>
</gpx>